<?xml version="1.0" encoding="UTF-8" standalone="yes"?>
<gpx
 xmlns="http://www.topografix.com/GPX/1/1"
 creator="OziExplorer Version 3955m - http://www.oziexplorer.com"
 version="1.1"
 xmlns:xsi="http://www.w3.org/2001/XMLSchema-instance"
 xsi:schemaLocation="http://www.topografix.com/GPX/1/1 http://www.topografix.com/GPX/1/1/gpx.xsd">
<metadata>
 <time>2012-09-04T17:01:38Z</time>
 <bounds minlat="43.103255" minlon="-3.014642" maxlat="43.203513" maxlon="-2.897504"/>
</metadata>
<trk>
 <name>Track azkena</name>
 <desc>ACTIVE LOG</desc>
<trkseg>
<trkpt lat="43.1435900" lon="-2.9630400">
<ele>130.881119</ele>
<time>2009-08-02T06:00:58.000Z</time>
</trkpt>
<trkpt lat="43.1436000" lon="-2.9630500">
<ele>130.881119</ele>
<time>2009-08-02T06:00:59.003Z</time>
</trkpt>
<trkpt lat="43.1435200" lon="-2.9630100">
<ele>127.985519</ele>
<time>2009-08-02T06:01:03.003Z</time>
</trkpt>
<trkpt lat="43.1435000" lon="-2.9629600">
<ele>128.960876</ele>
<time>2009-08-02T06:01:19.004Z</time>
</trkpt>
<trkpt lat="43.1435000" lon="-2.9629500">
<ele>128.960876</ele>
<time>2009-08-02T06:01:19.998Z</time>
</trkpt>
<trkpt lat="43.1435400" lon="-2.9628800">
<ele>128.473206</ele>
<time>2009-08-02T06:01:27.998Z</time>
</trkpt>
<trkpt lat="43.1435900" lon="-2.9628600">
<ele>127.497833</ele>
<time>2009-08-02T06:01:31.999Z</time>
</trkpt>
<trkpt lat="43.1436400" lon="-2.9628100">
<ele>128.473206</ele>
<time>2009-08-02T06:01:38.004Z</time>
</trkpt>
<trkpt lat="43.1436500" lon="-2.9626800">
<ele>127.497833</ele>
<time>2009-08-02T06:01:50.998Z</time>
</trkpt>
<trkpt lat="43.1436900" lon="-2.9626600">
<ele>128.473206</ele>
<time>2009-08-02T06:02:09.997Z</time>
</trkpt>
<trkpt lat="43.1437000" lon="-2.9626700">
<ele>128.473206</ele>
<time>2009-08-02T06:02:11.000Z</time>
</trkpt>
<trkpt lat="43.1438200" lon="-2.9628800">
<ele>128.960876</ele>
<time>2009-08-02T06:02:28.003Z</time>
</trkpt>
<trkpt lat="43.1439400" lon="-2.9630500">
<ele>129.448563</ele>
<time>2009-08-02T06:02:40.004Z</time>
</trkpt>
<trkpt lat="43.1440400" lon="-2.9631600">
<ele>129.448563</ele>
<time>2009-08-02T06:02:51.996Z</time>
</trkpt>
<trkpt lat="43.1441300" lon="-2.9632700">
<ele>129.448563</ele>
<time>2009-08-02T06:03:03.004Z</time>
</trkpt>
<trkpt lat="43.1441500" lon="-2.9633300">
<ele>129.905762</ele>
<time>2009-08-02T06:03:09.000Z</time>
</trkpt>
<trkpt lat="43.1441900" lon="-2.9634400">
<ele>129.448563</ele>
<time>2009-08-02T06:03:17.001Z</time>
</trkpt>
<trkpt lat="43.1442700" lon="-2.9635700">
<ele>129.448563</ele>
<time>2009-08-02T06:03:26.997Z</time>
</trkpt>
<trkpt lat="43.1445200" lon="-2.9635100">
<ele>129.905762</ele>
<time>2009-08-02T06:03:44.001Z</time>
</trkpt>
<trkpt lat="43.1446800" lon="-2.9634200">
<ele>130.393433</ele>
<time>2009-08-02T06:03:57.997Z</time>
</trkpt>
<trkpt lat="43.1447900" lon="-2.9633300">
<ele>130.881119</ele>
<time>2009-08-02T06:04:11.001Z</time>
</trkpt>
<trkpt lat="43.1448500" lon="-2.9633000">
<ele>130.393433</ele>
<time>2009-08-02T06:04:13.999Z</time>
</trkpt>
<trkpt lat="43.1449600" lon="-2.9632700">
<ele>130.881119</ele>
<time>2009-08-02T06:04:17.999Z</time>
</trkpt>
<trkpt lat="43.1450400" lon="-2.9632500">
<ele>130.881119</ele>
<time>2009-08-02T06:04:21.999Z</time>
</trkpt>
<trkpt lat="43.1450900" lon="-2.9632600">
<ele>132.801361</ele>
<time>2009-08-02T06:04:38.001Z</time>
</trkpt>
<trkpt lat="43.1451900" lon="-2.9632700">
<ele>133.746231</ele>
<time>2009-08-02T06:04:47.997Z</time>
</trkpt>
<trkpt lat="43.1453400" lon="-2.9632100">
<ele>134.721603</ele>
<time>2009-08-02T06:05:01.000Z</time>
</trkpt>
<trkpt lat="43.1453700" lon="-2.9631900">
<ele>135.209274</ele>
<time>2009-08-02T06:05:05.001Z</time>
</trkpt>
<trkpt lat="43.1455800" lon="-2.9631500">
<ele>137.617203</ele>
<time>2009-08-02T06:05:20.000Z</time>
</trkpt>
<trkpt lat="43.1457300" lon="-2.9630800">
<ele>139.537430</ele>
<time>2009-08-02T06:05:30.998Z</time>
</trkpt>
<trkpt lat="43.1458100" lon="-2.9629500">
<ele>140.482315</ele>
<time>2009-08-02T06:05:38.999Z</time>
</trkpt>
<trkpt lat="43.1460100" lon="-2.9629700">
<ele>142.402557</ele>
<time>2009-08-02T06:05:49.998Z</time>
</trkpt>
<trkpt lat="43.1460800" lon="-2.9629800">
<ele>142.890244</ele>
<time>2009-08-02T06:05:53.998Z</time>
</trkpt>
<trkpt lat="43.1461800" lon="-2.9629800">
<ele>143.865601</ele>
<time>2009-08-02T06:06:00.003Z</time>
</trkpt>
<trkpt lat="43.1462400" lon="-2.9629300">
<ele>144.810486</ele>
<time>2009-08-02T06:06:04.997Z</time>
</trkpt>
<trkpt lat="43.1463200" lon="-2.9628200">
<ele>146.243042</ele>
<time>2009-08-02T06:06:14.000Z</time>
</trkpt>
<trkpt lat="43.1464100" lon="-2.9628000">
<ele>147.218399</ele>
<time>2009-08-02T06:06:19.996Z</time>
</trkpt>
<trkpt lat="43.1464400" lon="-2.9627100">
<ele>147.706085</ele>
<time>2009-08-02T06:06:24.998Z</time>
</trkpt>
<trkpt lat="43.1466300" lon="-2.9626900">
<ele>149.138641</ele>
<time>2009-08-02T06:06:35.997Z</time>
</trkpt>
<trkpt lat="43.1467600" lon="-2.9626100">
<ele>150.113998</ele>
<time>2009-08-02T06:06:46.002Z</time>
</trkpt>
<trkpt lat="43.1469400" lon="-2.9624100">
<ele>152.979111</ele>
<time>2009-08-02T06:07:05.002Z</time>
</trkpt>
<trkpt lat="43.1469700" lon="-2.9623800">
<ele>153.466797</ele>
<time>2009-08-02T06:07:08.000Z</time>
</trkpt>
<trkpt lat="43.1470100" lon="-2.9623300">
<ele>153.466797</ele>
<time>2009-08-02T06:07:12.000Z</time>
</trkpt>
<trkpt lat="43.1471700" lon="-2.9621400">
<ele>155.874725</ele>
<time>2009-08-02T06:07:29.997Z</time>
</trkpt>
<trkpt lat="43.1473200" lon="-2.9619200">
<ele>157.794968</ele>
<time>2009-08-02T06:07:48.003Z</time>
</trkpt>
<trkpt lat="43.1474700" lon="-2.9617400">
<ele>158.739838</ele>
<time>2009-08-02T06:08:04.004Z</time>
</trkpt>
<trkpt lat="43.1476500" lon="-2.9614700">
<ele>159.227524</ele>
<time>2009-08-02T06:08:24.999Z</time>
</trkpt>
<trkpt lat="43.1478500" lon="-2.9612300">
<ele>161.147766</ele>
<time>2009-08-02T06:08:46.003Z</time>
</trkpt>
<trkpt lat="43.1480000" lon="-2.9611500">
<ele>162.123123</ele>
<time>2009-08-02T06:08:58.998Z</time>
</trkpt>
<trkpt lat="43.1480300" lon="-2.9611200">
<ele>163.067993</ele>
<time>2009-08-02T06:09:02.998Z</time>
</trkpt>
<trkpt lat="43.1482800" lon="-2.9610100">
<ele>165.475922</ele>
<time>2009-08-02T06:09:24.002Z</time>
</trkpt>
<trkpt lat="43.1485000" lon="-2.9609500">
<ele>167.883835</ele>
<time>2009-08-02T06:09:41.999Z</time>
</trkpt>
<trkpt lat="43.1486900" lon="-2.9609200">
<ele>170.779434</ele>
<time>2009-08-02T06:09:59.003Z</time>
</trkpt>
<trkpt lat="43.1489000" lon="-2.9608800">
<ele>173.187363</ele>
<time>2009-08-02T06:10:17.000Z</time>
</trkpt>
<trkpt lat="43.1490400" lon="-2.9607800">
<ele>174.619934</ele>
<time>2009-08-02T06:10:33.001Z</time>
</trkpt>
<trkpt lat="43.1490300" lon="-2.9607400">
<ele>175.564804</ele>
<time>2009-08-02T06:10:35.999Z</time>
</trkpt>
<trkpt lat="43.1488500" lon="-2.9605800">
<ele>177.515533</ele>
<time>2009-08-02T06:10:54.998Z</time>
</trkpt>
<trkpt lat="43.1486700" lon="-2.9603900">
<ele>177.972733</ele>
<time>2009-08-02T06:11:13.004Z</time>
</trkpt>
<trkpt lat="43.1486100" lon="-2.9600800">
<ele>179.435760</ele>
<time>2009-08-02T06:11:32.997Z</time>
</trkpt>
<trkpt lat="43.1486200" lon="-2.9600700">
<ele>178.948074</ele>
<time>2009-08-02T06:11:33.999Z</time>
</trkpt>
<trkpt lat="43.1486300" lon="-2.9600000">
<ele>179.435760</ele>
<time>2009-08-02T06:11:38.000Z</time>
</trkpt>
<trkpt lat="43.1486500" lon="-2.9599800">
<ele>179.892960</ele>
<time>2009-08-02T06:11:40.004Z</time>
</trkpt>
<trkpt lat="43.1486900" lon="-2.9598200">
<ele>180.380630</ele>
<time>2009-08-02T06:11:48.998Z</time>
</trkpt>
<trkpt lat="43.1488100" lon="-2.9595500">
<ele>180.868332</ele>
<time>2009-08-02T06:12:06.002Z</time>
</trkpt>
<trkpt lat="43.1489700" lon="-2.9592900">
<ele>179.435760</ele>
<time>2009-08-02T06:12:25.001Z</time>
</trkpt>
<trkpt lat="43.1491500" lon="-2.9591300">
<ele>179.892960</ele>
<time>2009-08-02T06:12:41.996Z</time>
</trkpt>
<trkpt lat="43.1492200" lon="-2.9590900">
<ele>179.892960</ele>
<time>2009-08-02T06:12:49.997Z</time>
</trkpt>
<trkpt lat="43.1492900" lon="-2.9590400">
<ele>179.892960</ele>
<time>2009-08-02T06:12:56.002Z</time>
</trkpt>
<trkpt lat="43.1494200" lon="-2.9589200">
<ele>179.892960</ele>
<time>2009-08-02T06:13:08.996Z</time>
</trkpt>
<trkpt lat="43.1496100" lon="-2.9587800">
<ele>180.380630</ele>
<time>2009-08-02T06:13:23.002Z</time>
</trkpt>
<trkpt lat="43.1497000" lon="-2.9587100">
<ele>181.356003</ele>
<time>2009-08-02T06:13:30.000Z</time>
</trkpt>
<trkpt lat="43.1498300" lon="-2.9586400">
<ele>180.868332</ele>
<time>2009-08-02T06:13:39.996Z</time>
</trkpt>
<trkpt lat="43.1498700" lon="-2.9586000">
<ele>180.868332</ele>
<time>2009-08-02T06:13:43.997Z</time>
</trkpt>
<trkpt lat="43.1500700" lon="-2.9585200">
<ele>181.356003</ele>
<time>2009-08-02T06:13:58.996Z</time>
</trkpt>
<trkpt lat="43.1501400" lon="-2.9584000">
<ele>181.813202</ele>
<time>2009-08-02T06:14:07.999Z</time>
</trkpt>
<trkpt lat="43.1502500" lon="-2.9582600">
<ele>183.276230</ele>
<time>2009-08-02T06:14:20.000Z</time>
</trkpt>
<trkpt lat="43.1504200" lon="-2.9581200">
<ele>184.708801</ele>
<time>2009-08-02T06:14:34.999Z</time>
</trkpt>
<trkpt lat="43.1504400" lon="-2.9580700">
<ele>185.196472</ele>
<time>2009-08-02T06:14:37.997Z</time>
</trkpt>
<trkpt lat="43.1505500" lon="-2.9580500">
<ele>186.141357</ele>
<time>2009-08-02T06:14:47.000Z</time>
</trkpt>
<trkpt lat="43.1506700" lon="-2.9580000">
<ele>187.604401</ele>
<time>2009-08-02T06:14:57.998Z</time>
</trkpt>
<trkpt lat="43.1508100" lon="-2.9579700">
<ele>189.036957</ele>
<time>2009-08-02T06:15:08.997Z</time>
</trkpt>
<trkpt lat="43.1508400" lon="-2.9579700">
<ele>189.524643</ele>
<time>2009-08-02T06:15:11.002Z</time>
</trkpt>
<trkpt lat="43.1509500" lon="-2.9579100">
<ele>190.469528</ele>
<time>2009-08-02T06:15:20.998Z</time>
</trkpt>
<trkpt lat="43.1510100" lon="-2.9578600">
<ele>192.389771</ele>
<time>2009-08-02T06:15:27.996Z</time>
</trkpt>
<trkpt lat="43.1511600" lon="-2.9578500">
<ele>194.309998</ele>
<time>2009-08-02T06:15:42.002Z</time>
</trkpt>
<trkpt lat="43.1511800" lon="-2.9578500">
<ele>194.309998</ele>
<time>2009-08-02T06:15:43.998Z</time>
</trkpt>
<trkpt lat="43.1513700" lon="-2.9578800">
<ele>196.717926</ele>
<time>2009-08-02T06:15:58.997Z</time>
</trkpt>
<trkpt lat="43.1515700" lon="-2.9579200">
<ele>198.638168</ele>
<time>2009-08-02T06:16:16.000Z</time>
</trkpt>
<trkpt lat="43.1516600" lon="-2.9579100">
<ele>200.101196</ele>
<time>2009-08-02T06:16:24.001Z</time>
</trkpt>
<trkpt lat="43.1518600" lon="-2.9580300">
<ele>201.533768</ele>
<time>2009-08-02T06:16:39.000Z</time>
</trkpt>
<trkpt lat="43.1519400" lon="-2.9580400">
<ele>202.509125</ele>
<time>2009-08-02T06:16:44.996Z</time>
</trkpt>
<trkpt lat="43.1520800" lon="-2.9580600">
<ele>203.453995</ele>
<time>2009-08-02T06:16:56.004Z</time>
</trkpt>
<trkpt lat="43.1522500" lon="-2.9581000">
<ele>206.349594</ele>
<time>2009-08-02T06:17:10.000Z</time>
</trkpt>
<trkpt lat="43.1524300" lon="-2.9581500">
<ele>207.782166</ele>
<time>2009-08-02T06:17:26.002Z</time>
</trkpt>
<trkpt lat="43.1526400" lon="-2.9582200">
<ele>209.702393</ele>
<time>2009-08-02T06:17:43.999Z</time>
</trkpt>
<trkpt lat="43.1528600" lon="-2.9583000">
<ele>211.134964</ele>
<time>2009-08-02T06:18:02.998Z</time>
</trkpt>
<trkpt lat="43.1529800" lon="-2.9583400">
<ele>213.542877</ele>
<time>2009-08-02T06:18:14.999Z</time>
</trkpt>
<trkpt lat="43.1531900" lon="-2.9583800">
<ele>215.463135</ele>
<time>2009-08-02T06:18:33.998Z</time>
</trkpt>
<trkpt lat="43.1532300" lon="-2.9583900">
<ele>215.950806</ele>
<time>2009-08-02T06:18:37.999Z</time>
</trkpt>
<trkpt lat="43.1533400" lon="-2.9585300">
<ele>218.846405</ele>
<time>2009-08-02T06:18:52.998Z</time>
</trkpt>
<trkpt lat="43.1534100" lon="-2.9587000">
<ele>220.766632</ele>
<time>2009-08-02T06:19:06.001Z</time>
</trkpt>
<trkpt lat="43.1534900" lon="-2.9589000">
<ele>223.174561</ele>
<time>2009-08-02T06:19:22.002Z</time>
</trkpt>
<trkpt lat="43.1535400" lon="-2.9590300">
<ele>226.039673</ele>
<time>2009-08-02T06:19:34.997Z</time>
</trkpt>
<trkpt lat="43.1535600" lon="-2.9590700">
<ele>226.527359</ele>
<time>2009-08-02T06:19:38.004Z</time>
</trkpt>
<trkpt lat="43.1535900" lon="-2.9591800">
<ele>227.502731</ele>
<time>2009-08-02T06:19:44.000Z</time>
</trkpt>
<trkpt lat="43.1536700" lon="-2.9594000">
<ele>230.367844</ele>
<time>2009-08-02T06:20:00.001Z</time>
</trkpt>
<trkpt lat="43.1537300" lon="-2.9596200">
<ele>231.343201</ele>
<time>2009-08-02T06:20:13.998Z</time>
</trkpt>
<trkpt lat="43.1538500" lon="-2.9598800">
<ele>232.288071</ele>
<time>2009-08-02T06:20:32.997Z</time>
</trkpt>
<trkpt lat="43.1539300" lon="-2.9599500">
<ele>235.183670</ele>
<time>2009-08-02T06:20:44.998Z</time>
</trkpt>
<trkpt lat="43.1541200" lon="-2.9600500">
<ele>237.591599</ele>
<time>2009-08-02T06:21:00.999Z</time>
</trkpt>
<trkpt lat="43.1542500" lon="-2.9600900">
<ele>240.456726</ele>
<time>2009-08-02T06:21:14.996Z</time>
</trkpt>
<trkpt lat="43.1543300" lon="-2.9601200">
<ele>243.352325</ele>
<time>2009-08-02T06:21:26.997Z</time>
</trkpt>
<trkpt lat="43.1544700" lon="-2.9601900">
<ele>245.760239</ele>
<time>2009-08-02T06:21:41.996Z</time>
</trkpt>
<trkpt lat="43.1545900" lon="-2.9602700">
<ele>246.247925</ele>
<time>2009-08-02T06:21:52.001Z</time>
</trkpt>
<trkpt lat="43.1546900" lon="-2.9603600">
<ele>247.192795</ele>
<time>2009-08-02T06:22:03.000Z</time>
</trkpt>
<trkpt lat="43.1547800" lon="-2.9605100">
<ele>249.600723</ele>
<time>2009-08-02T06:22:16.003Z</time>
</trkpt>
<trkpt lat="43.1548400" lon="-2.9605900">
<ele>252.496323</ele>
<time>2009-08-02T06:22:26.000Z</time>
</trkpt>
<trkpt lat="43.1549100" lon="-2.9606900">
<ele>254.873764</ele>
<time>2009-08-02T06:22:39.996Z</time>
</trkpt>
<trkpt lat="43.1550300" lon="-2.9607900">
<ele>257.281677</ele>
<time>2009-08-02T06:22:55.998Z</time>
</trkpt>
<trkpt lat="43.1551200" lon="-2.9608600">
<ele>260.664978</ele>
<time>2009-08-02T06:23:06.003Z</time>
</trkpt>
<trkpt lat="43.1552100" lon="-2.9609600">
<ele>262.585205</ele>
<time>2009-08-02T06:23:17.002Z</time>
</trkpt>
<trkpt lat="43.1553100" lon="-2.9611100">
<ele>264.505432</ele>
<time>2009-08-02T06:23:29.996Z</time>
</trkpt>
<trkpt lat="43.1554400" lon="-2.9612300">
<ele>267.370575</ele>
<time>2009-08-02T06:23:44.002Z</time>
</trkpt>
<trkpt lat="43.1555600" lon="-2.9613500">
<ele>269.778473</ele>
<time>2009-08-02T06:23:57.998Z</time>
</trkpt>
<trkpt lat="43.1556700" lon="-2.9614700">
<ele>272.186401</ele>
<time>2009-08-02T06:24:12.997Z</time>
</trkpt>
<trkpt lat="43.1557900" lon="-2.9615600">
<ele>274.594330</ele>
<time>2009-08-02T06:24:24.998Z</time>
</trkpt>
<trkpt lat="43.1559100" lon="-2.9616300">
<ele>277.002228</ele>
<time>2009-08-02T06:24:38.002Z</time>
</trkpt>
<trkpt lat="43.1560300" lon="-2.9617200">
<ele>278.922485</ele>
<time>2009-08-02T06:24:50.996Z</time>
</trkpt>
<trkpt lat="43.1561400" lon="-2.9616800">
<ele>280.842712</ele>
<time>2009-08-02T06:25:03.999Z</time>
</trkpt>
<trkpt lat="43.1561400" lon="-2.9615400">
<ele>284.683197</ele>
<time>2009-08-02T06:25:14.998Z</time>
</trkpt>
<trkpt lat="43.1561100" lon="-2.9613700">
<ele>288.066467</ele>
<time>2009-08-02T06:25:30.999Z</time>
</trkpt>
<trkpt lat="43.1561000" lon="-2.9612500">
<ele>289.499023</ele>
<time>2009-08-02T06:25:43.000Z</time>
</trkpt>
<trkpt lat="43.1561200" lon="-2.9611100">
<ele>292.851837</ele>
<time>2009-08-02T06:25:59.002Z</time>
</trkpt>
<trkpt lat="43.1560900" lon="-2.9609300">
<ele>294.314880</ele>
<time>2009-08-02T06:26:11.003Z</time>
</trkpt>
<trkpt lat="43.1560900" lon="-2.9607400">
<ele>297.667664</ele>
<time>2009-08-02T06:26:23.997Z</time>
</trkpt>
<trkpt lat="43.1560800" lon="-2.9605800">
<ele>300.075592</ele>
<time>2009-08-02T06:26:34.996Z</time>
</trkpt>
<trkpt lat="43.1560600" lon="-2.9604400">
<ele>301.508179</ele>
<time>2009-08-02T06:26:45.001Z</time>
</trkpt>
<trkpt lat="43.1560700" lon="-2.9603000">
<ele>304.403778</ele>
<time>2009-08-02T06:26:57.002Z</time>
</trkpt>
<trkpt lat="43.1560800" lon="-2.9602200">
<ele>306.324005</ele>
<time>2009-08-02T06:27:04.000Z</time>
</trkpt>
<trkpt lat="43.1561200" lon="-2.9601000">
<ele>308.731934</ele>
<time>2009-08-02T06:27:16.001Z</time>
</trkpt>
<trkpt lat="43.1561200" lon="-2.9599400">
<ele>311.109375</ele>
<time>2009-08-02T06:27:27.000Z</time>
</trkpt>
<trkpt lat="43.1561900" lon="-2.9598300">
<ele>313.060059</ele>
<time>2009-08-02T06:27:39.001Z</time>
</trkpt>
<trkpt lat="43.1562600" lon="-2.9596900">
<ele>315.437531</ele>
<time>2009-08-02T06:27:51.002Z</time>
</trkpt>
<trkpt lat="43.1563300" lon="-2.9595500">
<ele>317.357758</ele>
<time>2009-08-02T06:28:03.003Z</time>
</trkpt>
<trkpt lat="43.1563500" lon="-2.9594200">
<ele>319.308472</ele>
<time>2009-08-02T06:28:12.999Z</time>
</trkpt>
<trkpt lat="43.1564000" lon="-2.9592600">
<ele>321.685913</ele>
<time>2009-08-02T06:28:25.000Z</time>
</trkpt>
<trkpt lat="43.1564100" lon="-2.9591100">
<ele>324.093842</ele>
<time>2009-08-02T06:28:34.003Z</time>
</trkpt>
<trkpt lat="43.1564100" lon="-2.9588900">
<ele>326.014069</ele>
<time>2009-08-02T06:28:46.998Z</time>
</trkpt>
<trkpt lat="43.1564300" lon="-2.9587300">
<ele>327.934326</ele>
<time>2009-08-02T06:28:58.999Z</time>
</trkpt>
<trkpt lat="43.1564600" lon="-2.9585700">
<ele>329.854553</ele>
<time>2009-08-02T06:29:11.000Z</time>
</trkpt>
<trkpt lat="43.1565200" lon="-2.9583700">
<ele>332.262482</ele>
<time>2009-08-02T06:29:24.996Z</time>
</trkpt>
<trkpt lat="43.1566100" lon="-2.9581800">
<ele>334.182739</ele>
<time>2009-08-02T06:29:39.002Z</time>
</trkpt>
<trkpt lat="43.1566500" lon="-2.9579900">
<ele>336.590668</ele>
<time>2009-08-02T06:29:52.999Z</time>
</trkpt>
<trkpt lat="43.1566800" lon="-2.9578300">
<ele>338.510864</ele>
<time>2009-08-02T06:30:03.997Z</time>
</trkpt>
<trkpt lat="43.1566900" lon="-2.9577800">
<ele>339.486267</ele>
<time>2009-08-02T06:30:07.998Z</time>
</trkpt>
<trkpt lat="43.1566900" lon="-2.9577400">
<ele>339.486267</ele>
<time>2009-08-02T06:30:10.002Z</time>
</trkpt>
<trkpt lat="43.1567000" lon="-2.9576600">
<ele>340.918793</ele>
<time>2009-08-02T06:30:14.996Z</time>
</trkpt>
<trkpt lat="43.1567600" lon="-2.9576100">
<ele>341.406464</ele>
<time>2009-08-02T06:30:18.996Z</time>
</trkpt>
<trkpt lat="43.1567800" lon="-2.9575400">
<ele>342.381866</ele>
<time>2009-08-02T06:30:25.001Z</time>
</trkpt>
<trkpt lat="43.1568700" lon="-2.9574000">
<ele>345.734650</ele>
<time>2009-08-02T06:30:38.998Z</time>
</trkpt>
<trkpt lat="43.1569500" lon="-2.9573000">
<ele>348.142548</ele>
<time>2009-08-02T06:30:49.997Z</time>
</trkpt>
<trkpt lat="43.1569700" lon="-2.9572600">
<ele>349.087463</ele>
<time>2009-08-02T06:30:53.997Z</time>
</trkpt>
<trkpt lat="43.1570400" lon="-2.9572000">
<ele>352.470734</ele>
<time>2009-08-02T06:31:04.002Z</time>
</trkpt>
<trkpt lat="43.1571200" lon="-2.9571000">
<ele>355.823517</ele>
<time>2009-08-02T06:31:20.004Z</time>
</trkpt>
<trkpt lat="43.1572600" lon="-2.9570400">
<ele>358.719116</ele>
<time>2009-08-02T06:31:35.996Z</time>
</trkpt>
<trkpt lat="43.1574200" lon="-2.9569800">
<ele>360.151672</ele>
<time>2009-08-02T06:31:55.998Z</time>
</trkpt>
<trkpt lat="43.1575600" lon="-2.9568900">
<ele>363.047272</ele>
<time>2009-08-02T06:32:13.001Z</time>
</trkpt>
<trkpt lat="43.1577000" lon="-2.9568100">
<ele>365.912415</ele>
<time>2009-08-02T06:32:28.000Z</time>
</trkpt>
<trkpt lat="43.1578300" lon="-2.9567300">
<ele>368.808014</ele>
<time>2009-08-02T06:32:41.004Z</time>
</trkpt>
<trkpt lat="43.1579600" lon="-2.9567100">
<ele>371.673126</ele>
<time>2009-08-02T06:32:55.000Z</time>
</trkpt>
<trkpt lat="43.1580900" lon="-2.9567500">
<ele>372.648468</ele>
<time>2009-08-02T06:33:05.999Z</time>
</trkpt>
<trkpt lat="43.1581800" lon="-2.9568100">
<ele>373.623840</ele>
<time>2009-08-02T06:33:14.000Z</time>
</trkpt>
<trkpt lat="43.1581900" lon="-2.9568400">
<ele>374.568726</ele>
<time>2009-08-02T06:33:16.004Z</time>
</trkpt>
<trkpt lat="43.1582100" lon="-2.9568800">
<ele>374.568726</ele>
<time>2009-08-02T06:33:19.002Z</time>
</trkpt>
<trkpt lat="43.1583100" lon="-2.9570200">
<ele>376.001282</ele>
<time>2009-08-02T06:33:31.003Z</time>
</trkpt>
<trkpt lat="43.1584400" lon="-2.9571400">
<ele>377.464325</ele>
<time>2009-08-02T06:33:45.000Z</time>
</trkpt>
<trkpt lat="43.1585900" lon="-2.9572600">
<ele>379.872253</ele>
<time>2009-08-02T06:34:02.004Z</time>
</trkpt>
<trkpt lat="43.1587000" lon="-2.9573000">
<ele>383.225067</ele>
<time>2009-08-02T06:34:13.996Z</time>
</trkpt>
<trkpt lat="43.1588000" lon="-2.9573400">
<ele>386.120667</ele>
<time>2009-08-02T06:34:25.997Z</time>
</trkpt>
<trkpt lat="43.1589400" lon="-2.9574200">
<ele>389.473450</ele>
<time>2009-08-02T06:34:40.002Z</time>
</trkpt>
<trkpt lat="43.1591300" lon="-2.9574900">
<ele>392.369049</ele>
<time>2009-08-02T06:34:57.999Z</time>
</trkpt>
<trkpt lat="43.1592500" lon="-2.9574600">
<ele>395.721863</ele>
<time>2009-08-02T06:35:11.003Z</time>
</trkpt>
<trkpt lat="43.1593200" lon="-2.9574100">
<ele>396.666718</ele>
<time>2009-08-02T06:35:26.002Z</time>
</trkpt>
<trkpt lat="43.1593700" lon="-2.9573600">
<ele>397.642059</ele>
<time>2009-08-02T06:35:42.996Z</time>
</trkpt>
<trkpt lat="43.1594600" lon="-2.9572600">
<ele>401.482544</ele>
<time>2009-08-02T06:35:56.000Z</time>
</trkpt>
<trkpt lat="43.1595100" lon="-2.9571900">
<ele>403.402802</ele>
<time>2009-08-02T06:36:05.003Z</time>
</trkpt>
<trkpt lat="43.1596000" lon="-2.9570700">
<ele>407.243286</ele>
<time>2009-08-02T06:36:16.001Z</time>
</trkpt>
<trkpt lat="43.1596700" lon="-2.9569000">
<ele>409.651215</ele>
<time>2009-08-02T06:36:31.000Z</time>
</trkpt>
<trkpt lat="43.1597300" lon="-2.9567300">
<ele>413.034485</ele>
<time>2009-08-02T06:36:44.997Z</time>
</trkpt>
<trkpt lat="43.1598000" lon="-2.9565500">
<ele>415.899597</ele>
<time>2009-08-02T06:37:00.998Z</time>
</trkpt>
<trkpt lat="43.1598300" lon="-2.9563900">
<ele>419.282867</ele>
<time>2009-08-02T06:37:14.002Z</time>
</trkpt>
<trkpt lat="43.1598900" lon="-2.9562000">
<ele>422.635681</ele>
<time>2009-08-02T06:37:27.998Z</time>
</trkpt>
<trkpt lat="43.1599600" lon="-2.9559700">
<ele>424.068268</ele>
<time>2009-08-02T06:37:44.000Z</time>
</trkpt>
<trkpt lat="43.1600100" lon="-2.9558400">
<ele>425.531281</ele>
<time>2009-08-02T06:37:53.996Z</time>
</trkpt>
<trkpt lat="43.1600800" lon="-2.9555500">
<ele>426.963867</ele>
<time>2009-08-02T06:38:13.004Z</time>
</trkpt>
<trkpt lat="43.1601000" lon="-2.9554900">
<ele>427.451538</ele>
<time>2009-08-02T06:38:17.998Z</time>
</trkpt>
<trkpt lat="43.1601600" lon="-2.9554200">
<ele>427.908722</ele>
<time>2009-08-02T06:38:23.001Z</time>
</trkpt>
<trkpt lat="43.1603100" lon="-2.9551400">
<ele>427.908722</ele>
<time>2009-08-02T06:38:40.998Z</time>
</trkpt>
<trkpt lat="43.1604200" lon="-2.9549000">
<ele>427.908722</ele>
<time>2009-08-02T06:38:56.999Z</time>
</trkpt>
<trkpt lat="43.1604600" lon="-2.9548000">
<ele>428.884064</ele>
<time>2009-08-02T06:39:03.997Z</time>
</trkpt>
<trkpt lat="43.1605200" lon="-2.9547200">
<ele>428.884064</ele>
<time>2009-08-02T06:39:10.996Z</time>
</trkpt>
<trkpt lat="43.1606500" lon="-2.9545300">
<ele>431.291992</ele>
<time>2009-08-02T06:39:27.999Z</time>
</trkpt>
<trkpt lat="43.1608300" lon="-2.9542900">
<ele>432.236877</ele>
<time>2009-08-02T06:39:45.003Z</time>
</trkpt>
<trkpt lat="43.1609900" lon="-2.9540400">
<ele>434.187592</ele>
<time>2009-08-02T06:40:04.002Z</time>
</trkpt>
<trkpt lat="43.1611300" lon="-2.9538300">
<ele>434.644806</ele>
<time>2009-08-02T06:40:20.004Z</time>
</trkpt>
<trkpt lat="43.1611600" lon="-2.9538000">
<ele>434.644806</ele>
<time>2009-08-02T06:40:21.999Z</time>
</trkpt>
<trkpt lat="43.1612700" lon="-2.9536500">
<ele>435.132477</ele>
<time>2009-08-02T06:40:31.996Z</time>
</trkpt>
<trkpt lat="43.1612800" lon="-2.9536000">
<ele>435.132477</ele>
<time>2009-08-02T06:40:35.003Z</time>
</trkpt>
<trkpt lat="43.1613700" lon="-2.9534800">
<ele>434.644806</ele>
<time>2009-08-02T06:40:43.003Z</time>
</trkpt>
<trkpt lat="43.1616000" lon="-2.9533300">
<ele>436.565063</ele>
<time>2009-08-02T06:41:02.003Z</time>
</trkpt>
<trkpt lat="43.1617900" lon="-2.9532200">
<ele>436.107849</ele>
<time>2009-08-02T06:41:18.997Z</time>
</trkpt>
<trkpt lat="43.1619100" lon="-2.9531200">
<ele>435.620148</ele>
<time>2009-08-02T06:41:29.996Z</time>
</trkpt>
<trkpt lat="43.1620500" lon="-2.9529800">
<ele>435.620148</ele>
<time>2009-08-02T06:41:44.002Z</time>
</trkpt>
<trkpt lat="43.1621900" lon="-2.9528600">
<ele>438.028076</ele>
<time>2009-08-02T06:41:59.001Z</time>
</trkpt>
<trkpt lat="43.1622700" lon="-2.9527700">
<ele>439.460663</ele>
<time>2009-08-02T06:42:07.001Z</time>
</trkpt>
<trkpt lat="43.1622900" lon="-2.9527300">
<ele>439.460663</ele>
<time>2009-08-02T06:42:09.999Z</time>
</trkpt>
<trkpt lat="43.1624500" lon="-2.9525600">
<ele>441.380859</ele>
<time>2009-08-02T06:42:27.996Z</time>
</trkpt>
<trkpt lat="43.1626200" lon="-2.9524500">
<ele>442.356262</ele>
<time>2009-08-02T06:42:42.002Z</time>
</trkpt>
<trkpt lat="43.1627300" lon="-2.9524100">
<ele>445.709045</ele>
<time>2009-08-02T06:42:50.996Z</time>
</trkpt>
<trkpt lat="43.1628700" lon="-2.9523700">
<ele>448.604645</ele>
<time>2009-08-02T06:43:05.002Z</time>
</trkpt>
<trkpt lat="43.1629200" lon="-2.9523100">
<ele>451.469757</ele>
<time>2009-08-02T06:43:17.003Z</time>
</trkpt>
<trkpt lat="43.1629800" lon="-2.9522500">
<ele>455.310242</ele>
<time>2009-08-02T06:43:29.004Z</time>
</trkpt>
<trkpt lat="43.1630500" lon="-2.9522000">
<ele>458.205841</ele>
<time>2009-08-02T06:43:44.003Z</time>
</trkpt>
<trkpt lat="43.1631100" lon="-2.9521600">
<ele>461.558655</ele>
<time>2009-08-02T06:43:56.004Z</time>
</trkpt>
<trkpt lat="43.1631900" lon="-2.9521400">
<ele>464.454254</ele>
<time>2009-08-02T06:44:10.000Z</time>
</trkpt>
<trkpt lat="43.1632500" lon="-2.9520700">
<ele>467.349854</ele>
<time>2009-08-02T06:44:23.004Z</time>
</trkpt>
<trkpt lat="43.1633100" lon="-2.9519700">
<ele>471.190338</ele>
<time>2009-08-02T06:44:35.998Z</time>
</trkpt>
<trkpt lat="43.1633900" lon="-2.9519200">
<ele>474.543121</ele>
<time>2009-08-02T06:44:50.004Z</time>
</trkpt>
<trkpt lat="43.1634600" lon="-2.9518600">
<ele>477.438721</ele>
<time>2009-08-02T06:45:04.000Z</time>
</trkpt>
<trkpt lat="43.1635300" lon="-2.9518500">
<ele>480.791534</ele>
<time>2009-08-02T06:45:17.004Z</time>
</trkpt>
<trkpt lat="43.1636100" lon="-2.9517900">
<ele>484.174805</ele>
<time>2009-08-02T06:45:32.003Z</time>
</trkpt>
<trkpt lat="43.1637100" lon="-2.9517400">
<ele>487.039917</ele>
<time>2009-08-02T06:45:47.002Z</time>
</trkpt>
<trkpt lat="43.1637900" lon="-2.9516800">
<ele>489.935516</ele>
<time>2009-08-02T06:46:00.998Z</time>
</trkpt>
<trkpt lat="43.1638700" lon="-2.9515800">
<ele>492.800659</ele>
<time>2009-08-02T06:46:15.997Z</time>
</trkpt>
<trkpt lat="43.1639500" lon="-2.9515100">
<ele>495.696259</ele>
<time>2009-08-02T06:46:29.001Z</time>
</trkpt>
<trkpt lat="43.1640200" lon="-2.9514000">
<ele>499.049042</ele>
<time>2009-08-02T06:46:44.000Z</time>
</trkpt>
<trkpt lat="43.1640800" lon="-2.9513400">
<ele>501.944641</ele>
<time>2009-08-02T06:46:54.998Z</time>
</trkpt>
<trkpt lat="43.1641300" lon="-2.9512500">
<ele>503.864868</ele>
<time>2009-08-02T06:47:05.997Z</time>
</trkpt>
<trkpt lat="43.1642400" lon="-2.9511400">
<ele>506.760468</ele>
<time>2009-08-02T06:47:21.998Z</time>
</trkpt>
<trkpt lat="43.1643900" lon="-2.9510100">
<ele>510.113281</ele>
<time>2009-08-02T06:47:40.004Z</time>
</trkpt>
<trkpt lat="43.1644700" lon="-2.9509100">
<ele>512.033508</ele>
<time>2009-08-02T06:47:51.996Z</time>
</trkpt>
<trkpt lat="43.1645500" lon="-2.9508400">
<ele>514.929138</ele>
<time>2009-08-02T06:48:03.997Z</time>
</trkpt>
<trkpt lat="43.1646200" lon="-2.9507700">
<ele>517.794250</ele>
<time>2009-08-02T06:48:15.998Z</time>
</trkpt>
<trkpt lat="43.1647100" lon="-2.9506800">
<ele>521.177551</ele>
<time>2009-08-02T06:48:26.997Z</time>
</trkpt>
<trkpt lat="43.1647800" lon="-2.9506400">
<ele>523.097717</ele>
<time>2009-08-02T06:48:34.998Z</time>
</trkpt>
<trkpt lat="43.1648700" lon="-2.9504500">
<ele>524.530334</ele>
<time>2009-08-02T06:48:49.997Z</time>
</trkpt>
<trkpt lat="43.1649700" lon="-2.9502700">
<ele>526.450562</ele>
<time>2009-08-02T06:49:04.996Z</time>
</trkpt>
<trkpt lat="43.1650800" lon="-2.9501000">
<ele>528.370789</ele>
<time>2009-08-02T06:49:20.997Z</time>
</trkpt>
<trkpt lat="43.1651000" lon="-2.9500700">
<ele>528.858459</ele>
<time>2009-08-02T06:49:23.002Z</time>
</trkpt>
<trkpt lat="43.1651400" lon="-2.9500300">
<ele>528.858459</ele>
<time>2009-08-02T06:49:28.004Z</time>
</trkpt>
<trkpt lat="43.1652900" lon="-2.9497800">
<ele>532.698975</ele>
<time>2009-08-02T06:49:48.999Z</time>
</trkpt>
<trkpt lat="43.1653900" lon="-2.9496500">
<ele>536.082275</ele>
<time>2009-08-02T06:50:02.996Z</time>
</trkpt>
<trkpt lat="43.1654700" lon="-2.9495400">
<ele>537.514771</ele>
<time>2009-08-02T06:50:15.999Z</time>
</trkpt>
<trkpt lat="43.1655300" lon="-2.9494000">
<ele>540.867615</ele>
<time>2009-08-02T06:50:32.001Z</time>
</trkpt>
<trkpt lat="43.1656600" lon="-2.9492500">
<ele>543.763184</ele>
<time>2009-08-02T06:50:48.002Z</time>
</trkpt>
<trkpt lat="43.1657100" lon="-2.9492300">
<ele>544.250854</ele>
<time>2009-08-02T06:50:51.000Z</time>
</trkpt>
<trkpt lat="43.1658000" lon="-2.9492000">
<ele>545.195740</ele>
<time>2009-08-02T06:50:57.998Z</time>
</trkpt>
<trkpt lat="43.1658800" lon="-2.9491600">
<ele>546.171143</ele>
<time>2009-08-02T06:51:03.001Z</time>
</trkpt>
<trkpt lat="43.1659400" lon="-2.9491300">
<ele>546.658813</ele>
<time>2009-08-02T06:51:08.004Z</time>
</trkpt>
<trkpt lat="43.1660500" lon="-2.9489800">
<ele>548.091370</ele>
<time>2009-08-02T06:51:22.000Z</time>
</trkpt>
<trkpt lat="43.1660900" lon="-2.9489600">
<ele>549.036255</ele>
<time>2009-08-02T06:51:28.999Z</time>
</trkpt>
<trkpt lat="43.1661500" lon="-2.9486500">
<ele>550.986938</ele>
<time>2009-08-02T06:51:49.000Z</time>
</trkpt>
<trkpt lat="43.1662700" lon="-2.9483800">
<ele>553.852051</ele>
<time>2009-08-02T06:52:08.000Z</time>
</trkpt>
<trkpt lat="43.1663400" lon="-2.9482900">
<ele>557.235352</ele>
<time>2009-08-02T06:52:18.998Z</time>
</trkpt>
<trkpt lat="43.1664700" lon="-2.9481700">
<ele>560.100464</ele>
<time>2009-08-02T06:52:36.002Z</time>
</trkpt>
<trkpt lat="43.1665000" lon="-2.9481400">
<ele>561.075867</ele>
<time>2009-08-02T06:52:40.002Z</time>
</trkpt>
<trkpt lat="43.1665300" lon="-2.9481000">
<ele>561.533081</ele>
<time>2009-08-02T06:52:44.003Z</time>
</trkpt>
<trkpt lat="43.1665800" lon="-2.9480400">
<ele>562.996094</ele>
<time>2009-08-02T06:52:51.001Z</time>
</trkpt>
<trkpt lat="43.1667200" lon="-2.9479000">
<ele>566.836548</ele>
<time>2009-08-02T06:53:07.996Z</time>
</trkpt>
<trkpt lat="43.1668700" lon="-2.9478000">
<ele>569.244446</ele>
<time>2009-08-02T06:53:23.004Z</time>
</trkpt>
<trkpt lat="43.1669900" lon="-2.9477500">
<ele>570.189331</ele>
<time>2009-08-02T06:53:29.000Z</time>
</trkpt>
<trkpt lat="43.1670900" lon="-2.9476800">
<ele>573.084961</ele>
<time>2009-08-02T06:53:42.003Z</time>
</trkpt>
<trkpt lat="43.1671800" lon="-2.9476200">
<ele>576.437744</ele>
<time>2009-08-02T06:53:54.004Z</time>
</trkpt>
<trkpt lat="43.1672800" lon="-2.9475600">
<ele>578.845642</ele>
<time>2009-08-02T06:54:05.996Z</time>
</trkpt>
<trkpt lat="43.1673600" lon="-2.9475400">
<ele>580.278259</ele>
<time>2009-08-02T06:54:14.999Z</time>
</trkpt>
<trkpt lat="43.1675000" lon="-2.9474400">
<ele>583.661499</ele>
<time>2009-08-02T06:54:31.000Z</time>
</trkpt>
<trkpt lat="43.1676100" lon="-2.9472900">
<ele>587.502014</ele>
<time>2009-08-02T06:54:47.002Z</time>
</trkpt>
<trkpt lat="43.1677100" lon="-2.9471600">
<ele>590.397583</ele>
<time>2009-08-02T06:55:02.001Z</time>
</trkpt>
<trkpt lat="43.1677200" lon="-2.9471400">
<ele>590.854797</ele>
<time>2009-08-02T06:55:03.996Z</time>
</trkpt>
<trkpt lat="43.1677700" lon="-2.9471200">
<ele>592.775024</ele>
<time>2009-08-02T06:55:10.001Z</time>
</trkpt>
<trkpt lat="43.1678500" lon="-2.9471000">
<ele>598.078552</ele>
<time>2009-08-02T06:55:18.002Z</time>
</trkpt>
<trkpt lat="43.1678600" lon="-2.9471000">
<ele>594.238098</ele>
<time>2009-08-02T06:55:19.004Z</time>
</trkpt>
<trkpt lat="43.1679800" lon="-2.9472300">
<ele>598.078552</ele>
<time>2009-08-02T06:55:34.003Z</time>
</trkpt>
<trkpt lat="43.1681000" lon="-2.9473900">
<ele>601.431335</ele>
<time>2009-08-02T06:55:50.998Z</time>
</trkpt>
<trkpt lat="43.1681300" lon="-2.9474200">
<ele>601.919067</ele>
<time>2009-08-02T06:55:54.998Z</time>
</trkpt>
<trkpt lat="43.1682900" lon="-2.9475700">
<ele>605.302307</ele>
<time>2009-08-02T06:56:13.004Z</time>
</trkpt>
<trkpt lat="43.1684500" lon="-2.9476900">
<ele>608.167480</ele>
<time>2009-08-02T06:56:31.001Z</time>
</trkpt>
<trkpt lat="43.1685800" lon="-2.9477700">
<ele>611.550720</ele>
<time>2009-08-02T06:56:44.998Z</time>
</trkpt>
<trkpt lat="43.1687300" lon="-2.9478900">
<ele>614.903503</ele>
<time>2009-08-02T06:57:03.004Z</time>
</trkpt>
<trkpt lat="43.1688500" lon="-2.9480300">
<ele>618.256348</ele>
<time>2009-08-02T06:57:18.996Z</time>
</trkpt>
<trkpt lat="43.1689600" lon="-2.9481500">
<ele>620.664246</ele>
<time>2009-08-02T06:57:34.004Z</time>
</trkpt>
<trkpt lat="43.1690700" lon="-2.9482500">
<ele>624.047546</ele>
<time>2009-08-02T06:57:48.001Z</time>
</trkpt>
<trkpt lat="43.1692000" lon="-2.9483500">
<ele>627.400269</ele>
<time>2009-08-02T06:58:03.000Z</time>
</trkpt>
<trkpt lat="43.1693200" lon="-2.9484900">
<ele>630.753113</ele>
<time>2009-08-02T06:58:19.001Z</time>
</trkpt>
<trkpt lat="43.1694200" lon="-2.9486100">
<ele>632.673340</ele>
<time>2009-08-02T06:58:32.998Z</time>
</trkpt>
<trkpt lat="43.1695200" lon="-2.9487000">
<ele>636.056641</ele>
<time>2009-08-02T06:58:46.001Z</time>
</trkpt>
<trkpt lat="43.1696500" lon="-2.9487800">
<ele>638.921753</ele>
<time>2009-08-02T06:59:02.003Z</time>
</trkpt>
<trkpt lat="43.1697500" lon="-2.9488300">
<ele>640.384827</ele>
<time>2009-08-02T06:59:10.997Z</time>
</trkpt>
<trkpt lat="43.1699500" lon="-2.9489000">
<ele>642.792664</ele>
<time>2009-08-02T06:59:28.000Z</time>
</trkpt>
<trkpt lat="43.1701600" lon="-2.9489300">
<ele>644.712952</ele>
<time>2009-08-02T06:59:47.000Z</time>
</trkpt>
<trkpt lat="43.1702200" lon="-2.9489300">
<ele>645.170166</ele>
<time>2009-08-02T06:59:51.000Z</time>
</trkpt>
<trkpt lat="43.1702900" lon="-2.9489600">
<ele>646.145508</ele>
<time>2009-08-02T06:59:56.996Z</time>
</trkpt>
<trkpt lat="43.1704900" lon="-2.9489300">
<ele>649.498291</ele>
<time>2009-08-02T07:00:14.000Z</time>
</trkpt>
<trkpt lat="43.1706700" lon="-2.9489300">
<ele>652.393860</ele>
<time>2009-08-02T07:00:30.001Z</time>
</trkpt>
<trkpt lat="43.1709200" lon="-2.9490000">
<ele>655.289490</ele>
<time>2009-08-02T07:00:50.996Z</time>
</trkpt>
<trkpt lat="43.1711000" lon="-2.9489900">
<ele>658.642273</ele>
<time>2009-08-02T07:01:06.004Z</time>
</trkpt>
<trkpt lat="43.1713000" lon="-2.9490800">
<ele>660.074890</ele>
<time>2009-08-02T07:01:24.001Z</time>
</trkpt>
<trkpt lat="43.1714800" lon="-2.9493300">
<ele>658.642273</ele>
<time>2009-08-02T07:01:44.003Z</time>
</trkpt>
<trkpt lat="43.1715400" lon="-2.9496600">
<ele>659.130005</ele>
<time>2009-08-02T07:02:04.004Z</time>
</trkpt>
<trkpt lat="43.1715500" lon="-2.9500000">
<ele>661.537903</ele>
<time>2009-08-02T07:02:23.997Z</time>
</trkpt>
<trkpt lat="43.1716500" lon="-2.9502300">
<ele>661.537903</ele>
<time>2009-08-02T07:02:39.998Z</time>
</trkpt>
<trkpt lat="43.1717200" lon="-2.9504600">
<ele>658.154663</ele>
<time>2009-08-02T07:02:54.004Z</time>
</trkpt>
<trkpt lat="43.1717200" lon="-2.9504800">
<ele>662.482788</ele>
<time>2009-08-02T07:02:54.997Z</time>
</trkpt>
<trkpt lat="43.1717200" lon="-2.9505100">
<ele>661.050232</ele>
<time>2009-08-02T07:02:57.002Z</time>
</trkpt>
<trkpt lat="43.1717600" lon="-2.9508100">
<ele>661.537903</ele>
<time>2009-08-02T07:03:14.999Z</time>
</trkpt>
<trkpt lat="43.1717600" lon="-2.9510500">
<ele>664.890686</ele>
<time>2009-08-02T07:03:32.003Z</time>
</trkpt>
<trkpt lat="43.1717500" lon="-2.9510700">
<ele>664.890686</ele>
<time>2009-08-02T07:03:32.996Z</time>
</trkpt>
<trkpt lat="43.1717400" lon="-2.9512000">
<ele>666.323303</ele>
<time>2009-08-02T07:03:41.999Z</time>
</trkpt>
<trkpt lat="43.1717200" lon="-2.9512500">
<ele>666.323303</ele>
<time>2009-08-02T07:03:44.997Z</time>
</trkpt>
<trkpt lat="43.1717100" lon="-2.9515100">
<ele>669.218933</ele>
<time>2009-08-02T07:04:02.001Z</time>
</trkpt>
<trkpt lat="43.1717300" lon="-2.9515400">
<ele>669.706543</ele>
<time>2009-08-02T07:04:04.999Z</time>
</trkpt>
<trkpt lat="43.1717200" lon="-2.9518300">
<ele>670.651428</ele>
<time>2009-08-02T07:04:22.996Z</time>
</trkpt>
<trkpt lat="43.1717500" lon="-2.9520100">
<ele>672.083984</ele>
<time>2009-08-02T07:04:35.999Z</time>
</trkpt>
<trkpt lat="43.1718300" lon="-2.9521800">
<ele>674.034668</ele>
<time>2009-08-02T07:04:52.000Z</time>
</trkpt>
<trkpt lat="43.1718400" lon="-2.9522200">
<ele>673.059326</ele>
<time>2009-08-02T07:04:54.998Z</time>
</trkpt>
<trkpt lat="43.1718500" lon="-2.9523700">
<ele>675.467285</ele>
<time>2009-08-02T07:05:06.999Z</time>
</trkpt>
<trkpt lat="43.1718300" lon="-2.9524700">
<ele>676.899841</ele>
<time>2009-08-02T07:05:13.998Z</time>
</trkpt>
<trkpt lat="43.1718500" lon="-2.9527200">
<ele>679.307739</ele>
<time>2009-08-02T07:05:29.999Z</time>
</trkpt>
<trkpt lat="43.1718500" lon="-2.9528600">
<ele>682.660522</ele>
<time>2009-08-02T07:05:40.998Z</time>
</trkpt>
<trkpt lat="43.1718300" lon="-2.9530000">
<ele>685.556152</ele>
<time>2009-08-02T07:05:52.999Z</time>
</trkpt>
<trkpt lat="43.1718500" lon="-2.9531500">
<ele>688.908936</ele>
<time>2009-08-02T07:06:06.002Z</time>
</trkpt>
<trkpt lat="43.1718900" lon="-2.9533000">
<ele>691.804565</ele>
<time>2009-08-02T07:06:18.996Z</time>
</trkpt>
<trkpt lat="43.1718900" lon="-2.9533100">
<ele>692.292236</ele>
<time>2009-08-02T07:06:19.999Z</time>
</trkpt>
<trkpt lat="43.1719000" lon="-2.9534400">
<ele>695.157349</ele>
<time>2009-08-02T07:06:30.997Z</time>
</trkpt>
<trkpt lat="43.1719100" lon="-2.9535300">
<ele>698.540649</ele>
<time>2009-08-02T07:06:41.003Z</time>
</trkpt>
<trkpt lat="43.1719300" lon="-2.9536700">
<ele>701.893433</ele>
<time>2009-08-02T07:06:56.002Z</time>
</trkpt>
<trkpt lat="43.1719400" lon="-2.9537900">
<ele>705.276672</ele>
<time>2009-08-02T07:07:09.998Z</time>
</trkpt>
<trkpt lat="43.1719500" lon="-2.9538900">
<ele>708.141846</ele>
<time>2009-08-02T07:07:23.002Z</time>
</trkpt>
<trkpt lat="43.1720100" lon="-2.9539000">
<ele>711.525085</ele>
<time>2009-08-02T07:07:35.996Z</time>
</trkpt>
<trkpt lat="43.1720700" lon="-2.9538800">
<ele>714.877869</ele>
<time>2009-08-02T07:07:48.999Z</time>
</trkpt>
<trkpt lat="43.1720100" lon="-2.9540300">
<ele>717.285828</ele>
<time>2009-08-02T07:08:06.996Z</time>
</trkpt>
<trkpt lat="43.1720300" lon="-2.9541400">
<ele>720.638672</ele>
<time>2009-08-02T07:08:21.002Z</time>
</trkpt>
<trkpt lat="43.1721300" lon="-2.9541900">
<ele>723.534241</ele>
<time>2009-08-02T07:08:34.999Z</time>
</trkpt>
<trkpt lat="43.1722100" lon="-2.9542200">
<ele>726.887085</ele>
<time>2009-08-02T07:08:47.000Z</time>
</trkpt>
<trkpt lat="43.1722600" lon="-2.9542200">
<ele>731.215210</ele>
<time>2009-08-02T07:09:00.003Z</time>
</trkpt>
<trkpt lat="43.1722600" lon="-2.9542200">
<ele>727.862427</ele>
<time>2009-08-02T07:09:00.996Z</time>
</trkpt>
<trkpt lat="43.1722800" lon="-2.9542700">
<ele>727.374695</ele>
<time>2009-08-02T07:09:12.004Z</time>
</trkpt>
<trkpt lat="43.1724100" lon="-2.9544800">
<ele>727.862427</ele>
<time>2009-08-02T07:09:31.003Z</time>
</trkpt>
<trkpt lat="43.1725800" lon="-2.9547200">
<ele>726.887085</ele>
<time>2009-08-02T07:09:51.998Z</time>
</trkpt>
<trkpt lat="43.1725900" lon="-2.9547300">
<ele>726.887085</ele>
<time>2009-08-02T07:09:53.001Z</time>
</trkpt>
<trkpt lat="43.1726300" lon="-2.9547700">
<ele>724.479065</ele>
<time>2009-08-02T07:09:57.001Z</time>
</trkpt>
<trkpt lat="43.1727000" lon="-2.9548600">
<ele>724.966797</ele>
<time>2009-08-02T07:10:05.002Z</time>
</trkpt>
<trkpt lat="43.1728500" lon="-2.9550500">
<ele>723.534241</ele>
<time>2009-08-02T07:10:21.996Z</time>
</trkpt>
<trkpt lat="43.1728700" lon="-2.9550600">
<ele>722.558899</ele>
<time>2009-08-02T07:10:25.003Z</time>
</trkpt>
<trkpt lat="43.1729600" lon="-2.9551800">
<ele>718.718384</ele>
<time>2009-08-02T07:10:33.997Z</time>
</trkpt>
<trkpt lat="43.1731900" lon="-2.9554500">
<ele>717.773499</ele>
<time>2009-08-02T07:10:56.997Z</time>
</trkpt>
<trkpt lat="43.1733600" lon="-2.9556500">
<ele>719.206116</ele>
<time>2009-08-02T07:11:15.003Z</time>
</trkpt>
<trkpt lat="43.1735200" lon="-2.9557600">
<ele>722.558899</ele>
<time>2009-08-02T07:11:31.004Z</time>
</trkpt>
<trkpt lat="43.1736500" lon="-2.9558500">
<ele>725.454529</ele>
<time>2009-08-02T07:11:43.999Z</time>
</trkpt>
<trkpt lat="43.1738000" lon="-2.9559600">
<ele>728.807312</ele>
<time>2009-08-02T07:12:00.000Z</time>
</trkpt>
<trkpt lat="43.1738800" lon="-2.9560400">
<ele>732.190552</ele>
<time>2009-08-02T07:12:10.999Z</time>
</trkpt>
<trkpt lat="43.1739300" lon="-2.9561500">
<ele>735.543335</ele>
<time>2009-08-02T07:12:23.000Z</time>
</trkpt>
<trkpt lat="43.1740000" lon="-2.9562100">
<ele>738.896118</ele>
<time>2009-08-02T07:12:35.001Z</time>
</trkpt>
<trkpt lat="43.1740300" lon="-2.9563100">
<ele>741.791748</ele>
<time>2009-08-02T07:12:47.002Z</time>
</trkpt>
<trkpt lat="43.1740700" lon="-2.9564200">
<ele>745.144531</ele>
<time>2009-08-02T07:12:59.003Z</time>
</trkpt>
<trkpt lat="43.1741500" lon="-2.9565600">
<ele>748.527832</ele>
<time>2009-08-02T07:13:15.004Z</time>
</trkpt>
<trkpt lat="43.1742100" lon="-2.9567100">
<ele>751.392944</ele>
<time>2009-08-02T07:13:30.003Z</time>
</trkpt>
<trkpt lat="43.1742700" lon="-2.9567600">
<ele>754.776245</ele>
<time>2009-08-02T07:13:39.999Z</time>
</trkpt>
<trkpt lat="43.1742900" lon="-2.9569000">
<ele>757.184143</ele>
<time>2009-08-02T07:13:53.996Z</time>
</trkpt>
<trkpt lat="43.1743200" lon="-2.9569700">
<ele>760.536926</ele>
<time>2009-08-02T07:14:04.001Z</time>
</trkpt>
<trkpt lat="43.1743200" lon="-2.9569700">
<ele>761.024658</ele>
<time>2009-08-02T07:14:05.004Z</time>
</trkpt>
<trkpt lat="43.1743200" lon="-2.9570500">
<ele>763.889771</ele>
<time>2009-08-02T07:14:17.998Z</time>
</trkpt>
<trkpt lat="43.1743300" lon="-2.9570800">
<ele>764.377441</ele>
<time>2009-08-02T07:14:20.996Z</time>
</trkpt>
<trkpt lat="43.1743700" lon="-2.9572000">
<ele>763.432556</ele>
<time>2009-08-02T07:14:29.999Z</time>
</trkpt>
<trkpt lat="43.1744200" lon="-2.9573800">
<ele>764.865112</ele>
<time>2009-08-02T07:14:43.996Z</time>
</trkpt>
<trkpt lat="43.1744700" lon="-2.9576400">
<ele>766.785339</ele>
<time>2009-08-02T07:15:03.004Z</time>
</trkpt>
<trkpt lat="43.1745400" lon="-2.9577600">
<ele>768.705627</ele>
<time>2009-08-02T07:15:14.996Z</time>
</trkpt>
<trkpt lat="43.1745500" lon="-2.9578200">
<ele>769.193298</ele>
<time>2009-08-02T07:15:18.996Z</time>
</trkpt>
<trkpt lat="43.1746600" lon="-2.9581700">
<ele>770.138123</ele>
<time>2009-08-02T07:15:42.998Z</time>
</trkpt>
<trkpt lat="43.1746900" lon="-2.9584300">
<ele>770.625854</ele>
<time>2009-08-02T07:15:59.000Z</time>
</trkpt>
<trkpt lat="43.1746700" lon="-2.9587100">
<ele>771.601196</ele>
<time>2009-08-02T07:16:17.999Z</time>
</trkpt>
<trkpt lat="43.1747000" lon="-2.9588600">
<ele>773.521484</ele>
<time>2009-08-02T07:16:30.000Z</time>
</trkpt>
<trkpt lat="43.1747100" lon="-2.9589000">
<ele>773.521484</ele>
<time>2009-08-02T07:16:32.998Z</time>
</trkpt>
<trkpt lat="43.1747600" lon="-2.9590200">
<ele>776.417053</ele>
<time>2009-08-02T07:16:43.003Z</time>
</trkpt>
<trkpt lat="43.1748200" lon="-2.9591900">
<ele>778.337280</ele>
<time>2009-08-02T07:16:57.000Z</time>
</trkpt>
<trkpt lat="43.1748400" lon="-2.9593300">
<ele>780.714661</ele>
<time>2009-08-02T07:17:06.996Z</time>
</trkpt>
<trkpt lat="43.1748400" lon="-2.9593600">
<ele>781.202393</ele>
<time>2009-08-02T07:17:09.001Z</time>
</trkpt>
<trkpt lat="43.1749100" lon="-2.9595400">
<ele>783.122681</ele>
<time>2009-08-02T07:17:22.998Z</time>
</trkpt>
<trkpt lat="43.1749500" lon="-2.9597600">
<ele>786.018250</ele>
<time>2009-08-02T07:17:38.999Z</time>
</trkpt>
<trkpt lat="43.1749800" lon="-2.9598900">
<ele>788.913879</ele>
<time>2009-08-02T07:17:49.004Z</time>
</trkpt>
<trkpt lat="43.1749800" lon="-2.9599300">
<ele>789.858704</ele>
<time>2009-08-02T07:17:52.002Z</time>
</trkpt>
<trkpt lat="43.1750200" lon="-2.9600800">
<ele>790.834106</ele>
<time>2009-08-02T07:18:03.001Z</time>
</trkpt>
<trkpt lat="43.1750700" lon="-2.9601900">
<ele>791.291321</ele>
<time>2009-08-02T07:18:11.002Z</time>
</trkpt>
<trkpt lat="43.1752100" lon="-2.9603900">
<ele>793.699219</ele>
<time>2009-08-02T07:18:28.999Z</time>
</trkpt>
<trkpt lat="43.1753300" lon="-2.9606100">
<ele>795.619446</ele>
<time>2009-08-02T07:18:46.996Z</time>
</trkpt>
<trkpt lat="43.1754300" lon="-2.9607500">
<ele>795.162231</ele>
<time>2009-08-02T07:19:05.002Z</time>
</trkpt>
<trkpt lat="43.1754300" lon="-2.9607600">
<ele>795.619446</ele>
<time>2009-08-02T07:19:25.997Z</time>
</trkpt>
<trkpt lat="43.1754600" lon="-2.9607500">
<ele>795.162231</ele>
<time>2009-08-02T07:19:40.996Z</time>
</trkpt>
<trkpt lat="43.1754400" lon="-2.9607600">
<ele>794.674561</ele>
<time>2009-08-02T07:19:53.999Z</time>
</trkpt>
<trkpt lat="43.1754400" lon="-2.9607800">
<ele>794.674561</ele>
<time>2009-08-02T07:20:46.997Z</time>
</trkpt>
<trkpt lat="43.1754300" lon="-2.9607800">
<ele>794.674561</ele>
<time>2009-08-02T07:20:54.004Z</time>
</trkpt>
<trkpt lat="43.1754200" lon="-2.9607900">
<ele>794.674561</ele>
<time>2009-08-02T07:21:05.996Z</time>
</trkpt>
<trkpt lat="43.1754200" lon="-2.9607800">
<ele>796.107117</ele>
<time>2009-08-02T07:21:18.999Z</time>
</trkpt>
<trkpt lat="43.1754400" lon="-2.9608200">
<ele>796.107117</ele>
<time>2009-08-02T07:21:28.002Z</time>
</trkpt>
<trkpt lat="43.1754700" lon="-2.9608600">
<ele>795.162231</ele>
<time>2009-08-02T07:21:32.003Z</time>
</trkpt>
<trkpt lat="43.1756300" lon="-2.9610400">
<ele>791.778931</ele>
<time>2009-08-02T07:21:47.002Z</time>
</trkpt>
<trkpt lat="43.1756400" lon="-2.9610600">
<ele>791.291321</ele>
<time>2009-08-02T07:21:48.004Z</time>
</trkpt>
<trkpt lat="43.1758200" lon="-2.9612700">
<ele>787.938538</ele>
<time>2009-08-02T07:22:03.996Z</time>
</trkpt>
<trkpt lat="43.1760200" lon="-2.9614700">
<ele>786.963074</ele>
<time>2009-08-02T07:22:22.002Z</time>
</trkpt>
<trkpt lat="43.1762100" lon="-2.9616700">
<ele>788.426147</ele>
<time>2009-08-02T07:22:41.002Z</time>
</trkpt>
<trkpt lat="43.1763600" lon="-2.9618800">
<ele>787.450806</ele>
<time>2009-08-02T07:22:57.003Z</time>
</trkpt>
<trkpt lat="43.1765000" lon="-2.9621000">
<ele>784.098022</ele>
<time>2009-08-02T07:23:13.998Z</time>
</trkpt>
<trkpt lat="43.1766600" lon="-2.9624000">
<ele>781.202393</ele>
<time>2009-08-02T07:23:33.999Z</time>
</trkpt>
<trkpt lat="43.1768500" lon="-2.9627000">
<ele>777.849609</ele>
<time>2009-08-02T07:23:55.003Z</time>
</trkpt>
<trkpt lat="43.1770400" lon="-2.9629200">
<ele>775.929321</ele>
<time>2009-08-02T07:24:13.000Z</time>
</trkpt>
<trkpt lat="43.1772400" lon="-2.9631800">
<ele>773.521484</ele>
<time>2009-08-02T07:24:33.002Z</time>
</trkpt>
<trkpt lat="43.1774400" lon="-2.9634700">
<ele>769.680969</ele>
<time>2009-08-02T07:24:53.997Z</time>
</trkpt>
<trkpt lat="43.1775900" lon="-2.9636300">
<ele>766.785339</ele>
<time>2009-08-02T07:25:08.003Z</time>
</trkpt>
<trkpt lat="43.1777700" lon="-2.9638100">
<ele>764.377441</ele>
<time>2009-08-02T07:25:24.004Z</time>
</trkpt>
<trkpt lat="43.1779800" lon="-2.9640400">
<ele>762.457214</ele>
<time>2009-08-02T07:25:44.999Z</time>
</trkpt>
<trkpt lat="43.1781400" lon="-2.9642900">
<ele>759.592102</ele>
<time>2009-08-02T07:26:03.998Z</time>
</trkpt>
<trkpt lat="43.1782800" lon="-2.9643600">
<ele>756.208801</ele>
<time>2009-08-02T07:26:14.997Z</time>
</trkpt>
<trkpt lat="43.1782900" lon="-2.9643700">
<ele>755.721069</ele>
<time>2009-08-02T07:26:15.999Z</time>
</trkpt>
<trkpt lat="43.1784200" lon="-2.9644600">
<ele>752.856018</ele>
<time>2009-08-02T07:26:28.000Z</time>
</trkpt>
<trkpt lat="43.1784400" lon="-2.9644600">
<ele>751.392944</ele>
<time>2009-08-02T07:26:29.996Z</time>
</trkpt>
<trkpt lat="43.1784900" lon="-2.9644900">
<ele>749.015503</ele>
<time>2009-08-02T07:26:36.001Z</time>
</trkpt>
<trkpt lat="43.1785800" lon="-2.9645800">
<ele>745.632263</ele>
<time>2009-08-02T07:26:48.002Z</time>
</trkpt>
<trkpt lat="43.1785900" lon="-2.9645800">
<ele>744.687317</ele>
<time>2009-08-02T07:26:49.004Z</time>
</trkpt>
<trkpt lat="43.1786400" lon="-2.9646000">
<ele>742.279480</ele>
<time>2009-08-02T07:26:56.003Z</time>
</trkpt>
<trkpt lat="43.1786900" lon="-2.9646200">
<ele>740.846924</ele>
<time>2009-08-02T07:27:04.003Z</time>
</trkpt>
<trkpt lat="43.1787000" lon="-2.9646600">
<ele>738.896118</ele>
<time>2009-08-02T07:27:07.001Z</time>
</trkpt>
<trkpt lat="43.1787400" lon="-2.9647300">
<ele>736.975891</ele>
<time>2009-08-02T07:27:16.004Z</time>
</trkpt>
<trkpt lat="43.1787600" lon="-2.9647600">
<ele>735.543335</ele>
<time>2009-08-02T07:27:19.002Z</time>
</trkpt>
<trkpt lat="43.1787800" lon="-2.9647600">
<ele>734.598511</ele>
<time>2009-08-02T07:27:22.000Z</time>
</trkpt>
<trkpt lat="43.1788400" lon="-2.9647200">
<ele>732.190552</ele>
<time>2009-08-02T07:27:27.996Z</time>
</trkpt>
<trkpt lat="43.1789000" lon="-2.9647400">
<ele>730.727478</ele>
<time>2009-08-02T07:27:34.001Z</time>
</trkpt>
<trkpt lat="43.1789700" lon="-2.9647300">
<ele>729.294922</ele>
<time>2009-08-02T07:27:39.997Z</time>
</trkpt>
<trkpt lat="43.1790300" lon="-2.9648300">
<ele>725.942139</ele>
<time>2009-08-02T07:27:49.000Z</time>
</trkpt>
<trkpt lat="43.1791300" lon="-2.9648500">
<ele>724.021912</ele>
<time>2009-08-02T07:27:58.003Z</time>
</trkpt>
<trkpt lat="43.1792300" lon="-2.9649100">
<ele>720.150940</ele>
<time>2009-08-02T07:28:08.000Z</time>
</trkpt>
<trkpt lat="43.1792700" lon="-2.9650200">
<ele>717.773499</ele>
<time>2009-08-02T07:28:16.000Z</time>
</trkpt>
<trkpt lat="43.1793200" lon="-2.9650800">
<ele>715.853333</ele>
<time>2009-08-02T07:28:21.003Z</time>
</trkpt>
<trkpt lat="43.1793700" lon="-2.9652000">
<ele>712.469971</ele>
<time>2009-08-02T07:28:30.999Z</time>
</trkpt>
<trkpt lat="43.1794000" lon="-2.9652800">
<ele>710.062134</ele>
<time>2009-08-02T07:28:37.004Z</time>
</trkpt>
<trkpt lat="43.1794200" lon="-2.9652900">
<ele>710.062134</ele>
<time>2009-08-02T07:28:40.002Z</time>
</trkpt>
<trkpt lat="43.1795400" lon="-2.9651800">
<ele>706.709290</ele>
<time>2009-08-02T07:28:52.997Z</time>
</trkpt>
<trkpt lat="43.1796000" lon="-2.9651500">
<ele>705.276672</ele>
<time>2009-08-02T07:28:57.999Z</time>
</trkpt>
<trkpt lat="43.1797500" lon="-2.9652800">
<ele>701.893433</ele>
<time>2009-08-02T07:29:12.998Z</time>
</trkpt>
<trkpt lat="43.1798000" lon="-2.9653900">
<ele>700.948547</ele>
<time>2009-08-02T07:29:20.999Z</time>
</trkpt>
<trkpt lat="43.1798700" lon="-2.9654400">
<ele>699.485474</ele>
<time>2009-08-02T07:29:27.004Z</time>
</trkpt>
<trkpt lat="43.1798900" lon="-2.9655100">
<ele>698.540649</ele>
<time>2009-08-02T07:29:31.004Z</time>
</trkpt>
<trkpt lat="43.1799700" lon="-2.9656700">
<ele>695.645081</ele>
<time>2009-08-02T07:29:42.996Z</time>
</trkpt>
<trkpt lat="43.1800600" lon="-2.9657800">
<ele>692.779907</ele>
<time>2009-08-02T07:29:54.004Z</time>
</trkpt>
<trkpt lat="43.1800900" lon="-2.9658300">
<ele>692.292236</ele>
<time>2009-08-02T07:29:58.004Z</time>
</trkpt>
<trkpt lat="43.1801000" lon="-2.9659000">
<ele>691.316895</ele>
<time>2009-08-02T07:30:02.998Z</time>
</trkpt>
<trkpt lat="43.1802000" lon="-2.9660400">
<ele>687.476379</ele>
<time>2009-08-02T07:30:14.999Z</time>
</trkpt>
<trkpt lat="43.1802400" lon="-2.9660800">
<ele>686.043884</ele>
<time>2009-08-02T07:30:18.999Z</time>
</trkpt>
<trkpt lat="43.1802900" lon="-2.9661400">
<ele>685.556152</ele>
<time>2009-08-02T07:30:23.000Z</time>
</trkpt>
<trkpt lat="43.1803000" lon="-2.9661700">
<ele>685.068481</ele>
<time>2009-08-02T07:30:25.004Z</time>
</trkpt>
<trkpt lat="43.1804000" lon="-2.9663000">
<ele>681.715698</ele>
<time>2009-08-02T07:30:36.003Z</time>
</trkpt>
<trkpt lat="43.1805400" lon="-2.9664700">
<ele>678.332397</ele>
<time>2009-08-02T07:30:52.004Z</time>
</trkpt>
<trkpt lat="43.1807100" lon="-2.9667100">
<ele>677.387512</ele>
<time>2009-08-02T07:31:11.004Z</time>
</trkpt>
<trkpt lat="43.1808800" lon="-2.9669500">
<ele>675.954956</ele>
<time>2009-08-02T07:31:31.999Z</time>
</trkpt>
<trkpt lat="43.1809400" lon="-2.9670200">
<ele>675.954956</ele>
<time>2009-08-02T07:31:38.004Z</time>
</trkpt>
<trkpt lat="43.1810600" lon="-2.9671900">
<ele>675.954956</ele>
<time>2009-08-02T07:31:53.003Z</time>
</trkpt>
<trkpt lat="43.1811700" lon="-2.9674000">
<ele>674.979614</ele>
<time>2009-08-02T07:32:09.004Z</time>
</trkpt>
<trkpt lat="43.1813100" lon="-2.9676100">
<ele>674.979614</ele>
<time>2009-08-02T07:32:27.001Z</time>
</trkpt>
<trkpt lat="43.1814100" lon="-2.9678000">
<ele>674.979614</ele>
<time>2009-08-02T07:32:42.000Z</time>
</trkpt>
<trkpt lat="43.1815200" lon="-2.9680100">
<ele>674.979614</ele>
<time>2009-08-02T07:32:59.004Z</time>
</trkpt>
<trkpt lat="43.1816300" lon="-2.9682800">
<ele>677.387512</ele>
<time>2009-08-02T07:33:18.003Z</time>
</trkpt>
<trkpt lat="43.1817400" lon="-2.9685000">
<ele>677.387512</ele>
<time>2009-08-02T07:33:34.004Z</time>
</trkpt>
<trkpt lat="43.1818000" lon="-2.9686100">
<ele>675.954956</ele>
<time>2009-08-02T07:33:41.996Z</time>
</trkpt>
<trkpt lat="43.1818600" lon="-2.9687500">
<ele>676.899841</ele>
<time>2009-08-02T07:33:49.997Z</time>
</trkpt>
<trkpt lat="43.1819600" lon="-2.9688200">
<ele>676.412170</ele>
<time>2009-08-02T07:34:00.002Z</time>
</trkpt>
<trkpt lat="43.1821600" lon="-2.9690100">
<ele>677.387512</ele>
<time>2009-08-02T07:34:16.997Z</time>
</trkpt>
<trkpt lat="43.1823200" lon="-2.9691400">
<ele>677.875183</ele>
<time>2009-08-02T07:34:32.998Z</time>
</trkpt>
<trkpt lat="43.1824800" lon="-2.9692500">
<ele>677.875183</ele>
<time>2009-08-02T07:34:47.004Z</time>
</trkpt>
<trkpt lat="43.1825700" lon="-2.9692900">
<ele>677.875183</ele>
<time>2009-08-02T07:34:53.000Z</time>
</trkpt>
<trkpt lat="43.1828200" lon="-2.9693200">
<ele>677.387512</ele>
<time>2009-08-02T07:35:11.999Z</time>
</trkpt>
<trkpt lat="43.1830000" lon="-2.9692900">
<ele>678.332397</ele>
<time>2009-08-02T07:35:24.000Z</time>
</trkpt>
<trkpt lat="43.1830600" lon="-2.9693200">
<ele>678.332397</ele>
<time>2009-08-02T07:35:29.003Z</time>
</trkpt>
<trkpt lat="43.1832900" lon="-2.9693900">
<ele>680.283081</ele>
<time>2009-08-02T07:35:47.000Z</time>
</trkpt>
<trkpt lat="43.1834400" lon="-2.9694300">
<ele>683.635864</ele>
<time>2009-08-02T07:35:59.001Z</time>
</trkpt>
<trkpt lat="43.1836300" lon="-2.9695100">
<ele>686.988708</ele>
<time>2009-08-02T07:36:16.998Z</time>
</trkpt>
<trkpt lat="43.1837600" lon="-2.9695900">
<ele>689.884277</ele>
<time>2009-08-02T07:36:31.003Z</time>
</trkpt>
<trkpt lat="43.1837700" lon="-2.9696000">
<ele>689.884277</ele>
<time>2009-08-02T07:36:31.997Z</time>
</trkpt>
<trkpt lat="43.1839100" lon="-2.9697300">
<ele>692.292236</ele>
<time>2009-08-02T07:36:47.998Z</time>
</trkpt>
<trkpt lat="43.1839200" lon="-2.9698000">
<ele>690.859680</ele>
<time>2009-08-02T07:36:53.001Z</time>
</trkpt>
<trkpt lat="43.1839800" lon="-2.9699100">
<ele>688.908936</ele>
<time>2009-08-02T07:37:01.001Z</time>
</trkpt>
<trkpt lat="43.1840400" lon="-2.9699100">
<ele>686.531494</ele>
<time>2009-08-02T07:37:06.997Z</time>
</trkpt>
<trkpt lat="43.1841500" lon="-2.9698000">
<ele>684.611328</ele>
<time>2009-08-02T07:37:18.998Z</time>
</trkpt>
<trkpt lat="43.1843000" lon="-2.9698600">
<ele>686.043884</ele>
<time>2009-08-02T07:37:32.002Z</time>
</trkpt>
<trkpt lat="43.1844700" lon="-2.9700500">
<ele>686.531494</ele>
<time>2009-08-02T07:37:48.996Z</time>
</trkpt>
<trkpt lat="43.1847100" lon="-2.9702700">
<ele>686.043884</ele>
<time>2009-08-02T07:38:11.996Z</time>
</trkpt>
<trkpt lat="43.1849300" lon="-2.9704500">
<ele>685.556152</ele>
<time>2009-08-02T07:38:31.998Z</time>
</trkpt>
<trkpt lat="43.1852000" lon="-2.9706700">
<ele>686.531494</ele>
<time>2009-08-02T07:38:54.997Z</time>
</trkpt>
<trkpt lat="43.1854100" lon="-2.9709000">
<ele>687.476379</ele>
<time>2009-08-02T07:39:14.999Z</time>
</trkpt>
<trkpt lat="43.1855300" lon="-2.9711300">
<ele>688.451721</ele>
<time>2009-08-02T07:39:32.003Z</time>
</trkpt>
<trkpt lat="43.1855800" lon="-2.9713100">
<ele>691.804565</ele>
<time>2009-08-02T07:39:43.001Z</time>
</trkpt>
<trkpt lat="43.1855900" lon="-2.9713300">
<ele>691.804565</ele>
<time>2009-08-02T07:39:44.004Z</time>
</trkpt>
<trkpt lat="43.1856000" lon="-2.9714000">
<ele>693.724792</ele>
<time>2009-08-02T07:39:48.997Z</time>
</trkpt>
<trkpt lat="43.1856100" lon="-2.9714400">
<ele>695.157349</ele>
<time>2009-08-02T07:39:52.004Z</time>
</trkpt>
<trkpt lat="43.1856500" lon="-2.9715700">
<ele>698.052917</ele>
<time>2009-08-02T07:40:03.003Z</time>
</trkpt>
<trkpt lat="43.1856700" lon="-2.9715900">
<ele>698.540649</ele>
<time>2009-08-02T07:40:04.999Z</time>
</trkpt>
<trkpt lat="43.1857700" lon="-2.9716900">
<ele>700.460938</ele>
<time>2009-08-02T07:40:15.997Z</time>
</trkpt>
<trkpt lat="43.1859000" lon="-2.9718800">
<ele>703.813721</ele>
<time>2009-08-02T07:40:33.001Z</time>
</trkpt>
<trkpt lat="43.1859500" lon="-2.9720000">
<ele>706.221619</ele>
<time>2009-08-02T07:40:42.997Z</time>
</trkpt>
<trkpt lat="43.1860500" lon="-2.9723000">
<ele>707.654175</ele>
<time>2009-08-02T07:41:02.999Z</time>
</trkpt>
<trkpt lat="43.1860500" lon="-2.9723100">
<ele>707.654175</ele>
<time>2009-08-02T07:41:04.001Z</time>
</trkpt>
<trkpt lat="43.1860800" lon="-2.9724100">
<ele>709.117188</ele>
<time>2009-08-02T07:41:11.000Z</time>
</trkpt>
<trkpt lat="43.1861400" lon="-2.9726500">
<ele>712.957703</ele>
<time>2009-08-02T07:41:27.001Z</time>
</trkpt>
<trkpt lat="43.1861700" lon="-2.9727300">
<ele>713.902527</ele>
<time>2009-08-02T07:41:32.997Z</time>
</trkpt>
<trkpt lat="43.1862500" lon="-2.9729000">
<ele>716.798157</ele>
<time>2009-08-02T07:41:48.998Z</time>
</trkpt>
<trkpt lat="43.1862400" lon="-2.9729400">
<ele>718.718384</ele>
<time>2009-08-02T07:42:03.004Z</time>
</trkpt>
<trkpt lat="43.1862500" lon="-2.9729300">
<ele>717.773499</ele>
<time>2009-08-02T07:42:15.998Z</time>
</trkpt>
<trkpt lat="43.1862400" lon="-2.9729500">
<ele>718.230713</ele>
<time>2009-08-02T07:42:18.996Z</time>
</trkpt>
<trkpt lat="43.1862600" lon="-2.9732300">
<ele>715.853333</ele>
<time>2009-08-02T07:42:37.002Z</time>
</trkpt>
<trkpt lat="43.1862600" lon="-2.9732300">
<ele>716.310486</ele>
<time>2009-08-02T07:42:37.996Z</time>
</trkpt>
<trkpt lat="43.1862500" lon="-2.9733800">
<ele>714.390259</ele>
<time>2009-08-02T07:42:49.997Z</time>
</trkpt>
<trkpt lat="43.1862500" lon="-2.9733900">
<ele>714.877869</ele>
<time>2009-08-02T07:42:50.999Z</time>
</trkpt>
<trkpt lat="43.1862600" lon="-2.9734400">
<ele>713.445374</ele>
<time>2009-08-02T07:42:54.999Z</time>
</trkpt>
<trkpt lat="43.1864600" lon="-2.9733600">
<ele>709.604919</ele>
<time>2009-08-02T07:43:12.003Z</time>
</trkpt>
<trkpt lat="43.1864800" lon="-2.9733500">
<ele>709.117188</ele>
<time>2009-08-02T07:43:13.999Z</time>
</trkpt>
<trkpt lat="43.1865300" lon="-2.9733100">
<ele>708.141846</ele>
<time>2009-08-02T07:43:17.999Z</time>
</trkpt>
<trkpt lat="43.1866900" lon="-2.9731600">
<ele>705.733887</ele>
<time>2009-08-02T07:43:35.003Z</time>
</trkpt>
<trkpt lat="43.1867400" lon="-2.9731600">
<ele>705.276672</ele>
<time>2009-08-02T07:43:39.003Z</time>
</trkpt>
<trkpt lat="43.1867900" lon="-2.9731900">
<ele>704.301331</ele>
<time>2009-08-02T07:43:43.003Z</time>
</trkpt>
<trkpt lat="43.1868100" lon="-2.9732100">
<ele>703.356506</ele>
<time>2009-08-02T07:43:44.999Z</time>
</trkpt>
<trkpt lat="43.1868500" lon="-2.9732300">
<ele>701.893433</ele>
<time>2009-08-02T07:43:48.999Z</time>
</trkpt>
<trkpt lat="43.1868900" lon="-2.9732300">
<ele>701.405762</ele>
<time>2009-08-02T07:43:51.997Z</time>
</trkpt>
<trkpt lat="43.1869500" lon="-2.9732500">
<ele>699.485474</ele>
<time>2009-08-02T07:43:58.002Z</time>
</trkpt>
<trkpt lat="43.1871300" lon="-2.9731900">
<ele>695.645081</ele>
<time>2009-08-02T07:44:13.001Z</time>
</trkpt>
<trkpt lat="43.1872400" lon="-2.9731900">
<ele>694.212524</ele>
<time>2009-08-02T07:44:22.998Z</time>
</trkpt>
<trkpt lat="43.1873800" lon="-2.9733500">
<ele>693.237061</ele>
<time>2009-08-02T07:44:40.001Z</time>
</trkpt>
<trkpt lat="43.1876000" lon="-2.9734500">
<ele>691.316895</ele>
<time>2009-08-02T07:44:59.001Z</time>
</trkpt>
<trkpt lat="43.1878200" lon="-2.9735200">
<ele>689.396667</ele>
<time>2009-08-02T07:45:16.998Z</time>
</trkpt>
<trkpt lat="43.1880100" lon="-2.9736500">
<ele>688.908936</ele>
<time>2009-08-02T07:45:34.001Z</time>
</trkpt>
<trkpt lat="43.1880600" lon="-2.9736800">
<ele>688.908936</ele>
<time>2009-08-02T07:45:39.004Z</time>
</trkpt>
<trkpt lat="43.1883100" lon="-2.9739100">
<ele>687.964111</ele>
<time>2009-08-02T07:46:02.004Z</time>
</trkpt>
<trkpt lat="43.1885300" lon="-2.9741000">
<ele>686.988708</ele>
<time>2009-08-02T07:46:21.003Z</time>
</trkpt>
<trkpt lat="43.1886000" lon="-2.9741500">
<ele>686.531494</ele>
<time>2009-08-02T07:46:26.999Z</time>
</trkpt>
<trkpt lat="43.1888400" lon="-2.9743400">
<ele>685.556152</ele>
<time>2009-08-02T07:46:47.001Z</time>
</trkpt>
<trkpt lat="43.1890600" lon="-2.9743500">
<ele>684.611328</ele>
<time>2009-08-02T07:47:04.004Z</time>
</trkpt>
<trkpt lat="43.1893000" lon="-2.9743600">
<ele>684.611328</ele>
<time>2009-08-02T07:47:20.999Z</time>
</trkpt>
<trkpt lat="43.1895700" lon="-2.9744200">
<ele>686.531494</ele>
<time>2009-08-02T07:47:41.001Z</time>
</trkpt>
<trkpt lat="43.1897700" lon="-2.9746200">
<ele>689.396667</ele>
<time>2009-08-02T07:48:00.000Z</time>
</trkpt>
<trkpt lat="43.1899200" lon="-2.9747800">
<ele>692.292236</ele>
<time>2009-08-02T07:48:16.001Z</time>
</trkpt>
<trkpt lat="43.1900100" lon="-2.9749000">
<ele>694.212524</ele>
<time>2009-08-02T07:48:25.004Z</time>
</trkpt>
<trkpt lat="43.1901900" lon="-2.9751000">
<ele>696.620422</ele>
<time>2009-08-02T07:48:44.004Z</time>
</trkpt>
<trkpt lat="43.1904000" lon="-2.9752300">
<ele>699.028320</ele>
<time>2009-08-02T07:49:03.003Z</time>
</trkpt>
<trkpt lat="43.1905900" lon="-2.9752400">
<ele>700.460938</ele>
<time>2009-08-02T07:49:19.004Z</time>
</trkpt>
<trkpt lat="43.1908400" lon="-2.9752600">
<ele>697.565308</ele>
<time>2009-08-02T07:49:38.004Z</time>
</trkpt>
<trkpt lat="43.1910500" lon="-2.9753900">
<ele>697.565308</ele>
<time>2009-08-02T07:49:57.003Z</time>
</trkpt>
<trkpt lat="43.1912600" lon="-2.9756400">
<ele>696.620422</ele>
<time>2009-08-02T07:50:17.998Z</time>
</trkpt>
<trkpt lat="43.1914800" lon="-2.9758200">
<ele>695.645081</ele>
<time>2009-08-02T07:50:36.997Z</time>
</trkpt>
<trkpt lat="43.1917100" lon="-2.9760500">
<ele>695.157349</ele>
<time>2009-08-02T07:50:59.004Z</time>
</trkpt>
<trkpt lat="43.1919500" lon="-2.9762100">
<ele>694.700134</ele>
<time>2009-08-02T07:51:18.003Z</time>
</trkpt>
<trkpt lat="43.1921900" lon="-2.9763200">
<ele>693.724792</ele>
<time>2009-08-02T07:51:36.000Z</time>
</trkpt>
<trkpt lat="43.1924700" lon="-2.9763800">
<ele>691.316895</ele>
<time>2009-08-02T07:51:56.002Z</time>
</trkpt>
<trkpt lat="43.1927700" lon="-2.9764600">
<ele>690.372009</ele>
<time>2009-08-02T07:52:17.999Z</time>
</trkpt>
<trkpt lat="43.1929500" lon="-2.9764700">
<ele>687.476379</ele>
<time>2009-08-02T07:52:31.002Z</time>
</trkpt>
<trkpt lat="43.1931400" lon="-2.9765100">
<ele>686.531494</ele>
<time>2009-08-02T07:52:44.999Z</time>
</trkpt>
<trkpt lat="43.1932100" lon="-2.9765300">
<ele>685.556152</ele>
<time>2009-08-02T07:52:50.002Z</time>
</trkpt>
<trkpt lat="43.1934000" lon="-2.9766200">
<ele>685.068481</ele>
<time>2009-08-02T07:53:05.001Z</time>
</trkpt>
<trkpt lat="43.1935500" lon="-2.9767800">
<ele>686.531494</ele>
<time>2009-08-02T07:53:18.997Z</time>
</trkpt>
<trkpt lat="43.1936400" lon="-2.9769600">
<ele>688.908936</ele>
<time>2009-08-02T07:53:33.003Z</time>
</trkpt>
<trkpt lat="43.1937900" lon="-2.9770400">
<ele>690.859680</ele>
<time>2009-08-02T07:53:47.000Z</time>
</trkpt>
<trkpt lat="43.1939000" lon="-2.9770900">
<ele>691.804565</ele>
<time>2009-08-02T07:53:56.996Z</time>
</trkpt>
<trkpt lat="43.1940100" lon="-2.9771700">
<ele>691.804565</ele>
<time>2009-08-02T07:54:07.001Z</time>
</trkpt>
<trkpt lat="43.1942200" lon="-2.9772900">
<ele>693.237061</ele>
<time>2009-08-02T07:54:23.996Z</time>
</trkpt>
<trkpt lat="43.1943700" lon="-2.9774500">
<ele>695.645081</ele>
<time>2009-08-02T07:54:38.002Z</time>
</trkpt>
<trkpt lat="43.1945200" lon="-2.9776000">
<ele>698.540649</ele>
<time>2009-08-02T07:54:54.003Z</time>
</trkpt>
<trkpt lat="43.1946600" lon="-2.9776500">
<ele>699.028320</ele>
<time>2009-08-02T07:55:06.997Z</time>
</trkpt>
<trkpt lat="43.1948800" lon="-2.9777300">
<ele>698.540649</ele>
<time>2009-08-02T07:55:21.996Z</time>
</trkpt>
<trkpt lat="43.1950700" lon="-2.9777400">
<ele>700.460938</ele>
<time>2009-08-02T07:55:37.004Z</time>
</trkpt>
<trkpt lat="43.1953100" lon="-2.9778100">
<ele>703.356506</ele>
<time>2009-08-02T07:55:55.001Z</time>
</trkpt>
<trkpt lat="43.1954600" lon="-2.9779200">
<ele>706.709290</ele>
<time>2009-08-02T07:56:10.000Z</time>
</trkpt>
<trkpt lat="43.1956200" lon="-2.9779700">
<ele>708.141846</ele>
<time>2009-08-02T07:56:23.004Z</time>
</trkpt>
<trkpt lat="43.1957200" lon="-2.9780100">
<ele>710.549744</ele>
<time>2009-08-02T07:56:34.002Z</time>
</trkpt>
<trkpt lat="43.1958500" lon="-2.9780300">
<ele>713.902527</ele>
<time>2009-08-02T07:56:46.997Z</time>
</trkpt>
<trkpt lat="43.1960100" lon="-2.9780300">
<ele>716.798157</ele>
<time>2009-08-02T07:57:01.996Z</time>
</trkpt>
<trkpt lat="43.1961600" lon="-2.9780200">
<ele>717.773499</ele>
<time>2009-08-02T07:57:14.999Z</time>
</trkpt>
<trkpt lat="43.1963300" lon="-2.9780900">
<ele>720.150940</ele>
<time>2009-08-02T07:57:31.000Z</time>
</trkpt>
<trkpt lat="43.1964100" lon="-2.9781200">
<ele>723.046570</ele>
<time>2009-08-02T07:57:40.997Z</time>
</trkpt>
<trkpt lat="43.1965100" lon="-2.9781300">
<ele>725.942139</ele>
<time>2009-08-02T07:57:54.000Z</time>
</trkpt>
<trkpt lat="43.1965600" lon="-2.9781500">
<ele>726.399353</ele>
<time>2009-08-02T07:58:07.997Z</time>
</trkpt>
<trkpt lat="43.1966100" lon="-2.9782000">
<ele>729.294922</ele>
<time>2009-08-02T07:58:19.004Z</time>
</trkpt>
<trkpt lat="43.1966800" lon="-2.9782700">
<ele>732.647766</ele>
<time>2009-08-02T07:58:31.999Z</time>
</trkpt>
<trkpt lat="43.1967000" lon="-2.9783900">
<ele>735.543335</ele>
<time>2009-08-02T07:58:44.000Z</time>
</trkpt>
<trkpt lat="43.1967200" lon="-2.9784100">
<ele>736.975891</ele>
<time>2009-08-02T07:58:48.000Z</time>
</trkpt>
<trkpt lat="43.1968100" lon="-2.9783100">
<ele>740.359192</ele>
<time>2009-08-02T07:59:02.999Z</time>
</trkpt>
<trkpt lat="43.1968600" lon="-2.9782600">
<ele>743.224304</ele>
<time>2009-08-02T07:59:13.004Z</time>
</trkpt>
<trkpt lat="43.1969100" lon="-2.9783700">
<ele>746.607605</ele>
<time>2009-08-02T07:59:27.001Z</time>
</trkpt>
<trkpt lat="43.1969500" lon="-2.9784100">
<ele>748.527832</ele>
<time>2009-08-02T07:59:39.002Z</time>
</trkpt>
<trkpt lat="43.1969700" lon="-2.9784100">
<ele>750.448120</ele>
<time>2009-08-02T07:59:44.998Z</time>
</trkpt>
<trkpt lat="43.1970300" lon="-2.9783800">
<ele>751.880676</ele>
<time>2009-08-02T07:59:52.999Z</time>
</trkpt>
<trkpt lat="43.1970800" lon="-2.9783300">
<ele>755.263916</ele>
<time>2009-08-02T08:00:05.000Z</time>
</trkpt>
<trkpt lat="43.1971300" lon="-2.9784000">
<ele>757.184143</ele>
<time>2009-08-02T08:00:18.003Z</time>
</trkpt>
<trkpt lat="43.1971900" lon="-2.9784100">
<ele>760.049316</ele>
<time>2009-08-02T08:00:32.000Z</time>
</trkpt>
<trkpt lat="43.1972500" lon="-2.9784400">
<ele>762.457214</ele>
<time>2009-08-02T08:00:45.996Z</time>
</trkpt>
<trkpt lat="43.1972800" lon="-2.9784100">
<ele>764.377441</ele>
<time>2009-08-02T08:00:53.997Z</time>
</trkpt>
<trkpt lat="43.1973500" lon="-2.9783700">
<ele>767.273071</ele>
<time>2009-08-02T08:01:04.002Z</time>
</trkpt>
<trkpt lat="43.1974100" lon="-2.9783600">
<ele>769.680969</ele>
<time>2009-08-02T08:01:19.001Z</time>
</trkpt>
<trkpt lat="43.1974300" lon="-2.9784000">
<ele>771.113464</ele>
<time>2009-08-02T08:01:32.998Z</time>
</trkpt>
<trkpt lat="43.1974800" lon="-2.9784200">
<ele>774.466309</ele>
<time>2009-08-02T08:01:44.999Z</time>
</trkpt>
<trkpt lat="43.1975200" lon="-2.9785200">
<ele>776.874268</ele>
<time>2009-08-02T08:01:59.998Z</time>
</trkpt>
<trkpt lat="43.1975500" lon="-2.9786000">
<ele>780.257507</ele>
<time>2009-08-02T08:02:10.003Z</time>
</trkpt>
<trkpt lat="43.1976000" lon="-2.9786500">
<ele>783.122681</ele>
<time>2009-08-02T08:02:24.000Z</time>
</trkpt>
<trkpt lat="43.1976200" lon="-2.9787400">
<ele>786.018250</ele>
<time>2009-08-02T08:02:37.003Z</time>
</trkpt>
<trkpt lat="43.1976600" lon="-2.9787400">
<ele>788.913879</ele>
<time>2009-08-02T08:02:49.004Z</time>
</trkpt>
<trkpt lat="43.1977200" lon="-2.9788100">
<ele>791.778931</ele>
<time>2009-08-02T08:03:01.999Z</time>
</trkpt>
<trkpt lat="43.1977600" lon="-2.9789000">
<ele>795.162231</ele>
<time>2009-08-02T08:03:15.002Z</time>
</trkpt>
<trkpt lat="43.1978200" lon="-2.9789500">
<ele>798.027344</ele>
<time>2009-08-02T08:03:28.999Z</time>
</trkpt>
<trkpt lat="43.1978500" lon="-2.9790200">
<ele>801.410645</ele>
<time>2009-08-02T08:03:41.000Z</time>
</trkpt>
<trkpt lat="43.1978900" lon="-2.9791100">
<ele>803.788086</ele>
<time>2009-08-02T08:03:55.999Z</time>
</trkpt>
<trkpt lat="43.1979500" lon="-2.9792000">
<ele>807.171326</ele>
<time>2009-08-02T08:04:10.004Z</time>
</trkpt>
<trkpt lat="43.1979900" lon="-2.9792900">
<ele>810.036499</ele>
<time>2009-08-02T08:04:22.999Z</time>
</trkpt>
<trkpt lat="43.1980400" lon="-2.9794200">
<ele>812.932129</ele>
<time>2009-08-02T08:04:39.000Z</time>
</trkpt>
<trkpt lat="43.1980800" lon="-2.9795900">
<ele>815.340027</ele>
<time>2009-08-02T08:04:53.999Z</time>
</trkpt>
<trkpt lat="43.1981400" lon="-2.9797700">
<ele>818.692810</ele>
<time>2009-08-02T08:05:11.996Z</time>
</trkpt>
<trkpt lat="43.1982000" lon="-2.9798400">
<ele>821.588379</ele>
<time>2009-08-02T08:05:23.997Z</time>
</trkpt>
<trkpt lat="43.1982500" lon="-2.9799400">
<ele>824.941223</ele>
<time>2009-08-02T08:05:37.000Z</time>
</trkpt>
<trkpt lat="43.1982900" lon="-2.9800700">
<ele>828.324524</ele>
<time>2009-08-02T08:05:51.999Z</time>
</trkpt>
<trkpt lat="43.1983600" lon="-2.9801700">
<ele>831.677307</ele>
<time>2009-08-02T08:06:06.998Z</time>
</trkpt>
<trkpt lat="43.1984000" lon="-2.9802700">
<ele>834.572937</ele>
<time>2009-08-02T08:06:20.002Z</time>
</trkpt>
<trkpt lat="43.1984500" lon="-2.9803700">
<ele>837.437988</ele>
<time>2009-08-02T08:06:33.998Z</time>
</trkpt>
<trkpt lat="43.1984500" lon="-2.9803800">
<ele>837.925720</ele>
<time>2009-08-02T08:06:35.001Z</time>
</trkpt>
<trkpt lat="43.1984600" lon="-2.9804500">
<ele>839.358276</ele>
<time>2009-08-02T08:06:43.001Z</time>
</trkpt>
<trkpt lat="43.1985300" lon="-2.9805500">
<ele>842.741516</ele>
<time>2009-08-02T08:06:56.998Z</time>
</trkpt>
<trkpt lat="43.1985100" lon="-2.9806000">
<ele>843.686401</ele>
<time>2009-08-02T08:07:02.001Z</time>
</trkpt>
<trkpt lat="43.1985100" lon="-2.9806600">
<ele>844.661743</ele>
<time>2009-08-02T08:07:07.003Z</time>
</trkpt>
<trkpt lat="43.1985700" lon="-2.9807000">
<ele>847.526917</ele>
<time>2009-08-02T08:07:22.002Z</time>
</trkpt>
<trkpt lat="43.1986100" lon="-2.9807100">
<ele>850.422485</ele>
<time>2009-08-02T08:07:33.001Z</time>
</trkpt>
<trkpt lat="43.1986600" lon="-2.9807700">
<ele>853.318115</ele>
<time>2009-08-02T08:07:49.002Z</time>
</trkpt>
<trkpt lat="43.1987100" lon="-2.9808400">
<ele>856.670898</ele>
<time>2009-08-02T08:08:02.999Z</time>
</trkpt>
<trkpt lat="43.1987400" lon="-2.9809200">
<ele>859.566528</ele>
<time>2009-08-02T08:08:17.998Z</time>
</trkpt>
<trkpt lat="43.1987700" lon="-2.9810300">
<ele>862.431580</ele>
<time>2009-08-02T08:08:31.001Z</time>
</trkpt>
<trkpt lat="43.1987800" lon="-2.9811300">
<ele>863.406921</ele>
<time>2009-08-02T08:08:42.000Z</time>
</trkpt>
<trkpt lat="43.1988500" lon="-2.9812800">
<ele>866.272095</ele>
<time>2009-08-02T08:08:58.001Z</time>
</trkpt>
<trkpt lat="43.1989000" lon="-2.9814100">
<ele>869.167725</ele>
<time>2009-08-02T08:09:14.003Z</time>
</trkpt>
<trkpt lat="43.1989700" lon="-2.9814500">
<ele>872.520508</ele>
<time>2009-08-02T08:09:30.004Z</time>
</trkpt>
<trkpt lat="43.1990000" lon="-2.9814300">
<ele>874.928406</ele>
<time>2009-08-02T08:09:38.998Z</time>
</trkpt>
<trkpt lat="43.1990600" lon="-2.9814600">
<ele>877.336304</ele>
<time>2009-08-02T08:09:53.004Z</time>
</trkpt>
<trkpt lat="43.1991300" lon="-2.9815200">
<ele>879.744263</ele>
<time>2009-08-02T08:10:08.996Z</time>
</trkpt>
<trkpt lat="43.1991800" lon="-2.9816500">
<ele>881.664490</ele>
<time>2009-08-02T08:10:24.004Z</time>
</trkpt>
<trkpt lat="43.1992200" lon="-2.9817400">
<ele>884.560120</ele>
<time>2009-08-02T08:10:35.003Z</time>
</trkpt>
<trkpt lat="43.1992700" lon="-2.9818400">
<ele>887.425171</ele>
<time>2009-08-02T08:10:48.999Z</time>
</trkpt>
<trkpt lat="43.1993000" lon="-2.9819000">
<ele>890.320801</ele>
<time>2009-08-02T08:11:01.000Z</time>
</trkpt>
<trkpt lat="43.1993400" lon="-2.9819900">
<ele>893.216370</ele>
<time>2009-08-02T08:11:14.997Z</time>
</trkpt>
<trkpt lat="43.1993400" lon="-2.9820000">
<ele>893.216370</ele>
<time>2009-08-02T08:11:15.999Z</time>
</trkpt>
<trkpt lat="43.1993700" lon="-2.9821400">
<ele>896.081482</ele>
<time>2009-08-02T08:11:32.001Z</time>
</trkpt>
<trkpt lat="43.1994200" lon="-2.9821900">
<ele>899.921997</ele>
<time>2009-08-02T08:11:45.997Z</time>
</trkpt>
<trkpt lat="43.1994800" lon="-2.9820700">
<ele>901.842285</ele>
<time>2009-08-02T08:12:01.999Z</time>
</trkpt>
<trkpt lat="43.1995500" lon="-2.9819900">
<ele>905.225464</ele>
<time>2009-08-02T08:12:16.004Z</time>
</trkpt>
<trkpt lat="43.1996400" lon="-2.9819700">
<ele>908.578308</ele>
<time>2009-08-02T08:12:28.999Z</time>
</trkpt>
<trkpt lat="43.1997200" lon="-2.9819400">
<ele>911.473877</ele>
<time>2009-08-02T08:12:41.000Z</time>
</trkpt>
<trkpt lat="43.1997800" lon="-2.9820600">
<ele>914.339050</ele>
<time>2009-08-02T08:12:54.996Z</time>
</trkpt>
<trkpt lat="43.1998000" lon="-2.9821100">
<ele>916.259338</ele>
<time>2009-08-02T08:13:08.000Z</time>
</trkpt>
<trkpt lat="43.1999100" lon="-2.9819600">
<ele>919.642517</ele>
<time>2009-08-02T08:13:26.999Z</time>
</trkpt>
<trkpt lat="43.1999900" lon="-2.9818700">
<ele>922.507690</ele>
<time>2009-08-02T08:13:40.996Z</time>
</trkpt>
<trkpt lat="43.2000400" lon="-2.9817600">
<ele>923.970703</ele>
<time>2009-08-02T08:13:51.001Z</time>
</trkpt>
<trkpt lat="43.2002000" lon="-2.9816800">
<ele>925.403320</ele>
<time>2009-08-02T08:14:07.996Z</time>
</trkpt>
<trkpt lat="43.2002900" lon="-2.9816900">
<ele>925.403320</ele>
<time>2009-08-02T08:14:14.001Z</time>
</trkpt>
<trkpt lat="43.2003700" lon="-2.9816900">
<ele>926.378662</ele>
<time>2009-08-02T08:14:20.999Z</time>
</trkpt>
<trkpt lat="43.2005100" lon="-2.9815700">
<ele>928.756104</ele>
<time>2009-08-02T08:14:38.996Z</time>
</trkpt>
<trkpt lat="43.2005500" lon="-2.9815300">
<ele>929.243774</ele>
<time>2009-08-02T08:14:42.996Z</time>
</trkpt>
<trkpt lat="43.2006900" lon="-2.9813800">
<ele>931.651733</ele>
<time>2009-08-02T08:15:00.000Z</time>
</trkpt>
<trkpt lat="43.2008900" lon="-2.9813300">
<ele>935.004517</ele>
<time>2009-08-02T08:15:18.999Z</time>
</trkpt>
<trkpt lat="43.2010000" lon="-2.9813300">
<ele>935.979858</ele>
<time>2009-08-02T08:15:28.002Z</time>
</trkpt>
<trkpt lat="43.2010300" lon="-2.9812900">
<ele>936.467468</ele>
<time>2009-08-02T08:15:32.003Z</time>
</trkpt>
<trkpt lat="43.2011100" lon="-2.9812100">
<ele>938.387756</ele>
<time>2009-08-02T08:15:41.999Z</time>
</trkpt>
<trkpt lat="43.2011100" lon="-2.9811700">
<ele>938.875427</ele>
<time>2009-08-02T08:15:44.997Z</time>
</trkpt>
<trkpt lat="43.2011400" lon="-2.9811200">
<ele>939.332642</ele>
<time>2009-08-02T08:15:48.997Z</time>
</trkpt>
<trkpt lat="43.2013200" lon="-2.9810600">
<ele>940.307983</ele>
<time>2009-08-02T08:16:06.001Z</time>
</trkpt>
<trkpt lat="43.2014600" lon="-2.9810400">
<ele>942.715881</ele>
<time>2009-08-02T08:16:19.998Z</time>
</trkpt>
<trkpt lat="43.2016000" lon="-2.9811100">
<ele>945.581055</ele>
<time>2009-08-02T08:16:34.003Z</time>
</trkpt>
<trkpt lat="43.2017400" lon="-2.9811500">
<ele>947.988953</ele>
<time>2009-08-02T08:16:46.004Z</time>
</trkpt>
<trkpt lat="43.2017900" lon="-2.9811700">
<ele>949.909180</ele>
<time>2009-08-02T08:16:52.000Z</time>
</trkpt>
<trkpt lat="43.2017900" lon="-2.9811800">
<ele>949.909180</ele>
<time>2009-08-02T08:16:53.996Z</time>
</trkpt>
<trkpt lat="43.2018300" lon="-2.9812500">
<ele>953.780151</ele>
<time>2009-08-02T08:17:06.999Z</time>
</trkpt>
<trkpt lat="43.2018900" lon="-2.9812400">
<ele>955.700378</ele>
<time>2009-08-02T08:17:16.002Z</time>
</trkpt>
<trkpt lat="43.2019100" lon="-2.9812300">
<ele>956.645325</ele>
<time>2009-08-02T08:17:19.000Z</time>
</trkpt>
<trkpt lat="43.2019800" lon="-2.9812000">
<ele>959.053223</ele>
<time>2009-08-02T08:17:28.003Z</time>
</trkpt>
<trkpt lat="43.2020400" lon="-2.9811200">
<ele>962.893738</ele>
<time>2009-08-02T08:17:40.004Z</time>
</trkpt>
<trkpt lat="43.2020800" lon="-2.9811100">
<ele>964.326233</ele>
<time>2009-08-02T08:17:47.003Z</time>
</trkpt>
<trkpt lat="43.2020800" lon="-2.9809800">
<ele>966.734131</ele>
<time>2009-08-02T08:18:00.999Z</time>
</trkpt>
<trkpt lat="43.2021100" lon="-2.9809700">
<ele>969.629761</ele>
<time>2009-08-02T08:18:10.002Z</time>
</trkpt>
<trkpt lat="43.2021000" lon="-2.9808900">
<ele>971.549988</ele>
<time>2009-08-02T08:18:21.001Z</time>
</trkpt>
<trkpt lat="43.2021100" lon="-2.9807900">
<ele>974.445618</ele>
<time>2009-08-02T08:18:30.997Z</time>
</trkpt>
<trkpt lat="43.2021100" lon="-2.9806600">
<ele>977.310669</ele>
<time>2009-08-02T08:18:45.996Z</time>
</trkpt>
<trkpt lat="43.2021800" lon="-2.9806700">
<ele>980.206299</ele>
<time>2009-08-02T08:18:59.000Z</time>
</trkpt>
<trkpt lat="43.2022400" lon="-2.9805700">
<ele>983.559082</ele>
<time>2009-08-02T08:19:12.003Z</time>
</trkpt>
<trkpt lat="43.2022300" lon="-2.9805100">
<ele>985.022156</ele>
<time>2009-08-02T08:19:17.999Z</time>
</trkpt>
<trkpt lat="43.2022300" lon="-2.9803900">
<ele>986.942383</ele>
<time>2009-08-02T08:19:28.004Z</time>
</trkpt>
<trkpt lat="43.2022500" lon="-2.9803400">
<ele>987.887329</ele>
<time>2009-08-02T08:19:31.996Z</time>
</trkpt>
<trkpt lat="43.2023000" lon="-2.9800800">
<ele>990.782898</ele>
<time>2009-08-02T08:19:50.002Z</time>
</trkpt>
<trkpt lat="43.2023100" lon="-2.9798600">
<ele>992.703064</ele>
<time>2009-08-02T08:20:05.001Z</time>
</trkpt>
<trkpt lat="43.2023100" lon="-2.9798100">
<ele>993.190796</ele>
<time>2009-08-02T08:20:09.001Z</time>
</trkpt>
<trkpt lat="43.2022900" lon="-2.9796000">
<ele>995.111084</ele>
<time>2009-08-02T08:20:25.996Z</time>
</trkpt>
<trkpt lat="43.2022800" lon="-2.9795000">
<ele>993.648010</ele>
<time>2009-08-02T08:20:38.999Z</time>
</trkpt>
<trkpt lat="43.2022800" lon="-2.9795000">
<ele>997.518921</ele>
<time>2009-08-02T08:20:41.004Z</time>
</trkpt>
<trkpt lat="43.2023100" lon="-2.9794700">
<ele>994.623352</ele>
<time>2009-08-02T08:20:53.998Z</time>
</trkpt>
<trkpt lat="43.2023000" lon="-2.9794800">
<ele>994.623352</ele>
<time>2009-08-02T08:22:39.000Z</time>
</trkpt>
<trkpt lat="43.2023000" lon="-2.9794700">
<ele>995.568237</ele>
<time>2009-08-02T08:23:41.001Z</time>
</trkpt>
<trkpt lat="43.2022900" lon="-2.9794900">
<ele>996.055908</ele>
<time>2009-08-02T08:25:07.003Z</time>
</trkpt>
<trkpt lat="43.2022800" lon="-2.9795100">
<ele>995.568237</ele>
<time>2009-08-02T08:25:08.999Z</time>
</trkpt>
<trkpt lat="43.2022900" lon="-2.9798000">
<ele>994.135681</ele>
<time>2009-08-02T08:25:27.998Z</time>
</trkpt>
<trkpt lat="43.2022900" lon="-2.9800700">
<ele>991.270569</ele>
<time>2009-08-02T08:25:45.002Z</time>
</trkpt>
<trkpt lat="43.2023100" lon="-2.9803400">
<ele>987.887329</ele>
<time>2009-08-02T08:26:01.003Z</time>
</trkpt>
<trkpt lat="43.2023300" lon="-2.9805400">
<ele>984.534485</ele>
<time>2009-08-02T08:26:13.004Z</time>
</trkpt>
<trkpt lat="43.2023600" lon="-2.9807400">
<ele>981.638916</ele>
<time>2009-08-02T08:26:24.996Z</time>
</trkpt>
<trkpt lat="43.2023800" lon="-2.9810300">
<ele>978.286133</ele>
<time>2009-08-02T08:26:40.998Z</time>
</trkpt>
<trkpt lat="43.2023900" lon="-2.9812500">
<ele>974.902771</ele>
<time>2009-08-02T08:26:52.999Z</time>
</trkpt>
<trkpt lat="43.2022300" lon="-2.9815000">
<ele>973.957886</ele>
<time>2009-08-02T08:27:10.996Z</time>
</trkpt>
<trkpt lat="43.2020300" lon="-2.9818300">
<ele>973.957886</ele>
<time>2009-08-02T08:27:33.002Z</time>
</trkpt>
<trkpt lat="43.2018700" lon="-2.9820600">
<ele>973.470276</ele>
<time>2009-08-02T08:27:50.999Z</time>
</trkpt>
<trkpt lat="43.2016700" lon="-2.9822500">
<ele>973.957886</ele>
<time>2009-08-02T08:28:09.998Z</time>
</trkpt>
<trkpt lat="43.2014700" lon="-2.9824100">
<ele>972.525330</ele>
<time>2009-08-02T08:28:27.002Z</time>
</trkpt>
<trkpt lat="43.2012800" lon="-2.9826300">
<ele>970.117432</ele>
<time>2009-08-02T08:28:46.001Z</time>
</trkpt>
<trkpt lat="43.2010900" lon="-2.9829000">
<ele>967.709473</ele>
<time>2009-08-02T08:29:07.999Z</time>
</trkpt>
<trkpt lat="43.2009200" lon="-2.9831900">
<ele>966.276917</ele>
<time>2009-08-02T08:29:29.996Z</time>
</trkpt>
<trkpt lat="43.2008100" lon="-2.9834000">
<ele>966.734131</ele>
<time>2009-08-02T08:29:45.997Z</time>
</trkpt>
<trkpt lat="43.2007400" lon="-2.9836400">
<ele>966.276917</ele>
<time>2009-08-02T08:30:00.996Z</time>
</trkpt>
<trkpt lat="43.2006500" lon="-2.9839900">
<ele>964.326233</ele>
<time>2009-08-02T08:30:20.998Z</time>
</trkpt>
<trkpt lat="43.2006000" lon="-2.9843100">
<ele>961.948792</ele>
<time>2009-08-02T08:30:39.004Z</time>
</trkpt>
<trkpt lat="43.2005600" lon="-2.9846200">
<ele>959.053223</ele>
<time>2009-08-02T08:30:57.001Z</time>
</trkpt>
<trkpt lat="43.2005300" lon="-2.9849400">
<ele>955.700378</ele>
<time>2009-08-02T08:31:14.998Z</time>
</trkpt>
<trkpt lat="43.2005300" lon="-2.9851600">
<ele>952.317078</ele>
<time>2009-08-02T08:31:26.999Z</time>
</trkpt>
<trkpt lat="43.2005600" lon="-2.9853800">
<ele>948.964294</ele>
<time>2009-08-02T08:31:39.000Z</time>
</trkpt>
<trkpt lat="43.2006100" lon="-2.9856100">
<ele>945.581055</ele>
<time>2009-08-02T08:31:52.003Z</time>
</trkpt>
<trkpt lat="43.2006900" lon="-2.9859600">
<ele>942.715881</ele>
<time>2009-08-02T08:32:11.996Z</time>
</trkpt>
<trkpt lat="43.2007500" lon="-2.9862500">
<ele>943.203613</ele>
<time>2009-08-02T08:32:29.000Z</time>
</trkpt>
<trkpt lat="43.2008400" lon="-2.9865800">
<ele>943.660828</ele>
<time>2009-08-02T08:32:49.001Z</time>
</trkpt>
<trkpt lat="43.2009400" lon="-2.9868600">
<ele>946.068665</ele>
<time>2009-08-02T08:33:06.998Z</time>
</trkpt>
<trkpt lat="43.2009500" lon="-2.9871100">
<ele>948.476685</ele>
<time>2009-08-02T08:33:21.997Z</time>
</trkpt>
<trkpt lat="43.2009500" lon="-2.9873500">
<ele>950.884521</ele>
<time>2009-08-02T08:33:37.999Z</time>
</trkpt>
<trkpt lat="43.2009600" lon="-2.9876100">
<ele>953.780151</ele>
<time>2009-08-02T08:33:54.000Z</time>
</trkpt>
<trkpt lat="43.2009600" lon="-2.9876200">
<ele>954.237366</ele>
<time>2009-08-02T08:33:55.002Z</time>
</trkpt>
<trkpt lat="43.2009300" lon="-2.9879000">
<ele>956.157593</ele>
<time>2009-08-02T08:34:11.997Z</time>
</trkpt>
<trkpt lat="43.2008300" lon="-2.9882400">
<ele>955.700378</ele>
<time>2009-08-02T08:34:30.003Z</time>
</trkpt>
<trkpt lat="43.2007900" lon="-2.9884100">
<ele>954.237366</ele>
<time>2009-08-02T08:34:41.002Z</time>
</trkpt>
<trkpt lat="43.2007500" lon="-2.9885300">
<ele>951.372253</ele>
<time>2009-08-02T08:34:48.000Z</time>
</trkpt>
<trkpt lat="43.2007300" lon="-2.9886100">
<ele>949.909180</ele>
<time>2009-08-02T08:34:53.003Z</time>
</trkpt>
<trkpt lat="43.2006100" lon="-2.9888800">
<ele>946.556396</ele>
<time>2009-08-02T08:35:09.997Z</time>
</trkpt>
<trkpt lat="43.2005100" lon="-2.9891800">
<ele>945.123840</ele>
<time>2009-08-02T08:35:28.997Z</time>
</trkpt>
<trkpt lat="43.2005000" lon="-2.9894700">
<ele>946.556396</ele>
<time>2009-08-02T08:35:46.000Z</time>
</trkpt>
<trkpt lat="43.2004700" lon="-2.9896600">
<ele>949.909180</ele>
<time>2009-08-02T08:35:58.001Z</time>
</trkpt>
<trkpt lat="43.2004400" lon="-2.9898200">
<ele>953.292480</ele>
<time>2009-08-02T08:36:10.002Z</time>
</trkpt>
<trkpt lat="43.2004300" lon="-2.9898400">
<ele>953.780151</ele>
<time>2009-08-02T08:36:11.998Z</time>
</trkpt>
<trkpt lat="43.2004000" lon="-2.9898700">
<ele>954.237366</ele>
<time>2009-08-02T08:36:14.996Z</time>
</trkpt>
<trkpt lat="43.2003700" lon="-2.9900500">
<ele>957.620667</ele>
<time>2009-08-02T08:36:27.999Z</time>
</trkpt>
<trkpt lat="43.2003100" lon="-2.9902700">
<ele>960.028564</ele>
<time>2009-08-02T08:36:44.001Z</time>
</trkpt>
<trkpt lat="43.2002400" lon="-2.9905200">
<ele>960.485718</ele>
<time>2009-08-02T08:37:00.002Z</time>
</trkpt>
<trkpt lat="43.2002100" lon="-2.9906100">
<ele>960.973450</ele>
<time>2009-08-02T08:37:08.003Z</time>
</trkpt>
<trkpt lat="43.2002100" lon="-2.9907300">
<ele>960.973450</ele>
<time>2009-08-02T08:37:15.001Z</time>
</trkpt>
<trkpt lat="43.2001400" lon="-2.9910100">
<ele>959.053223</ele>
<time>2009-08-02T08:37:31.002Z</time>
</trkpt>
<trkpt lat="43.2000300" lon="-2.9913200">
<ele>957.620667</ele>
<time>2009-08-02T08:37:50.002Z</time>
</trkpt>
<trkpt lat="43.1999400" lon="-2.9916300">
<ele>955.700378</ele>
<time>2009-08-02T08:38:09.001Z</time>
</trkpt>
<trkpt lat="43.1999400" lon="-2.9916900">
<ele>954.725037</ele>
<time>2009-08-02T08:38:14.004Z</time>
</trkpt>
<trkpt lat="43.1999600" lon="-2.9917400">
<ele>952.804810</ele>
<time>2009-08-02T08:38:22.004Z</time>
</trkpt>
<trkpt lat="43.1999300" lon="-2.9917900">
<ele>949.909180</ele>
<time>2009-08-02T08:38:29.996Z</time>
</trkpt>
<trkpt lat="43.1998600" lon="-2.9917900">
<ele>947.044128</ele>
<time>2009-08-02T08:38:37.997Z</time>
</trkpt>
<trkpt lat="43.1997900" lon="-2.9918300">
<ele>944.148499</ele>
<time>2009-08-02T08:38:44.002Z</time>
</trkpt>
<trkpt lat="43.1997000" lon="-2.9920000">
<ele>941.252930</ele>
<time>2009-08-02T08:38:56.003Z</time>
</trkpt>
<trkpt lat="43.1996600" lon="-2.9922100">
<ele>938.875427</ele>
<time>2009-08-02T08:39:08.997Z</time>
</trkpt>
<trkpt lat="43.1996200" lon="-2.9923800">
<ele>937.412415</ele>
<time>2009-08-02T08:39:19.002Z</time>
</trkpt>
<trkpt lat="43.1996100" lon="-2.9924800">
<ele>936.955200</ele>
<time>2009-08-02T08:39:26.001Z</time>
</trkpt>
<trkpt lat="43.1996000" lon="-2.9925300">
<ele>935.492126</ele>
<time>2009-08-02T08:39:30.001Z</time>
</trkpt>
<trkpt lat="43.1996300" lon="-2.9926400">
<ele>932.139343</ele>
<time>2009-08-02T08:39:42.002Z</time>
</trkpt>
<trkpt lat="43.1995900" lon="-2.9926700">
<ele>930.219116</ele>
<time>2009-08-02T08:39:46.996Z</time>
</trkpt>
<trkpt lat="43.1995700" lon="-2.9926900">
<ele>929.243774</ele>
<time>2009-08-02T08:39:49.000Z</time>
</trkpt>
<trkpt lat="43.1994700" lon="-2.9927300">
<ele>926.378662</ele>
<time>2009-08-02T08:39:58.997Z</time>
</trkpt>
<trkpt lat="43.1993900" lon="-2.9927700">
<ele>923.483032</ele>
<time>2009-08-02T08:40:06.997Z</time>
</trkpt>
<trkpt lat="43.1993400" lon="-2.9928600">
<ele>921.075073</ele>
<time>2009-08-02T08:40:14.998Z</time>
</trkpt>
<trkpt lat="43.1992700" lon="-2.9929600">
<ele>918.210022</ele>
<time>2009-08-02T08:40:25.003Z</time>
</trkpt>
<trkpt lat="43.1992700" lon="-2.9930000">
<ele>916.746948</ele>
<time>2009-08-02T08:40:28.001Z</time>
</trkpt>
<trkpt lat="43.1992200" lon="-2.9930800">
<ele>915.314392</ele>
<time>2009-08-02T08:40:35.000Z</time>
</trkpt>
<trkpt lat="43.1992200" lon="-2.9930900">
<ele>914.826660</ele>
<time>2009-08-02T08:40:36.002Z</time>
</trkpt>
<trkpt lat="43.1991900" lon="-2.9931500">
<ele>912.906494</ele>
<time>2009-08-02T08:40:40.996Z</time>
</trkpt>
<trkpt lat="43.1991300" lon="-2.9932700">
<ele>909.065979</ele>
<time>2009-08-02T08:40:52.003Z</time>
</trkpt>
<trkpt lat="43.1991000" lon="-2.9933300">
<ele>906.658081</ele>
<time>2009-08-02T08:40:56.004Z</time>
</trkpt>
<trkpt lat="43.1990700" lon="-2.9934000">
<ele>904.250122</ele>
<time>2009-08-02T08:41:02.000Z</time>
</trkpt>
<trkpt lat="43.1990200" lon="-2.9935300">
<ele>901.385071</ele>
<time>2009-08-02T08:41:14.001Z</time>
</trkpt>
<trkpt lat="43.1989300" lon="-2.9936800">
<ele>898.001770</ele>
<time>2009-08-02T08:41:26.002Z</time>
</trkpt>
<trkpt lat="43.1988600" lon="-2.9940100">
<ele>895.136658</ele>
<time>2009-08-02T08:41:46.003Z</time>
</trkpt>
<trkpt lat="43.1988400" lon="-2.9941100">
<ele>891.753357</ele>
<time>2009-08-02T08:41:54.997Z</time>
</trkpt>
<trkpt lat="43.1988400" lon="-2.9941100">
<ele>891.753357</ele>
<time>2009-08-02T08:41:56.000Z</time>
</trkpt>
<trkpt lat="43.1988400" lon="-2.9942000">
<ele>889.833069</ele>
<time>2009-08-02T08:42:01.996Z</time>
</trkpt>
<trkpt lat="43.1988200" lon="-2.9942900">
<ele>885.992676</ele>
<time>2009-08-02T08:42:10.999Z</time>
</trkpt>
<trkpt lat="43.1988200" lon="-2.9943400">
<ele>884.560120</ele>
<time>2009-08-02T08:42:14.999Z</time>
</trkpt>
<trkpt lat="43.1988100" lon="-2.9944000">
<ele>882.152161</ele>
<time>2009-08-02T08:42:20.002Z</time>
</trkpt>
<trkpt lat="43.1987200" lon="-2.9944500">
<ele>879.256531</ele>
<time>2009-08-02T08:42:36.996Z</time>
</trkpt>
<trkpt lat="43.1987200" lon="-2.9944500">
<ele>879.256531</ele>
<time>2009-08-02T08:42:39.001Z</time>
</trkpt>
<trkpt lat="43.1987900" lon="-2.9945700">
<ele>876.391479</ele>
<time>2009-08-02T08:42:51.002Z</time>
</trkpt>
<trkpt lat="43.1988100" lon="-2.9946400">
<ele>873.495850</ele>
<time>2009-08-02T08:42:59.003Z</time>
</trkpt>
<trkpt lat="43.1987700" lon="-2.9946800">
<ele>870.143066</ele>
<time>2009-08-02T08:43:07.997Z</time>
</trkpt>
<trkpt lat="43.1987700" lon="-2.9947500">
<ele>866.759766</ele>
<time>2009-08-02T08:43:18.002Z</time>
</trkpt>
<trkpt lat="43.1987700" lon="-2.9947600">
<ele>866.272095</ele>
<time>2009-08-02T08:43:19.004Z</time>
</trkpt>
<trkpt lat="43.1987800" lon="-2.9948300">
<ele>863.406921</ele>
<time>2009-08-02T08:43:27.998Z</time>
</trkpt>
<trkpt lat="43.1987800" lon="-2.9948900">
<ele>860.023682</ele>
<time>2009-08-02T08:43:39.999Z</time>
</trkpt>
<trkpt lat="43.1987700" lon="-2.9949400">
<ele>857.158569</ele>
<time>2009-08-02T08:43:49.996Z</time>
</trkpt>
<trkpt lat="43.1987700" lon="-2.9950100">
<ele>854.262939</ele>
<time>2009-08-02T08:44:00.001Z</time>
</trkpt>
<trkpt lat="43.1987500" lon="-2.9950600">
<ele>850.910156</ele>
<time>2009-08-02T08:44:08.002Z</time>
</trkpt>
<trkpt lat="43.1987500" lon="-2.9951500">
<ele>848.014526</ele>
<time>2009-08-02T08:44:19.000Z</time>
</trkpt>
<trkpt lat="43.1987900" lon="-2.9952100">
<ele>844.661743</ele>
<time>2009-08-02T08:44:31.001Z</time>
</trkpt>
<trkpt lat="43.1987800" lon="-2.9952200">
<ele>844.174133</ele>
<time>2009-08-02T08:44:32.997Z</time>
</trkpt>
<trkpt lat="43.1987200" lon="-2.9952400">
<ele>842.741516</ele>
<time>2009-08-02T08:44:40.004Z</time>
</trkpt>
<trkpt lat="43.1987300" lon="-2.9952900">
<ele>840.821289</ele>
<time>2009-08-02T08:44:47.003Z</time>
</trkpt>
<trkpt lat="43.1987300" lon="-2.9953100">
<ele>840.333618</ele>
<time>2009-08-02T08:44:48.998Z</time>
</trkpt>
<trkpt lat="43.1987100" lon="-2.9953500">
<ele>837.437988</ele>
<time>2009-08-02T08:44:55.997Z</time>
</trkpt>
<trkpt lat="43.1987000" lon="-2.9954000">
<ele>836.005432</ele>
<time>2009-08-02T08:45:00.999Z</time>
</trkpt>
<trkpt lat="43.1986900" lon="-2.9954500">
<ele>834.085205</ele>
<time>2009-08-02T08:45:05.000Z</time>
</trkpt>
<trkpt lat="43.1986900" lon="-2.9955400">
<ele>830.701904</ele>
<time>2009-08-02T08:45:15.998Z</time>
</trkpt>
<trkpt lat="43.1986900" lon="-2.9955700">
<ele>829.757080</ele>
<time>2009-08-02T08:45:18.003Z</time>
</trkpt>
<trkpt lat="43.1986900" lon="-2.9956800">
<ele>826.404236</ele>
<time>2009-08-02T08:45:30.004Z</time>
</trkpt>
<trkpt lat="43.1986900" lon="-2.9957400">
<ele>824.453491</ele>
<time>2009-08-02T08:45:34.998Z</time>
</trkpt>
<trkpt lat="43.1986900" lon="-2.9958000">
<ele>823.508667</ele>
<time>2009-08-02T08:45:40.000Z</time>
</trkpt>
<trkpt lat="43.1987000" lon="-2.9958300">
<ele>821.100708</ele>
<time>2009-08-02T08:45:42.998Z</time>
</trkpt>
<trkpt lat="43.1987200" lon="-2.9958500">
<ele>821.100708</ele>
<time>2009-08-02T08:45:45.003Z</time>
</trkpt>
<trkpt lat="43.1987200" lon="-2.9958900">
<ele>820.155884</ele>
<time>2009-08-02T08:45:48.001Z</time>
</trkpt>
<trkpt lat="43.1987200" lon="-2.9959400">
<ele>818.205078</ele>
<time>2009-08-02T08:45:52.001Z</time>
</trkpt>
<trkpt lat="43.1987100" lon="-2.9959900">
<ele>817.747864</ele>
<time>2009-08-02T08:45:54.999Z</time>
</trkpt>
<trkpt lat="43.1987000" lon="-2.9960700">
<ele>815.340027</ele>
<time>2009-08-02T08:46:01.004Z</time>
</trkpt>
<trkpt lat="43.1987200" lon="-2.9961300">
<ele>814.364685</ele>
<time>2009-08-02T08:46:04.996Z</time>
</trkpt>
<trkpt lat="43.1987300" lon="-2.9961600">
<ele>812.932129</ele>
<time>2009-08-02T08:46:07.000Z</time>
</trkpt>
<trkpt lat="43.1987200" lon="-2.9962000">
<ele>812.444397</ele>
<time>2009-08-02T08:46:09.998Z</time>
</trkpt>
<trkpt lat="43.1987100" lon="-2.9962200">
<ele>811.956665</ele>
<time>2009-08-02T08:46:12.003Z</time>
</trkpt>
<trkpt lat="43.1986700" lon="-2.9962900">
<ele>810.036499</ele>
<time>2009-08-02T08:46:17.999Z</time>
</trkpt>
<trkpt lat="43.1986100" lon="-2.9963800">
<ele>808.603882</ele>
<time>2009-08-02T08:46:24.997Z</time>
</trkpt>
<trkpt lat="43.1985800" lon="-2.9964200">
<ele>807.171326</ele>
<time>2009-08-02T08:46:28.998Z</time>
</trkpt>
<trkpt lat="43.1985600" lon="-2.9964800">
<ele>805.708313</ele>
<time>2009-08-02T08:46:35.003Z</time>
</trkpt>
<trkpt lat="43.1985400" lon="-2.9965800">
<ele>803.788086</ele>
<time>2009-08-02T08:46:43.997Z</time>
</trkpt>
<trkpt lat="43.1984400" lon="-2.9968500">
<ele>802.355469</ele>
<time>2009-08-02T08:46:59.998Z</time>
</trkpt>
<trkpt lat="43.1983700" lon="-2.9971100">
<ele>799.947571</ele>
<time>2009-08-02T08:47:14.997Z</time>
</trkpt>
<trkpt lat="43.1982700" lon="-2.9974700">
<ele>798.515076</ele>
<time>2009-08-02T08:47:34.999Z</time>
</trkpt>
<trkpt lat="43.1982100" lon="-2.9978200">
<ele>798.027344</ele>
<time>2009-08-02T08:47:53.998Z</time>
</trkpt>
<trkpt lat="43.1981300" lon="-2.9981300">
<ele>796.594788</ele>
<time>2009-08-02T08:48:11.002Z</time>
</trkpt>
<trkpt lat="43.1980900" lon="-2.9985000">
<ele>795.162231</ele>
<time>2009-08-02T08:48:31.003Z</time>
</trkpt>
<trkpt lat="43.1980100" lon="-2.9988200">
<ele>798.027344</ele>
<time>2009-08-02T08:48:50.996Z</time>
</trkpt>
<trkpt lat="43.1979500" lon="-2.9991000">
<ele>799.947571</ele>
<time>2009-08-02T08:49:08.000Z</time>
</trkpt>
<trkpt lat="43.1979000" lon="-2.9993600">
<ele>802.355469</ele>
<time>2009-08-02T08:49:25.003Z</time>
</trkpt>
<trkpt lat="43.1978700" lon="-2.9997100">
<ele>799.947571</ele>
<time>2009-08-02T08:49:44.996Z</time>
</trkpt>
<trkpt lat="43.1978300" lon="-2.9999800">
<ele>799.947571</ele>
<time>2009-08-02T08:50:00.997Z</time>
</trkpt>
<trkpt lat="43.1977800" lon="-3.0001600">
<ele>797.082520</ele>
<time>2009-08-02T08:50:11.996Z</time>
</trkpt>
<trkpt lat="43.1977100" lon="-3.0004500">
<ele>795.162231</ele>
<time>2009-08-02T08:50:29.000Z</time>
</trkpt>
<trkpt lat="43.1976400" lon="-3.0007300">
<ele>795.162231</ele>
<time>2009-08-02T08:50:45.001Z</time>
</trkpt>
<trkpt lat="43.1976000" lon="-3.0010700">
<ele>794.674561</ele>
<time>2009-08-02T08:51:04.000Z</time>
</trkpt>
<trkpt lat="43.1975600" lon="-3.0013800">
<ele>794.674561</ele>
<time>2009-08-02T08:51:21.997Z</time>
</trkpt>
<trkpt lat="43.1974900" lon="-3.0016100">
<ele>798.027344</ele>
<time>2009-08-02T08:51:40.997Z</time>
</trkpt>
<trkpt lat="43.1974300" lon="-3.0017400">
<ele>799.002686</ele>
<time>2009-08-02T08:51:54.000Z</time>
</trkpt>
<trkpt lat="43.1974200" lon="-3.0017700">
<ele>798.515076</ele>
<time>2009-08-02T08:51:55.996Z</time>
</trkpt>
<trkpt lat="43.1973900" lon="-3.0018200">
<ele>797.082520</ele>
<time>2009-08-02T08:51:59.996Z</time>
</trkpt>
<trkpt lat="43.1972500" lon="-3.0020900">
<ele>798.027344</ele>
<time>2009-08-02T08:52:18.002Z</time>
</trkpt>
<trkpt lat="43.1971700" lon="-3.0023200">
<ele>799.459900</ele>
<time>2009-08-02T08:52:34.003Z</time>
</trkpt>
<trkpt lat="43.1971400" lon="-3.0024500">
<ele>802.843201</ele>
<time>2009-08-02T08:52:44.000Z</time>
</trkpt>
<trkpt lat="43.1971400" lon="-3.0024700">
<ele>802.843201</ele>
<time>2009-08-02T08:52:45.002Z</time>
</trkpt>
<trkpt lat="43.1971400" lon="-3.0024900">
<ele>802.843201</ele>
<time>2009-08-02T08:52:46.998Z</time>
</trkpt>
<trkpt lat="43.1971100" lon="-3.0025900">
<ele>804.275757</ele>
<time>2009-08-02T08:52:53.003Z</time>
</trkpt>
<trkpt lat="43.1970900" lon="-3.0026400">
<ele>805.251099</ele>
<time>2009-08-02T08:52:57.003Z</time>
</trkpt>
<trkpt lat="43.1970000" lon="-3.0028700">
<ele>806.195984</ele>
<time>2009-08-02T08:53:13.004Z</time>
</trkpt>
<trkpt lat="43.1969700" lon="-3.0029900">
<ele>806.683716</ele>
<time>2009-08-02T08:53:20.996Z</time>
</trkpt>
<trkpt lat="43.1969500" lon="-3.0030900">
<ele>809.579285</ele>
<time>2009-08-02T08:53:29.999Z</time>
</trkpt>
<trkpt lat="43.1969100" lon="-3.0032200">
<ele>810.524170</ele>
<time>2009-08-02T08:53:40.004Z</time>
</trkpt>
<trkpt lat="43.1969500" lon="-3.0032700">
<ele>808.603882</ele>
<time>2009-08-02T08:53:46.000Z</time>
</trkpt>
<trkpt lat="43.1969400" lon="-3.0033100">
<ele>808.603882</ele>
<time>2009-08-02T08:53:48.998Z</time>
</trkpt>
<trkpt lat="43.1969300" lon="-3.0033600">
<ele>807.659058</ele>
<time>2009-08-02T08:53:52.999Z</time>
</trkpt>
<trkpt lat="43.1968400" lon="-3.0036200">
<ele>806.195984</ele>
<time>2009-08-02T08:54:10.002Z</time>
</trkpt>
<trkpt lat="43.1967300" lon="-3.0038300">
<ele>805.251099</ele>
<time>2009-08-02T08:54:26.004Z</time>
</trkpt>
<trkpt lat="43.1966600" lon="-3.0039500">
<ele>803.788086</ele>
<time>2009-08-02T08:54:34.998Z</time>
</trkpt>
<trkpt lat="43.1965400" lon="-3.0041700">
<ele>805.251099</ele>
<time>2009-08-02T08:54:53.004Z</time>
</trkpt>
<trkpt lat="43.1965000" lon="-3.0042800">
<ele>808.116272</ele>
<time>2009-08-02T08:55:01.998Z</time>
</trkpt>
<trkpt lat="43.1965000" lon="-3.0043200">
<ele>810.036499</ele>
<time>2009-08-02T08:55:07.000Z</time>
</trkpt>
<trkpt lat="43.1965000" lon="-3.0043300">
<ele>811.011841</ele>
<time>2009-08-02T08:55:08.996Z</time>
</trkpt>
<trkpt lat="43.1965000" lon="-3.0043900">
<ele>811.011841</ele>
<time>2009-08-02T08:55:12.996Z</time>
</trkpt>
<trkpt lat="43.1965200" lon="-3.0044800">
<ele>810.036499</ele>
<time>2009-08-02T08:55:19.001Z</time>
</trkpt>
<trkpt lat="43.1965400" lon="-3.0046200">
<ele>809.579285</ele>
<time>2009-08-02T08:55:28.004Z</time>
</trkpt>
<trkpt lat="43.1965200" lon="-3.0047500">
<ele>809.579285</ele>
<time>2009-08-02T08:55:36.998Z</time>
</trkpt>
<trkpt lat="43.1965100" lon="-3.0047800">
<ele>809.091614</ele>
<time>2009-08-02T08:55:39.003Z</time>
</trkpt>
<trkpt lat="43.1964800" lon="-3.0049000">
<ele>811.011841</ele>
<time>2009-08-02T08:55:47.997Z</time>
</trkpt>
<trkpt lat="43.1964300" lon="-3.0050300">
<ele>813.907471</ele>
<time>2009-08-02T08:55:58.002Z</time>
</trkpt>
<trkpt lat="43.1964400" lon="-3.0052000">
<ele>816.284912</ele>
<time>2009-08-02T08:56:13.001Z</time>
</trkpt>
<trkpt lat="43.1964600" lon="-3.0053200">
<ele>818.205078</ele>
<time>2009-08-02T08:56:26.998Z</time>
</trkpt>
<trkpt lat="43.1964800" lon="-3.0054200">
<ele>821.588379</ele>
<time>2009-08-02T08:56:37.003Z</time>
</trkpt>
<trkpt lat="43.1964600" lon="-3.0054300">
<ele>822.076111</ele>
<time>2009-08-02T08:56:41.004Z</time>
</trkpt>
<trkpt lat="43.1963600" lon="-3.0053800">
<ele>825.428894</ele>
<time>2009-08-02T08:56:56.003Z</time>
</trkpt>
<trkpt lat="43.1963600" lon="-3.0053900">
<ele>825.428894</ele>
<time>2009-08-02T08:56:56.996Z</time>
</trkpt>
<trkpt lat="43.1963700" lon="-3.0054700">
<ele>827.836792</ele>
<time>2009-08-02T08:57:08.997Z</time>
</trkpt>
<trkpt lat="43.1963200" lon="-3.0055000">
<ele>830.244690</ele>
<time>2009-08-02T08:57:20.998Z</time>
</trkpt>
<trkpt lat="43.1962400" lon="-3.0055000">
<ele>832.164917</ele>
<time>2009-08-02T08:57:31.003Z</time>
</trkpt>
<trkpt lat="43.1962300" lon="-3.0055500">
<ele>834.572937</ele>
<time>2009-08-02T08:57:42.002Z</time>
</trkpt>
<trkpt lat="43.1961900" lon="-3.0056100">
<ele>837.925720</ele>
<time>2009-08-02T08:57:54.003Z</time>
</trkpt>
<trkpt lat="43.1962300" lon="-3.0056900">
<ele>840.821289</ele>
<time>2009-08-02T08:58:10.004Z</time>
</trkpt>
<trkpt lat="43.1962300" lon="-3.0057400">
<ele>843.198669</ele>
<time>2009-08-02T08:58:24.001Z</time>
</trkpt>
<trkpt lat="43.1962400" lon="-3.0058000">
<ele>846.094299</ele>
<time>2009-08-02T08:58:36.002Z</time>
</trkpt>
<trkpt lat="43.1962600" lon="-3.0058900">
<ele>849.447083</ele>
<time>2009-08-02T08:58:51.001Z</time>
</trkpt>
<trkpt lat="43.1962700" lon="-3.0059500">
<ele>852.342712</ele>
<time>2009-08-02T08:59:04.004Z</time>
</trkpt>
<trkpt lat="43.1962700" lon="-3.0060100">
<ele>855.238281</ele>
<time>2009-08-02T08:59:19.997Z</time>
</trkpt>
<trkpt lat="43.1962700" lon="-3.0060800">
<ele>858.103455</ele>
<time>2009-08-02T08:59:31.998Z</time>
</trkpt>
<trkpt lat="43.1962600" lon="-3.0061300">
<ele>860.999084</ele>
<time>2009-08-02T08:59:47.999Z</time>
</trkpt>
<trkpt lat="43.1962100" lon="-3.0061000">
<ele>862.919312</ele>
<time>2009-08-02T09:00:01.996Z</time>
</trkpt>
<trkpt lat="43.1962100" lon="-3.0061600">
<ele>866.272095</ele>
<time>2009-08-02T09:00:17.004Z</time>
</trkpt>
<trkpt lat="43.1962000" lon="-3.0062200">
<ele>869.167725</ele>
<time>2009-08-02T09:00:35.001Z</time>
</trkpt>
<trkpt lat="43.1961900" lon="-3.0062200">
<ele>870.143066</ele>
<time>2009-08-02T09:00:51.002Z</time>
</trkpt>
<trkpt lat="43.1962200" lon="-3.0062500">
<ele>873.495850</ele>
<time>2009-08-02T09:01:03.003Z</time>
</trkpt>
<trkpt lat="43.1962600" lon="-3.0062900">
<ele>876.391479</ele>
<time>2009-08-02T09:01:34.997Z</time>
</trkpt>
<trkpt lat="43.1962600" lon="-3.0063200">
<ele>879.744263</ele>
<time>2009-08-02T09:01:53.996Z</time>
</trkpt>
<trkpt lat="43.1962700" lon="-3.0063600">
<ele>882.639832</ele>
<time>2009-08-02T09:02:09.004Z</time>
</trkpt>
<trkpt lat="43.1962200" lon="-3.0064100">
<ele>885.504944</ele>
<time>2009-08-02T09:02:24.003Z</time>
</trkpt>
<trkpt lat="43.1962300" lon="-3.0064400">
<ele>887.425171</ele>
<time>2009-08-02T09:02:33.999Z</time>
</trkpt>
<trkpt lat="43.1962500" lon="-3.0065100">
<ele>890.320801</ele>
<time>2009-08-02T09:02:47.003Z</time>
</trkpt>
<trkpt lat="43.1962700" lon="-3.0066100">
<ele>893.673584</ele>
<time>2009-08-02T09:03:00.999Z</time>
</trkpt>
<trkpt lat="43.1962900" lon="-3.0066800">
<ele>896.081482</ele>
<time>2009-08-02T09:03:14.996Z</time>
</trkpt>
<trkpt lat="43.1963000" lon="-3.0066900">
<ele>896.081482</ele>
<time>2009-08-02T09:03:17.001Z</time>
</trkpt>
<trkpt lat="43.1964300" lon="-3.0068900">
<ele>896.569214</ele>
<time>2009-08-02T09:03:34.998Z</time>
</trkpt>
<trkpt lat="43.1965400" lon="-3.0070900">
<ele>898.489441</ele>
<time>2009-08-02T09:03:50.999Z</time>
</trkpt>
<trkpt lat="43.1965700" lon="-3.0071300">
<ele>899.464783</ele>
<time>2009-08-02T09:03:56.002Z</time>
</trkpt>
<trkpt lat="43.1966400" lon="-3.0073900">
<ele>900.897339</ele>
<time>2009-08-02T09:04:16.003Z</time>
</trkpt>
<trkpt lat="43.1966500" lon="-3.0074600">
<ele>902.329895</ele>
<time>2009-08-02T09:04:21.999Z</time>
</trkpt>
<trkpt lat="43.1966800" lon="-3.0076200">
<ele>902.817627</ele>
<time>2009-08-02T09:04:38.001Z</time>
</trkpt>
<trkpt lat="43.1966900" lon="-3.0076100">
<ele>902.817627</ele>
<time>2009-08-02T09:05:14.997Z</time>
</trkpt>
<trkpt lat="43.1966800" lon="-3.0075700">
<ele>903.305298</ele>
<time>2009-08-02T09:05:21.002Z</time>
</trkpt>
<trkpt lat="43.1966900" lon="-3.0075600">
<ele>902.329895</ele>
<time>2009-08-02T09:05:33.003Z</time>
</trkpt>
<trkpt lat="43.1966800" lon="-3.0075900">
<ele>903.305298</ele>
<time>2009-08-02T09:06:07.001Z</time>
</trkpt>
<trkpt lat="43.1966900" lon="-3.0075900">
<ele>904.250122</ele>
<time>2009-08-02T09:06:22.000Z</time>
</trkpt>
<trkpt lat="43.1966600" lon="-3.0075400">
<ele>903.762512</ele>
<time>2009-08-02T09:06:41.000Z</time>
</trkpt>
<trkpt lat="43.1966400" lon="-3.0074700">
<ele>902.329895</ele>
<time>2009-08-02T09:06:47.998Z</time>
</trkpt>
<trkpt lat="43.1966300" lon="-3.0073400">
<ele>901.385071</ele>
<time>2009-08-02T09:07:03.999Z</time>
</trkpt>
<trkpt lat="43.1965200" lon="-3.0071600">
<ele>898.489441</ele>
<time>2009-08-02T09:07:20.001Z</time>
</trkpt>
<trkpt lat="43.1964000" lon="-3.0069800">
<ele>895.593872</ele>
<time>2009-08-02T09:07:35.000Z</time>
</trkpt>
<trkpt lat="43.1962400" lon="-3.0067400">
<ele>894.161316</ele>
<time>2009-08-02T09:07:55.001Z</time>
</trkpt>
<trkpt lat="43.1960900" lon="-3.0065400">
<ele>890.808533</ele>
<time>2009-08-02T09:08:15.003Z</time>
</trkpt>
<trkpt lat="43.1960200" lon="-3.0065000">
<ele>889.345459</ele>
<time>2009-08-02T09:08:22.001Z</time>
</trkpt>
<trkpt lat="43.1959100" lon="-3.0064300">
<ele>885.992676</ele>
<time>2009-08-02T09:08:34.002Z</time>
</trkpt>
<trkpt lat="43.1958200" lon="-3.0063600">
<ele>883.097046</ele>
<time>2009-08-02T09:08:43.999Z</time>
</trkpt>
<trkpt lat="43.1958000" lon="-3.0063400">
<ele>882.152161</ele>
<time>2009-08-02T09:08:46.003Z</time>
</trkpt>
<trkpt lat="43.1957200" lon="-3.0062900">
<ele>879.744263</ele>
<time>2009-08-02T09:08:56.000Z</time>
</trkpt>
<trkpt lat="43.1956800" lon="-3.0062600">
<ele>878.311707</ele>
<time>2009-08-02T09:09:04.000Z</time>
</trkpt>
<trkpt lat="43.1955800" lon="-3.0061700">
<ele>874.928406</ele>
<time>2009-08-02T09:09:14.999Z</time>
</trkpt>
<trkpt lat="43.1955700" lon="-3.0061700">
<ele>875.416138</ele>
<time>2009-08-02T09:09:16.001Z</time>
</trkpt>
<trkpt lat="43.1955500" lon="-3.0061700">
<ele>873.008118</ele>
<time>2009-08-02T09:09:17.997Z</time>
</trkpt>
<trkpt lat="43.1955200" lon="-3.0061400">
<ele>874.471191</ele>
<time>2009-08-02T09:09:21.997Z</time>
</trkpt>
<trkpt lat="43.1955000" lon="-3.0061300">
<ele>872.520508</ele>
<time>2009-08-02T09:09:24.002Z</time>
</trkpt>
<trkpt lat="43.1954800" lon="-3.0061300">
<ele>872.520508</ele>
<time>2009-08-02T09:09:25.998Z</time>
</trkpt>
<trkpt lat="43.1954400" lon="-3.0061000">
<ele>872.520508</ele>
<time>2009-08-02T09:09:28.996Z</time>
</trkpt>
<trkpt lat="43.1953800" lon="-3.0061000">
<ele>868.222778</ele>
<time>2009-08-02T09:09:35.001Z</time>
</trkpt>
<trkpt lat="43.1952800" lon="-3.0060800">
<ele>865.327209</ele>
<time>2009-08-02T09:09:43.001Z</time>
</trkpt>
<trkpt lat="43.1951800" lon="-3.0060700">
<ele>861.486694</ele>
<time>2009-08-02T09:09:52.998Z</time>
</trkpt>
<trkpt lat="43.1950700" lon="-3.0060100">
<ele>858.591064</ele>
<time>2009-08-02T09:10:03.996Z</time>
</trkpt>
<trkpt lat="43.1949600" lon="-3.0059800">
<ele>855.238281</ele>
<time>2009-08-02T09:10:14.002Z</time>
</trkpt>
<trkpt lat="43.1949600" lon="-3.0059800">
<ele>855.238281</ele>
<time>2009-08-02T09:10:15.004Z</time>
</trkpt>
<trkpt lat="43.1948400" lon="-3.0059200">
<ele>851.397827</ele>
<time>2009-08-02T09:10:25.000Z</time>
</trkpt>
<trkpt lat="43.1948300" lon="-3.0059200">
<ele>850.910156</ele>
<time>2009-08-02T09:10:26.003Z</time>
</trkpt>
<trkpt lat="43.1947200" lon="-3.0058900">
<ele>847.069702</ele>
<time>2009-08-02T09:10:35.999Z</time>
</trkpt>
<trkpt lat="43.1947000" lon="-3.0058900">
<ele>846.581970</ele>
<time>2009-08-02T09:10:38.004Z</time>
</trkpt>
<trkpt lat="43.1946600" lon="-3.0059300">
<ele>844.661743</ele>
<time>2009-08-02T09:10:42.997Z</time>
</trkpt>
<trkpt lat="43.1945500" lon="-3.0059400">
<ele>840.821289</ele>
<time>2009-08-02T09:10:53.996Z</time>
</trkpt>
<trkpt lat="43.1945100" lon="-3.0059400">
<ele>838.413330</ele>
<time>2009-08-02T09:10:57.996Z</time>
</trkpt>
<trkpt lat="43.1943900" lon="-3.0059600">
<ele>835.030090</ele>
<time>2009-08-02T09:11:09.997Z</time>
</trkpt>
<trkpt lat="43.1943200" lon="-3.0060000">
<ele>832.164917</ele>
<time>2009-08-02T09:11:17.998Z</time>
</trkpt>
<trkpt lat="43.1943000" lon="-3.0060100">
<ele>830.244690</ele>
<time>2009-08-02T09:11:20.996Z</time>
</trkpt>
<trkpt lat="43.1942000" lon="-3.0059100">
<ele>826.861450</ele>
<time>2009-08-02T09:11:31.001Z</time>
</trkpt>
<trkpt lat="43.1941400" lon="-3.0058200">
<ele>824.453491</ele>
<time>2009-08-02T09:11:38.000Z</time>
</trkpt>
<trkpt lat="43.1940800" lon="-3.0057300">
<ele>821.100708</ele>
<time>2009-08-02T09:11:47.003Z</time>
</trkpt>
<trkpt lat="43.1940600" lon="-3.0057500">
<ele>820.613037</ele>
<time>2009-08-02T09:11:48.998Z</time>
</trkpt>
<trkpt lat="43.1940100" lon="-3.0058500">
<ele>816.284912</ele>
<time>2009-08-02T09:11:58.001Z</time>
</trkpt>
<trkpt lat="43.1940100" lon="-3.0058600">
<ele>816.284912</ele>
<time>2009-08-02T09:11:59.004Z</time>
</trkpt>
<trkpt lat="43.1939900" lon="-3.0059200">
<ele>814.364685</ele>
<time>2009-08-02T09:12:03.997Z</time>
</trkpt>
<trkpt lat="43.1939800" lon="-3.0059900">
<ele>812.932129</ele>
<time>2009-08-02T09:12:10.002Z</time>
</trkpt>
<trkpt lat="43.1939500" lon="-3.0060600">
<ele>809.579285</ele>
<time>2009-08-02T09:12:17.001Z</time>
</trkpt>
<trkpt lat="43.1939200" lon="-3.0061200">
<ele>807.659058</ele>
<time>2009-08-02T09:12:23.999Z</time>
</trkpt>
<trkpt lat="43.1939100" lon="-3.0062300">
<ele>804.763428</ele>
<time>2009-08-02T09:12:33.002Z</time>
</trkpt>
<trkpt lat="43.1938900" lon="-3.0063200">
<ele>801.410645</ele>
<time>2009-08-02T09:12:41.996Z</time>
</trkpt>
<trkpt lat="43.1938600" lon="-3.0063600">
<ele>799.459900</ele>
<time>2009-08-02T09:12:46.999Z</time>
</trkpt>
<trkpt lat="43.1938400" lon="-3.0063600">
<ele>798.515076</ele>
<time>2009-08-02T09:12:49.003Z</time>
</trkpt>
<trkpt lat="43.1938000" lon="-3.0064200">
<ele>795.162231</ele>
<time>2009-08-02T09:12:57.997Z</time>
</trkpt>
<trkpt lat="43.1937400" lon="-3.0064800">
<ele>792.266663</ele>
<time>2009-08-02T09:13:08.003Z</time>
</trkpt>
<trkpt lat="43.1936800" lon="-3.0064900">
<ele>789.371033</ele>
<time>2009-08-02T09:13:16.003Z</time>
</trkpt>
<trkpt lat="43.1936100" lon="-3.0065200">
<ele>786.018250</ele>
<time>2009-08-02T09:13:24.004Z</time>
</trkpt>
<trkpt lat="43.1935800" lon="-3.0065500">
<ele>784.098022</ele>
<time>2009-08-02T09:13:30.000Z</time>
</trkpt>
<trkpt lat="43.1935400" lon="-3.0066100">
<ele>781.202393</ele>
<time>2009-08-02T09:13:39.003Z</time>
</trkpt>
<trkpt lat="43.1934900" lon="-3.0066500">
<ele>778.337280</ele>
<time>2009-08-02T09:13:46.001Z</time>
</trkpt>
<trkpt lat="43.1934200" lon="-3.0066500">
<ele>774.953979</ele>
<time>2009-08-02T09:13:55.004Z</time>
</trkpt>
<trkpt lat="43.1933900" lon="-3.0067300">
<ele>772.088928</ele>
<time>2009-08-02T09:14:03.998Z</time>
</trkpt>
<trkpt lat="43.1933800" lon="-3.0067500">
<ele>770.625854</ele>
<time>2009-08-02T09:14:06.996Z</time>
</trkpt>
<trkpt lat="43.1933200" lon="-3.0067700">
<ele>767.273071</ele>
<time>2009-08-02T09:14:17.002Z</time>
</trkpt>
<trkpt lat="43.1932800" lon="-3.0068400">
<ele>763.889771</ele>
<time>2009-08-02T09:14:26.998Z</time>
</trkpt>
<trkpt lat="43.1932300" lon="-3.0068800">
<ele>760.536926</ele>
<time>2009-08-02T09:14:37.003Z</time>
</trkpt>
<trkpt lat="43.1931700" lon="-3.0069200">
<ele>757.184143</ele>
<time>2009-08-02T09:14:49.004Z</time>
</trkpt>
<trkpt lat="43.1931200" lon="-3.0069700">
<ele>753.800903</ele>
<time>2009-08-02T09:14:57.998Z</time>
</trkpt>
<trkpt lat="43.1930700" lon="-3.0069900">
<ele>751.392944</ele>
<time>2009-08-02T09:15:07.001Z</time>
</trkpt>
<trkpt lat="43.1930100" lon="-3.0069900">
<ele>749.015503</ele>
<time>2009-08-02T09:15:14.000Z</time>
</trkpt>
<trkpt lat="43.1929400" lon="-3.0069800">
<ele>746.119873</ele>
<time>2009-08-02T09:15:22.000Z</time>
</trkpt>
<trkpt lat="43.1928900" lon="-3.0070100">
<ele>743.224304</ele>
<time>2009-08-02T09:15:30.001Z</time>
</trkpt>
<trkpt lat="43.1928500" lon="-3.0070700">
<ele>739.871460</ele>
<time>2009-08-02T09:15:39.997Z</time>
</trkpt>
<trkpt lat="43.1928000" lon="-3.0070800">
<ele>737.951294</ele>
<time>2009-08-02T09:15:46.002Z</time>
</trkpt>
<trkpt lat="43.1927500" lon="-3.0071100">
<ele>734.598511</ele>
<time>2009-08-02T09:15:53.001Z</time>
</trkpt>
<trkpt lat="43.1927400" lon="-3.0071200">
<ele>733.623108</ele>
<time>2009-08-02T09:15:54.996Z</time>
</trkpt>
<trkpt lat="43.1927000" lon="-3.0071400">
<ele>731.702881</ele>
<time>2009-08-02T09:15:59.999Z</time>
</trkpt>
<trkpt lat="43.1926500" lon="-3.0071600">
<ele>729.782654</ele>
<time>2009-08-02T09:16:05.002Z</time>
</trkpt>
<trkpt lat="43.1925900" lon="-3.0071800">
<ele>726.887085</ele>
<time>2009-08-02T09:16:12.000Z</time>
</trkpt>
<trkpt lat="43.1925400" lon="-3.0072000">
<ele>724.479065</ele>
<time>2009-08-02T09:16:17.996Z</time>
</trkpt>
<trkpt lat="43.1924600" lon="-3.0071800">
<ele>721.126282</ele>
<time>2009-08-02T09:16:28.001Z</time>
</trkpt>
<trkpt lat="43.1924000" lon="-3.0072300">
<ele>717.773499</ele>
<time>2009-08-02T09:16:37.998Z</time>
</trkpt>
<trkpt lat="43.1923900" lon="-3.0072300">
<ele>717.285828</ele>
<time>2009-08-02T09:16:40.002Z</time>
</trkpt>
<trkpt lat="43.1923600" lon="-3.0072500">
<ele>715.365601</ele>
<time>2009-08-02T09:16:44.003Z</time>
</trkpt>
<trkpt lat="43.1923200" lon="-3.0072600">
<ele>713.445374</ele>
<time>2009-08-02T09:16:48.996Z</time>
</trkpt>
<trkpt lat="43.1922400" lon="-3.0072500">
<ele>710.549744</ele>
<time>2009-08-02T09:16:59.002Z</time>
</trkpt>
<trkpt lat="43.1922300" lon="-3.0072500">
<ele>710.549744</ele>
<time>2009-08-02T09:17:00.004Z</time>
</trkpt>
<trkpt lat="43.1922000" lon="-3.0072700">
<ele>708.629517</ele>
<time>2009-08-02T09:17:04.004Z</time>
</trkpt>
<trkpt lat="43.1921200" lon="-3.0073300">
<ele>707.196960</ele>
<time>2009-08-02T09:17:19.003Z</time>
</trkpt>
<trkpt lat="43.1921100" lon="-3.0073400">
<ele>706.709290</ele>
<time>2009-08-02T09:17:20.999Z</time>
</trkpt>
<trkpt lat="43.1920400" lon="-3.0074200">
<ele>704.301331</ele>
<time>2009-08-02T09:17:30.002Z</time>
</trkpt>
<trkpt lat="43.1918200" lon="-3.0075200">
<ele>704.789063</ele>
<time>2009-08-02T09:17:50.004Z</time>
</trkpt>
<trkpt lat="43.1917900" lon="-3.0075300">
<ele>704.789063</ele>
<time>2009-08-02T09:17:53.002Z</time>
</trkpt>
<trkpt lat="43.1917600" lon="-3.0075900">
<ele>705.733887</ele>
<time>2009-08-02T09:17:58.004Z</time>
</trkpt>
<trkpt lat="43.1916600" lon="-3.0077300">
<ele>708.141846</ele>
<time>2009-08-02T09:18:13.997Z</time>
</trkpt>
<trkpt lat="43.1916400" lon="-3.0077500">
<ele>708.141846</ele>
<time>2009-08-02T09:18:17.997Z</time>
</trkpt>
<trkpt lat="43.1914900" lon="-3.0078200">
<ele>708.141846</ele>
<time>2009-08-02T09:18:29.998Z</time>
</trkpt>
<trkpt lat="43.1914100" lon="-3.0078900">
<ele>708.629517</ele>
<time>2009-08-02T09:18:39.001Z</time>
</trkpt>
<trkpt lat="43.1911800" lon="-3.0080300">
<ele>708.629517</ele>
<time>2009-08-02T09:18:59.003Z</time>
</trkpt>
<trkpt lat="43.1909700" lon="-3.0081700">
<ele>708.629517</ele>
<time>2009-08-02T09:19:18.002Z</time>
</trkpt>
<trkpt lat="43.1908200" lon="-3.0082800">
<ele>709.604919</ele>
<time>2009-08-02T09:19:34.003Z</time>
</trkpt>
<trkpt lat="43.1907600" lon="-3.0083500">
<ele>712.957703</ele>
<time>2009-08-02T09:19:46.004Z</time>
</trkpt>
<trkpt lat="43.1907500" lon="-3.0083500">
<ele>713.902527</ele>
<time>2009-08-02T09:19:48.000Z</time>
</trkpt>
<trkpt lat="43.1907300" lon="-3.0083500">
<ele>714.390259</ele>
<time>2009-08-02T09:19:49.996Z</time>
</trkpt>
<trkpt lat="43.1906300" lon="-3.0083700">
<ele>717.773499</ele>
<time>2009-08-02T09:20:01.997Z</time>
</trkpt>
<trkpt lat="43.1906000" lon="-3.0083700">
<ele>717.773499</ele>
<time>2009-08-02T09:20:05.004Z</time>
</trkpt>
<trkpt lat="43.1905200" lon="-3.0084500">
<ele>721.126282</ele>
<time>2009-08-02T09:20:19.000Z</time>
</trkpt>
<trkpt lat="43.1905100" lon="-3.0084500">
<ele>721.614014</ele>
<time>2009-08-02T09:20:20.003Z</time>
</trkpt>
<trkpt lat="43.1904600" lon="-3.0084500">
<ele>723.534241</ele>
<time>2009-08-02T09:20:25.999Z</time>
</trkpt>
<trkpt lat="43.1903700" lon="-3.0084900">
<ele>725.942139</ele>
<time>2009-08-02T09:20:40.004Z</time>
</trkpt>
<trkpt lat="43.1903100" lon="-3.0085100">
<ele>728.807312</ele>
<time>2009-08-02T09:20:54.001Z</time>
</trkpt>
<trkpt lat="43.1903000" lon="-3.0085300">
<ele>727.862427</ele>
<time>2009-08-02T09:20:56.999Z</time>
</trkpt>
<trkpt lat="43.1902300" lon="-3.0086700">
<ele>726.887085</ele>
<time>2009-08-02T09:21:10.996Z</time>
</trkpt>
<trkpt lat="43.1902900" lon="-3.0086700">
<ele>724.966797</ele>
<time>2009-08-02T09:21:23.999Z</time>
</trkpt>
<trkpt lat="43.1903200" lon="-3.0087400">
<ele>722.101685</ele>
<time>2009-08-02T09:21:34.004Z</time>
</trkpt>
<trkpt lat="43.1903500" lon="-3.0088200">
<ele>718.718384</ele>
<time>2009-08-02T09:21:45.003Z</time>
</trkpt>
<trkpt lat="43.1903400" lon="-3.0089300">
<ele>716.310486</ele>
<time>2009-08-02T09:21:57.997Z</time>
</trkpt>
<trkpt lat="43.1903500" lon="-3.0090100">
<ele>713.902527</ele>
<time>2009-08-02T09:22:11.001Z</time>
</trkpt>
<trkpt lat="43.1903700" lon="-3.0090500">
<ele>711.037476</ele>
<time>2009-08-02T09:22:20.997Z</time>
</trkpt>
<trkpt lat="43.1903900" lon="-3.0091000">
<ele>709.117188</ele>
<time>2009-08-02T09:22:34.000Z</time>
</trkpt>
<trkpt lat="43.1904000" lon="-3.0091400">
<ele>707.196960</ele>
<time>2009-08-02T09:22:47.004Z</time>
</trkpt>
<trkpt lat="43.1904300" lon="-3.0091700">
<ele>704.789063</ele>
<time>2009-08-02T09:23:02.003Z</time>
</trkpt>
<trkpt lat="43.1904400" lon="-3.0092000">
<ele>703.356506</ele>
<time>2009-08-02T09:23:03.998Z</time>
</trkpt>
<trkpt lat="43.1903700" lon="-3.0092600">
<ele>704.301331</ele>
<time>2009-08-02T09:23:14.997Z</time>
</trkpt>
<trkpt lat="43.1903200" lon="-3.0093300">
<ele>705.276672</ele>
<time>2009-08-02T09:23:21.002Z</time>
</trkpt>
<trkpt lat="43.1902100" lon="-3.0095500">
<ele>705.276672</ele>
<time>2009-08-02T09:23:37.997Z</time>
</trkpt>
<trkpt lat="43.1901500" lon="-3.0097300">
<ele>704.789063</ele>
<time>2009-08-02T09:23:49.998Z</time>
</trkpt>
<trkpt lat="43.1900500" lon="-3.0098800">
<ele>706.221619</ele>
<time>2009-08-02T09:24:04.003Z</time>
</trkpt>
<trkpt lat="43.1899900" lon="-3.0100300">
<ele>707.196960</ele>
<time>2009-08-02T09:24:12.997Z</time>
</trkpt>
<trkpt lat="43.1899100" lon="-3.0101700">
<ele>707.654175</ele>
<time>2009-08-02T09:24:22.000Z</time>
</trkpt>
<trkpt lat="43.1898500" lon="-3.0103200">
<ele>708.141846</ele>
<time>2009-08-02T09:24:31.003Z</time>
</trkpt>
<trkpt lat="43.1897600" lon="-3.0105000">
<ele>709.604919</ele>
<time>2009-08-02T09:24:43.004Z</time>
</trkpt>
<trkpt lat="43.1897300" lon="-3.0105800">
<ele>709.117188</ele>
<time>2009-08-02T09:24:47.998Z</time>
</trkpt>
<trkpt lat="43.1897200" lon="-3.0106300">
<ele>709.604919</ele>
<time>2009-08-02T09:24:50.996Z</time>
</trkpt>
<trkpt lat="43.1896900" lon="-3.0107100">
<ele>708.629517</ele>
<time>2009-08-02T09:24:55.999Z</time>
</trkpt>
<trkpt lat="43.1896800" lon="-3.0109100">
<ele>705.276672</ele>
<time>2009-08-02T09:25:08.000Z</time>
</trkpt>
<trkpt lat="43.1897000" lon="-3.0110100">
<ele>701.893433</ele>
<time>2009-08-02T09:25:14.998Z</time>
</trkpt>
<trkpt lat="43.1897200" lon="-3.0111000">
<ele>699.028320</ele>
<time>2009-08-02T09:25:24.001Z</time>
</trkpt>
<trkpt lat="43.1897400" lon="-3.0112300">
<ele>695.645081</ele>
<time>2009-08-02T09:25:33.004Z</time>
</trkpt>
<trkpt lat="43.1897900" lon="-3.0113100">
<ele>692.292236</ele>
<time>2009-08-02T09:25:43.000Z</time>
</trkpt>
<trkpt lat="43.1898200" lon="-3.0113900">
<ele>689.396667</ele>
<time>2009-08-02T09:25:49.999Z</time>
</trkpt>
<trkpt lat="43.1898600" lon="-3.0114600">
<ele>686.531494</ele>
<time>2009-08-02T09:25:56.997Z</time>
</trkpt>
<trkpt lat="43.1898900" lon="-3.0115800">
<ele>683.148254</ele>
<time>2009-08-02T09:26:04.998Z</time>
</trkpt>
<trkpt lat="43.1899300" lon="-3.0117100">
<ele>680.283081</ele>
<time>2009-08-02T09:26:14.001Z</time>
</trkpt>
<trkpt lat="43.1899400" lon="-3.0117400">
<ele>678.820129</ele>
<time>2009-08-02T09:26:15.996Z</time>
</trkpt>
<trkpt lat="43.1899500" lon="-3.0118800">
<ele>675.954956</ele>
<time>2009-08-02T09:26:23.997Z</time>
</trkpt>
<trkpt lat="43.1900000" lon="-3.0120000">
<ele>672.571716</ele>
<time>2009-08-02T09:26:34.002Z</time>
</trkpt>
<trkpt lat="43.1900300" lon="-3.0121900">
<ele>668.731201</ele>
<time>2009-08-02T09:26:42.996Z</time>
</trkpt>
<trkpt lat="43.1900500" lon="-3.0122500">
<ele>668.243469</ele>
<time>2009-08-02T09:26:47.999Z</time>
</trkpt>
<trkpt lat="43.1901200" lon="-3.0123900">
<ele>663.915344</ele>
<time>2009-08-02T09:26:58.004Z</time>
</trkpt>
<trkpt lat="43.1901300" lon="-3.0124100">
<ele>663.458130</ele>
<time>2009-08-02T09:27:00.000Z</time>
</trkpt>
<trkpt lat="43.1901700" lon="-3.0124900">
<ele>661.537903</ele>
<time>2009-08-02T09:27:05.996Z</time>
</trkpt>
<trkpt lat="43.1902300" lon="-3.0126600">
<ele>658.154663</ele>
<time>2009-08-02T09:27:17.004Z</time>
</trkpt>
<trkpt lat="43.1902900" lon="-3.0127700">
<ele>654.801880</ele>
<time>2009-08-02T09:27:25.998Z</time>
</trkpt>
<trkpt lat="43.1903700" lon="-3.0129000">
<ele>651.418518</ele>
<time>2009-08-02T09:27:36.996Z</time>
</trkpt>
<trkpt lat="43.1904100" lon="-3.0129700">
<ele>649.498291</ele>
<time>2009-08-02T09:27:44.004Z</time>
</trkpt>
<trkpt lat="43.1904400" lon="-3.0130400">
<ele>647.578125</ele>
<time>2009-08-02T09:27:48.997Z</time>
</trkpt>
<trkpt lat="43.1905100" lon="-3.0131500">
<ele>644.225281</ele>
<time>2009-08-02T09:27:59.003Z</time>
</trkpt>
<trkpt lat="43.1905700" lon="-3.0132500">
<ele>640.841980</ele>
<time>2009-08-02T09:28:07.997Z</time>
</trkpt>
<trkpt lat="43.1905800" lon="-3.0133300">
<ele>640.384827</ele>
<time>2009-08-02T09:28:11.004Z</time>
</trkpt>
<trkpt lat="43.1905800" lon="-3.0135100">
<ele>637.001465</ele>
<time>2009-08-02T09:28:22.996Z</time>
</trkpt>
<trkpt lat="43.1905100" lon="-3.0135300">
<ele>634.593628</ele>
<time>2009-08-02T09:28:30.996Z</time>
</trkpt>
<trkpt lat="43.1904100" lon="-3.0135000">
<ele>632.216125</ele>
<time>2009-08-02T09:28:39.999Z</time>
</trkpt>
<trkpt lat="43.1902800" lon="-3.0134200">
<ele>628.832886</ele>
<time>2009-08-02T09:28:53.003Z</time>
</trkpt>
<trkpt lat="43.1902300" lon="-3.0133800">
<ele>627.888000</ele>
<time>2009-08-02T09:28:57.996Z</time>
</trkpt>
<trkpt lat="43.1901500" lon="-3.0133100">
<ele>626.424927</ele>
<time>2009-08-02T09:29:05.004Z</time>
</trkpt>
<trkpt lat="43.1901200" lon="-3.0132600">
<ele>625.967773</ele>
<time>2009-08-02T09:29:11.000Z</time>
</trkpt>
<trkpt lat="43.1899700" lon="-3.0130400">
<ele>627.400269</ele>
<time>2009-08-02T09:29:28.997Z</time>
</trkpt>
<trkpt lat="43.1898000" lon="-3.0128600">
<ele>627.400269</ele>
<time>2009-08-02T09:29:46.000Z</time>
</trkpt>
<trkpt lat="43.1897200" lon="-3.0127900">
<ele>627.400269</ele>
<time>2009-08-02T09:29:55.003Z</time>
</trkpt>
<trkpt lat="43.1895700" lon="-3.0126600">
<ele>626.912659</ele>
<time>2009-08-02T09:30:10.002Z</time>
</trkpt>
<trkpt lat="43.1895100" lon="-3.0126200">
<ele>627.400269</ele>
<time>2009-08-02T09:30:14.996Z</time>
</trkpt>
<trkpt lat="43.1894000" lon="-3.0124200">
<ele>630.295898</ele>
<time>2009-08-02T09:30:29.002Z</time>
</trkpt>
<trkpt lat="43.1893100" lon="-3.0123100">
<ele>631.728516</ele>
<time>2009-08-02T09:30:42.998Z</time>
</trkpt>
<trkpt lat="43.1892500" lon="-3.0122700">
<ele>631.728516</ele>
<time>2009-08-02T09:30:48.001Z</time>
</trkpt>
<trkpt lat="43.1890900" lon="-3.0121300">
<ele>633.161072</ele>
<time>2009-08-02T09:31:04.996Z</time>
</trkpt>
<trkpt lat="43.1888700" lon="-3.0120400">
<ele>630.295898</ele>
<time>2009-08-02T09:31:23.002Z</time>
</trkpt>
<trkpt lat="43.1888500" lon="-3.0120300">
<ele>630.295898</ele>
<time>2009-08-02T09:31:24.004Z</time>
</trkpt>
<trkpt lat="43.1888000" lon="-3.0120200">
<ele>629.808228</ele>
<time>2009-08-02T09:31:28.004Z</time>
</trkpt>
<trkpt lat="43.1885700" lon="-3.0119700">
<ele>628.345215</ele>
<time>2009-08-02T09:31:46.001Z</time>
</trkpt>
<trkpt lat="43.1884800" lon="-3.0120100">
<ele>624.992371</ele>
<time>2009-08-02T09:31:55.004Z</time>
</trkpt>
<trkpt lat="43.1883400" lon="-3.0120300">
<ele>622.096802</ele>
<time>2009-08-02T09:32:06.003Z</time>
</trkpt>
<trkpt lat="43.1882600" lon="-3.0120100">
<ele>620.664246</ele>
<time>2009-08-02T09:32:11.999Z</time>
</trkpt>
<trkpt lat="43.1881900" lon="-3.0119900">
<ele>619.719360</ele>
<time>2009-08-02T09:32:17.002Z</time>
</trkpt>
<trkpt lat="43.1880100" lon="-3.0119200">
<ele>616.336060</ele>
<time>2009-08-02T09:32:32.001Z</time>
</trkpt>
<trkpt lat="43.1878800" lon="-3.0118500">
<ele>613.470947</ele>
<time>2009-08-02T09:32:42.999Z</time>
</trkpt>
<trkpt lat="43.1877000" lon="-3.0117100">
<ele>610.087646</ele>
<time>2009-08-02T09:32:57.998Z</time>
</trkpt>
<trkpt lat="43.1876500" lon="-3.0116700">
<ele>608.655151</ele>
<time>2009-08-02T09:33:01.999Z</time>
</trkpt>
<trkpt lat="43.1875100" lon="-3.0115900">
<ele>605.302307</ele>
<time>2009-08-02T09:33:14.000Z</time>
</trkpt>
<trkpt lat="43.1873700" lon="-3.0114900">
<ele>601.919067</ele>
<time>2009-08-02T09:33:26.001Z</time>
</trkpt>
<trkpt lat="43.1873300" lon="-3.0114500">
<ele>601.431335</ele>
<time>2009-08-02T09:33:30.001Z</time>
</trkpt>
<trkpt lat="43.1872000" lon="-3.0113700">
<ele>599.023438</ele>
<time>2009-08-02T09:33:41.000Z</time>
</trkpt>
<trkpt lat="43.1871200" lon="-3.0112800">
<ele>596.158325</ele>
<time>2009-08-02T09:33:49.000Z</time>
</trkpt>
<trkpt lat="43.1869900" lon="-3.0111800">
<ele>592.317871</ele>
<time>2009-08-02T09:33:59.999Z</time>
</trkpt>
<trkpt lat="43.1869000" lon="-3.0111200">
<ele>589.909912</ele>
<time>2009-08-02T09:34:06.997Z</time>
</trkpt>
<trkpt lat="43.1868200" lon="-3.0110600">
<ele>587.014343</ele>
<time>2009-08-02T09:34:13.996Z</time>
</trkpt>
<trkpt lat="43.1866900" lon="-3.0109600">
<ele>584.149170</ele>
<time>2009-08-02T09:34:24.001Z</time>
</trkpt>
<trkpt lat="43.1865800" lon="-3.0109100">
<ele>580.278259</ele>
<time>2009-08-02T09:34:33.004Z</time>
</trkpt>
<trkpt lat="43.1865500" lon="-3.0109100">
<ele>578.357971</ele>
<time>2009-08-02T09:34:36.002Z</time>
</trkpt>
<trkpt lat="43.1864800" lon="-3.0108700">
<ele>575.005188</ele>
<time>2009-08-02T09:34:41.998Z</time>
</trkpt>
<trkpt lat="43.1864700" lon="-3.0108700">
<ele>575.005188</ele>
<time>2009-08-02T09:34:43.000Z</time>
</trkpt>
<trkpt lat="43.1863900" lon="-3.0108400">
<ele>572.109619</ele>
<time>2009-08-02T09:34:48.996Z</time>
</trkpt>
<trkpt lat="43.1863100" lon="-3.0108100">
<ele>568.756775</ele>
<time>2009-08-02T09:34:56.997Z</time>
</trkpt>
<trkpt lat="43.1863000" lon="-3.0108100">
<ele>568.756775</ele>
<time>2009-08-02T09:34:57.999Z</time>
</trkpt>
<trkpt lat="43.1862300" lon="-3.0107900">
<ele>566.348877</ele>
<time>2009-08-02T09:35:04.004Z</time>
</trkpt>
<trkpt lat="43.1862000" lon="-3.0107800">
<ele>565.403992</ele>
<time>2009-08-02T09:35:07.002Z</time>
</trkpt>
<trkpt lat="43.1861100" lon="-3.0107500">
<ele>563.483765</ele>
<time>2009-08-02T09:35:15.003Z</time>
</trkpt>
<trkpt lat="43.1859900" lon="-3.0107200">
<ele>560.100464</ele>
<time>2009-08-02T09:35:24.999Z</time>
</trkpt>
<trkpt lat="43.1859200" lon="-3.0107000">
<ele>558.667908</ele>
<time>2009-08-02T09:35:30.002Z</time>
</trkpt>
<trkpt lat="43.1857300" lon="-3.0106800">
<ele>555.284668</ele>
<time>2009-08-02T09:35:45.001Z</time>
</trkpt>
<trkpt lat="43.1855300" lon="-3.0105800">
<ele>553.852051</ele>
<time>2009-08-02T09:36:01.002Z</time>
</trkpt>
<trkpt lat="43.1855300" lon="-3.0105600">
<ele>552.907227</ele>
<time>2009-08-02T09:36:02.998Z</time>
</trkpt>
<trkpt lat="43.1853100" lon="-3.0103900">
<ele>550.499268</ele>
<time>2009-08-02T09:36:21.004Z</time>
</trkpt>
<trkpt lat="43.1851100" lon="-3.0102800">
<ele>548.579041</ele>
<time>2009-08-02T09:36:36.003Z</time>
</trkpt>
<trkpt lat="43.1848500" lon="-3.0100900">
<ele>548.091370</ele>
<time>2009-08-02T09:36:58.000Z</time>
</trkpt>
<trkpt lat="43.1847000" lon="-3.0099000">
<ele>544.738525</ele>
<time>2009-08-02T09:37:14.002Z</time>
</trkpt>
<trkpt lat="43.1846900" lon="-3.0098900">
<ele>550.986938</ele>
<time>2009-08-02T09:37:15.004Z</time>
</trkpt>
<trkpt lat="43.1846800" lon="-3.0098800">
<ele>547.116028</ele>
<time>2009-08-02T09:37:15.997Z</time>
</trkpt>
<trkpt lat="43.1845100" lon="-3.0097400">
<ele>546.658813</ele>
<time>2009-08-02T09:37:30.996Z</time>
</trkpt>
<trkpt lat="43.1843400" lon="-3.0095400">
<ele>547.116028</ele>
<time>2009-08-02T09:37:48.000Z</time>
</trkpt>
<trkpt lat="43.1842600" lon="-3.0094600">
<ele>546.658813</ele>
<time>2009-08-02T09:37:56.001Z</time>
</trkpt>
<trkpt lat="43.1842100" lon="-3.0094300">
<ele>547.116028</ele>
<time>2009-08-02T09:38:00.001Z</time>
</trkpt>
<trkpt lat="43.1840600" lon="-3.0092000">
<ele>545.683472</ele>
<time>2009-08-02T09:38:16.002Z</time>
</trkpt>
<trkpt lat="43.1838900" lon="-3.0090100">
<ele>544.738525</ele>
<time>2009-08-02T09:38:32.004Z</time>
</trkpt>
<trkpt lat="43.1836900" lon="-3.0088100">
<ele>544.250854</ele>
<time>2009-08-02T09:38:50.001Z</time>
</trkpt>
<trkpt lat="43.1834700" lon="-3.0086200">
<ele>542.330627</ele>
<time>2009-08-02T09:39:09.000Z</time>
</trkpt>
<trkpt lat="43.1832300" lon="-3.0084700">
<ele>541.355286</ele>
<time>2009-08-02T09:39:27.999Z</time>
</trkpt>
<trkpt lat="43.1830300" lon="-3.0083600">
<ele>540.410400</ele>
<time>2009-08-02T09:39:42.998Z</time>
</trkpt>
<trkpt lat="43.1828100" lon="-3.0083500">
<ele>537.514771</ele>
<time>2009-08-02T09:40:00.002Z</time>
</trkpt>
<trkpt lat="43.1826900" lon="-3.0084000">
<ele>533.674316</ele>
<time>2009-08-02T09:40:09.998Z</time>
</trkpt>
<trkpt lat="43.1826100" lon="-3.0084500">
<ele>530.778748</ele>
<time>2009-08-02T09:40:17.999Z</time>
</trkpt>
<trkpt lat="43.1825600" lon="-3.0085000">
<ele>528.370789</ele>
<time>2009-08-02T09:40:24.004Z</time>
</trkpt>
<trkpt lat="43.1824500" lon="-3.0085400">
<ele>524.530334</ele>
<time>2009-08-02T09:40:34.000Z</time>
</trkpt>
<trkpt lat="43.1824100" lon="-3.0085800">
<ele>522.610046</ele>
<time>2009-08-02T09:40:38.001Z</time>
</trkpt>
<trkpt lat="43.1822700" lon="-3.0086700">
<ele>519.257263</ele>
<time>2009-08-02T09:40:50.002Z</time>
</trkpt>
<trkpt lat="43.1821700" lon="-3.0087500">
<ele>515.874023</ele>
<time>2009-08-02T09:40:59.998Z</time>
</trkpt>
<trkpt lat="43.1821400" lon="-3.0087600">
<ele>513.953735</ele>
<time>2009-08-02T09:41:02.996Z</time>
</trkpt>
<trkpt lat="43.1820300" lon="-3.0087900">
<ele>511.088654</ele>
<time>2009-08-02T09:41:11.999Z</time>
</trkpt>
<trkpt lat="43.1820100" lon="-3.0088000">
<ele>510.600952</ele>
<time>2009-08-02T09:41:14.004Z</time>
</trkpt>
<trkpt lat="43.1818500" lon="-3.0088700">
<ele>506.760468</ele>
<time>2009-08-02T09:41:28.000Z</time>
</trkpt>
<trkpt lat="43.1817500" lon="-3.0089000">
<ele>503.864868</ele>
<time>2009-08-02T09:41:37.003Z</time>
</trkpt>
<trkpt lat="43.1816300" lon="-3.0089200">
<ele>500.512085</ele>
<time>2009-08-02T09:41:48.002Z</time>
</trkpt>
<trkpt lat="43.1815100" lon="-3.0089700">
<ele>497.128815</ele>
<time>2009-08-02T09:41:59.001Z</time>
</trkpt>
<trkpt lat="43.1814100" lon="-3.0090000">
<ele>493.776001</ele>
<time>2009-08-02T09:42:08.997Z</time>
</trkpt>
<trkpt lat="43.1813600" lon="-3.0090200">
<ele>491.855743</ele>
<time>2009-08-02T09:42:15.002Z</time>
</trkpt>
<trkpt lat="43.1812600" lon="-3.0089900">
<ele>488.960144</ele>
<time>2009-08-02T09:42:27.003Z</time>
</trkpt>
<trkpt lat="43.1812100" lon="-3.0090600">
<ele>488.015259</ele>
<time>2009-08-02T09:42:39.004Z</time>
</trkpt>
<trkpt lat="43.1811300" lon="-3.0090700">
<ele>486.552246</ele>
<time>2009-08-02T09:42:49.000Z</time>
</trkpt>
<trkpt lat="43.1810900" lon="-3.0090800">
<ele>487.039917</ele>
<time>2009-08-02T09:43:01.001Z</time>
</trkpt>
<trkpt lat="43.1810800" lon="-3.0090800">
<ele>485.607330</ele>
<time>2009-08-02T09:43:02.004Z</time>
</trkpt>
<trkpt lat="43.1810200" lon="-3.0090800">
<ele>484.631989</ele>
<time>2009-08-02T09:43:06.004Z</time>
</trkpt>
<trkpt lat="43.1808500" lon="-3.0090600">
<ele>482.711731</ele>
<time>2009-08-02T09:43:20.001Z</time>
</trkpt>
<trkpt lat="43.1807200" lon="-3.0090800">
<ele>479.846649</ele>
<time>2009-08-02T09:43:32.002Z</time>
</trkpt>
<trkpt lat="43.1805800" lon="-3.0090900">
<ele>477.438721</ele>
<time>2009-08-02T09:43:44.003Z</time>
</trkpt>
<trkpt lat="43.1805200" lon="-3.0090700">
<ele>475.975677</ele>
<time>2009-08-02T09:43:48.996Z</time>
</trkpt>
<trkpt lat="43.1803800" lon="-3.0090900">
<ele>473.110535</ele>
<time>2009-08-02T09:44:00.997Z</time>
</trkpt>
<trkpt lat="43.1803300" lon="-3.0091100">
<ele>471.678009</ele>
<time>2009-08-02T09:44:06.000Z</time>
</trkpt>
<trkpt lat="43.1801500" lon="-3.0091700">
<ele>469.270081</ele>
<time>2009-08-02T09:44:19.997Z</time>
</trkpt>
<trkpt lat="43.1799800" lon="-3.0092800">
<ele>465.886810</ele>
<time>2009-08-02T09:44:34.996Z</time>
</trkpt>
<trkpt lat="43.1798400" lon="-3.0092400">
<ele>464.941925</ele>
<time>2009-08-02T09:44:46.997Z</time>
</trkpt>
<trkpt lat="43.1797300" lon="-3.0091500">
<ele>463.966553</ele>
<time>2009-08-02T09:44:57.002Z</time>
</trkpt>
<trkpt lat="43.1795500" lon="-3.0089300">
<ele>462.533997</ele>
<time>2009-08-02T09:45:12.001Z</time>
</trkpt>
<trkpt lat="43.1794000" lon="-3.0087700">
<ele>461.558655</ele>
<time>2009-08-02T09:45:25.004Z</time>
</trkpt>
<trkpt lat="43.1792300" lon="-3.0086900">
<ele>460.126068</ele>
<time>2009-08-02T09:45:40.997Z</time>
</trkpt>
<trkpt lat="43.1790500" lon="-3.0085800">
<ele>460.126068</ele>
<time>2009-08-02T09:45:58.000Z</time>
</trkpt>
<trkpt lat="43.1789000" lon="-3.0085600">
<ele>458.205841</ele>
<time>2009-08-02T09:46:11.997Z</time>
</trkpt>
<trkpt lat="43.1788600" lon="-3.0085200">
<ele>457.230469</ele>
<time>2009-08-02T09:46:15.997Z</time>
</trkpt>
<trkpt lat="43.1788100" lon="-3.0085100">
<ele>456.773285</ele>
<time>2009-08-02T09:46:19.998Z</time>
</trkpt>
<trkpt lat="43.1785900" lon="-3.0085100">
<ele>454.853058</ele>
<time>2009-08-02T09:46:38.997Z</time>
</trkpt>
<trkpt lat="43.1783600" lon="-3.0086000">
<ele>452.445129</ele>
<time>2009-08-02T09:46:57.996Z</time>
</trkpt>
<trkpt lat="43.1781300" lon="-3.0086000">
<ele>449.549530</ele>
<time>2009-08-02T09:47:15.000Z</time>
</trkpt>
<trkpt lat="43.1778900" lon="-3.0085400">
<ele>448.116943</ele>
<time>2009-08-02T09:47:32.997Z</time>
</trkpt>
<trkpt lat="43.1776900" lon="-3.0085000">
<ele>445.709045</ele>
<time>2009-08-02T09:47:47.996Z</time>
</trkpt>
<trkpt lat="43.1774200" lon="-3.0084800">
<ele>443.788788</ele>
<time>2009-08-02T09:48:07.004Z</time>
</trkpt>
<trkpt lat="43.1773000" lon="-3.0085400">
<ele>439.948334</ele>
<time>2009-08-02T09:48:17.001Z</time>
</trkpt>
<trkpt lat="43.1771300" lon="-3.0086800">
<ele>436.565063</ele>
<time>2009-08-02T09:48:30.997Z</time>
</trkpt>
<trkpt lat="43.1769000" lon="-3.0088600">
<ele>434.187592</ele>
<time>2009-08-02T09:48:50.999Z</time>
</trkpt>
<trkpt lat="43.1768600" lon="-3.0088900">
<ele>433.212250</ele>
<time>2009-08-02T09:49:04.996Z</time>
</trkpt>
<trkpt lat="43.1767700" lon="-3.0088900">
<ele>431.291992</ele>
<time>2009-08-02T09:49:12.003Z</time>
</trkpt>
<trkpt lat="43.1766500" lon="-3.0089600">
<ele>427.908722</ele>
<time>2009-08-02T09:49:23.002Z</time>
</trkpt>
<trkpt lat="43.1765400" lon="-3.0090100">
<ele>425.043610</ele>
<time>2009-08-02T09:49:32.998Z</time>
</trkpt>
<trkpt lat="43.1763700" lon="-3.0091100">
<ele>421.660339</ele>
<time>2009-08-02T09:49:47.004Z</time>
</trkpt>
<trkpt lat="43.1762500" lon="-3.0092200">
<ele>418.307526</ele>
<time>2009-08-02T09:49:58.002Z</time>
</trkpt>
<trkpt lat="43.1761300" lon="-3.0093400">
<ele>415.411926</ele>
<time>2009-08-02T09:50:09.001Z</time>
</trkpt>
<trkpt lat="43.1761100" lon="-3.0093600">
<ele>414.467041</ele>
<time>2009-08-02T09:50:10.997Z</time>
</trkpt>
<trkpt lat="43.1759800" lon="-3.0095300">
<ele>411.114258</ele>
<time>2009-08-02T09:50:24.000Z</time>
</trkpt>
<trkpt lat="43.1759700" lon="-3.0095400">
<ele>411.114258</ele>
<time>2009-08-02T09:50:25.002Z</time>
</trkpt>
<trkpt lat="43.1759500" lon="-3.0095800">
<ele>409.651215</ele>
<time>2009-08-02T09:50:28.000Z</time>
</trkpt>
<trkpt lat="43.1758500" lon="-3.0097300">
<ele>406.298401</ele>
<time>2009-08-02T09:50:38.999Z</time>
</trkpt>
<trkpt lat="43.1757300" lon="-3.0098500">
<ele>402.915131</ele>
<time>2009-08-02T09:50:49.004Z</time>
</trkpt>
<trkpt lat="43.1755100" lon="-3.0101200">
<ele>400.049988</ele>
<time>2009-08-02T09:51:09.999Z</time>
</trkpt>
<trkpt lat="43.1753600" lon="-3.0104000">
<ele>399.074646</ele>
<time>2009-08-02T09:51:27.996Z</time>
</trkpt>
<trkpt lat="43.1751800" lon="-3.0106800">
<ele>398.129730</ele>
<time>2009-08-02T09:51:47.998Z</time>
</trkpt>
<trkpt lat="43.1750000" lon="-3.0107100">
<ele>396.209534</ele>
<time>2009-08-02T09:52:02.004Z</time>
</trkpt>
<trkpt lat="43.1749000" lon="-3.0106800">
<ele>393.313934</ele>
<time>2009-08-02T09:52:10.998Z</time>
</trkpt>
<trkpt lat="43.1747800" lon="-3.0105900">
<ele>389.961121</ele>
<time>2009-08-02T09:52:22.999Z</time>
</trkpt>
<trkpt lat="43.1747200" lon="-3.0105500">
<ele>388.498077</ele>
<time>2009-08-02T09:52:29.997Z</time>
</trkpt>
<trkpt lat="43.1746000" lon="-3.0104200">
<ele>386.577850</ele>
<time>2009-08-02T09:52:44.003Z</time>
</trkpt>
<trkpt lat="43.1744600" lon="-3.0105700">
<ele>384.657593</ele>
<time>2009-08-02T09:53:00.997Z</time>
</trkpt>
<trkpt lat="43.1744600" lon="-3.0106300">
<ele>384.169922</ele>
<time>2009-08-02T09:53:04.998Z</time>
</trkpt>
<trkpt lat="43.1744800" lon="-3.0107000">
<ele>383.225067</ele>
<time>2009-08-02T09:53:10.000Z</time>
</trkpt>
<trkpt lat="43.1745200" lon="-3.0109800">
<ele>380.817139</ele>
<time>2009-08-02T09:53:26.002Z</time>
</trkpt>
<trkpt lat="43.1745100" lon="-3.0112700">
<ele>380.817139</ele>
<time>2009-08-02T09:53:42.996Z</time>
</trkpt>
<trkpt lat="43.1744800" lon="-3.0115300">
<ele>379.872253</ele>
<time>2009-08-02T09:53:57.002Z</time>
</trkpt>
<trkpt lat="43.1744500" lon="-3.0118600">
<ele>377.464325</ele>
<time>2009-08-02T09:54:13.997Z</time>
</trkpt>
<trkpt lat="43.1744700" lon="-3.0122300">
<ele>374.081055</ele>
<time>2009-08-02T09:54:35.001Z</time>
</trkpt>
<trkpt lat="43.1744400" lon="-3.0125300">
<ele>371.215942</ele>
<time>2009-08-02T09:54:52.004Z</time>
</trkpt>
<trkpt lat="43.1744200" lon="-3.0128400">
<ele>367.832642</ele>
<time>2009-08-02T09:55:07.997Z</time>
</trkpt>
<trkpt lat="43.1743600" lon="-3.0129300">
<ele>365.424713</ele>
<time>2009-08-02T09:55:15.997Z</time>
</trkpt>
<trkpt lat="43.1742900" lon="-3.0129400">
<ele>363.992157</ele>
<time>2009-08-02T09:55:21.000Z</time>
</trkpt>
<trkpt lat="43.1740800" lon="-3.0129400">
<ele>360.151672</ele>
<time>2009-08-02T09:55:35.999Z</time>
</trkpt>
<trkpt lat="43.1738500" lon="-3.0129600">
<ele>358.719116</ele>
<time>2009-08-02T09:55:53.003Z</time>
</trkpt>
<trkpt lat="43.1736000" lon="-3.0129200">
<ele>358.719116</ele>
<time>2009-08-02T09:56:13.004Z</time>
</trkpt>
<trkpt lat="43.1734900" lon="-3.0126400">
<ele>359.664001</ele>
<time>2009-08-02T09:56:29.999Z</time>
</trkpt>
<trkpt lat="43.1733800" lon="-3.0123400">
<ele>358.231445</ele>
<time>2009-08-02T09:56:48.998Z</time>
</trkpt>
<trkpt lat="43.1732700" lon="-3.0119900">
<ele>355.823517</ele>
<time>2009-08-02T09:57:09.000Z</time>
</trkpt>
<trkpt lat="43.1732100" lon="-3.0116500">
<ele>352.470734</ele>
<time>2009-08-02T09:57:26.997Z</time>
</trkpt>
<trkpt lat="43.1732200" lon="-3.0114200">
<ele>349.575134</ele>
<time>2009-08-02T09:57:45.003Z</time>
</trkpt>
<trkpt lat="43.1731600" lon="-3.0112200">
<ele>347.654877</ele>
<time>2009-08-02T09:57:57.997Z</time>
</trkpt>
<trkpt lat="43.1730700" lon="-3.0110000">
<ele>344.759277</ele>
<time>2009-08-02T09:58:12.996Z</time>
</trkpt>
<trkpt lat="43.1730100" lon="-3.0108600">
<ele>341.894135</ele>
<time>2009-08-02T09:58:23.002Z</time>
</trkpt>
<trkpt lat="43.1729200" lon="-3.0106800">
<ele>338.510864</ele>
<time>2009-08-02T09:58:35.996Z</time>
</trkpt>
<trkpt lat="43.1728600" lon="-3.0106000">
<ele>338.053680</ele>
<time>2009-08-02T09:58:44.999Z</time>
</trkpt>
<trkpt lat="43.1726300" lon="-3.0105900">
<ele>338.053680</ele>
<time>2009-08-02T09:59:02.003Z</time>
</trkpt>
<trkpt lat="43.1724100" lon="-3.0105300">
<ele>339.486267</ele>
<time>2009-08-02T09:59:18.997Z</time>
</trkpt>
<trkpt lat="43.1722900" lon="-3.0104300">
<ele>338.998535</ele>
<time>2009-08-02T09:59:36.001Z</time>
</trkpt>
<trkpt lat="43.1722600" lon="-3.0104200">
<ele>338.510864</ele>
<time>2009-08-02T09:59:37.997Z</time>
</trkpt>
<trkpt lat="43.1720700" lon="-3.0104600">
<ele>340.431122</ele>
<time>2009-08-02T09:59:52.996Z</time>
</trkpt>
<trkpt lat="43.1720100" lon="-3.0104500">
<ele>341.406464</ele>
<time>2009-08-02T09:59:59.001Z</time>
</trkpt>
<trkpt lat="43.1718600" lon="-3.0104100">
<ele>343.814392</ele>
<time>2009-08-02T10:00:12.997Z</time>
</trkpt>
<trkpt lat="43.1716600" lon="-3.0103100">
<ele>345.246948</ele>
<time>2009-08-02T10:00:26.001Z</time>
</trkpt>
<trkpt lat="43.1714200" lon="-3.0102800">
<ele>347.167206</ele>
<time>2009-08-02T10:00:43.004Z</time>
</trkpt>
<trkpt lat="43.1712900" lon="-3.0102600">
<ele>346.679535</ele>
<time>2009-08-02T10:00:53.001Z</time>
</trkpt>
<trkpt lat="43.1711500" lon="-3.0102200">
<ele>346.222321</ele>
<time>2009-08-02T10:01:03.999Z</time>
</trkpt>
<trkpt lat="43.1709900" lon="-3.0102000">
<ele>346.222321</ele>
<time>2009-08-02T10:01:18.998Z</time>
</trkpt>
<trkpt lat="43.1708600" lon="-3.0101500">
<ele>345.734650</ele>
<time>2009-08-02T10:01:33.004Z</time>
</trkpt>
<trkpt lat="43.1707600" lon="-3.0101200">
<ele>345.734650</ele>
<time>2009-08-02T10:01:41.998Z</time>
</trkpt>
<trkpt lat="43.1706300" lon="-3.0100400">
<ele>346.222321</ele>
<time>2009-08-02T10:01:52.997Z</time>
</trkpt>
<trkpt lat="43.1704600" lon="-3.0100900">
<ele>349.087463</ele>
<time>2009-08-02T10:02:08.998Z</time>
</trkpt>
<trkpt lat="43.1703200" lon="-3.0103100">
<ele>348.630249</ele>
<time>2009-08-02T10:02:26.002Z</time>
</trkpt>
<trkpt lat="43.1701500" lon="-3.0104500">
<ele>348.630249</ele>
<time>2009-08-02T10:02:41.001Z</time>
</trkpt>
<trkpt lat="43.1699600" lon="-3.0106300">
<ele>349.575134</ele>
<time>2009-08-02T10:02:58.998Z</time>
</trkpt>
<trkpt lat="43.1698000" lon="-3.0108400">
<ele>351.983063</ele>
<time>2009-08-02T10:03:14.999Z</time>
</trkpt>
<trkpt lat="43.1696700" lon="-3.0110800">
<ele>354.878662</ele>
<time>2009-08-02T10:03:32.996Z</time>
</trkpt>
<trkpt lat="43.1696500" lon="-3.0111100">
<ele>354.390930</ele>
<time>2009-08-02T10:03:47.002Z</time>
</trkpt>
<trkpt lat="43.1696400" lon="-3.0111200">
<ele>354.878662</ele>
<time>2009-08-02T10:03:52.998Z</time>
</trkpt>
<trkpt lat="43.1695000" lon="-3.0113300">
<ele>354.878662</ele>
<time>2009-08-02T10:04:08.999Z</time>
</trkpt>
<trkpt lat="43.1693900" lon="-3.0115400">
<ele>356.311188</ele>
<time>2009-08-02T10:04:23.998Z</time>
</trkpt>
<trkpt lat="43.1693000" lon="-3.0118800">
<ele>353.903259</ele>
<time>2009-08-02T10:04:42.997Z</time>
</trkpt>
<trkpt lat="43.1692200" lon="-3.0121800">
<ele>351.983063</ele>
<time>2009-08-02T10:05:00.001Z</time>
</trkpt>
<trkpt lat="43.1692100" lon="-3.0122400">
<ele>351.495331</ele>
<time>2009-08-02T10:05:04.001Z</time>
</trkpt>
<trkpt lat="43.1692000" lon="-3.0123200">
<ele>350.062805</ele>
<time>2009-08-02T10:05:08.002Z</time>
</trkpt>
<trkpt lat="43.1691400" lon="-3.0125100">
<ele>346.679535</ele>
<time>2009-08-02T10:05:19.000Z</time>
</trkpt>
<trkpt lat="43.1691000" lon="-3.0127100">
<ele>343.814392</ele>
<time>2009-08-02T10:05:32.004Z</time>
</trkpt>
<trkpt lat="43.1690700" lon="-3.0129300">
<ele>340.431122</ele>
<time>2009-08-02T10:05:47.003Z</time>
</trkpt>
<trkpt lat="43.1690700" lon="-3.0131800">
<ele>337.566010</ele>
<time>2009-08-02T10:06:02.002Z</time>
</trkpt>
<trkpt lat="43.1690600" lon="-3.0134600">
<ele>335.158081</ele>
<time>2009-08-02T10:06:17.001Z</time>
</trkpt>
<trkpt lat="43.1690100" lon="-3.0138100">
<ele>333.237854</ele>
<time>2009-08-02T10:06:34.004Z</time>
</trkpt>
<trkpt lat="43.1689400" lon="-3.0141400">
<ele>332.262482</ele>
<time>2009-08-02T10:06:50.999Z</time>
</trkpt>
<trkpt lat="43.1687400" lon="-3.0143500">
<ele>330.829926</ele>
<time>2009-08-02T10:07:08.003Z</time>
</trkpt>
<trkpt lat="43.1684900" lon="-3.0144100">
<ele>329.854553</ele>
<time>2009-08-02T10:07:27.002Z</time>
</trkpt>
<trkpt lat="43.1682600" lon="-3.0144300">
<ele>330.829926</ele>
<time>2009-08-02T10:07:43.997Z</time>
</trkpt>
<trkpt lat="43.1679800" lon="-3.0144100">
<ele>327.934326</ele>
<time>2009-08-02T10:08:03.998Z</time>
</trkpt>
<trkpt lat="43.1678200" lon="-3.0143800">
<ele>325.069214</ele>
<time>2009-08-02T10:08:15.999Z</time>
</trkpt>
<trkpt lat="43.1676900" lon="-3.0143300">
<ele>321.228729</ele>
<time>2009-08-02T10:08:25.996Z</time>
</trkpt>
<trkpt lat="43.1676000" lon="-3.0143200">
<ele>319.308472</ele>
<time>2009-08-02T10:08:33.003Z</time>
</trkpt>
<trkpt lat="43.1675700" lon="-3.0143400">
<ele>317.845459</ele>
<time>2009-08-02T10:08:36.001Z</time>
</trkpt>
<trkpt lat="43.1674600" lon="-3.0144100">
<ele>314.492645</ele>
<time>2009-08-02T10:08:45.004Z</time>
</trkpt>
<trkpt lat="43.1674100" lon="-3.0144500">
<ele>313.060059</ele>
<time>2009-08-02T10:08:59.001Z</time>
</trkpt>
<trkpt lat="43.1674100" lon="-3.0144300">
<ele>313.517273</ele>
<time>2009-08-02T10:09:19.996Z</time>
</trkpt>
<trkpt lat="43.1674100" lon="-3.0144300">
<ele>313.060059</ele>
<time>2009-08-02T10:09:20.998Z</time>
</trkpt>
<trkpt lat="43.1672300" lon="-3.0145300">
<ele>309.189117</ele>
<time>2009-08-02T10:09:35.997Z</time>
</trkpt>
<trkpt lat="43.1670800" lon="-3.0146200">
<ele>305.836334</ele>
<time>2009-08-02T10:09:49.000Z</time>
</trkpt>
<trkpt lat="43.1669700" lon="-3.0147100">
<ele>302.940735</ele>
<time>2009-08-02T10:09:58.997Z</time>
</trkpt>
<trkpt lat="43.1669300" lon="-3.0147800">
<ele>300.563263</ele>
<time>2009-08-02T10:10:03.999Z</time>
</trkpt>
<trkpt lat="43.1668700" lon="-3.0148800">
<ele>297.667664</ele>
<time>2009-08-02T10:10:12.000Z</time>
</trkpt>
<trkpt lat="43.1668000" lon="-3.0149700">
<ele>293.827209</ele>
<time>2009-08-02T10:10:20.001Z</time>
</trkpt>
<trkpt lat="43.1667900" lon="-3.0149900">
<ele>293.827209</ele>
<time>2009-08-02T10:10:21.003Z</time>
</trkpt>
<trkpt lat="43.1667300" lon="-3.0150800">
<ele>289.986725</ele>
<time>2009-08-02T10:10:28.001Z</time>
</trkpt>
<trkpt lat="43.1667200" lon="-3.0151000">
<ele>289.986725</ele>
<time>2009-08-02T10:10:29.004Z</time>
</trkpt>
<trkpt lat="43.1666300" lon="-3.0152200">
<ele>286.603424</ele>
<time>2009-08-02T10:10:39.000Z</time>
</trkpt>
<trkpt lat="43.1666200" lon="-3.0152300">
<ele>286.115753</ele>
<time>2009-08-02T10:10:40.002Z</time>
</trkpt>
<trkpt lat="43.1665500" lon="-3.0152800">
<ele>283.738342</ele>
<time>2009-08-02T10:10:47.001Z</time>
</trkpt>
<trkpt lat="43.1664800" lon="-3.0153100">
<ele>280.842712</ele>
<time>2009-08-02T10:10:52.997Z</time>
</trkpt>
<trkpt lat="43.1664000" lon="-3.0153600">
<ele>277.002228</ele>
<time>2009-08-02T10:11:00.004Z</time>
</trkpt>
<trkpt lat="43.1663800" lon="-3.0153700">
<ele>276.514557</ele>
<time>2009-08-02T10:11:02.000Z</time>
</trkpt>
<trkpt lat="43.1662800" lon="-3.0154300">
<ele>273.161774</ele>
<time>2009-08-02T10:11:11.003Z</time>
</trkpt>
<trkpt lat="43.1661800" lon="-3.0154700">
<ele>269.778473</ele>
<time>2009-08-02T10:11:23.004Z</time>
</trkpt>
<trkpt lat="43.1660900" lon="-3.0155200">
<ele>266.913361</ele>
<time>2009-08-02T10:11:30.002Z</time>
</trkpt>
<trkpt lat="43.1660600" lon="-3.0155400">
<ele>265.450317</ele>
<time>2009-08-02T10:11:33.000Z</time>
</trkpt>
<trkpt lat="43.1659900" lon="-3.0155800">
<ele>263.072876</ele>
<time>2009-08-02T10:11:38.996Z</time>
</trkpt>
<trkpt lat="43.1659300" lon="-3.0156200">
<ele>259.201935</ele>
<time>2009-08-02T10:11:43.999Z</time>
</trkpt>
<trkpt lat="43.1659200" lon="-3.0156300">
<ele>263.072876</ele>
<time>2009-08-02T10:11:45.001Z</time>
</trkpt>
<trkpt lat="43.1659000" lon="-3.0156500">
<ele>259.689606</ele>
<time>2009-08-02T10:11:46.997Z</time>
</trkpt>
<trkpt lat="43.1658000" lon="-3.0157000">
<ele>256.824463</ele>
<time>2009-08-02T10:11:54.997Z</time>
</trkpt>
<trkpt lat="43.1657600" lon="-3.0157200">
<ele>255.361435</ele>
<time>2009-08-02T10:11:58.004Z</time>
</trkpt>
<trkpt lat="43.1656800" lon="-3.0157600">
<ele>252.008636</ele>
<time>2009-08-02T10:12:05.003Z</time>
</trkpt>
<trkpt lat="43.1656700" lon="-3.0157700">
<ele>252.008636</ele>
<time>2009-08-02T10:12:05.996Z</time>
</trkpt>
<trkpt lat="43.1655700" lon="-3.0158300">
<ele>248.168167</ele>
<time>2009-08-02T10:12:14.999Z</time>
</trkpt>
<trkpt lat="43.1654700" lon="-3.0158800">
<ele>245.272568</ele>
<time>2009-08-02T10:12:23.000Z</time>
</trkpt>
<trkpt lat="43.1653900" lon="-3.0159200">
<ele>241.919769</ele>
<time>2009-08-02T10:12:29.998Z</time>
</trkpt>
<trkpt lat="43.1653400" lon="-3.0159600">
<ele>239.999527</ele>
<time>2009-08-02T10:12:36.996Z</time>
</trkpt>
<trkpt lat="43.1652200" lon="-3.0160100">
<ele>236.128571</ele>
<time>2009-08-02T10:12:48.997Z</time>
</trkpt>
<trkpt lat="43.1651000" lon="-3.0159900">
<ele>232.775757</ele>
<time>2009-08-02T10:12:59.996Z</time>
</trkpt>
<trkpt lat="43.1650300" lon="-3.0159700">
<ele>231.343201</ele>
<time>2009-08-02T10:13:04.999Z</time>
</trkpt>
<trkpt lat="43.1648600" lon="-3.0159600">
<ele>227.959930</ele>
<time>2009-08-02T10:13:19.004Z</time>
</trkpt>
<trkpt lat="43.1647100" lon="-3.0159500">
<ele>226.039673</ele>
<time>2009-08-02T10:13:31.999Z</time>
</trkpt>
<trkpt lat="43.1645900" lon="-3.0159200">
<ele>222.686874</ele>
<time>2009-08-02T10:13:41.002Z</time>
</trkpt>
<trkpt lat="43.1643900" lon="-3.0158600">
<ele>219.303604</ele>
<time>2009-08-02T10:13:57.003Z</time>
</trkpt>
<trkpt lat="43.1642200" lon="-3.0157800">
<ele>215.950806</ele>
<time>2009-08-02T10:14:11.000Z</time>
</trkpt>
<trkpt lat="43.1641000" lon="-3.0157400">
<ele>212.598007</ele>
<time>2009-08-02T10:14:20.996Z</time>
</trkpt>
<trkpt lat="43.1640400" lon="-3.0157300">
<ele>211.134964</ele>
<time>2009-08-02T10:14:25.999Z</time>
</trkpt>
<trkpt lat="43.1639000" lon="-3.0157100">
<ele>207.782166</ele>
<time>2009-08-02T10:14:36.997Z</time>
</trkpt>
<trkpt lat="43.1637600" lon="-3.0156800">
<ele>204.429367</ele>
<time>2009-08-02T10:14:50.001Z</time>
</trkpt>
<trkpt lat="43.1636500" lon="-3.0156500">
<ele>201.046066</ele>
<time>2009-08-02T10:15:00.999Z</time>
</trkpt>
<trkpt lat="43.1635300" lon="-3.0156000">
<ele>197.693268</ele>
<time>2009-08-02T10:15:13.000Z</time>
</trkpt>
<trkpt lat="43.1634600" lon="-3.0155700">
<ele>196.260727</ele>
<time>2009-08-02T10:15:18.996Z</time>
</trkpt>
<trkpt lat="43.1633700" lon="-3.0154600">
<ele>194.309998</ele>
<time>2009-08-02T10:15:33.002Z</time>
</trkpt>
<trkpt lat="43.1633000" lon="-3.0151700">
<ele>193.365128</ele>
<time>2009-08-02T10:15:49.997Z</time>
</trkpt>
<trkpt lat="43.1633100" lon="-3.0150000">
<ele>192.389771</ele>
<time>2009-08-02T10:16:00.002Z</time>
</trkpt>
<trkpt lat="43.1632400" lon="-3.0148200">
<ele>189.524643</ele>
<time>2009-08-02T10:16:12.003Z</time>
</trkpt>
<trkpt lat="43.1630700" lon="-3.0148300">
<ele>185.684158</ele>
<time>2009-08-02T10:16:26.000Z</time>
</trkpt>
<trkpt lat="43.1629300" lon="-3.0149000">
<ele>183.276230</ele>
<time>2009-08-02T10:16:39.003Z</time>
</trkpt>
<trkpt lat="43.1627300" lon="-3.0149900">
<ele>179.435760</ele>
<time>2009-08-02T10:16:55.998Z</time>
</trkpt>
<trkpt lat="43.1625200" lon="-3.0150900">
<ele>176.540161</ele>
<time>2009-08-02T10:17:14.004Z</time>
</trkpt>
<trkpt lat="43.1622900" lon="-3.0152000">
<ele>173.187363</ele>
<time>2009-08-02T10:17:33.003Z</time>
</trkpt>
<trkpt lat="43.1621000" lon="-3.0152900">
<ele>170.291763</ele>
<time>2009-08-02T10:17:49.004Z</time>
</trkpt>
<trkpt lat="43.1619800" lon="-3.0153000">
<ele>167.883835</ele>
<time>2009-08-02T10:17:59.001Z</time>
</trkpt>
<trkpt lat="43.1618200" lon="-3.0151800">
<ele>165.475922</ele>
<time>2009-08-02T10:18:14.000Z</time>
</trkpt>
<trkpt lat="43.1617800" lon="-3.0151200">
<ele>164.988235</ele>
<time>2009-08-02T10:18:19.002Z</time>
</trkpt>
<trkpt lat="43.1616900" lon="-3.0148500">
<ele>163.555679</ele>
<time>2009-08-02T10:18:35.004Z</time>
</trkpt>
<trkpt lat="43.1616400" lon="-3.0146800">
<ele>162.123123</ele>
<time>2009-08-02T10:18:43.998Z</time>
</trkpt>
<trkpt lat="43.1616200" lon="-3.0146100">
<ele>161.635437</ele>
<time>2009-08-02T10:18:47.998Z</time>
</trkpt>
<trkpt lat="43.1615900" lon="-3.0142900">
<ele>160.690567</ele>
<time>2009-08-02T10:19:06.997Z</time>
</trkpt>
<trkpt lat="43.1616000" lon="-3.0142700">
<ele>160.202866</ele>
<time>2009-08-02T10:19:08.000Z</time>
</trkpt>
<trkpt lat="43.1616000" lon="-3.0140800">
<ele>160.202866</ele>
<time>2009-08-02T10:19:18.998Z</time>
</trkpt>
<trkpt lat="43.1616800" lon="-3.0137300">
<ele>162.123123</ele>
<time>2009-08-02T10:19:40.996Z</time>
</trkpt>
<trkpt lat="43.1616300" lon="-3.0135800">
<ele>160.690567</ele>
<time>2009-08-02T10:19:49.999Z</time>
</trkpt>
<trkpt lat="43.1614700" lon="-3.0133500">
<ele>157.307266</ele>
<time>2009-08-02T10:20:07.002Z</time>
</trkpt>
<trkpt lat="43.1613500" lon="-3.0131600">
<ele>154.442169</ele>
<time>2009-08-02T10:20:20.999Z</time>
</trkpt>
<trkpt lat="43.1613400" lon="-3.0131300">
<ele>153.954483</ele>
<time>2009-08-02T10:20:23.004Z</time>
</trkpt>
<trkpt lat="43.1613300" lon="-3.0130500">
<ele>152.979111</ele>
<time>2009-08-02T10:20:27.004Z</time>
</trkpt>
<trkpt lat="43.1613500" lon="-3.0127200">
<ele>149.626312</ele>
<time>2009-08-02T10:20:45.001Z</time>
</trkpt>
<trkpt lat="43.1613400" lon="-3.0123500">
<ele>148.193756</ele>
<time>2009-08-02T10:21:05.996Z</time>
</trkpt>
<trkpt lat="43.1612700" lon="-3.0119900">
<ele>145.785843</ele>
<time>2009-08-02T10:21:25.004Z</time>
</trkpt>
<trkpt lat="43.1610600" lon="-3.0117700">
<ele>144.322800</ele>
<time>2009-08-02T10:21:41.999Z</time>
</trkpt>
<trkpt lat="43.1609500" lon="-3.0116500">
<ele>142.402557</ele>
<time>2009-08-02T10:21:52.998Z</time>
</trkpt>
<trkpt lat="43.1608700" lon="-3.0115300">
<ele>142.890244</ele>
<time>2009-08-02T10:22:03.996Z</time>
</trkpt>
<trkpt lat="43.1607200" lon="-3.0114900">
<ele>143.377914</ele>
<time>2009-08-02T10:22:15.004Z</time>
</trkpt>
<trkpt lat="43.1604700" lon="-3.0114100">
<ele>145.785843</ele>
<time>2009-08-02T10:22:34.997Z</time>
</trkpt>
<trkpt lat="43.1603700" lon="-3.0111500">
<ele>147.218399</ele>
<time>2009-08-02T10:22:53.003Z</time>
</trkpt>
<trkpt lat="43.1602500" lon="-3.0108800">
<ele>148.650970</ele>
<time>2009-08-02T10:23:12.002Z</time>
</trkpt>
<trkpt lat="43.1601000" lon="-3.0106700">
<ele>150.113998</ele>
<time>2009-08-02T10:23:28.003Z</time>
</trkpt>
<trkpt lat="43.1599500" lon="-3.0103800">
<ele>150.571198</ele>
<time>2009-08-02T10:23:47.996Z</time>
</trkpt>
<trkpt lat="43.1598900" lon="-3.0101400">
<ele>152.491440</ele>
<time>2009-08-02T10:24:03.997Z</time>
</trkpt>
<trkpt lat="43.1598500" lon="-3.0099900">
<ele>153.466797</ele>
<time>2009-08-02T10:24:14.003Z</time>
</trkpt>
<trkpt lat="43.1597200" lon="-3.0097200">
<ele>155.387039</ele>
<time>2009-08-02T10:24:33.002Z</time>
</trkpt>
<trkpt lat="43.1595900" lon="-3.0094500">
<ele>156.362396</ele>
<time>2009-08-02T10:24:50.999Z</time>
</trkpt>
<trkpt lat="43.1594600" lon="-3.0091400">
<ele>158.282639</ele>
<time>2009-08-02T10:25:12.003Z</time>
</trkpt>
<trkpt lat="43.1593200" lon="-3.0088400">
<ele>161.147766</ele>
<time>2009-08-02T10:25:32.998Z</time>
</trkpt>
<trkpt lat="43.1591200" lon="-3.0086100">
<ele>160.690567</ele>
<time>2009-08-02T10:25:53.000Z</time>
</trkpt>
<trkpt lat="43.1589500" lon="-3.0083700">
<ele>159.227524</ele>
<time>2009-08-02T10:26:10.997Z</time>
</trkpt>
<trkpt lat="43.1587300" lon="-3.0082000">
<ele>159.715195</ele>
<time>2009-08-02T10:26:29.996Z</time>
</trkpt>
<trkpt lat="43.1585400" lon="-3.0079700">
<ele>160.690567</ele>
<time>2009-08-02T10:26:49.004Z</time>
</trkpt>
<trkpt lat="43.1583400" lon="-3.0077500">
<ele>163.067993</ele>
<time>2009-08-02T10:27:08.004Z</time>
</trkpt>
<trkpt lat="43.1581300" lon="-3.0075700">
<ele>164.531036</ele>
<time>2009-08-02T10:27:27.003Z</time>
</trkpt>
<trkpt lat="43.1579200" lon="-3.0074000">
<ele>164.988235</ele>
<time>2009-08-02T10:27:46.002Z</time>
</trkpt>
<trkpt lat="43.1578000" lon="-3.0072200">
<ele>166.938965</ele>
<time>2009-08-02T10:27:59.999Z</time>
</trkpt>
<trkpt lat="43.1576200" lon="-3.0069600">
<ele>168.371521</ele>
<time>2009-08-02T10:28:21.003Z</time>
</trkpt>
<trkpt lat="43.1574500" lon="-3.0066400">
<ele>168.371521</ele>
<time>2009-08-02T10:28:43.000Z</time>
</trkpt>
<trkpt lat="43.1572900" lon="-3.0063600">
<ele>169.804077</ele>
<time>2009-08-02T10:29:02.000Z</time>
</trkpt>
<trkpt lat="43.1572100" lon="-3.0061200">
<ele>171.724335</ele>
<time>2009-08-02T10:29:16.999Z</time>
</trkpt>
<trkpt lat="43.1571700" lon="-3.0059800">
<ele>173.187363</ele>
<time>2009-08-02T10:29:24.999Z</time>
</trkpt>
<trkpt lat="43.1571700" lon="-3.0059000">
<ele>173.644562</ele>
<time>2009-08-02T10:29:30.002Z</time>
</trkpt>
<trkpt lat="43.1571300" lon="-3.0055800">
<ele>175.564804</ele>
<time>2009-08-02T10:29:49.001Z</time>
</trkpt>
<trkpt lat="43.1570700" lon="-3.0055200">
<ele>175.564804</ele>
<time>2009-08-02T10:29:54.004Z</time>
</trkpt>
<trkpt lat="43.1569500" lon="-3.0056100">
<ele>176.540161</ele>
<time>2009-08-02T10:30:05.003Z</time>
</trkpt>
<trkpt lat="43.1567800" lon="-3.0057700">
<ele>177.972733</ele>
<time>2009-08-02T10:30:17.997Z</time>
</trkpt>
<trkpt lat="43.1567700" lon="-3.0055500">
<ele>181.356003</ele>
<time>2009-08-02T10:30:32.996Z</time>
</trkpt>
<trkpt lat="43.1567600" lon="-3.0053900">
<ele>184.221130</ele>
<time>2009-08-02T10:30:44.997Z</time>
</trkpt>
<trkpt lat="43.1567500" lon="-3.0052500">
<ele>187.604401</ele>
<time>2009-08-02T10:30:55.996Z</time>
</trkpt>
<trkpt lat="43.1567400" lon="-3.0051200">
<ele>190.469528</ele>
<time>2009-08-02T10:31:07.997Z</time>
</trkpt>
<trkpt lat="43.1567300" lon="-3.0050400">
<ele>191.444870</ele>
<time>2009-08-02T10:31:15.004Z</time>
</trkpt>
<trkpt lat="43.1567300" lon="-3.0048800">
<ele>195.285370</ele>
<time>2009-08-02T10:31:29.001Z</time>
</trkpt>
<trkpt lat="43.1566900" lon="-3.0046900">
<ele>198.638168</ele>
<time>2009-08-02T10:31:45.002Z</time>
</trkpt>
<trkpt lat="43.1567000" lon="-3.0046600">
<ele>199.125839</ele>
<time>2009-08-02T10:31:46.998Z</time>
</trkpt>
<trkpt lat="43.1566700" lon="-3.0044300">
<ele>202.509125</ele>
<time>2009-08-02T10:32:04.001Z</time>
</trkpt>
<trkpt lat="43.1566600" lon="-3.0042500">
<ele>205.861923</ele>
<time>2009-08-02T10:32:20.003Z</time>
</trkpt>
<trkpt lat="43.1566500" lon="-3.0040800">
<ele>209.702393</ele>
<time>2009-08-02T10:32:35.002Z</time>
</trkpt>
<trkpt lat="43.1566400" lon="-3.0038900">
<ele>212.598007</ele>
<time>2009-08-02T10:32:51.003Z</time>
</trkpt>
<trkpt lat="43.1566100" lon="-3.0037800">
<ele>214.518234</ele>
<time>2009-08-02T10:33:02.002Z</time>
</trkpt>
<trkpt lat="43.1564900" lon="-3.0035500">
<ele>217.871033</ele>
<time>2009-08-02T10:33:19.999Z</time>
</trkpt>
<trkpt lat="43.1564700" lon="-3.0034700">
<ele>219.303604</ele>
<time>2009-08-02T10:33:26.997Z</time>
</trkpt>
<trkpt lat="43.1564200" lon="-3.0032800">
<ele>221.254333</ele>
<time>2009-08-02T10:33:42.998Z</time>
</trkpt>
<trkpt lat="43.1563000" lon="-3.0031800">
<ele>223.631760</ele>
<time>2009-08-02T10:33:56.002Z</time>
</trkpt>
<trkpt lat="43.1562400" lon="-3.0029700">
<ele>226.039673</ele>
<time>2009-08-02T10:34:12.003Z</time>
</trkpt>
<trkpt lat="43.1561600" lon="-3.0028600">
<ele>227.502731</ele>
<time>2009-08-02T10:34:21.999Z</time>
</trkpt>
<trkpt lat="43.1561700" lon="-3.0028600">
<ele>227.502731</ele>
<time>2009-08-02T10:34:34.000Z</time>
</trkpt>
<trkpt lat="43.1561400" lon="-3.0028600">
<ele>227.959930</ele>
<time>2009-08-02T10:34:50.002Z</time>
</trkpt>
<trkpt lat="43.1561200" lon="-3.0027300">
<ele>228.935272</ele>
<time>2009-08-02T10:35:02.996Z</time>
</trkpt>
<trkpt lat="43.1561200" lon="-3.0027300">
<ele>228.935272</ele>
<time>2009-08-02T10:35:25.002Z</time>
</trkpt>
<trkpt lat="43.1561200" lon="-3.0027200">
<ele>229.422958</ele>
<time>2009-08-02T10:35:26.998Z</time>
</trkpt>
<trkpt lat="43.1560700" lon="-3.0026000">
<ele>231.800400</ele>
<time>2009-08-02T10:35:37.997Z</time>
</trkpt>
<trkpt lat="43.1560300" lon="-3.0024800">
<ele>234.695999</ele>
<time>2009-08-02T10:35:52.002Z</time>
</trkpt>
<trkpt lat="43.1560300" lon="-3.0023700">
<ele>237.591599</ele>
<time>2009-08-02T10:36:04.003Z</time>
</trkpt>
<trkpt lat="43.1560400" lon="-3.0022100">
<ele>239.511841</ele>
<time>2009-08-02T10:36:16.998Z</time>
</trkpt>
<trkpt lat="43.1560200" lon="-3.0020400">
<ele>241.919769</ele>
<time>2009-08-02T10:36:30.001Z</time>
</trkpt>
<trkpt lat="43.1560200" lon="-3.0019700">
<ele>243.352325</ele>
<time>2009-08-02T10:36:35.997Z</time>
</trkpt>
<trkpt lat="43.1560000" lon="-3.0017600">
<ele>246.247925</ele>
<time>2009-08-02T10:36:50.003Z</time>
</trkpt>
<trkpt lat="43.1558800" lon="-3.0016100">
<ele>246.705124</ele>
<time>2009-08-02T10:37:02.997Z</time>
</trkpt>
<trkpt lat="43.1557900" lon="-3.0014800">
<ele>246.705124</ele>
<time>2009-08-02T10:37:14.998Z</time>
</trkpt>
<trkpt lat="43.1556700" lon="-3.0013200">
<ele>247.192795</ele>
<time>2009-08-02T10:37:29.004Z</time>
</trkpt>
<trkpt lat="43.1556400" lon="-3.0013000">
<ele>247.680466</ele>
<time>2009-08-02T10:37:30.999Z</time>
</trkpt>
<trkpt lat="43.1556200" lon="-3.0012700">
<ele>247.192795</ele>
<time>2009-08-02T10:37:33.004Z</time>
</trkpt>
<trkpt lat="43.1554700" lon="-3.0012600">
<ele>249.113037</ele>
<time>2009-08-02T10:37:48.996Z</time>
</trkpt>
<trkpt lat="43.1554300" lon="-3.0012900">
<ele>247.680466</ele>
<time>2009-08-02T10:38:11.003Z</time>
</trkpt>
<trkpt lat="43.1554100" lon="-3.0011700">
<ele>250.088394</ele>
<time>2009-08-02T10:38:23.997Z</time>
</trkpt>
<trkpt lat="43.1552700" lon="-3.0011200">
<ele>252.008636</ele>
<time>2009-08-02T10:38:38.003Z</time>
</trkpt>
<trkpt lat="43.1552400" lon="-3.0010400">
<ele>252.008636</ele>
<time>2009-08-02T10:38:50.997Z</time>
</trkpt>
<trkpt lat="43.1552600" lon="-3.0009600">
<ele>252.008636</ele>
<time>2009-08-02T10:39:08.001Z</time>
</trkpt>
<trkpt lat="43.1550900" lon="-3.0009600">
<ele>250.088394</ele>
<time>2009-08-02T10:39:27.000Z</time>
</trkpt>
<trkpt lat="43.1550400" lon="-3.0008900">
<ele>249.600723</ele>
<time>2009-08-02T10:39:44.004Z</time>
</trkpt>
<trkpt lat="43.1549500" lon="-3.0006800">
<ele>252.953522</ele>
<time>2009-08-02T10:40:04.999Z</time>
</trkpt>
<trkpt lat="43.1548700" lon="-3.0005400">
<ele>254.416565</ele>
<time>2009-08-02T10:40:19.004Z</time>
</trkpt>
<trkpt lat="43.1548600" lon="-3.0004300">
<ele>257.769379</ele>
<time>2009-08-02T10:40:38.997Z</time>
</trkpt>
<trkpt lat="43.1548000" lon="-3.0003600">
<ele>259.689606</ele>
<time>2009-08-02T10:40:49.002Z</time>
</trkpt>
<trkpt lat="43.1547000" lon="-3.0003500">
<ele>261.122162</ele>
<time>2009-08-02T10:41:06.999Z</time>
</trkpt>
<trkpt lat="43.1546900" lon="-3.0003400">
<ele>260.177277</ele>
<time>2009-08-02T10:41:09.004Z</time>
</trkpt>
<trkpt lat="43.1546000" lon="-3.0003200">
<ele>261.609833</ele>
<time>2009-08-02T10:41:21.998Z</time>
</trkpt>
<trkpt lat="43.1545500" lon="-3.0002700">
<ele>264.017761</ele>
<time>2009-08-02T10:41:36.997Z</time>
</trkpt>
<trkpt lat="43.1544800" lon="-3.0001500">
<ele>266.425659</ele>
<time>2009-08-02T10:41:48.998Z</time>
</trkpt>
<trkpt lat="43.1544200" lon="-3.0000200">
<ele>269.778473</ele>
<time>2009-08-02T10:42:02.002Z</time>
</trkpt>
<trkpt lat="43.1543300" lon="-2.9998800">
<ele>273.161774</ele>
<time>2009-08-02T10:42:17.001Z</time>
</trkpt>
<trkpt lat="43.1542500" lon="-2.9997500">
<ele>275.569672</ele>
<time>2009-08-02T10:42:32.000Z</time>
</trkpt>
<trkpt lat="43.1541500" lon="-2.9995800">
<ele>277.947113</ele>
<time>2009-08-02T10:42:49.003Z</time>
</trkpt>
<trkpt lat="43.1540400" lon="-2.9994000">
<ele>280.842712</ele>
<time>2009-08-02T10:43:04.996Z</time>
</trkpt>
<trkpt lat="43.1539100" lon="-2.9991900">
<ele>281.330414</ele>
<time>2009-08-02T10:43:21.999Z</time>
</trkpt>
<trkpt lat="43.1531800" lon="-2.9996300">
<ele>267.370575</ele>
<time>2010-06-22T05:13:30.999Z</time>
</trkpt>
<trkpt lat="43.1530500" lon="-2.9996700">
<ele>268.345917</ele>
<time>2010-06-22T05:13:33.997Z</time>
</trkpt>
<trkpt lat="43.1529200" lon="-2.9996400">
<ele>267.858246</ele>
<time>2010-06-22T05:13:36.002Z</time>
</trkpt>
<trkpt lat="43.1528000" lon="-2.9995900">
<ele>267.370575</ele>
<time>2010-06-22T05:13:37.998Z</time>
</trkpt>
<trkpt lat="43.1526800" lon="-2.9995400">
<ele>265.937988</ele>
<time>2010-06-22T05:13:40.002Z</time>
</trkpt>
<trkpt lat="43.1525700" lon="-2.9995400">
<ele>266.425659</ele>
<time>2010-06-22T05:13:41.998Z</time>
</trkpt>
<trkpt lat="43.1524700" lon="-2.9996200">
<ele>267.370575</ele>
<time>2010-06-22T05:13:44.003Z</time>
</trkpt>
<trkpt lat="43.1523700" lon="-2.9997500">
<ele>268.345917</ele>
<time>2010-06-22T05:13:45.998Z</time>
</trkpt>
<trkpt lat="43.1522500" lon="-2.9998600">
<ele>269.321259</ele>
<time>2010-06-22T05:13:48.003Z</time>
</trkpt>
<trkpt lat="43.1521200" lon="-2.9999600">
<ele>270.753845</ele>
<time>2010-06-22T05:13:49.999Z</time>
</trkpt>
<trkpt lat="43.1520100" lon="-3.0000300">
<ele>273.618958</ele>
<time>2010-06-22T05:13:52.003Z</time>
</trkpt>
<trkpt lat="43.1519100" lon="-3.0000900">
<ele>275.569672</ele>
<time>2010-06-22T05:13:53.999Z</time>
</trkpt>
<trkpt lat="43.1518100" lon="-3.0001500">
<ele>277.489929</ele>
<time>2010-06-22T05:13:56.004Z</time>
</trkpt>
<trkpt lat="43.1517000" lon="-3.0002000">
<ele>280.355042</ele>
<time>2010-06-22T05:13:57.999Z</time>
</trkpt>
<trkpt lat="43.1515900" lon="-3.0002300">
<ele>282.275269</ele>
<time>2010-06-22T05:14:00.004Z</time>
</trkpt>
<trkpt lat="43.1514600" lon="-3.0002500">
<ele>283.738342</ele>
<time>2010-06-22T05:14:02.000Z</time>
</trkpt>
<trkpt lat="43.1513400" lon="-3.0002400">
<ele>286.115753</ele>
<time>2010-06-22T05:14:04.004Z</time>
</trkpt>
<trkpt lat="43.1512100" lon="-3.0002100">
<ele>286.603424</ele>
<time>2010-06-22T05:14:06.000Z</time>
</trkpt>
<trkpt lat="43.1510800" lon="-3.0001800">
<ele>287.091125</ele>
<time>2010-06-22T05:14:07.996Z</time>
</trkpt>
<trkpt lat="43.1509500" lon="-3.0001800">
<ele>287.091125</ele>
<time>2010-06-22T05:14:10.000Z</time>
</trkpt>
<trkpt lat="43.1508200" lon="-3.0002100">
<ele>286.603424</ele>
<time>2010-06-22T05:14:11.996Z</time>
</trkpt>
<trkpt lat="43.1507300" lon="-3.0003000">
<ele>286.115753</ele>
<time>2010-06-22T05:14:14.001Z</time>
</trkpt>
<trkpt lat="43.1507100" lon="-3.0004700">
<ele>286.115753</ele>
<time>2010-06-22T05:14:15.996Z</time>
</trkpt>
<trkpt lat="43.1507000" lon="-3.0006900">
<ele>285.658569</ele>
<time>2010-06-22T05:14:18.001Z</time>
</trkpt>
<trkpt lat="43.1507000" lon="-3.0009100">
<ele>285.170868</ele>
<time>2010-06-22T05:14:19.997Z</time>
</trkpt>
<trkpt lat="43.1507100" lon="-3.0011400">
<ele>284.195526</ele>
<time>2010-06-22T05:14:22.001Z</time>
</trkpt>
<trkpt lat="43.1507000" lon="-3.0013400">
<ele>283.250641</ele>
<time>2010-06-22T05:14:23.997Z</time>
</trkpt>
<trkpt lat="43.1506800" lon="-3.0015300">
<ele>282.275269</ele>
<time>2010-06-22T05:14:26.002Z</time>
</trkpt>
<trkpt lat="43.1506500" lon="-3.0016900">
<ele>281.330414</ele>
<time>2010-06-22T05:14:27.997Z</time>
</trkpt>
<trkpt lat="43.1506100" lon="-3.0018100">
<ele>280.842712</ele>
<time>2010-06-22T05:14:31.004Z</time>
</trkpt>
<trkpt lat="43.1505800" lon="-3.0019600">
<ele>281.330414</ele>
<time>2010-06-22T05:14:34.996Z</time>
</trkpt>
<trkpt lat="43.1505700" lon="-3.0020800">
<ele>282.275269</ele>
<time>2010-06-22T05:14:37.000Z</time>
</trkpt>
<trkpt lat="43.1505300" lon="-3.0022500">
<ele>283.738342</ele>
<time>2010-06-22T05:14:38.996Z</time>
</trkpt>
<trkpt lat="43.1504700" lon="-3.0024000">
<ele>284.683197</ele>
<time>2010-06-22T05:14:41.001Z</time>
</trkpt>
<trkpt lat="43.1503700" lon="-3.0024900">
<ele>286.115753</ele>
<time>2010-06-22T05:14:42.996Z</time>
</trkpt>
<trkpt lat="43.1502300" lon="-3.0024800">
<ele>287.091125</ele>
<time>2010-06-22T05:14:45.001Z</time>
</trkpt>
<trkpt lat="43.1501000" lon="-3.0024700">
<ele>287.091125</ele>
<time>2010-06-22T05:14:46.997Z</time>
</trkpt>
<trkpt lat="43.1500400" lon="-3.0025700">
<ele>288.066467</ele>
<time>2010-06-22T05:14:49.001Z</time>
</trkpt>
<trkpt lat="43.1500300" lon="-3.0027300">
<ele>289.986725</ele>
<time>2010-06-22T05:14:50.997Z</time>
</trkpt>
<trkpt lat="43.1500400" lon="-3.0029300">
<ele>290.931610</ele>
<time>2010-06-22T05:14:53.002Z</time>
</trkpt>
<trkpt lat="43.1500700" lon="-3.0031600">
<ele>292.851837</ele>
<time>2010-06-22T05:14:54.997Z</time>
</trkpt>
<trkpt lat="43.1501000" lon="-3.0033800">
<ele>294.314880</ele>
<time>2010-06-22T05:14:57.002Z</time>
</trkpt>
<trkpt lat="43.1501400" lon="-3.0035800">
<ele>294.772064</ele>
<time>2010-06-22T05:14:58.998Z</time>
</trkpt>
<trkpt lat="43.1502000" lon="-3.0037700">
<ele>295.259766</ele>
<time>2010-06-22T05:15:01.002Z</time>
</trkpt>
<trkpt lat="43.1502800" lon="-3.0039300">
<ele>296.235138</ele>
<time>2010-06-22T05:15:02.998Z</time>
</trkpt>
<trkpt lat="43.1503500" lon="-3.0040900">
<ele>297.179993</ele>
<time>2010-06-22T05:15:05.003Z</time>
</trkpt>
<trkpt lat="43.1504000" lon="-3.0042800">
<ele>298.155365</ele>
<time>2010-06-22T05:15:06.998Z</time>
</trkpt>
<trkpt lat="43.1504300" lon="-3.0044900">
<ele>298.612549</ele>
<time>2010-06-22T05:15:09.003Z</time>
</trkpt>
<trkpt lat="43.1504400" lon="-3.0047200">
<ele>297.179993</ele>
<time>2010-06-22T05:15:10.999Z</time>
</trkpt>
<trkpt lat="43.1504400" lon="-3.0049500">
<ele>295.747437</ele>
<time>2010-06-22T05:15:13.003Z</time>
</trkpt>
<trkpt lat="43.1504200" lon="-3.0051600">
<ele>293.339539</ele>
<time>2010-06-22T05:15:14.999Z</time>
</trkpt>
<trkpt lat="43.1503800" lon="-3.0052900">
<ele>291.906952</ele>
<time>2010-06-22T05:15:17.004Z</time>
</trkpt>
<trkpt lat="43.1504000" lon="-3.0053800">
<ele>290.931610</ele>
<time>2010-06-22T05:15:21.997Z</time>
</trkpt>
<trkpt lat="43.1504400" lon="-3.0053600">
<ele>290.931610</ele>
<time>2010-06-22T05:15:44.997Z</time>
</trkpt>
<trkpt lat="43.1504100" lon="-3.0053700">
<ele>291.419281</ele>
<time>2010-06-22T05:18:09.000Z</time>
</trkpt>
<trkpt lat="43.1503100" lon="-3.0053300">
<ele>290.931610</ele>
<time>2010-06-22T05:19:35.003Z</time>
</trkpt>
<trkpt lat="43.1502600" lon="-3.0054300">
<ele>289.986725</ele>
<time>2010-06-22T05:19:43.003Z</time>
</trkpt>
<trkpt lat="43.1502000" lon="-3.0055100">
<ele>290.443939</ele>
<time>2010-06-22T05:19:54.002Z</time>
</trkpt>
<trkpt lat="43.1501100" lon="-3.0055300">
<ele>290.443939</ele>
<time>2010-06-22T05:20:02.003Z</time>
</trkpt>
<trkpt lat="43.1500400" lon="-3.0056100">
<ele>290.931610</ele>
<time>2010-06-22T05:20:11.999Z</time>
</trkpt>
<trkpt lat="43.1499500" lon="-3.0056800">
<ele>291.906952</ele>
<time>2010-06-22T05:20:21.002Z</time>
</trkpt>
<trkpt lat="43.1498700" lon="-3.0057600">
<ele>292.851837</ele>
<time>2010-06-22T05:20:29.996Z</time>
</trkpt>
<trkpt lat="43.1498200" lon="-3.0058700">
<ele>292.851837</ele>
<time>2010-06-22T05:20:38.999Z</time>
</trkpt>
<trkpt lat="43.1497600" lon="-3.0059800">
<ele>293.827209</ele>
<time>2010-06-22T05:20:48.002Z</time>
</trkpt>
<trkpt lat="43.1497200" lon="-3.0061100">
<ele>293.339539</ele>
<time>2010-06-22T05:21:01.999Z</time>
</trkpt>
<trkpt lat="43.1496800" lon="-3.0062400">
<ele>293.827209</ele>
<time>2010-06-22T05:21:09.999Z</time>
</trkpt>
<trkpt lat="43.1496300" lon="-3.0063500">
<ele>293.827209</ele>
<time>2010-06-22T05:21:19.996Z</time>
</trkpt>
<trkpt lat="43.1495600" lon="-3.0064400">
<ele>294.314880</ele>
<time>2010-06-22T05:21:27.996Z</time>
</trkpt>
<trkpt lat="43.1494800" lon="-3.0065200">
<ele>294.772064</ele>
<time>2010-06-22T05:21:36.999Z</time>
</trkpt>
<trkpt lat="43.1494000" lon="-3.0066100">
<ele>295.747437</ele>
<time>2010-06-22T05:21:47.998Z</time>
</trkpt>
<trkpt lat="43.1493100" lon="-3.0066800">
<ele>298.155365</ele>
<time>2010-06-22T05:21:58.003Z</time>
</trkpt>
<trkpt lat="43.1492200" lon="-3.0067800">
<ele>300.075592</ele>
<time>2010-06-22T05:22:09.002Z</time>
</trkpt>
<trkpt lat="43.1491300" lon="-3.0068600">
<ele>301.995850</ele>
<time>2010-06-22T05:22:18.998Z</time>
</trkpt>
<trkpt lat="43.1490400" lon="-3.0069300">
<ele>303.428406</ele>
<time>2010-06-22T05:22:29.004Z</time>
</trkpt>
<trkpt lat="43.1489200" lon="-3.0069900">
<ele>304.860962</ele>
<time>2010-06-22T05:22:40.002Z</time>
</trkpt>
<trkpt lat="43.1488000" lon="-3.0070100">
<ele>306.811676</ele>
<time>2010-06-22T05:22:51.001Z</time>
</trkpt>
<trkpt lat="43.1487000" lon="-3.0069800">
<ele>308.244232</ele>
<time>2010-06-22T05:23:02.000Z</time>
</trkpt>
<trkpt lat="43.1485900" lon="-3.0069500">
<ele>309.676788</ele>
<time>2010-06-22T05:23:12.998Z</time>
</trkpt>
<trkpt lat="43.1484600" lon="-3.0069500">
<ele>311.109375</ele>
<time>2010-06-22T05:23:23.997Z</time>
</trkpt>
<trkpt lat="43.1483600" lon="-3.0069000">
<ele>312.084717</ele>
<time>2010-06-22T05:23:34.002Z</time>
</trkpt>
<trkpt lat="43.1482500" lon="-3.0069100">
<ele>313.060059</ele>
<time>2010-06-22T05:23:45.001Z</time>
</trkpt>
<trkpt lat="43.1481400" lon="-3.0069000">
<ele>314.004944</ele>
<time>2010-06-22T05:23:54.997Z</time>
</trkpt>
<trkpt lat="43.1480100" lon="-3.0068900">
<ele>314.980316</ele>
<time>2010-06-22T05:24:05.996Z</time>
</trkpt>
<trkpt lat="43.1478700" lon="-3.0068700">
<ele>314.980316</ele>
<time>2010-06-22T05:24:18.999Z</time>
</trkpt>
<trkpt lat="43.1477500" lon="-3.0068600">
<ele>314.492645</ele>
<time>2010-06-22T05:24:28.996Z</time>
</trkpt>
<trkpt lat="43.1476600" lon="-3.0069600">
<ele>314.492645</ele>
<time>2010-06-22T05:24:37.999Z</time>
</trkpt>
<trkpt lat="43.1475700" lon="-3.0070500">
<ele>314.004944</ele>
<time>2010-06-22T05:24:47.002Z</time>
</trkpt>
<trkpt lat="43.1474900" lon="-3.0071600">
<ele>313.517273</ele>
<time>2010-06-22T05:24:54.000Z</time>
</trkpt>
<trkpt lat="43.1474500" lon="-3.0073100">
<ele>313.517273</ele>
<time>2010-06-22T05:25:02.001Z</time>
</trkpt>
<trkpt lat="43.1474200" lon="-3.0074600">
<ele>313.060059</ele>
<time>2010-06-22T05:25:10.001Z</time>
</trkpt>
<trkpt lat="43.1473900" lon="-3.0076100">
<ele>313.060059</ele>
<time>2010-06-22T05:25:19.004Z</time>
</trkpt>
<trkpt lat="43.1473500" lon="-3.0077500">
<ele>312.084717</ele>
<time>2010-06-22T05:25:29.001Z</time>
</trkpt>
<trkpt lat="43.1473500" lon="-3.0079000">
<ele>312.572388</ele>
<time>2010-06-22T05:25:38.004Z</time>
</trkpt>
<trkpt lat="43.1473200" lon="-3.0080600">
<ele>312.572388</ele>
<time>2010-06-22T05:25:46.004Z</time>
</trkpt>
<trkpt lat="43.1473000" lon="-3.0082000">
<ele>313.060059</ele>
<time>2010-06-22T05:25:53.996Z</time>
</trkpt>
<trkpt lat="43.1472500" lon="-3.0083300">
<ele>313.060059</ele>
<time>2010-06-22T05:26:01.997Z</time>
</trkpt>
<trkpt lat="43.1471900" lon="-3.0084400">
<ele>313.060059</ele>
<time>2010-06-22T05:26:12.002Z</time>
</trkpt>
<trkpt lat="43.1471300" lon="-3.0085400">
<ele>313.060059</ele>
<time>2010-06-22T05:26:19.000Z</time>
</trkpt>
<trkpt lat="43.1470700" lon="-3.0086400">
<ele>313.517273</ele>
<time>2010-06-22T05:26:25.999Z</time>
</trkpt>
<trkpt lat="43.1470000" lon="-3.0087400">
<ele>314.492645</ele>
<time>2010-06-22T05:26:32.997Z</time>
</trkpt>
<trkpt lat="43.1469300" lon="-3.0088300">
<ele>314.980316</ele>
<time>2010-06-22T05:26:40.998Z</time>
</trkpt>
<trkpt lat="43.1468700" lon="-3.0089300">
<ele>315.437531</ele>
<time>2010-06-22T05:26:48.998Z</time>
</trkpt>
<trkpt lat="43.1467900" lon="-3.0090300">
<ele>315.925201</ele>
<time>2010-06-22T05:26:56.999Z</time>
</trkpt>
<trkpt lat="43.1467100" lon="-3.0091500">
<ele>315.437531</ele>
<time>2010-06-22T05:27:05.000Z</time>
</trkpt>
<trkpt lat="43.1466400" lon="-3.0092300">
<ele>315.437531</ele>
<time>2010-06-22T05:27:11.998Z</time>
</trkpt>
<trkpt lat="43.1465600" lon="-3.0093300">
<ele>314.492645</ele>
<time>2010-06-22T05:27:21.001Z</time>
</trkpt>
<trkpt lat="43.1464800" lon="-3.0094300">
<ele>314.492645</ele>
<time>2010-06-22T05:27:30.004Z</time>
</trkpt>
<trkpt lat="43.1463700" lon="-3.0095100">
<ele>313.060059</ele>
<time>2010-06-22T05:27:38.998Z</time>
</trkpt>
<trkpt lat="43.1462900" lon="-3.0096200">
<ele>313.060059</ele>
<time>2010-06-22T05:27:46.999Z</time>
</trkpt>
<trkpt lat="43.1462100" lon="-3.0097500">
<ele>313.517273</ele>
<time>2010-06-22T05:27:54.999Z</time>
</trkpt>
<trkpt lat="43.1461300" lon="-3.0098500">
<ele>314.492645</ele>
<time>2010-06-22T05:28:03.000Z</time>
</trkpt>
<trkpt lat="43.1460500" lon="-3.0099500">
<ele>315.437531</ele>
<time>2010-06-22T05:28:11.001Z</time>
</trkpt>
<trkpt lat="43.1459800" lon="-3.0100400">
<ele>316.412872</ele>
<time>2010-06-22T05:28:20.997Z</time>
</trkpt>
<trkpt lat="43.1459200" lon="-3.0101600">
<ele>318.333130</ele>
<time>2010-06-22T05:28:30.000Z</time>
</trkpt>
<trkpt lat="43.1458500" lon="-3.0102600">
<ele>319.308472</ele>
<time>2010-06-22T05:28:38.001Z</time>
</trkpt>
<trkpt lat="43.1457700" lon="-3.0103600">
<ele>321.228729</ele>
<time>2010-06-22T05:28:47.004Z</time>
</trkpt>
<trkpt lat="43.1457000" lon="-3.0104800">
<ele>323.148956</ele>
<time>2010-06-22T05:28:57.000Z</time>
</trkpt>
<trkpt lat="43.1456300" lon="-3.0105800">
<ele>325.069214</ele>
<time>2010-06-22T05:29:06.996Z</time>
</trkpt>
<trkpt lat="43.1455500" lon="-3.0106900">
<ele>326.501740</ele>
<time>2010-06-22T05:29:17.002Z</time>
</trkpt>
<trkpt lat="43.1454600" lon="-3.0107800">
<ele>327.934326</ele>
<time>2010-06-22T05:29:26.998Z</time>
</trkpt>
<trkpt lat="43.1453800" lon="-3.0109000">
<ele>329.397339</ele>
<time>2010-06-22T05:29:37.997Z</time>
</trkpt>
<trkpt lat="43.1452900" lon="-3.0110100">
<ele>331.317596</ele>
<time>2010-06-22T05:29:48.002Z</time>
</trkpt>
<trkpt lat="43.1451900" lon="-3.0110900">
<ele>333.237854</ele>
<time>2010-06-22T05:29:57.998Z</time>
</trkpt>
<trkpt lat="43.1451200" lon="-3.0111800">
<ele>334.670410</ele>
<time>2010-06-22T05:30:08.004Z</time>
</trkpt>
<trkpt lat="43.1450500" lon="-3.0112900">
<ele>337.078339</ele>
<time>2010-06-22T05:30:19.002Z</time>
</trkpt>
<trkpt lat="43.1449800" lon="-3.0114200">
<ele>339.973938</ele>
<time>2010-06-22T05:30:31.997Z</time>
</trkpt>
<trkpt lat="43.1449000" lon="-3.0115300">
<ele>342.381866</ele>
<time>2010-06-22T05:30:43.998Z</time>
</trkpt>
<trkpt lat="43.1448000" lon="-3.0116400">
<ele>345.246948</ele>
<time>2010-06-22T05:30:55.999Z</time>
</trkpt>
<trkpt lat="43.1447100" lon="-3.0117000">
<ele>348.142548</ele>
<time>2010-06-22T05:31:08.000Z</time>
</trkpt>
<trkpt lat="43.1446000" lon="-3.0117700">
<ele>350.062805</ele>
<time>2010-06-22T05:31:20.001Z</time>
</trkpt>
<trkpt lat="43.1445100" lon="-3.0118700">
<ele>351.983063</ele>
<time>2010-06-22T05:31:30.999Z</time>
</trkpt>
<trkpt lat="43.1444200" lon="-3.0119500">
<ele>354.390930</ele>
<time>2010-06-22T05:31:40.996Z</time>
</trkpt>
<trkpt lat="43.1443300" lon="-3.0120400">
<ele>355.823517</ele>
<time>2010-06-22T05:31:49.999Z</time>
</trkpt>
<trkpt lat="43.1442100" lon="-3.0120500">
<ele>356.798859</ele>
<time>2010-06-22T05:32:00.004Z</time>
</trkpt>
<trkpt lat="43.1441300" lon="-3.0120800">
<ele>357.256073</ele>
<time>2010-06-22T05:32:08.998Z</time>
</trkpt>
<trkpt lat="43.1440200" lon="-3.0121100">
<ele>360.151672</ele>
<time>2010-06-22T05:32:19.997Z</time>
</trkpt>
<trkpt lat="43.1438500" lon="-3.0120800">
<ele>362.071930</ele>
<time>2010-06-22T05:32:30.002Z</time>
</trkpt>
<trkpt lat="43.1437600" lon="-3.0121200">
<ele>364.479858</ele>
<time>2010-06-22T05:32:42.003Z</time>
</trkpt>
<trkpt lat="43.1436600" lon="-3.0121500">
<ele>367.375458</ele>
<time>2010-06-22T05:32:53.002Z</time>
</trkpt>
<trkpt lat="43.1435600" lon="-3.0122100">
<ele>369.752869</ele>
<time>2010-06-22T05:33:05.003Z</time>
</trkpt>
<trkpt lat="43.1434600" lon="-3.0122600">
<ele>371.673126</ele>
<time>2010-06-22T05:33:17.004Z</time>
</trkpt>
<trkpt lat="43.1433600" lon="-3.0123000">
<ele>374.081055</ele>
<time>2010-06-22T05:33:28.002Z</time>
</trkpt>
<trkpt lat="43.1432600" lon="-3.0123400">
<ele>376.488953</ele>
<time>2010-06-22T05:33:40.003Z</time>
</trkpt>
<trkpt lat="43.1431400" lon="-3.0123600">
<ele>379.872253</ele>
<time>2010-06-22T05:33:52.998Z</time>
</trkpt>
<trkpt lat="43.1430300" lon="-3.0123800">
<ele>382.249664</ele>
<time>2010-06-22T05:34:06.001Z</time>
</trkpt>
<trkpt lat="43.1429300" lon="-3.0124000">
<ele>385.145264</ele>
<time>2010-06-22T05:34:18.002Z</time>
</trkpt>
<trkpt lat="43.1428100" lon="-3.0124300">
<ele>388.040863</ele>
<time>2010-06-22T05:34:30.996Z</time>
</trkpt>
<trkpt lat="43.1426900" lon="-3.0124800">
<ele>390.906006</ele>
<time>2010-06-22T05:34:44.000Z</time>
</trkpt>
<trkpt lat="43.1425500" lon="-3.0124900">
<ele>392.826263</ele>
<time>2010-06-22T05:34:56.001Z</time>
</trkpt>
<trkpt lat="43.1424300" lon="-3.0125100">
<ele>392.826263</ele>
<time>2010-06-22T05:35:08.002Z</time>
</trkpt>
<trkpt lat="43.1422900" lon="-3.0125100">
<ele>393.801605</ele>
<time>2010-06-22T05:35:20.996Z</time>
</trkpt>
<trkpt lat="43.1422900" lon="-3.0124000">
<ele>393.801605</ele>
<time>2010-06-22T05:35:32.997Z</time>
</trkpt>
<trkpt lat="43.1422400" lon="-3.0123200">
<ele>394.746460</ele>
<time>2010-06-22T05:35:42.000Z</time>
</trkpt>
<trkpt lat="43.1421000" lon="-3.0123000">
<ele>396.209534</ele>
<time>2010-06-22T05:35:52.999Z</time>
</trkpt>
<trkpt lat="43.1419400" lon="-3.0122500">
<ele>397.642059</ele>
<time>2010-06-22T05:36:07.004Z</time>
</trkpt>
<trkpt lat="43.1418000" lon="-3.0122500">
<ele>400.049988</ele>
<time>2010-06-22T05:36:22.997Z</time>
</trkpt>
<trkpt lat="43.1417100" lon="-3.0121800">
<ele>404.865845</ele>
<time>2010-06-22T05:36:37.996Z</time>
</trkpt>
<trkpt lat="43.1417700" lon="-3.0122100">
<ele>406.786072</ele>
<time>2010-06-22T05:36:46.999Z</time>
</trkpt>
<trkpt lat="43.1415300" lon="-3.0121600">
<ele>410.138885</ele>
<time>2010-06-22T05:37:01.998Z</time>
</trkpt>
<trkpt lat="43.1413000" lon="-3.0120700">
<ele>414.954742</ele>
<time>2010-06-22T05:37:20.004Z</time>
</trkpt>
<trkpt lat="43.1411200" lon="-3.0120100">
<ele>418.795197</ele>
<time>2010-06-22T05:37:39.996Z</time>
</trkpt>
<trkpt lat="43.1409300" lon="-3.0119600">
<ele>422.148010</ele>
<time>2010-06-22T05:37:55.998Z</time>
</trkpt>
<trkpt lat="43.1407400" lon="-3.0119200">
<ele>428.884064</ele>
<time>2010-06-22T05:38:26.998Z</time>
</trkpt>
<trkpt lat="43.1406500" lon="-3.0119100">
<ele>431.779663</ele>
<time>2010-06-22T05:38:41.004Z</time>
</trkpt>
<trkpt lat="43.1404000" lon="-3.0118200">
<ele>435.620148</ele>
<time>2010-06-22T05:39:01.999Z</time>
</trkpt>
<trkpt lat="43.1403100" lon="-3.0119900">
<ele>439.460663</ele>
<time>2010-06-22T05:39:16.004Z</time>
</trkpt>
<trkpt lat="43.1403600" lon="-3.0122500">
<ele>444.733673</ele>
<time>2010-06-22T05:39:34.001Z</time>
</trkpt>
<trkpt lat="43.1404000" lon="-3.0124400">
<ele>448.116943</ele>
<time>2010-06-22T05:39:47.998Z</time>
</trkpt>
<trkpt lat="43.1403300" lon="-3.0125300">
<ele>450.037201</ele>
<time>2010-06-22T05:40:10.998Z</time>
</trkpt>
<trkpt lat="43.1403000" lon="-3.0127000">
<ele>452.932800</ele>
<time>2010-06-22T05:40:22.999Z</time>
</trkpt>
<trkpt lat="43.1402900" lon="-3.0128700">
<ele>456.285614</ele>
<time>2010-06-22T05:40:36.002Z</time>
</trkpt>
<trkpt lat="43.1402400" lon="-3.0130200">
<ele>459.181213</ele>
<time>2010-06-22T05:40:51.001Z</time>
</trkpt>
<trkpt lat="43.1401400" lon="-3.0130200">
<ele>464.454254</ele>
<time>2010-06-22T05:41:10.000Z</time>
</trkpt>
<trkpt lat="43.1399900" lon="-3.0128600">
<ele>470.214935</ele>
<time>2010-06-22T05:41:33.000Z</time>
</trkpt>
<trkpt lat="43.1397900" lon="-3.0126800">
<ele>477.438721</ele>
<time>2010-06-22T05:42:04.000Z</time>
</trkpt>
<trkpt lat="43.1396100" lon="-3.0125400">
<ele>481.766876</ele>
<time>2010-06-22T05:42:32.996Z</time>
</trkpt>
<trkpt lat="43.1395400" lon="-3.0127600">
<ele>487.527588</ele>
<time>2010-06-22T05:43:11.004Z</time>
</trkpt>
<trkpt lat="43.1394900" lon="-3.0128500">
<ele>493.288330</ele>
<time>2010-06-22T05:43:34.997Z</time>
</trkpt>
<trkpt lat="43.1394200" lon="-3.0128300">
<ele>494.263672</ele>
<time>2010-06-22T05:43:57.996Z</time>
</trkpt>
<trkpt lat="43.1393400" lon="-3.0127600">
<ele>494.720886</ele>
<time>2010-06-22T05:44:05.997Z</time>
</trkpt>
<trkpt lat="43.1392300" lon="-3.0126700">
<ele>495.208557</ele>
<time>2010-06-22T05:44:15.000Z</time>
</trkpt>
<trkpt lat="43.1391500" lon="-3.0125600">
<ele>495.208557</ele>
<time>2010-06-22T05:44:24.003Z</time>
</trkpt>
<trkpt lat="43.1390400" lon="-3.0124400">
<ele>496.671600</ele>
<time>2010-06-22T05:44:33.999Z</time>
</trkpt>
<trkpt lat="43.1389300" lon="-3.0123600">
<ele>498.591858</ele>
<time>2010-06-22T05:44:46.000Z</time>
</trkpt>
<trkpt lat="43.1388000" lon="-3.0122600">
<ele>502.920013</ele>
<time>2010-06-22T05:45:02.002Z</time>
</trkpt>
<trkpt lat="43.1386600" lon="-3.0121700">
<ele>509.168396</ele>
<time>2010-06-22T05:45:25.001Z</time>
</trkpt>
<trkpt lat="43.1385300" lon="-3.0120200">
<ele>515.416809</ele>
<time>2010-06-22T05:45:45.996Z</time>
</trkpt>
<trkpt lat="43.1384200" lon="-3.0119100">
<ele>518.281921</ele>
<time>2010-06-22T05:46:00.002Z</time>
</trkpt>
<trkpt lat="43.1383100" lon="-3.0118500">
<ele>521.665222</ele>
<time>2010-06-22T05:46:13.999Z</time>
</trkpt>
<trkpt lat="43.1382200" lon="-3.0117500">
<ele>524.530334</ele>
<time>2010-06-22T05:46:26.000Z</time>
</trkpt>
<trkpt lat="43.1381200" lon="-3.0116400">
<ele>525.993347</ele>
<time>2010-06-22T05:46:35.996Z</time>
</trkpt>
<trkpt lat="43.1380200" lon="-3.0115200">
<ele>527.425903</ele>
<time>2010-06-22T05:46:46.001Z</time>
</trkpt>
<trkpt lat="43.1379200" lon="-3.0114300">
<ele>527.913574</ele>
<time>2010-06-22T05:46:53.000Z</time>
</trkpt>
<trkpt lat="43.1378400" lon="-3.0113300">
<ele>527.913574</ele>
<time>2010-06-22T05:46:59.998Z</time>
</trkpt>
<trkpt lat="43.1377700" lon="-3.0112200">
<ele>528.858459</ele>
<time>2010-06-22T05:47:06.996Z</time>
</trkpt>
<trkpt lat="43.1376900" lon="-3.0111300">
<ele>528.858459</ele>
<time>2010-06-22T05:47:14.004Z</time>
</trkpt>
<trkpt lat="43.1376100" lon="-3.0110400">
<ele>529.346130</ele>
<time>2010-06-22T05:47:21.002Z</time>
</trkpt>
<trkpt lat="43.1375300" lon="-3.0109700">
<ele>529.346130</ele>
<time>2010-06-22T05:47:28.000Z</time>
</trkpt>
<trkpt lat="43.1374400" lon="-3.0108600">
<ele>528.858459</ele>
<time>2010-06-22T05:47:36.001Z</time>
</trkpt>
<trkpt lat="43.1373600" lon="-3.0107600">
<ele>528.370789</ele>
<time>2010-06-22T05:47:45.004Z</time>
</trkpt>
<trkpt lat="43.1372800" lon="-3.0106600">
<ele>529.346130</ele>
<time>2010-06-22T05:47:55.000Z</time>
</trkpt>
<trkpt lat="43.1372100" lon="-3.0105700">
<ele>529.833862</ele>
<time>2010-06-22T05:48:04.003Z</time>
</trkpt>
<trkpt lat="43.1371300" lon="-3.0104600">
<ele>530.778748</ele>
<time>2010-06-22T05:48:12.997Z</time>
</trkpt>
<trkpt lat="43.1370400" lon="-3.0103300">
<ele>533.674316</ele>
<time>2010-06-22T05:48:24.998Z</time>
</trkpt>
<trkpt lat="43.1369300" lon="-3.0102300">
<ele>536.539429</ele>
<time>2010-06-22T05:48:39.004Z</time>
</trkpt>
<trkpt lat="43.1368200" lon="-3.0101800">
<ele>538.947327</ele>
<time>2010-06-22T05:48:50.003Z</time>
</trkpt>
<trkpt lat="43.1367100" lon="-3.0101000">
<ele>541.355286</ele>
<time>2010-06-22T05:48:59.999Z</time>
</trkpt>
<trkpt lat="43.1365700" lon="-3.0100100">
<ele>544.250854</ele>
<time>2010-06-22T05:49:13.996Z</time>
</trkpt>
<trkpt lat="43.1364500" lon="-3.0099000">
<ele>547.603699</ele>
<time>2010-06-22T05:49:29.997Z</time>
</trkpt>
<trkpt lat="43.1363600" lon="-3.0098300">
<ele>550.499268</ele>
<time>2010-06-22T05:49:40.996Z</time>
</trkpt>
<trkpt lat="43.1362800" lon="-3.0097300">
<ele>552.907227</ele>
<time>2010-06-22T05:49:52.997Z</time>
</trkpt>
<trkpt lat="43.1362100" lon="-3.0096300">
<ele>556.260010</ele>
<time>2010-06-22T05:50:06.000Z</time>
</trkpt>
<trkpt lat="43.1361500" lon="-3.0095500">
<ele>560.588135</ele>
<time>2010-06-22T05:50:20.999Z</time>
</trkpt>
<trkpt lat="43.1360900" lon="-3.0094500">
<ele>564.428650</ele>
<time>2010-06-22T05:50:34.996Z</time>
</trkpt>
<trkpt lat="43.1360200" lon="-3.0093500">
<ele>568.269104</ele>
<time>2010-06-22T05:50:47.999Z</time>
</trkpt>
<trkpt lat="43.1359600" lon="-3.0092400">
<ele>571.652405</ele>
<time>2010-06-22T05:51:01.002Z</time>
</trkpt>
<trkpt lat="43.1358900" lon="-3.0091300">
<ele>574.517517</ele>
<time>2010-06-22T05:51:13.997Z</time>
</trkpt>
<trkpt lat="43.1358200" lon="-3.0090000">
<ele>577.413147</ele>
<time>2010-06-22T05:51:27.000Z</time>
</trkpt>
<trkpt lat="43.1357200" lon="-3.0090000">
<ele>583.173828</ele>
<time>2010-06-22T05:51:44.997Z</time>
</trkpt>
<trkpt lat="43.1357000" lon="-3.0091200">
<ele>583.173828</ele>
<time>2010-06-22T05:51:56.998Z</time>
</trkpt>
<trkpt lat="43.1356300" lon="-3.0092700">
<ele>587.989685</ele>
<time>2010-06-22T05:52:12.999Z</time>
</trkpt>
<trkpt lat="43.1355400" lon="-3.0094100">
<ele>591.342468</ele>
<time>2010-06-22T05:52:26.003Z</time>
</trkpt>
<trkpt lat="43.1354600" lon="-3.0095400">
<ele>594.238098</ele>
<time>2010-06-22T05:52:38.997Z</time>
</trkpt>
<trkpt lat="43.1354000" lon="-3.0096400">
<ele>597.590881</ele>
<time>2010-06-22T05:52:50.998Z</time>
</trkpt>
<trkpt lat="43.1353400" lon="-3.0097700">
<ele>601.431335</ele>
<time>2010-06-22T05:53:05.004Z</time>
</trkpt>
<trkpt lat="43.1352800" lon="-3.0099000">
<ele>604.814636</ele>
<time>2010-06-22T05:53:20.996Z</time>
</trkpt>
<trkpt lat="43.1352200" lon="-3.0100300">
<ele>609.142822</ele>
<time>2010-06-22T05:53:36.004Z</time>
</trkpt>
<trkpt lat="43.1351600" lon="-3.0102000">
<ele>614.903503</ele>
<time>2010-06-22T05:53:59.997Z</time>
</trkpt>
<trkpt lat="43.1350900" lon="-3.0103200">
<ele>618.256348</ele>
<time>2010-06-22T05:54:14.003Z</time>
</trkpt>
<trkpt lat="43.1349500" lon="-3.0104300">
<ele>623.072144</ele>
<time>2010-06-22T05:54:32.000Z</time>
</trkpt>
<trkpt lat="43.1348900" lon="-3.0105700">
<ele>626.912659</ele>
<time>2010-06-22T05:54:45.996Z</time>
</trkpt>
<trkpt lat="43.1348800" lon="-3.0107300">
<ele>629.320557</ele>
<time>2010-06-22T05:54:57.997Z</time>
</trkpt>
<trkpt lat="43.1349000" lon="-3.0108800">
<ele>630.753113</ele>
<time>2010-06-22T05:55:07.000Z</time>
</trkpt>
<trkpt lat="43.1349100" lon="-3.0110100">
<ele>629.808228</ele>
<time>2010-06-22T05:55:12.996Z</time>
</trkpt>
<trkpt lat="43.1349400" lon="-3.0111500">
<ele>628.832886</ele>
<time>2010-06-22T05:55:20.997Z</time>
</trkpt>
<trkpt lat="43.1349700" lon="-3.0112900">
<ele>627.400269</ele>
<time>2010-06-22T05:55:28.998Z</time>
</trkpt>
<trkpt lat="43.1350000" lon="-3.0114200">
<ele>627.888000</ele>
<time>2010-06-22T05:55:36.998Z</time>
</trkpt>
<trkpt lat="43.1350200" lon="-3.0115500">
<ele>630.295898</ele>
<time>2010-06-22T05:55:46.001Z</time>
</trkpt>
<trkpt lat="43.1350800" lon="-3.0116800">
<ele>632.216125</ele>
<time>2010-06-22T05:55:55.004Z</time>
</trkpt>
<trkpt lat="43.1351700" lon="-3.0118000">
<ele>633.648682</ele>
<time>2010-06-22T05:56:02.996Z</time>
</trkpt>
<trkpt lat="43.1352500" lon="-3.0118700">
<ele>636.056641</ele>
<time>2010-06-22T05:56:11.999Z</time>
</trkpt>
<trkpt lat="43.1353200" lon="-3.0119800">
<ele>637.489197</ele>
<time>2010-06-22T05:56:22.004Z</time>
</trkpt>
<trkpt lat="43.1353700" lon="-3.0121100">
<ele>639.409485</ele>
<time>2010-06-22T05:56:32.001Z</time>
</trkpt>
<trkpt lat="43.1354300" lon="-3.0122400">
<ele>642.305054</ele>
<time>2010-06-22T05:56:45.004Z</time>
</trkpt>
<trkpt lat="43.1355000" lon="-3.0123700">
<ele>644.712952</ele>
<time>2010-06-22T05:56:56.003Z</time>
</trkpt>
<trkpt lat="43.1355700" lon="-3.0124900">
<ele>646.145508</ele>
<time>2010-06-22T05:57:07.001Z</time>
</trkpt>
<trkpt lat="43.1356500" lon="-3.0126100">
<ele>648.065735</ele>
<time>2010-06-22T05:57:18.000Z</time>
</trkpt>
<trkpt lat="43.1357100" lon="-3.0127400">
<ele>650.473694</ele>
<time>2010-06-22T05:57:30.001Z</time>
</trkpt>
<trkpt lat="43.1357600" lon="-3.0128800">
<ele>652.393860</ele>
<time>2010-06-22T05:57:39.997Z</time>
</trkpt>
<trkpt lat="43.1358000" lon="-3.0130600">
<ele>654.314148</ele>
<time>2010-06-22T05:57:50.003Z</time>
</trkpt>
<trkpt lat="43.1358400" lon="-3.0132000">
<ele>655.289490</ele>
<time>2010-06-22T05:57:59.999Z</time>
</trkpt>
<trkpt lat="43.1358700" lon="-3.0133500">
<ele>657.666931</ele>
<time>2010-06-22T05:58:12.000Z</time>
</trkpt>
<trkpt lat="43.1358900" lon="-3.0135300">
<ele>658.642273</ele>
<time>2010-06-22T05:58:22.999Z</time>
</trkpt>
<trkpt lat="43.1358900" lon="-3.0136600">
<ele>660.074890</ele>
<time>2010-06-22T05:58:33.004Z</time>
</trkpt>
<trkpt lat="43.1359300" lon="-3.0138300">
<ele>662.482788</ele>
<time>2010-06-22T05:58:44.996Z</time>
</trkpt>
<trkpt lat="43.1359500" lon="-3.0140000">
<ele>663.915344</ele>
<time>2010-06-22T05:58:55.001Z</time>
</trkpt>
<trkpt lat="43.1359700" lon="-3.0141500">
<ele>665.835571</ele>
<time>2010-06-22T05:59:04.998Z</time>
</trkpt>
<trkpt lat="43.1359500" lon="-3.0142800">
<ele>667.786316</ele>
<time>2010-06-22T05:59:19.997Z</time>
</trkpt>
<trkpt lat="43.1358900" lon="-3.0142100">
<ele>668.243469</ele>
<time>2010-06-22T05:59:29.000Z</time>
</trkpt>
<trkpt lat="43.1358300" lon="-3.0141100">
<ele>668.731201</ele>
<time>2010-06-22T05:59:35.998Z</time>
</trkpt>
<trkpt lat="43.1357700" lon="-3.0140000">
<ele>670.163757</ele>
<time>2010-06-22T05:59:43.999Z</time>
</trkpt>
<trkpt lat="43.1357200" lon="-3.0139000">
<ele>670.651428</ele>
<time>2010-06-22T05:59:50.997Z</time>
</trkpt>
<trkpt lat="43.1356700" lon="-3.0138000">
<ele>671.139099</ele>
<time>2010-06-22T05:59:58.998Z</time>
</trkpt>
<trkpt lat="43.1356100" lon="-3.0136900">
<ele>671.626770</ele>
<time>2010-06-22T06:00:06.998Z</time>
</trkpt>
<trkpt lat="43.1355500" lon="-3.0135800">
<ele>672.083984</ele>
<time>2010-06-22T06:00:14.999Z</time>
</trkpt>
<trkpt lat="43.1354900" lon="-3.0134800">
<ele>672.571716</ele>
<time>2010-06-22T06:00:23.000Z</time>
</trkpt>
<trkpt lat="43.1354300" lon="-3.0133900">
<ele>673.547058</ele>
<time>2010-06-22T06:00:31.000Z</time>
</trkpt>
<trkpt lat="43.1353600" lon="-3.0133000">
<ele>673.547058</ele>
<time>2010-06-22T06:00:37.999Z</time>
</trkpt>
<trkpt lat="43.1353000" lon="-3.0132100">
<ele>673.059326</ele>
<time>2010-06-22T06:00:44.997Z</time>
</trkpt>
<trkpt lat="43.1352200" lon="-3.0131200">
<ele>672.571716</ele>
<time>2010-06-22T06:00:52.004Z</time>
</trkpt>
<trkpt lat="43.1351500" lon="-3.0130200">
<ele>672.083984</ele>
<time>2010-06-22T06:00:59.003Z</time>
</trkpt>
<trkpt lat="43.1350900" lon="-3.0129200">
<ele>672.083984</ele>
<time>2010-06-22T06:01:06.001Z</time>
</trkpt>
<trkpt lat="43.1350200" lon="-3.0128200">
<ele>672.083984</ele>
<time>2010-06-22T06:01:12.999Z</time>
</trkpt>
<trkpt lat="43.1349500" lon="-3.0127100">
<ele>672.571716</ele>
<time>2010-06-22T06:01:19.998Z</time>
</trkpt>
<trkpt lat="43.1348900" lon="-3.0126100">
<ele>672.571716</ele>
<time>2010-06-22T06:01:26.996Z</time>
</trkpt>
<trkpt lat="43.1348200" lon="-3.0125300">
<ele>672.571716</ele>
<time>2010-06-22T06:01:34.003Z</time>
</trkpt>
<trkpt lat="43.1347300" lon="-3.0124700">
<ele>674.034668</ele>
<time>2010-06-22T06:01:42.997Z</time>
</trkpt>
<trkpt lat="43.1346300" lon="-3.0124200">
<ele>675.467285</ele>
<time>2010-06-22T06:01:53.996Z</time>
</trkpt>
<trkpt lat="43.1345300" lon="-3.0124300">
<ele>674.979614</ele>
<time>2010-06-22T06:02:01.997Z</time>
</trkpt>
<trkpt lat="43.1344300" lon="-3.0124300">
<ele>676.412170</ele>
<time>2010-06-22T06:02:09.997Z</time>
</trkpt>
<trkpt lat="43.1343200" lon="-3.0124300">
<ele>677.387512</ele>
<time>2010-06-22T06:02:29.999Z</time>
</trkpt>
<trkpt lat="43.1342300" lon="-3.0123800">
<ele>679.795471</ele>
<time>2010-06-22T06:02:43.996Z</time>
</trkpt>
<trkpt lat="43.1341000" lon="-3.0123700">
<ele>682.660522</ele>
<time>2010-06-22T06:02:58.001Z</time>
</trkpt>
<trkpt lat="43.1339900" lon="-3.0123200">
<ele>686.043884</ele>
<time>2010-06-22T06:03:11.998Z</time>
</trkpt>
<trkpt lat="43.1338600" lon="-3.0122800">
<ele>689.884277</ele>
<time>2010-06-22T06:03:27.999Z</time>
</trkpt>
<trkpt lat="43.1337600" lon="-3.0123100">
<ele>696.620422</ele>
<time>2010-06-22T06:04:08.003Z</time>
</trkpt>
<trkpt lat="43.1336900" lon="-3.0122300">
<ele>699.028320</ele>
<time>2010-06-22T06:04:20.997Z</time>
</trkpt>
<trkpt lat="43.1336600" lon="-3.0121200">
<ele>699.485474</ele>
<time>2010-06-22T06:04:28.998Z</time>
</trkpt>
<trkpt lat="43.1336100" lon="-3.0120000">
<ele>699.973206</ele>
<time>2010-06-22T06:04:36.998Z</time>
</trkpt>
<trkpt lat="43.1335800" lon="-3.0118800">
<ele>700.948547</ele>
<time>2010-06-22T06:04:44.999Z</time>
</trkpt>
<trkpt lat="43.1335400" lon="-3.0117700">
<ele>701.893433</ele>
<time>2010-06-22T06:04:53.000Z</time>
</trkpt>
<trkpt lat="43.1334900" lon="-3.0116500">
<ele>702.381104</ele>
<time>2010-06-22T06:05:02.003Z</time>
</trkpt>
<trkpt lat="43.1334800" lon="-3.0115200">
<ele>704.301331</ele>
<time>2010-06-22T06:05:11.999Z</time>
</trkpt>
<trkpt lat="43.1334200" lon="-3.0114100">
<ele>704.789063</ele>
<time>2010-06-22T06:05:21.002Z</time>
</trkpt>
<trkpt lat="43.1333800" lon="-3.0112900">
<ele>707.196960</ele>
<time>2010-06-22T06:05:29.996Z</time>
</trkpt>
<trkpt lat="43.1333300" lon="-3.0111700">
<ele>709.117188</ele>
<time>2010-06-22T06:05:40.001Z</time>
</trkpt>
<trkpt lat="43.1333000" lon="-3.0110500">
<ele>710.062134</ele>
<time>2010-06-22T06:05:49.998Z</time>
</trkpt>
<trkpt lat="43.1332600" lon="-3.0109300">
<ele>712.957703</ele>
<time>2010-06-22T06:06:00.003Z</time>
</trkpt>
<trkpt lat="43.1332400" lon="-3.0108000">
<ele>714.877869</ele>
<time>2010-06-22T06:06:11.002Z</time>
</trkpt>
<trkpt lat="43.1332100" lon="-3.0106800">
<ele>717.285828</ele>
<time>2010-06-22T06:06:23.996Z</time>
</trkpt>
<trkpt lat="43.1331700" lon="-3.0105600">
<ele>719.206116</ele>
<time>2010-06-22T06:06:38.002Z</time>
</trkpt>
<trkpt lat="43.1331700" lon="-3.0104300">
<ele>722.101685</ele>
<time>2010-06-22T06:06:49.000Z</time>
</trkpt>
<trkpt lat="43.1331600" lon="-3.0103100">
<ele>724.021912</ele>
<time>2010-06-22T06:06:58.997Z</time>
</trkpt>
<trkpt lat="43.1330900" lon="-3.0102900">
<ele>723.534241</ele>
<time>2010-06-22T06:10:56.001Z</time>
</trkpt>
<trkpt lat="43.1330300" lon="-3.0102000">
<ele>721.614014</ele>
<time>2010-06-22T06:11:04.001Z</time>
</trkpt>
<trkpt lat="43.1329700" lon="-3.0101100">
<ele>720.150940</ele>
<time>2010-06-22T06:11:11.000Z</time>
</trkpt>
<trkpt lat="43.1329200" lon="-3.0099900">
<ele>718.230713</ele>
<time>2010-06-22T06:11:19.000Z</time>
</trkpt>
<trkpt lat="43.1328700" lon="-3.0098700">
<ele>716.798157</ele>
<time>2010-06-22T06:11:28.003Z</time>
</trkpt>
<trkpt lat="43.1328000" lon="-3.0097700">
<ele>715.365601</ele>
<time>2010-06-22T06:11:36.997Z</time>
</trkpt>
<trkpt lat="43.1327500" lon="-3.0096500">
<ele>713.902527</ele>
<time>2010-06-22T06:11:47.003Z</time>
</trkpt>
<trkpt lat="43.1326600" lon="-3.0095800">
<ele>711.037476</ele>
<time>2010-06-22T06:11:58.001Z</time>
</trkpt>
<trkpt lat="43.1325800" lon="-3.0095300">
<ele>708.629517</ele>
<time>2010-06-22T06:12:07.998Z</time>
</trkpt>
<trkpt lat="43.1325300" lon="-3.0094200">
<ele>706.709290</ele>
<time>2010-06-22T06:12:14.996Z</time>
</trkpt>
<trkpt lat="43.1324700" lon="-3.0093000">
<ele>705.276672</ele>
<time>2010-06-22T06:12:22.003Z</time>
</trkpt>
<trkpt lat="43.1324200" lon="-3.0091800">
<ele>704.301331</ele>
<time>2010-06-22T06:12:29.002Z</time>
</trkpt>
<trkpt lat="43.1323700" lon="-3.0090600">
<ele>703.813721</ele>
<time>2010-06-22T06:12:36.000Z</time>
</trkpt>
<trkpt lat="43.1323300" lon="-3.0089500">
<ele>702.381104</ele>
<time>2010-06-22T06:12:42.998Z</time>
</trkpt>
<trkpt lat="43.1322700" lon="-3.0088300">
<ele>700.948547</ele>
<time>2010-06-22T06:12:49.997Z</time>
</trkpt>
<trkpt lat="43.1322000" lon="-3.0087400">
<ele>699.028320</ele>
<time>2010-06-22T06:12:57.997Z</time>
</trkpt>
<trkpt lat="43.1321400" lon="-3.0086400">
<ele>696.132690</ele>
<time>2010-06-22T06:13:04.996Z</time>
</trkpt>
<trkpt lat="43.1320700" lon="-3.0085600">
<ele>694.212524</ele>
<time>2010-06-22T06:13:12.003Z</time>
</trkpt>
<trkpt lat="43.1319800" lon="-3.0085000">
<ele>692.292236</ele>
<time>2010-06-22T06:13:19.001Z</time>
</trkpt>
<trkpt lat="43.1319100" lon="-3.0084100">
<ele>691.316895</ele>
<time>2010-06-22T06:13:26.000Z</time>
</trkpt>
<trkpt lat="43.1318300" lon="-3.0083200">
<ele>690.372009</ele>
<time>2010-06-22T06:13:32.998Z</time>
</trkpt>
<trkpt lat="43.1317500" lon="-3.0082400">
<ele>689.396667</ele>
<time>2010-06-22T06:13:39.996Z</time>
</trkpt>
<trkpt lat="43.1316700" lon="-3.0081500">
<ele>689.396667</ele>
<time>2010-06-22T06:13:47.004Z</time>
</trkpt>
<trkpt lat="43.1316100" lon="-3.0080400">
<ele>689.396667</ele>
<time>2010-06-22T06:13:55.004Z</time>
</trkpt>
<trkpt lat="43.1315600" lon="-3.0079100">
<ele>690.859680</ele>
<time>2010-06-22T06:14:02.996Z</time>
</trkpt>
<trkpt lat="43.1314800" lon="-3.0078200">
<ele>690.859680</ele>
<time>2010-06-22T06:14:10.003Z</time>
</trkpt>
<trkpt lat="43.1314100" lon="-3.0077200">
<ele>690.859680</ele>
<time>2010-06-22T06:14:17.002Z</time>
</trkpt>
<trkpt lat="43.1313200" lon="-3.0076500">
<ele>690.372009</ele>
<time>2010-06-22T06:14:24.000Z</time>
</trkpt>
<trkpt lat="43.1312400" lon="-3.0075700">
<ele>690.372009</ele>
<time>2010-06-22T06:14:30.998Z</time>
</trkpt>
<trkpt lat="43.1311500" lon="-3.0074900">
<ele>689.884277</ele>
<time>2010-06-22T06:14:37.997Z</time>
</trkpt>
<trkpt lat="43.1310700" lon="-3.0074100">
<ele>688.908936</ele>
<time>2010-06-22T06:14:45.004Z</time>
</trkpt>
<trkpt lat="43.1309800" lon="-3.0073400">
<ele>688.451721</ele>
<time>2010-06-22T06:14:52.002Z</time>
</trkpt>
<trkpt lat="43.1308900" lon="-3.0072700">
<ele>687.964111</ele>
<time>2010-06-22T06:14:59.001Z</time>
</trkpt>
<trkpt lat="43.1308000" lon="-3.0071900">
<ele>687.476379</ele>
<time>2010-06-22T06:15:05.999Z</time>
</trkpt>
<trkpt lat="43.1307200" lon="-3.0071100">
<ele>687.964111</ele>
<time>2010-06-22T06:15:12.997Z</time>
</trkpt>
<trkpt lat="43.1306400" lon="-3.0070200">
<ele>687.964111</ele>
<time>2010-06-22T06:15:19.996Z</time>
</trkpt>
<trkpt lat="43.1305700" lon="-3.0069300">
<ele>688.451721</ele>
<time>2010-06-22T06:15:27.003Z</time>
</trkpt>
<trkpt lat="43.1305000" lon="-3.0068300">
<ele>689.396667</ele>
<time>2010-06-22T06:15:34.001Z</time>
</trkpt>
<trkpt lat="43.1304300" lon="-3.0067400">
<ele>690.372009</ele>
<time>2010-06-22T06:15:41.000Z</time>
</trkpt>
<trkpt lat="43.1303700" lon="-3.0066400">
<ele>690.859680</ele>
<time>2010-06-22T06:15:47.998Z</time>
</trkpt>
<trkpt lat="43.1303100" lon="-3.0065400">
<ele>691.804565</ele>
<time>2010-06-22T06:15:54.996Z</time>
</trkpt>
<trkpt lat="43.1302400" lon="-3.0064500">
<ele>691.316895</ele>
<time>2010-06-22T06:16:02.004Z</time>
</trkpt>
<trkpt lat="43.1301700" lon="-3.0063500">
<ele>692.292236</ele>
<time>2010-06-22T06:16:09.002Z</time>
</trkpt>
<trkpt lat="43.1300900" lon="-3.0062600">
<ele>691.804565</ele>
<time>2010-06-22T06:16:16.000Z</time>
</trkpt>
<trkpt lat="43.1300100" lon="-3.0061900">
<ele>690.859680</ele>
<time>2010-06-22T06:16:21.996Z</time>
</trkpt>
<trkpt lat="43.1299300" lon="-3.0061200">
<ele>690.372009</ele>
<time>2010-06-22T06:16:28.001Z</time>
</trkpt>
<trkpt lat="43.1298400" lon="-3.0060500">
<ele>690.859680</ele>
<time>2010-06-22T06:16:35.000Z</time>
</trkpt>
<trkpt lat="43.1297500" lon="-3.0059800">
<ele>691.316895</ele>
<time>2010-06-22T06:16:41.998Z</time>
</trkpt>
<trkpt lat="43.1296600" lon="-3.0059100">
<ele>691.316895</ele>
<time>2010-06-22T06:16:48.996Z</time>
</trkpt>
<trkpt lat="43.1295700" lon="-3.0058300">
<ele>691.316895</ele>
<time>2010-06-22T06:16:56.004Z</time>
</trkpt>
<trkpt lat="43.1294800" lon="-3.0057700">
<ele>690.372009</ele>
<time>2010-06-22T06:17:02.000Z</time>
</trkpt>
<trkpt lat="43.1293800" lon="-3.0057200">
<ele>690.859680</ele>
<time>2010-06-22T06:17:08.998Z</time>
</trkpt>
<trkpt lat="43.1292800" lon="-3.0056800">
<ele>690.859680</ele>
<time>2010-06-22T06:17:15.996Z</time>
</trkpt>
<trkpt lat="43.1291800" lon="-3.0056400">
<ele>693.237061</ele>
<time>2010-06-22T06:17:24.999Z</time>
</trkpt>
<trkpt lat="43.1290900" lon="-3.0056100">
<ele>696.132690</ele>
<time>2010-06-22T06:17:34.002Z</time>
</trkpt>
<trkpt lat="43.1289800" lon="-3.0055900">
<ele>698.540649</ele>
<time>2010-06-22T06:17:42.996Z</time>
</trkpt>
<trkpt lat="43.1288900" lon="-3.0055100">
<ele>699.028320</ele>
<time>2010-06-22T06:17:50.997Z</time>
</trkpt>
<trkpt lat="43.1288000" lon="-3.0054200">
<ele>699.973206</ele>
<time>2010-06-22T06:17:58.998Z</time>
</trkpt>
<trkpt lat="43.1287300" lon="-3.0053300">
<ele>699.485474</ele>
<time>2010-06-22T06:18:05.996Z</time>
</trkpt>
<trkpt lat="43.1286600" lon="-3.0052300">
<ele>699.485474</ele>
<time>2010-06-22T06:18:12.001Z</time>
</trkpt>
<trkpt lat="43.1285900" lon="-3.0051300">
<ele>699.973206</ele>
<time>2010-06-22T06:18:18.999Z</time>
</trkpt>
<trkpt lat="43.1285200" lon="-3.0050500">
<ele>700.948547</ele>
<time>2010-06-22T06:18:25.998Z</time>
</trkpt>
<trkpt lat="43.1284300" lon="-3.0049500">
<ele>700.460938</ele>
<time>2010-06-22T06:18:32.996Z</time>
</trkpt>
<trkpt lat="43.1283700" lon="-3.0048600">
<ele>699.028320</ele>
<time>2010-06-22T06:18:40.003Z</time>
</trkpt>
<trkpt lat="43.1283000" lon="-3.0047600">
<ele>699.028320</ele>
<time>2010-06-22T06:18:47.002Z</time>
</trkpt>
<trkpt lat="43.1282200" lon="-3.0046600">
<ele>697.565308</ele>
<time>2010-06-22T06:18:54.000Z</time>
</trkpt>
<trkpt lat="43.1281600" lon="-3.0045500">
<ele>697.565308</ele>
<time>2010-06-22T06:19:03.003Z</time>
</trkpt>
<trkpt lat="43.1280800" lon="-3.0044700">
<ele>695.645081</ele>
<time>2010-06-22T06:19:10.001Z</time>
</trkpt>
<trkpt lat="43.1280000" lon="-3.0043700">
<ele>694.212524</ele>
<time>2010-06-22T06:19:17.000Z</time>
</trkpt>
<trkpt lat="43.1279200" lon="-3.0042800">
<ele>692.779907</ele>
<time>2010-06-22T06:19:23.998Z</time>
</trkpt>
<trkpt lat="43.1278600" lon="-3.0041800">
<ele>690.372009</ele>
<time>2010-06-22T06:19:30.996Z</time>
</trkpt>
<trkpt lat="43.1277800" lon="-3.0040900">
<ele>689.396667</ele>
<time>2010-06-22T06:19:38.997Z</time>
</trkpt>
<trkpt lat="43.1277100" lon="-3.0040000">
<ele>686.531494</ele>
<time>2010-06-22T06:19:46.998Z</time>
</trkpt>
<trkpt lat="43.1276300" lon="-3.0039100">
<ele>684.611328</ele>
<time>2010-06-22T06:19:57.003Z</time>
</trkpt>
<trkpt lat="43.1275600" lon="-3.0038100">
<ele>683.148254</ele>
<time>2010-06-22T06:20:04.001Z</time>
</trkpt>
<trkpt lat="43.1274900" lon="-3.0037100">
<ele>681.715698</ele>
<time>2010-06-22T06:20:11.000Z</time>
</trkpt>
<trkpt lat="43.1274200" lon="-3.0036000">
<ele>681.228027</ele>
<time>2010-06-22T06:20:17.998Z</time>
</trkpt>
<trkpt lat="43.1273500" lon="-3.0035000">
<ele>680.740295</ele>
<time>2010-06-22T06:20:24.996Z</time>
</trkpt>
<trkpt lat="43.1272900" lon="-3.0033900">
<ele>680.283081</ele>
<time>2010-06-22T06:20:32.004Z</time>
</trkpt>
<trkpt lat="43.1272300" lon="-3.0033000">
<ele>680.283081</ele>
<time>2010-06-22T06:20:39.002Z</time>
</trkpt>
<trkpt lat="43.1271600" lon="-3.0032000">
<ele>679.795471</ele>
<time>2010-06-22T06:20:46.000Z</time>
</trkpt>
<trkpt lat="43.1271000" lon="-3.0031000">
<ele>679.795471</ele>
<time>2010-06-22T06:20:52.999Z</time>
</trkpt>
<trkpt lat="43.1270300" lon="-3.0030000">
<ele>677.875183</ele>
<time>2010-06-22T06:20:59.997Z</time>
</trkpt>
<trkpt lat="43.1269400" lon="-3.0029300">
<ele>675.954956</ele>
<time>2010-06-22T06:21:07.004Z</time>
</trkpt>
<trkpt lat="43.1268700" lon="-3.0028500">
<ele>673.547058</ele>
<time>2010-06-22T06:21:14.003Z</time>
</trkpt>
<trkpt lat="43.1267900" lon="-3.0027700">
<ele>671.139099</ele>
<time>2010-06-22T06:21:21.001Z</time>
</trkpt>
<trkpt lat="43.1267100" lon="-3.0026800">
<ele>669.218933</ele>
<time>2010-06-22T06:21:27.999Z</time>
</trkpt>
<trkpt lat="43.1266400" lon="-3.0025900">
<ele>667.786316</ele>
<time>2010-06-22T06:21:34.998Z</time>
</trkpt>
<trkpt lat="43.1265800" lon="-3.0024800">
<ele>665.378418</ele>
<time>2010-06-22T06:21:41.996Z</time>
</trkpt>
<trkpt lat="43.1265100" lon="-3.0023600">
<ele>663.458130</ele>
<time>2010-06-22T06:21:49.003Z</time>
</trkpt>
<trkpt lat="43.1264500" lon="-3.0022400">
<ele>662.482788</ele>
<time>2010-06-22T06:21:56.002Z</time>
</trkpt>
<trkpt lat="43.1264000" lon="-3.0021300">
<ele>661.537903</ele>
<time>2010-06-22T06:22:03.000Z</time>
</trkpt>
<trkpt lat="43.1263500" lon="-3.0020100">
<ele>659.130005</ele>
<time>2010-06-22T06:22:09.998Z</time>
</trkpt>
<trkpt lat="43.1262800" lon="-3.0020600">
<ele>658.642273</ele>
<time>2010-06-22T06:22:27.002Z</time>
</trkpt>
<trkpt lat="43.1262500" lon="-3.0021800">
<ele>656.722107</ele>
<time>2010-06-22T06:22:34.000Z</time>
</trkpt>
<trkpt lat="43.1262100" lon="-3.0023000">
<ele>655.746704</ele>
<time>2010-06-22T06:22:42.001Z</time>
</trkpt>
<trkpt lat="43.1261800" lon="-3.0024300">
<ele>654.314148</ele>
<time>2010-06-22T06:22:50.002Z</time>
</trkpt>
<trkpt lat="43.1261600" lon="-3.0025600">
<ele>651.906250</ele>
<time>2010-06-22T06:23:03.998Z</time>
</trkpt>
<trkpt lat="43.1261500" lon="-3.0026900">
<ele>649.986023</ele>
<time>2010-06-22T06:23:11.999Z</time>
</trkpt>
<trkpt lat="43.1261300" lon="-3.0028300">
<ele>648.065735</ele>
<time>2010-06-22T06:23:20.000Z</time>
</trkpt>
<trkpt lat="43.1261400" lon="-3.0029700">
<ele>645.170166</ele>
<time>2010-06-22T06:23:28.000Z</time>
</trkpt>
<trkpt lat="43.1261200" lon="-3.0031100">
<ele>642.792664</ele>
<time>2010-06-22T06:23:37.003Z</time>
</trkpt>
<trkpt lat="43.1261100" lon="-3.0032600">
<ele>640.384827</ele>
<time>2010-06-22T06:23:45.997Z</time>
</trkpt>
<trkpt lat="43.1260800" lon="-3.0034000">
<ele>638.464539</ele>
<time>2010-06-22T06:23:51.000Z</time>
</trkpt>
<trkpt lat="43.1260600" lon="-3.0035400">
<ele>637.001465</ele>
<time>2010-06-22T06:23:56.003Z</time>
</trkpt>
<trkpt lat="43.1260600" lon="-3.0036500">
<ele>635.568970</ele>
<time>2010-06-22T06:24:01.999Z</time>
</trkpt>
<trkpt lat="43.1260600" lon="-3.0037600">
<ele>633.161072</ele>
<time>2010-06-22T06:24:11.002Z</time>
</trkpt>
<trkpt lat="43.1260700" lon="-3.0038800">
<ele>630.295898</ele>
<time>2010-06-22T06:24:20.998Z</time>
</trkpt>
<trkpt lat="43.1260800" lon="-3.0040000">
<ele>629.320557</ele>
<time>2010-06-22T06:24:27.996Z</time>
</trkpt>
<trkpt lat="43.1260600" lon="-3.0041300">
<ele>627.400269</ele>
<time>2010-06-22T06:24:35.997Z</time>
</trkpt>
<trkpt lat="43.1260400" lon="-3.0042700">
<ele>624.047546</ele>
<time>2010-06-22T06:24:45.000Z</time>
</trkpt>
<trkpt lat="43.1260500" lon="-3.0044100">
<ele>621.639587</ele>
<time>2010-06-22T06:24:58.003Z</time>
</trkpt>
<trkpt lat="43.1260400" lon="-3.0045200">
<ele>620.664246</ele>
<time>2010-06-22T06:25:22.999Z</time>
</trkpt>
<trkpt lat="43.1259400" lon="-3.0045200">
<ele>617.311462</ele>
<time>2010-06-22T06:25:40.002Z</time>
</trkpt>
<trkpt lat="43.1258900" lon="-3.0046100">
<ele>612.983276</ele>
<time>2010-06-22T06:25:52.003Z</time>
</trkpt>
<trkpt lat="43.1258200" lon="-3.0046000">
<ele>609.599976</ele>
<time>2010-06-22T06:26:07.996Z</time>
</trkpt>
<trkpt lat="43.1257500" lon="-3.0045000">
<ele>608.655151</ele>
<time>2010-06-22T06:26:15.003Z</time>
</trkpt>
<trkpt lat="43.1256400" lon="-3.0044500">
<ele>607.222534</ele>
<time>2010-06-22T06:26:20.999Z</time>
</trkpt>
<trkpt lat="43.1255400" lon="-3.0044600">
<ele>605.302307</ele>
<time>2010-06-22T06:26:27.997Z</time>
</trkpt>
<trkpt lat="43.1254400" lon="-3.0044600">
<ele>602.406738</ele>
<time>2010-06-22T06:26:34.996Z</time>
</trkpt>
<trkpt lat="43.1253400" lon="-3.0044600">
<ele>599.998779</ele>
<time>2010-06-22T06:26:42.003Z</time>
</trkpt>
<trkpt lat="43.1252200" lon="-3.0044500">
<ele>598.566284</ele>
<time>2010-06-22T06:26:50.004Z</time>
</trkpt>
<trkpt lat="43.1251000" lon="-3.0044600">
<ele>597.590881</ele>
<time>2010-06-22T06:26:56.000Z</time>
</trkpt>
<trkpt lat="43.1250000" lon="-3.0044700">
<ele>595.670654</ele>
<time>2010-06-22T06:27:02.998Z</time>
</trkpt>
<trkpt lat="43.1248900" lon="-3.0044600">
<ele>594.725769</ele>
<time>2010-06-22T06:27:09.996Z</time>
</trkpt>
<trkpt lat="43.1247900" lon="-3.0044700">
<ele>594.725769</ele>
<time>2010-06-22T06:27:17.004Z</time>
</trkpt>
<trkpt lat="43.1246500" lon="-3.0044400">
<ele>595.182922</ele>
<time>2010-06-22T06:27:25.004Z</time>
</trkpt>
<trkpt lat="43.1245500" lon="-3.0044600">
<ele>595.670654</ele>
<time>2010-06-22T06:27:32.996Z</time>
</trkpt>
<trkpt lat="43.1244400" lon="-3.0044500">
<ele>595.182922</ele>
<time>2010-06-22T06:27:40.997Z</time>
</trkpt>
<trkpt lat="43.1243400" lon="-3.0044600">
<ele>596.645996</ele>
<time>2010-06-22T06:27:50.000Z</time>
</trkpt>
<trkpt lat="43.1242300" lon="-3.0044800">
<ele>596.645996</ele>
<time>2010-06-22T06:27:58.000Z</time>
</trkpt>
<trkpt lat="43.1241300" lon="-3.0044400">
<ele>595.670654</ele>
<time>2010-06-22T06:28:04.999Z</time>
</trkpt>
<trkpt lat="43.1240300" lon="-3.0043800">
<ele>593.750427</ele>
<time>2010-06-22T06:28:11.997Z</time>
</trkpt>
<trkpt lat="43.1239200" lon="-3.0043100">
<ele>592.775024</ele>
<time>2010-06-22T06:28:19.004Z</time>
</trkpt>
<trkpt lat="43.1238200" lon="-3.0042500">
<ele>590.854797</ele>
<time>2010-06-22T06:28:26.003Z</time>
</trkpt>
<trkpt lat="43.1237300" lon="-3.0041900">
<ele>588.934570</ele>
<time>2010-06-22T06:28:33.001Z</time>
</trkpt>
<trkpt lat="43.1236300" lon="-3.0041300">
<ele>587.502014</ele>
<time>2010-06-22T06:28:39.999Z</time>
</trkpt>
<trkpt lat="43.1235400" lon="-3.0040700">
<ele>586.526672</ele>
<time>2010-06-22T06:28:46.998Z</time>
</trkpt>
<trkpt lat="43.1234500" lon="-3.0040000">
<ele>585.581726</ele>
<time>2010-06-22T06:28:53.996Z</time>
</trkpt>
<trkpt lat="43.1233500" lon="-3.0039400">
<ele>584.149170</ele>
<time>2010-06-22T06:29:01.003Z</time>
</trkpt>
<trkpt lat="43.1232400" lon="-3.0038700">
<ele>583.173828</ele>
<time>2010-06-22T06:29:08.002Z</time>
</trkpt>
<trkpt lat="43.1231500" lon="-3.0037800">
<ele>582.228943</ele>
<time>2010-06-22T06:29:13.998Z</time>
</trkpt>
<trkpt lat="43.1230600" lon="-3.0037300">
<ele>581.253601</ele>
<time>2010-06-22T06:29:20.996Z</time>
</trkpt>
<trkpt lat="43.1229600" lon="-3.0037000">
<ele>578.845642</ele>
<time>2010-06-22T06:29:28.003Z</time>
</trkpt>
<trkpt lat="43.1228600" lon="-3.0036600">
<ele>576.437744</ele>
<time>2010-06-22T06:29:35.002Z</time>
</trkpt>
<trkpt lat="43.1227600" lon="-3.0036200">
<ele>574.517517</ele>
<time>2010-06-22T06:29:42.000Z</time>
</trkpt>
<trkpt lat="43.1226600" lon="-3.0035700">
<ele>572.109619</ele>
<time>2010-06-22T06:29:48.998Z</time>
</trkpt>
<trkpt lat="43.1225600" lon="-3.0035100">
<ele>569.732117</ele>
<time>2010-06-22T06:29:55.997Z</time>
</trkpt>
<trkpt lat="43.1224600" lon="-3.0034600">
<ele>568.269104</ele>
<time>2010-06-22T06:30:03.004Z</time>
</trkpt>
<trkpt lat="43.1223500" lon="-3.0034100">
<ele>567.324280</ele>
<time>2010-06-22T06:30:10.002Z</time>
</trkpt>
<trkpt lat="43.1222600" lon="-3.0033600">
<ele>565.403992</ele>
<time>2010-06-22T06:30:17.001Z</time>
</trkpt>
<trkpt lat="43.1221500" lon="-3.0033000">
<ele>563.940918</ele>
<time>2010-06-22T06:30:26.997Z</time>
</trkpt>
<trkpt lat="43.1220400" lon="-3.0032400">
<ele>561.533081</ele>
<time>2010-06-22T06:30:37.996Z</time>
</trkpt>
<trkpt lat="43.1219400" lon="-3.0032100">
<ele>557.692566</ele>
<time>2010-06-22T06:30:45.996Z</time>
</trkpt>
<trkpt lat="43.1218500" lon="-3.0031800">
<ele>554.827454</ele>
<time>2010-06-22T06:30:53.997Z</time>
</trkpt>
<trkpt lat="43.1217400" lon="-3.0031400">
<ele>550.986938</ele>
<time>2010-06-22T06:31:03.000Z</time>
</trkpt>
<trkpt lat="43.1216400" lon="-3.0031300">
<ele>547.116028</ele>
<time>2010-06-22T06:31:11.001Z</time>
</trkpt>
<trkpt lat="43.1215400" lon="-3.0031100">
<ele>543.763184</ele>
<time>2010-06-22T06:31:19.001Z</time>
</trkpt>
<trkpt lat="43.1214400" lon="-3.0030700">
<ele>540.410400</ele>
<time>2010-06-22T06:31:27.002Z</time>
</trkpt>
<trkpt lat="43.1213300" lon="-3.0030000">
<ele>535.594543</ele>
<time>2010-06-22T06:31:35.996Z</time>
</trkpt>
<trkpt lat="43.1212300" lon="-3.0029400">
<ele>530.778748</ele>
<time>2010-06-22T06:31:46.001Z</time>
</trkpt>
<trkpt lat="43.1211200" lon="-3.0029000">
<ele>525.505676</ele>
<time>2010-06-22T06:31:58.002Z</time>
</trkpt>
<trkpt lat="43.1210100" lon="-3.0028400">
<ele>520.202148</ele>
<time>2010-06-22T06:32:09.001Z</time>
</trkpt>
<trkpt lat="43.1208900" lon="-3.0028200">
<ele>515.416809</ele>
<time>2010-06-22T06:32:20.000Z</time>
</trkpt>
<trkpt lat="43.1207800" lon="-3.0028100">
<ele>511.088654</ele>
<time>2010-06-22T06:32:30.998Z</time>
</trkpt>
<trkpt lat="43.1206600" lon="-3.0027600">
<ele>506.760468</ele>
<time>2010-06-22T06:32:42.999Z</time>
</trkpt>
<trkpt lat="43.1205300" lon="-3.0027200">
<ele>502.920013</ele>
<time>2010-06-22T06:32:52.002Z</time>
</trkpt>
<trkpt lat="43.1204300" lon="-3.0026700">
<ele>500.024414</ele>
<time>2010-06-22T06:33:00.003Z</time>
</trkpt>
<trkpt lat="43.1203100" lon="-3.0026300">
<ele>497.616486</ele>
<time>2010-06-22T06:33:09.999Z</time>
</trkpt>
<trkpt lat="43.1201900" lon="-3.0025800">
<ele>495.208557</ele>
<time>2010-06-22T06:33:19.002Z</time>
</trkpt>
<trkpt lat="43.1200800" lon="-3.0025300">
<ele>493.776001</ele>
<time>2010-06-22T06:33:24.998Z</time>
</trkpt>
<trkpt lat="43.1199600" lon="-3.0025000">
<ele>490.423187</ele>
<time>2010-06-22T06:33:34.001Z</time>
</trkpt>
<trkpt lat="43.1198500" lon="-3.0024700">
<ele>489.447845</ele>
<time>2010-06-22T06:33:57.001Z</time>
</trkpt>
<trkpt lat="43.1197500" lon="-3.0024600">
<ele>487.039917</ele>
<time>2010-06-22T06:34:05.002Z</time>
</trkpt>
<trkpt lat="43.1196400" lon="-3.0024000">
<ele>484.631989</ele>
<time>2010-06-22T06:34:13.996Z</time>
</trkpt>
<trkpt lat="43.1195400" lon="-3.0023600">
<ele>482.711731</ele>
<time>2010-06-22T06:34:21.003Z</time>
</trkpt>
<trkpt lat="43.1194500" lon="-3.0023500">
<ele>481.766876</ele>
<time>2010-06-22T06:34:29.997Z</time>
</trkpt>
<trkpt lat="43.1193800" lon="-3.0022700">
<ele>478.871277</ele>
<time>2010-06-22T06:34:37.998Z</time>
</trkpt>
<trkpt lat="43.1192900" lon="-3.0022100">
<ele>476.463348</ele>
<time>2010-06-22T06:34:45.998Z</time>
</trkpt>
<trkpt lat="43.1192000" lon="-3.0021600">
<ele>474.543121</ele>
<time>2010-06-22T06:34:53.999Z</time>
</trkpt>
<trkpt lat="43.1191000" lon="-3.0021300">
<ele>471.678009</ele>
<time>2010-06-22T06:35:07.996Z</time>
</trkpt>
<trkpt lat="43.1190100" lon="-3.0021100">
<ele>469.270081</ele>
<time>2010-06-22T06:35:15.996Z</time>
</trkpt>
<trkpt lat="43.1188900" lon="-3.0020600">
<ele>465.429596</ele>
<time>2010-06-22T06:35:24.999Z</time>
</trkpt>
<trkpt lat="43.1187900" lon="-3.0020200">
<ele>462.533997</ele>
<time>2010-06-22T06:35:34.002Z</time>
</trkpt>
<trkpt lat="43.1186900" lon="-3.0020000">
<ele>457.718140</ele>
<time>2010-06-22T06:35:42.996Z</time>
</trkpt>
<trkpt lat="43.1185800" lon="-3.0019900">
<ele>453.390015</ele>
<time>2010-06-22T06:35:54.997Z</time>
</trkpt>
<trkpt lat="43.1184800" lon="-3.0019900">
<ele>449.061859</ele>
<time>2010-06-22T06:36:05.003Z</time>
</trkpt>
<trkpt lat="43.1183700" lon="-3.0019700">
<ele>444.733673</ele>
<time>2010-06-22T06:36:14.999Z</time>
</trkpt>
<trkpt lat="43.1182700" lon="-3.0019200">
<ele>439.948334</ele>
<time>2010-06-22T06:36:27.000Z</time>
</trkpt>
<trkpt lat="43.1181100" lon="-3.0019100">
<ele>438.028076</ele>
<time>2010-06-22T06:37:07.997Z</time>
</trkpt>
<trkpt lat="43.1180200" lon="-3.0018900">
<ele>432.724548</ele>
<time>2010-06-22T06:37:17.000Z</time>
</trkpt>
<trkpt lat="43.1179100" lon="-3.0018900">
<ele>429.371735</ele>
<time>2010-06-22T06:37:27.998Z</time>
</trkpt>
<trkpt lat="43.1178000" lon="-3.0018800">
<ele>426.963867</ele>
<time>2010-06-22T06:37:38.004Z</time>
</trkpt>
<trkpt lat="43.1176800" lon="-3.0019400">
<ele>425.988464</ele>
<time>2010-06-22T06:38:00.001Z</time>
</trkpt>
<trkpt lat="43.1175900" lon="-3.0018900">
<ele>422.635681</ele>
<time>2010-06-22T06:38:08.002Z</time>
</trkpt>
<trkpt lat="43.1174800" lon="-3.0018800">
<ele>420.227753</ele>
<time>2010-06-22T06:38:16.002Z</time>
</trkpt>
<trkpt lat="43.1173800" lon="-3.0018700">
<ele>416.387268</ele>
<time>2010-06-22T06:38:27.001Z</time>
</trkpt>
<trkpt lat="43.1172400" lon="-3.0018500">
<ele>413.491669</ele>
<time>2010-06-22T06:38:38.000Z</time>
</trkpt>
<trkpt lat="43.1171000" lon="-3.0018100">
<ele>411.114258</ele>
<time>2010-06-22T06:38:47.003Z</time>
</trkpt>
<trkpt lat="43.1169600" lon="-3.0018000">
<ele>407.730957</ele>
<time>2010-06-22T06:39:05.000Z</time>
</trkpt>
<trkpt lat="43.1169500" lon="-3.0019600">
<ele>406.298401</ele>
<time>2010-06-22T06:39:13.000Z</time>
</trkpt>
<trkpt lat="43.1169700" lon="-3.0021300">
<ele>406.786072</ele>
<time>2010-06-22T06:39:22.997Z</time>
</trkpt>
<trkpt lat="43.1170100" lon="-3.0022700">
<ele>407.243286</ele>
<time>2010-06-22T06:39:30.997Z</time>
</trkpt>
<trkpt lat="43.1170600" lon="-3.0024100">
<ele>407.243286</ele>
<time>2010-06-22T06:39:40.000Z</time>
</trkpt>
<trkpt lat="43.1171200" lon="-3.0025700">
<ele>406.786072</ele>
<time>2010-06-22T06:39:49.997Z</time>
</trkpt>
<trkpt lat="43.1171600" lon="-3.0027400">
<ele>406.298401</ele>
<time>2010-06-22T06:39:57.997Z</time>
</trkpt>
<trkpt lat="43.1171300" lon="-3.0029300">
<ele>405.323059</ele>
<time>2010-06-22T06:40:05.998Z</time>
</trkpt>
<trkpt lat="43.1170800" lon="-3.0030400">
<ele>401.970245</ele>
<time>2010-06-22T06:40:13.999Z</time>
</trkpt>
<trkpt lat="43.1170300" lon="-3.0031700">
<ele>400.049988</ele>
<time>2010-06-22T06:40:21.999Z</time>
</trkpt>
<trkpt lat="43.1170800" lon="-3.0033000">
<ele>399.074646</ele>
<time>2010-06-22T06:40:28.998Z</time>
</trkpt>
<trkpt lat="43.1171500" lon="-3.0034400">
<ele>398.617462</ele>
<time>2010-06-22T06:40:38.001Z</time>
</trkpt>
<trkpt lat="43.1172200" lon="-3.0035900">
<ele>397.642059</ele>
<time>2010-06-22T06:40:46.001Z</time>
</trkpt>
<trkpt lat="43.1172800" lon="-3.0037800">
<ele>397.642059</ele>
<time>2010-06-22T06:40:55.004Z</time>
</trkpt>
<trkpt lat="43.1173000" lon="-3.0039700">
<ele>397.154388</ele>
<time>2010-06-22T06:41:02.996Z</time>
</trkpt>
<trkpt lat="43.1173000" lon="-3.0041700">
<ele>397.154388</ele>
<time>2010-06-22T06:41:11.999Z</time>
</trkpt>
<trkpt lat="43.1173000" lon="-3.0043400">
<ele>397.642059</ele>
<time>2010-06-22T06:41:21.002Z</time>
</trkpt>
<trkpt lat="43.1172600" lon="-3.0044800">
<ele>396.209534</ele>
<time>2010-06-22T06:41:29.003Z</time>
</trkpt>
<trkpt lat="43.1172300" lon="-3.0046100">
<ele>394.289276</ele>
<time>2010-06-22T06:41:37.003Z</time>
</trkpt>
<trkpt lat="43.1171400" lon="-3.0046300">
<ele>390.906006</ele>
<time>2010-06-22T06:41:45.004Z</time>
</trkpt>
<trkpt lat="43.1170700" lon="-3.0045700">
<ele>388.985748</ele>
<time>2010-06-22T06:41:52.996Z</time>
</trkpt>
<trkpt lat="43.1170100" lon="-3.0044600">
<ele>386.577850</ele>
<time>2010-06-22T06:42:03.001Z</time>
</trkpt>
<trkpt lat="43.1169200" lon="-3.0043300">
<ele>384.657593</ele>
<time>2010-06-22T06:42:12.997Z</time>
</trkpt>
<trkpt lat="43.1168500" lon="-3.0042200">
<ele>380.329468</ele>
<time>2010-06-22T06:42:23.003Z</time>
</trkpt>
<trkpt lat="43.1167500" lon="-3.0041100">
<ele>377.921539</ele>
<time>2010-06-22T06:42:30.001Z</time>
</trkpt>
<trkpt lat="43.1166700" lon="-3.0039700">
<ele>376.976654</ele>
<time>2010-06-22T06:42:43.004Z</time>
</trkpt>
<trkpt lat="43.1166000" lon="-3.0038700">
<ele>376.001282</ele>
<time>2010-06-22T06:42:53.001Z</time>
</trkpt>
<trkpt lat="43.1165100" lon="-3.0037400">
<ele>373.623840</ele>
<time>2010-06-22T06:43:02.004Z</time>
</trkpt>
<trkpt lat="43.1164100" lon="-3.0037600">
<ele>370.728241</ele>
<time>2010-06-22T06:43:10.998Z</time>
</trkpt>
<trkpt lat="43.1163100" lon="-3.0038400">
<ele>367.375458</ele>
<time>2010-06-22T06:43:18.998Z</time>
</trkpt>
<trkpt lat="43.1162800" lon="-3.0039900">
<ele>364.967529</ele>
<time>2010-06-22T06:43:28.001Z</time>
</trkpt>
<trkpt lat="43.1163400" lon="-3.0041100">
<ele>364.479858</ele>
<time>2010-06-22T06:43:37.004Z</time>
</trkpt>
<trkpt lat="43.1163500" lon="-3.0043100">
<ele>363.047272</ele>
<time>2010-06-22T06:43:45.998Z</time>
</trkpt>
<trkpt lat="43.1163700" lon="-3.0045000">
<ele>363.504486</ele>
<time>2010-06-22T06:43:53.999Z</time>
</trkpt>
<trkpt lat="43.1163600" lon="-3.0046700">
<ele>363.504486</ele>
<time>2010-06-22T06:44:00.997Z</time>
</trkpt>
<trkpt lat="43.1163700" lon="-3.0048200">
<ele>361.584259</ele>
<time>2010-06-22T06:44:10.000Z</time>
</trkpt>
<trkpt lat="43.1163600" lon="-3.0049800">
<ele>359.176331</ele>
<time>2010-06-22T06:44:19.003Z</time>
</trkpt>
<trkpt lat="43.1163500" lon="-3.0051300">
<ele>357.256073</ele>
<time>2010-06-22T06:44:27.997Z</time>
</trkpt>
<trkpt lat="43.1163600" lon="-3.0052800">
<ele>354.878662</ele>
<time>2010-06-22T06:44:37.000Z</time>
</trkpt>
<trkpt lat="43.1163600" lon="-3.0054500">
<ele>352.470734</ele>
<time>2010-06-22T06:44:46.997Z</time>
</trkpt>
<trkpt lat="43.1163800" lon="-3.0056200">
<ele>349.575134</ele>
<time>2010-06-22T06:44:56.000Z</time>
</trkpt>
<trkpt lat="43.1163900" lon="-3.0057800">
<ele>346.222321</ele>
<time>2010-06-22T06:45:05.996Z</time>
</trkpt>
<trkpt lat="43.1164600" lon="-3.0059600">
<ele>346.679535</ele>
<time>2010-06-22T06:45:16.001Z</time>
</trkpt>
<trkpt lat="43.1165100" lon="-3.0060900">
<ele>346.222321</ele>
<time>2010-06-22T06:45:23.000Z</time>
</trkpt>
<trkpt lat="43.1165900" lon="-3.0061700">
<ele>344.759277</ele>
<time>2010-06-22T06:45:29.998Z</time>
</trkpt>
<trkpt lat="43.1165600" lon="-3.0062000">
<ele>343.814392</ele>
<time>2010-06-22T06:45:43.001Z</time>
</trkpt>
<trkpt lat="43.1164600" lon="-3.0061300">
<ele>341.894135</ele>
<time>2010-06-22T06:45:50.000Z</time>
</trkpt>
<trkpt lat="43.1163700" lon="-3.0060400">
<ele>339.973938</ele>
<time>2010-06-22T06:45:56.998Z</time>
</trkpt>
<trkpt lat="43.1162800" lon="-3.0059600">
<ele>338.510864</ele>
<time>2010-06-22T06:46:03.996Z</time>
</trkpt>
<trkpt lat="43.1162000" lon="-3.0058900">
<ele>337.078339</ele>
<time>2010-06-22T06:46:11.997Z</time>
</trkpt>
<trkpt lat="43.1160900" lon="-3.0057900">
<ele>335.158081</ele>
<time>2010-06-22T06:46:19.998Z</time>
</trkpt>
<trkpt lat="43.1159900" lon="-3.0056800">
<ele>331.805267</ele>
<time>2010-06-22T06:46:27.998Z</time>
</trkpt>
<trkpt lat="43.1158900" lon="-3.0055900">
<ele>328.421997</ele>
<time>2010-06-22T06:46:35.999Z</time>
</trkpt>
<trkpt lat="43.1158000" lon="-3.0055300">
<ele>326.014069</ele>
<time>2010-06-22T06:46:44.000Z</time>
</trkpt>
<trkpt lat="43.1157100" lon="-3.0054600">
<ele>323.606140</ele>
<time>2010-06-22T06:46:53.003Z</time>
</trkpt>
<trkpt lat="43.1156500" lon="-3.0053700">
<ele>319.765686</ele>
<time>2010-06-22T06:47:01.003Z</time>
</trkpt>
<trkpt lat="43.1155600" lon="-3.0052300">
<ele>317.357758</ele>
<time>2010-06-22T06:47:13.998Z</time>
</trkpt>
<trkpt lat="43.1155000" lon="-3.0051100">
<ele>314.492645</ele>
<time>2010-06-22T06:47:23.001Z</time>
</trkpt>
<trkpt lat="43.1154200" lon="-3.0049900">
<ele>312.572388</ele>
<time>2010-06-22T06:47:29.999Z</time>
</trkpt>
<trkpt lat="43.1153400" lon="-3.0048900">
<ele>310.652161</ele>
<time>2010-06-22T06:47:38.000Z</time>
</trkpt>
<trkpt lat="43.1152300" lon="-3.0048000">
<ele>307.756561</ele>
<time>2010-06-22T06:47:48.998Z</time>
</trkpt>
<trkpt lat="43.1151400" lon="-3.0047000">
<ele>305.836334</ele>
<time>2010-06-22T06:47:56.999Z</time>
</trkpt>
<trkpt lat="43.1150600" lon="-3.0045800">
<ele>303.428406</ele>
<time>2010-06-22T06:48:06.002Z</time>
</trkpt>
<trkpt lat="43.1149900" lon="-3.0044300">
<ele>301.508179</ele>
<time>2010-06-22T06:48:14.996Z</time>
</trkpt>
<trkpt lat="43.1149400" lon="-3.0042800">
<ele>299.587921</ele>
<time>2010-06-22T06:48:22.997Z</time>
</trkpt>
<trkpt lat="43.1149000" lon="-3.0041500">
<ele>297.667664</ele>
<time>2010-06-22T06:48:29.002Z</time>
</trkpt>
<trkpt lat="43.1148400" lon="-3.0040400">
<ele>296.692322</ele>
<time>2010-06-22T06:48:36.000Z</time>
</trkpt>
<trkpt lat="43.1147600" lon="-3.0039500">
<ele>295.259766</ele>
<time>2010-06-22T06:48:42.998Z</time>
</trkpt>
<trkpt lat="43.1146800" lon="-3.0038300">
<ele>294.772064</ele>
<time>2010-06-22T06:48:49.997Z</time>
</trkpt>
<trkpt lat="43.1146000" lon="-3.0037200">
<ele>292.364166</ele>
<time>2010-06-22T06:48:57.004Z</time>
</trkpt>
<trkpt lat="43.1145200" lon="-3.0035900">
<ele>291.906952</ele>
<time>2010-06-22T06:49:04.002Z</time>
</trkpt>
<trkpt lat="43.1144500" lon="-3.0034800">
<ele>289.986725</ele>
<time>2010-06-22T06:49:09.998Z</time>
</trkpt>
<trkpt lat="43.1143900" lon="-3.0033700">
<ele>288.523682</ele>
<time>2010-06-22T06:49:16.003Z</time>
</trkpt>
<trkpt lat="43.1143200" lon="-3.0032700">
<ele>287.578796</ele>
<time>2010-06-22T06:49:21.999Z</time>
</trkpt>
<trkpt lat="43.1142500" lon="-3.0031700">
<ele>286.603424</ele>
<time>2010-06-22T06:49:28.004Z</time>
</trkpt>
<trkpt lat="43.1141900" lon="-3.0030700">
<ele>285.170868</ele>
<time>2010-06-22T06:49:34.000Z</time>
</trkpt>
<trkpt lat="43.1141200" lon="-3.0029700">
<ele>284.683197</ele>
<time>2010-06-22T06:49:39.996Z</time>
</trkpt>
<trkpt lat="43.1140600" lon="-3.0028700">
<ele>283.250641</ele>
<time>2010-06-22T06:49:46.001Z</time>
</trkpt>
<trkpt lat="43.1139900" lon="-3.0027600">
<ele>283.250641</ele>
<time>2010-06-22T06:49:51.997Z</time>
</trkpt>
<trkpt lat="43.1139400" lon="-3.0026400">
<ele>282.762970</ele>
<time>2010-06-22T06:49:58.002Z</time>
</trkpt>
<trkpt lat="43.1138900" lon="-3.0025200">
<ele>282.762970</ele>
<time>2010-06-22T06:50:03.998Z</time>
</trkpt>
<trkpt lat="43.1138400" lon="-3.0023800">
<ele>282.275269</ele>
<time>2010-06-22T06:50:11.999Z</time>
</trkpt>
<trkpt lat="43.1137900" lon="-3.0022700">
<ele>281.330414</ele>
<time>2010-06-22T06:50:18.004Z</time>
</trkpt>
<trkpt lat="43.1137100" lon="-3.0021300">
<ele>281.330414</ele>
<time>2010-06-22T06:50:25.002Z</time>
</trkpt>
<trkpt lat="43.1136200" lon="-3.0020200">
<ele>279.867371</ele>
<time>2010-06-22T06:50:32.001Z</time>
</trkpt>
<trkpt lat="43.1135300" lon="-3.0019100">
<ele>279.410156</ele>
<time>2010-06-22T06:50:38.999Z</time>
</trkpt>
<trkpt lat="43.1134300" lon="-3.0017800">
<ele>277.947113</ele>
<time>2010-06-22T06:50:47.000Z</time>
</trkpt>
<trkpt lat="43.1133600" lon="-3.0016400">
<ele>276.514557</ele>
<time>2010-06-22T06:50:53.998Z</time>
</trkpt>
<trkpt lat="43.1133100" lon="-3.0015300">
<ele>276.026886</ele>
<time>2010-06-22T06:51:00.003Z</time>
</trkpt>
<trkpt lat="43.1132700" lon="-3.0014200">
<ele>275.569672</ele>
<time>2010-06-22T06:51:04.997Z</time>
</trkpt>
<trkpt lat="43.1131900" lon="-3.0013100">
<ele>275.569672</ele>
<time>2010-06-22T06:51:12.004Z</time>
</trkpt>
<trkpt lat="43.1130800" lon="-3.0012400">
<ele>275.082001</ele>
<time>2010-06-22T06:51:19.002Z</time>
</trkpt>
<trkpt lat="43.1130000" lon="-3.0011200">
<ele>275.082001</ele>
<time>2010-06-22T06:51:24.998Z</time>
</trkpt>
<trkpt lat="43.1129300" lon="-3.0010000">
<ele>274.106628</ele>
<time>2010-06-22T06:51:31.003Z</time>
</trkpt>
<trkpt lat="43.1128800" lon="-3.0009000">
<ele>272.674072</ele>
<time>2010-06-22T06:51:36.999Z</time>
</trkpt>
<trkpt lat="43.1128400" lon="-3.0007700">
<ele>272.186401</ele>
<time>2010-06-22T06:51:43.998Z</time>
</trkpt>
<trkpt lat="43.1127900" lon="-3.0006700">
<ele>270.753845</ele>
<time>2010-06-22T06:51:50.996Z</time>
</trkpt>
<trkpt lat="43.1127300" lon="-3.0005700">
<ele>269.321259</ele>
<time>2010-06-22T06:52:22.999Z</time>
</trkpt>
<trkpt lat="43.1126600" lon="-3.0004600">
<ele>267.370575</ele>
<time>2010-06-22T06:52:33.997Z</time>
</trkpt>
<trkpt lat="43.1125900" lon="-3.0004200">
<ele>266.425659</ele>
<time>2010-06-22T06:52:40.002Z</time>
</trkpt>
<trkpt lat="43.1124900" lon="-3.0004300">
<ele>265.450317</ele>
<time>2010-06-22T06:52:45.998Z</time>
</trkpt>
<trkpt lat="43.1124500" lon="-3.0002900">
<ele>264.017761</ele>
<time>2010-06-22T06:52:52.003Z</time>
</trkpt>
<trkpt lat="43.1124100" lon="-3.0001400">
<ele>263.072876</ele>
<time>2010-06-22T06:52:57.999Z</time>
</trkpt>
<trkpt lat="43.1123600" lon="-3.0000000">
<ele>261.122162</ele>
<time>2010-06-22T06:53:04.004Z</time>
</trkpt>
<trkpt lat="43.1123100" lon="-2.9998500">
<ele>260.664978</ele>
<time>2010-06-22T06:53:11.003Z</time>
</trkpt>
<trkpt lat="43.1122600" lon="-2.9997200">
<ele>259.689606</ele>
<time>2010-06-22T06:53:18.001Z</time>
</trkpt>
<trkpt lat="43.1122000" lon="-2.9996000">
<ele>258.257050</ele>
<time>2010-06-22T06:53:24.999Z</time>
</trkpt>
<trkpt lat="43.1121300" lon="-2.9994900">
<ele>256.824463</ele>
<time>2010-06-22T06:53:34.002Z</time>
</trkpt>
<trkpt lat="43.1120900" lon="-2.9993400">
<ele>255.849121</ele>
<time>2010-06-22T06:53:39.998Z</time>
</trkpt>
<trkpt lat="43.1120100" lon="-2.9993000">
<ele>255.361435</ele>
<time>2010-06-22T06:53:46.003Z</time>
</trkpt>
<trkpt lat="43.1119600" lon="-2.9991700">
<ele>253.928879</ele>
<time>2010-06-22T06:53:51.999Z</time>
</trkpt>
<trkpt lat="43.1119100" lon="-2.9990500">
<ele>252.953522</ele>
<time>2010-06-22T06:53:58.004Z</time>
</trkpt>
<trkpt lat="43.1118500" lon="-2.9989200">
<ele>251.033279</ele>
<time>2010-06-22T06:54:05.996Z</time>
</trkpt>
<trkpt lat="43.1118200" lon="-2.9987800">
<ele>249.113037</ele>
<time>2010-06-22T06:54:13.003Z</time>
</trkpt>
<trkpt lat="43.1117600" lon="-2.9986500">
<ele>246.247925</ele>
<time>2010-06-22T06:54:20.002Z</time>
</trkpt>
<trkpt lat="43.1117000" lon="-2.9985200">
<ele>244.297195</ele>
<time>2010-06-22T06:54:27.000Z</time>
</trkpt>
<trkpt lat="43.1116400" lon="-2.9984200">
<ele>243.352325</ele>
<time>2010-06-22T06:54:32.996Z</time>
</trkpt>
<trkpt lat="43.1115700" lon="-2.9983200">
<ele>240.456726</ele>
<time>2010-06-22T06:54:40.003Z</time>
</trkpt>
<trkpt lat="43.1115000" lon="-2.9982300">
<ele>238.536469</ele>
<time>2010-06-22T06:54:47.002Z</time>
</trkpt>
<trkpt lat="43.1114200" lon="-2.9981400">
<ele>235.671356</ele>
<time>2010-06-22T06:54:54.000Z</time>
</trkpt>
<trkpt lat="43.1113400" lon="-2.9980300">
<ele>233.751129</ele>
<time>2010-06-22T06:55:00.998Z</time>
</trkpt>
<trkpt lat="43.1112700" lon="-2.9979400">
<ele>231.343201</ele>
<time>2010-06-22T06:55:07.997Z</time>
</trkpt>
<trkpt lat="43.1111900" lon="-2.9978500">
<ele>229.422958</ele>
<time>2010-06-22T06:55:15.997Z</time>
</trkpt>
<trkpt lat="43.1111000" lon="-2.9977700">
<ele>227.015030</ele>
<time>2010-06-22T06:55:23.998Z</time>
</trkpt>
<trkpt lat="43.1110100" lon="-2.9976600">
<ele>224.607132</ele>
<time>2010-06-22T06:55:31.999Z</time>
</trkpt>
<trkpt lat="43.1109000" lon="-2.9975300">
<ele>221.711533</ele>
<time>2010-06-22T06:55:42.997Z</time>
</trkpt>
<trkpt lat="43.1108100" lon="-2.9974100">
<ele>219.303604</ele>
<time>2010-06-22T06:55:50.998Z</time>
</trkpt>
<trkpt lat="43.1107100" lon="-2.9973000">
<ele>217.383362</ele>
<time>2010-06-22T06:55:57.996Z</time>
</trkpt>
<trkpt lat="43.1106100" lon="-2.9972600">
<ele>215.950806</ele>
<time>2010-06-22T06:56:05.004Z</time>
</trkpt>
<trkpt lat="43.1105200" lon="-2.9972200">
<ele>214.030563</ele>
<time>2010-06-22T06:56:13.004Z</time>
</trkpt>
<trkpt lat="43.1104500" lon="-2.9971200">
<ele>211.622635</ele>
<time>2010-06-22T06:56:20.996Z</time>
</trkpt>
<trkpt lat="43.1103700" lon="-2.9969800">
<ele>208.757523</ele>
<time>2010-06-22T06:56:28.997Z</time>
</trkpt>
<trkpt lat="43.1102900" lon="-2.9968900">
<ele>205.861923</ele>
<time>2010-06-22T06:56:36.997Z</time>
</trkpt>
<trkpt lat="43.1102100" lon="-2.9968100">
<ele>202.021439</ele>
<time>2010-06-22T06:56:46.000Z</time>
</trkpt>
<trkpt lat="43.1101400" lon="-2.9966700">
<ele>199.125839</ele>
<time>2010-06-22T06:56:54.001Z</time>
</trkpt>
<trkpt lat="43.1100600" lon="-2.9965400">
<ele>195.773041</ele>
<time>2010-06-22T06:57:02.002Z</time>
</trkpt>
<trkpt lat="43.1099900" lon="-2.9964200">
<ele>193.852798</ele>
<time>2010-06-22T06:57:09.000Z</time>
</trkpt>
<trkpt lat="43.1099200" lon="-2.9963300">
<ele>192.877441</ele>
<time>2010-06-22T06:57:15.998Z</time>
</trkpt>
<trkpt lat="43.1098400" lon="-2.9962300">
<ele>189.524643</ele>
<time>2010-06-22T06:57:23.999Z</time>
</trkpt>
<trkpt lat="43.1097600" lon="-2.9961400">
<ele>187.116730</ele>
<time>2010-06-22T06:57:32.000Z</time>
</trkpt>
<trkpt lat="43.1096900" lon="-2.9960600">
<ele>185.196472</ele>
<time>2010-06-22T06:57:38.998Z</time>
</trkpt>
<trkpt lat="43.1096200" lon="-2.9959500">
<ele>182.788559</ele>
<time>2010-06-22T06:57:45.996Z</time>
</trkpt>
<trkpt lat="43.1096300" lon="-2.9958200">
<ele>180.868332</ele>
<time>2010-06-22T06:57:53.004Z</time>
</trkpt>
<trkpt lat="43.1097000" lon="-2.9957100">
<ele>178.460403</ele>
<time>2010-06-22T06:58:00.002Z</time>
</trkpt>
<trkpt lat="43.1097600" lon="-2.9956100">
<ele>176.540161</ele>
<time>2010-06-22T06:58:07.000Z</time>
</trkpt>
<trkpt lat="43.1098300" lon="-2.9954900">
<ele>175.564804</ele>
<time>2010-06-22T06:58:13.999Z</time>
</trkpt>
<trkpt lat="43.1098900" lon="-2.9953900">
<ele>173.644562</ele>
<time>2010-06-22T06:58:20.997Z</time>
</trkpt>
<trkpt lat="43.1099800" lon="-2.9953000">
<ele>172.212006</ele>
<time>2010-06-22T06:58:28.004Z</time>
</trkpt>
<trkpt lat="43.1100700" lon="-2.9952100">
<ele>170.291763</ele>
<time>2010-06-22T06:58:35.003Z</time>
</trkpt>
<trkpt lat="43.1101100" lon="-2.9951000">
<ele>169.316406</ele>
<time>2010-06-22T06:58:42.001Z</time>
</trkpt>
<trkpt lat="43.1100400" lon="-2.9949700">
<ele>169.316406</ele>
<time>2010-06-22T06:59:03.998Z</time>
</trkpt>
<trkpt lat="43.1099400" lon="-2.9949900">
<ele>169.316406</ele>
<time>2010-06-22T06:59:10.997Z</time>
</trkpt>
<trkpt lat="43.1098600" lon="-2.9950800">
<ele>170.291763</ele>
<time>2010-06-22T06:59:20.000Z</time>
</trkpt>
<trkpt lat="43.1098300" lon="-2.9950100">
<ele>169.316406</ele>
<time>2010-06-22T06:59:36.001Z</time>
</trkpt>
<trkpt lat="43.1097400" lon="-2.9950600">
<ele>169.804077</ele>
<time>2010-06-22T06:59:42.999Z</time>
</trkpt>
<trkpt lat="43.1096400" lon="-2.9951000">
<ele>169.804077</ele>
<time>2010-06-22T06:59:49.998Z</time>
</trkpt>
<trkpt lat="43.1095600" lon="-2.9951600">
<ele>170.291763</ele>
<time>2010-06-22T06:59:56.003Z</time>
</trkpt>
<trkpt lat="43.1094800" lon="-2.9952300">
<ele>170.291763</ele>
<time>2010-06-22T07:00:01.999Z</time>
</trkpt>
<trkpt lat="43.1094000" lon="-2.9953100">
<ele>169.804077</ele>
<time>2010-06-22T07:00:08.997Z</time>
</trkpt>
<trkpt lat="43.1093100" lon="-2.9953700">
<ele>169.804077</ele>
<time>2010-06-22T07:00:16.004Z</time>
</trkpt>
<trkpt lat="43.1092300" lon="-2.9954300">
<ele>169.316406</ele>
<time>2010-06-22T07:00:23.003Z</time>
</trkpt>
<trkpt lat="43.1091300" lon="-2.9954400">
<ele>168.371521</ele>
<time>2010-06-22T07:00:30.001Z</time>
</trkpt>
<trkpt lat="43.1090700" lon="-2.9953400">
<ele>167.883835</ele>
<time>2010-06-22T07:00:35.997Z</time>
</trkpt>
<trkpt lat="43.1090300" lon="-2.9952200">
<ele>166.938965</ele>
<time>2010-06-22T07:00:43.004Z</time>
</trkpt>
<trkpt lat="43.1089800" lon="-2.9951000">
<ele>166.938965</ele>
<time>2010-06-22T07:00:50.003Z</time>
</trkpt>
<trkpt lat="43.1089100" lon="-2.9950200">
<ele>165.963593</ele>
<time>2010-06-22T07:00:57.001Z</time>
</trkpt>
<trkpt lat="43.1088000" lon="-2.9950000">
<ele>164.531036</ele>
<time>2010-06-22T07:01:03.999Z</time>
</trkpt>
<trkpt lat="43.1087000" lon="-2.9949900">
<ele>164.043365</ele>
<time>2010-06-22T07:01:10.004Z</time>
</trkpt>
<trkpt lat="43.1086000" lon="-2.9949900">
<ele>164.531036</ele>
<time>2010-06-22T07:01:16.000Z</time>
</trkpt>
<trkpt lat="43.1084900" lon="-2.9949600">
<ele>164.531036</ele>
<time>2010-06-22T07:01:22.999Z</time>
</trkpt>
<trkpt lat="43.1084000" lon="-2.9949500">
<ele>164.988235</ele>
<time>2010-06-22T07:01:29.997Z</time>
</trkpt>
<trkpt lat="43.1083000" lon="-2.9949000">
<ele>165.475922</ele>
<time>2010-06-22T07:01:37.998Z</time>
</trkpt>
<trkpt lat="43.1082100" lon="-2.9948300">
<ele>165.475922</ele>
<time>2010-06-22T07:01:44.996Z</time>
</trkpt>
<trkpt lat="43.1081400" lon="-2.9947300">
<ele>165.475922</ele>
<time>2010-06-22T07:01:52.003Z</time>
</trkpt>
<trkpt lat="43.1081000" lon="-2.9946100">
<ele>164.531036</ele>
<time>2010-06-22T07:01:59.002Z</time>
</trkpt>
<trkpt lat="43.1080700" lon="-2.9945100">
<ele>164.531036</ele>
<time>2010-06-22T07:02:07.996Z</time>
</trkpt>
<trkpt lat="43.1080400" lon="-2.9943600">
<ele>165.963593</ele>
<time>2010-06-22T07:02:16.999Z</time>
</trkpt>
<trkpt lat="43.1079900" lon="-2.9942400">
<ele>166.451279</ele>
<time>2010-06-22T07:02:24.999Z</time>
</trkpt>
<trkpt lat="43.1079700" lon="-2.9941200">
<ele>166.451279</ele>
<time>2010-06-22T07:02:31.998Z</time>
</trkpt>
<trkpt lat="43.1079500" lon="-2.9940000">
<ele>167.883835</ele>
<time>2010-06-22T07:02:38.996Z</time>
</trkpt>
<trkpt lat="43.1079100" lon="-2.9938700">
<ele>168.371521</ele>
<time>2010-06-22T07:02:46.997Z</time>
</trkpt>
<trkpt lat="43.1078800" lon="-2.9937500">
<ele>169.316406</ele>
<time>2010-06-22T07:02:54.004Z</time>
</trkpt>
<trkpt lat="43.1078400" lon="-2.9936200">
<ele>170.291763</ele>
<time>2010-06-22T07:03:01.002Z</time>
</trkpt>
<trkpt lat="43.1077900" lon="-2.9934900">
<ele>171.267120</ele>
<time>2010-06-22T07:03:09.003Z</time>
</trkpt>
<trkpt lat="43.1077400" lon="-2.9933500">
<ele>171.267120</ele>
<time>2010-06-22T07:03:17.004Z</time>
</trkpt>
<trkpt lat="43.1076900" lon="-2.9932200">
<ele>171.267120</ele>
<time>2010-06-22T07:03:24.002Z</time>
</trkpt>
<trkpt lat="43.1076600" lon="-2.9931000">
<ele>171.724335</ele>
<time>2010-06-22T07:03:31.000Z</time>
</trkpt>
<trkpt lat="43.1076500" lon="-2.9929500">
<ele>172.699677</ele>
<time>2010-06-22T07:03:37.999Z</time>
</trkpt>
<trkpt lat="43.1076300" lon="-2.9928100">
<ele>173.644562</ele>
<time>2010-06-22T07:03:44.997Z</time>
</trkpt>
<trkpt lat="43.1076100" lon="-2.9926700">
<ele>174.619934</ele>
<time>2010-06-22T07:03:52.004Z</time>
</trkpt>
<trkpt lat="43.1075600" lon="-2.9925500">
<ele>175.107605</ele>
<time>2010-06-22T07:03:59.003Z</time>
</trkpt>
<trkpt lat="43.1074500" lon="-2.9924700">
<ele>176.052475</ele>
<time>2010-06-22T07:04:07.003Z</time>
</trkpt>
<trkpt lat="43.1073300" lon="-2.9924000">
<ele>175.564804</ele>
<time>2010-06-22T07:04:14.002Z</time>
</trkpt>
<trkpt lat="43.1072300" lon="-2.9923500">
<ele>176.540161</ele>
<time>2010-06-22T07:04:21.000Z</time>
</trkpt>
<trkpt lat="43.1071200" lon="-2.9923000">
<ele>176.540161</ele>
<time>2010-06-22T07:04:27.998Z</time>
</trkpt>
<trkpt lat="43.1070200" lon="-2.9922600">
<ele>177.515533</ele>
<time>2010-06-22T07:04:34.997Z</time>
</trkpt>
<trkpt lat="43.1069200" lon="-2.9922400">
<ele>178.460403</ele>
<time>2010-06-22T07:04:42.997Z</time>
</trkpt>
<trkpt lat="43.1068300" lon="-2.9922500">
<ele>180.380630</ele>
<time>2010-06-22T07:04:53.003Z</time>
</trkpt>
<trkpt lat="43.1067400" lon="-2.9922200">
<ele>181.356003</ele>
<time>2010-06-22T07:05:01.997Z</time>
</trkpt>
<trkpt lat="43.1066600" lon="-2.9921400">
<ele>182.788559</ele>
<time>2010-06-22T07:05:11.000Z</time>
</trkpt>
<trkpt lat="43.1066000" lon="-2.9920400">
<ele>183.276230</ele>
<time>2010-06-22T07:05:19.000Z</time>
</trkpt>
<trkpt lat="43.1065500" lon="-2.9919200">
<ele>185.196472</ele>
<time>2010-06-22T07:05:27.001Z</time>
</trkpt>
<trkpt lat="43.1065000" lon="-2.9918100">
<ele>186.629044</ele>
<time>2010-06-22T07:05:36.004Z</time>
</trkpt>
<trkpt lat="43.1064600" lon="-2.9916900">
<ele>188.549271</ele>
<time>2010-06-22T07:05:46.000Z</time>
</trkpt>
<trkpt lat="43.1064400" lon="-2.9915600">
<ele>190.957199</ele>
<time>2010-06-22T07:05:55.003Z</time>
</trkpt>
<trkpt lat="43.1063800" lon="-2.9914400">
<ele>193.365128</ele>
<time>2010-06-22T07:06:03.997Z</time>
</trkpt>
<trkpt lat="43.1063100" lon="-2.9913400">
<ele>194.797668</ele>
<time>2010-06-22T07:06:13.000Z</time>
</trkpt>
<trkpt lat="43.1062600" lon="-2.9912200">
<ele>196.717926</ele>
<time>2010-06-22T07:06:22.003Z</time>
</trkpt>
<trkpt lat="43.1062000" lon="-2.9911200">
<ele>197.693268</ele>
<time>2010-06-22T07:06:30.004Z</time>
</trkpt>
<trkpt lat="43.1061500" lon="-2.9910100">
<ele>199.125839</ele>
<time>2010-06-22T07:06:37.996Z</time>
</trkpt>
<trkpt lat="43.1060900" lon="-2.9908900">
<ele>200.558395</ele>
<time>2010-06-22T07:06:46.999Z</time>
</trkpt>
<trkpt lat="43.1060600" lon="-2.9907700">
<ele>202.021439</ele>
<time>2010-06-22T07:06:54.999Z</time>
</trkpt>
<trkpt lat="43.1060200" lon="-2.9906400">
<ele>202.966324</ele>
<time>2010-06-22T07:07:03.000Z</time>
</trkpt>
<trkpt lat="43.1060000" lon="-2.9905100">
<ele>203.941666</ele>
<time>2010-06-22T07:07:11.001Z</time>
</trkpt>
<trkpt lat="43.1059700" lon="-2.9903800">
<ele>205.861923</ele>
<time>2010-06-22T07:07:20.004Z</time>
</trkpt>
<trkpt lat="43.1059500" lon="-2.9902500">
<ele>208.269836</ele>
<time>2010-06-22T07:07:30.000Z</time>
</trkpt>
<trkpt lat="43.1059100" lon="-2.9901200">
<ele>211.134964</ele>
<time>2010-06-22T07:07:40.999Z</time>
</trkpt>
<trkpt lat="43.1059500" lon="-2.9900000">
<ele>213.542877</ele>
<time>2010-06-22T07:07:51.997Z</time>
</trkpt>
<trkpt lat="43.1060500" lon="-2.9899800">
<ele>215.463135</ele>
<time>2010-06-22T07:08:01.000Z</time>
</trkpt>
<trkpt lat="43.1061200" lon="-2.9900400">
<ele>217.383362</ele>
<time>2010-06-22T07:08:10.003Z</time>
</trkpt>
<trkpt lat="43.1062000" lon="-2.9901300">
<ele>219.303604</ele>
<time>2010-06-22T07:08:18.997Z</time>
</trkpt>
<trkpt lat="43.1062700" lon="-2.9902200">
<ele>221.711533</ele>
<time>2010-06-22T07:08:26.998Z</time>
</trkpt>
<trkpt lat="43.1063500" lon="-2.9902900">
<ele>222.686874</ele>
<time>2010-06-22T07:08:36.001Z</time>
</trkpt>
<trkpt lat="43.1064700" lon="-2.9903300">
<ele>225.552002</ele>
<time>2010-06-22T07:08:47.000Z</time>
</trkpt>
<trkpt lat="43.1065800" lon="-2.9903900">
<ele>227.502731</ele>
<time>2010-06-22T07:08:57.998Z</time>
</trkpt>
<trkpt lat="43.1066900" lon="-2.9904200">
<ele>229.880157</ele>
<time>2010-06-22T07:09:08.997Z</time>
</trkpt>
<trkpt lat="43.1068100" lon="-2.9904400">
<ele>232.288071</ele>
<time>2010-06-22T07:09:19.996Z</time>
</trkpt>
<trkpt lat="43.1069000" lon="-2.9903500">
<ele>234.695999</ele>
<time>2010-06-22T07:09:30.001Z</time>
</trkpt>
<trkpt lat="43.1068900" lon="-2.9902100">
<ele>238.048798</ele>
<time>2010-06-22T07:09:41.000Z</time>
</trkpt>
<trkpt lat="43.1069000" lon="-2.9900600">
<ele>240.456726</ele>
<time>2010-06-22T07:09:51.998Z</time>
</trkpt>
<trkpt lat="43.1069400" lon="-2.9899100">
<ele>243.352325</ele>
<time>2010-06-22T07:10:02.997Z</time>
</trkpt>
<trkpt lat="43.1070000" lon="-2.9898000">
<ele>245.760239</ele>
<time>2010-06-22T07:10:13.002Z</time>
</trkpt>
<trkpt lat="43.1070500" lon="-2.9896800">
<ele>246.247925</ele>
<time>2010-06-22T07:10:21.003Z</time>
</trkpt>
<trkpt lat="43.1070800" lon="-2.9895300">
<ele>247.192795</ele>
<time>2010-06-22T07:10:29.997Z</time>
</trkpt>
<trkpt lat="43.1071100" lon="-2.9893700">
<ele>248.625366</ele>
<time>2010-06-22T07:10:39.000Z</time>
</trkpt>
<trkpt lat="43.1071300" lon="-2.9892200">
<ele>250.545593</ele>
<time>2010-06-22T07:10:48.003Z</time>
</trkpt>
<trkpt lat="43.1071500" lon="-2.9890700">
<ele>252.008636</ele>
<time>2010-06-22T07:10:56.997Z</time>
</trkpt>
<trkpt lat="43.1071600" lon="-2.9889100">
<ele>252.496323</ele>
<time>2010-06-22T07:11:06.000Z</time>
</trkpt>
<trkpt lat="43.1071600" lon="-2.9887400">
<ele>254.873764</ele>
<time>2010-06-22T07:11:15.996Z</time>
</trkpt>
<trkpt lat="43.1071400" lon="-2.9885800">
<ele>255.849121</ele>
<time>2010-06-22T07:11:24.999Z</time>
</trkpt>
<trkpt lat="43.1070900" lon="-2.9884400">
<ele>258.257050</ele>
<time>2010-06-22T07:11:34.996Z</time>
</trkpt>
<trkpt lat="43.1070700" lon="-2.9882900">
<ele>260.664978</ele>
<time>2010-06-22T07:11:46.003Z</time>
</trkpt>
<trkpt lat="43.1070500" lon="-2.9881600">
<ele>263.072876</ele>
<time>2010-06-22T07:12:05.996Z</time>
</trkpt>
<trkpt lat="43.1070000" lon="-2.9879800">
<ele>265.937988</ele>
<time>2010-06-22T07:12:23.000Z</time>
</trkpt>
<trkpt lat="43.1069700" lon="-2.9878400">
<ele>267.370575</ele>
<time>2010-06-22T07:12:31.000Z</time>
</trkpt>
<trkpt lat="43.1069400" lon="-2.9877100">
<ele>267.858246</ele>
<time>2010-06-22T07:12:37.999Z</time>
</trkpt>
<trkpt lat="43.1069100" lon="-2.9875700">
<ele>267.858246</ele>
<time>2010-06-22T07:12:44.997Z</time>
</trkpt>
<trkpt lat="43.1068700" lon="-2.9874400">
<ele>267.858246</ele>
<time>2010-06-22T07:12:52.004Z</time>
</trkpt>
<trkpt lat="43.1068000" lon="-2.9872600">
<ele>268.833588</ele>
<time>2010-06-22T07:13:07.003Z</time>
</trkpt>
<trkpt lat="43.1067400" lon="-2.9871400">
<ele>269.321259</ele>
<time>2010-06-22T07:14:09.997Z</time>
</trkpt>
<trkpt lat="43.1067000" lon="-2.9870200">
<ele>270.266174</ele>
<time>2010-06-22T07:14:17.998Z</time>
</trkpt>
<trkpt lat="43.1066300" lon="-2.9869100">
<ele>271.241516</ele>
<time>2010-06-22T07:14:25.999Z</time>
</trkpt>
<trkpt lat="43.1065400" lon="-2.9868300">
<ele>272.186401</ele>
<time>2010-06-22T07:14:33.999Z</time>
</trkpt>
<trkpt lat="43.1064500" lon="-2.9867400">
<ele>272.674072</ele>
<time>2010-06-22T07:14:42.000Z</time>
</trkpt>
<trkpt lat="43.1063800" lon="-2.9866400">
<ele>273.161774</ele>
<time>2010-06-22T07:14:48.998Z</time>
</trkpt>
<trkpt lat="43.1063200" lon="-2.9865000">
<ele>275.082001</ele>
<time>2010-06-22T07:14:58.001Z</time>
</trkpt>
<trkpt lat="43.1062900" lon="-2.9863300">
<ele>277.002228</ele>
<time>2010-06-22T07:15:09.000Z</time>
</trkpt>
<trkpt lat="43.1062600" lon="-2.9861700">
<ele>279.410156</ele>
<time>2010-06-22T07:15:18.003Z</time>
</trkpt>
<trkpt lat="43.1062200" lon="-2.9859800">
<ele>281.818085</ele>
<time>2010-06-22T07:15:30.997Z</time>
</trkpt>
<trkpt lat="43.1061900" lon="-2.9857900">
<ele>285.170868</ele>
<time>2010-06-22T07:15:44.001Z</time>
</trkpt>
<trkpt lat="43.1062100" lon="-2.9856200">
<ele>287.091125</ele>
<time>2010-06-22T07:15:54.999Z</time>
</trkpt>
<trkpt lat="43.1063100" lon="-2.9856700">
<ele>289.011353</ele>
<time>2010-06-22T07:16:05.998Z</time>
</trkpt>
<trkpt lat="43.1064000" lon="-2.9857500">
<ele>289.986725</ele>
<time>2010-06-22T07:16:15.001Z</time>
</trkpt>
<trkpt lat="43.1064900" lon="-2.9858300">
<ele>290.443939</ele>
<time>2010-06-22T07:16:23.002Z</time>
</trkpt>
<trkpt lat="43.1065700" lon="-2.9859200">
<ele>290.443939</ele>
<time>2010-06-22T07:16:30.000Z</time>
</trkpt>
<trkpt lat="43.1066600" lon="-2.9860300">
<ele>290.931610</ele>
<time>2010-06-22T07:16:38.001Z</time>
</trkpt>
<trkpt lat="43.1067500" lon="-2.9861400">
<ele>291.906952</ele>
<time>2010-06-22T07:16:46.001Z</time>
</trkpt>
<trkpt lat="43.1068300" lon="-2.9862600">
<ele>293.339539</ele>
<time>2010-06-22T07:16:55.004Z</time>
</trkpt>
<trkpt lat="43.1069100" lon="-2.9863700">
<ele>294.772064</ele>
<time>2010-06-22T07:17:02.996Z</time>
</trkpt>
<trkpt lat="43.1069800" lon="-2.9864700">
<ele>296.235138</ele>
<time>2010-06-22T07:17:10.997Z</time>
</trkpt>
<trkpt lat="43.1070600" lon="-2.9866000">
<ele>297.179993</ele>
<time>2010-06-22T07:17:18.997Z</time>
</trkpt>
<trkpt lat="43.1071100" lon="-2.9867200">
<ele>297.667664</ele>
<time>2010-06-22T07:17:25.996Z</time>
</trkpt>
<trkpt lat="43.1071700" lon="-2.9868700">
<ele>297.667664</ele>
<time>2010-06-22T07:17:33.003Z</time>
</trkpt>
<trkpt lat="43.1072300" lon="-2.9869800">
<ele>297.667664</ele>
<time>2010-06-22T07:17:38.999Z</time>
</trkpt>
<trkpt lat="43.1073000" lon="-2.9870800">
<ele>298.612549</ele>
<time>2010-06-22T07:17:45.004Z</time>
</trkpt>
<trkpt lat="43.1073700" lon="-2.9871800">
<ele>299.100250</ele>
<time>2010-06-22T07:17:52.002Z</time>
</trkpt>
<trkpt lat="43.1074400" lon="-2.9872800">
<ele>299.100250</ele>
<time>2010-06-22T07:17:59.001Z</time>
</trkpt>
<trkpt lat="43.1075000" lon="-2.9874200">
<ele>299.100250</ele>
<time>2010-06-22T07:18:05.999Z</time>
</trkpt>
<trkpt lat="43.1075700" lon="-2.9875200">
<ele>299.100250</ele>
<time>2010-06-22T07:18:12.997Z</time>
</trkpt>
<trkpt lat="43.1076500" lon="-2.9876300">
<ele>299.587921</ele>
<time>2010-06-22T07:18:19.996Z</time>
</trkpt>
<trkpt lat="43.1077300" lon="-2.9877300">
<ele>300.075592</ele>
<time>2010-06-22T07:18:27.003Z</time>
</trkpt>
<trkpt lat="43.1078100" lon="-2.9878300">
<ele>300.563263</ele>
<time>2010-06-22T07:18:34.001Z</time>
</trkpt>
<trkpt lat="43.1078900" lon="-2.9879300">
<ele>302.483521</ele>
<time>2010-06-22T07:18:42.002Z</time>
</trkpt>
<trkpt lat="43.1079600" lon="-2.9880500">
<ele>302.940735</ele>
<time>2010-06-22T07:18:50.003Z</time>
</trkpt>
<trkpt lat="43.1080500" lon="-2.9881400">
<ele>303.916077</ele>
<time>2010-06-22T07:18:58.003Z</time>
</trkpt>
<trkpt lat="43.1081300" lon="-2.9882400">
<ele>303.916077</ele>
<time>2010-06-22T07:19:05.002Z</time>
</trkpt>
<trkpt lat="43.1081900" lon="-2.9883800">
<ele>304.403778</ele>
<time>2010-06-22T07:19:13.002Z</time>
</trkpt>
<trkpt lat="43.1082900" lon="-2.9884500">
<ele>306.324005</ele>
<time>2010-06-22T07:19:21.996Z</time>
</trkpt>
<trkpt lat="43.1084200" lon="-2.9884600">
<ele>308.731934</ele>
<time>2010-06-22T07:19:33.004Z</time>
</trkpt>
<trkpt lat="43.1085400" lon="-2.9884100">
<ele>310.652161</ele>
<time>2010-06-22T07:19:44.003Z</time>
</trkpt>
<trkpt lat="43.1086600" lon="-2.9883400">
<ele>312.572388</ele>
<time>2010-06-22T07:19:52.997Z</time>
</trkpt>
<trkpt lat="43.1087600" lon="-2.9882800">
<ele>314.980316</ele>
<time>2010-06-22T07:20:00.997Z</time>
</trkpt>
<trkpt lat="43.1088800" lon="-2.9882200">
<ele>316.900543</ele>
<time>2010-06-22T07:20:10.000Z</time>
</trkpt>
<trkpt lat="43.1089700" lon="-2.9881500">
<ele>320.253357</ele>
<time>2010-06-22T07:20:19.997Z</time>
</trkpt>
<trkpt lat="43.1089700" lon="-2.9880200">
<ele>322.173615</ele>
<time>2010-06-22T07:20:31.004Z</time>
</trkpt>
<trkpt lat="43.1089800" lon="-2.9878900">
<ele>325.556885</ele>
<time>2010-06-22T07:20:43.999Z</time>
</trkpt>
<trkpt lat="43.1090000" lon="-2.9877500">
<ele>327.934326</ele>
<time>2010-06-22T07:20:56.000Z</time>
</trkpt>
<trkpt lat="43.1090100" lon="-2.9876200">
<ele>331.805267</ele>
<time>2010-06-22T07:21:05.996Z</time>
</trkpt>
<trkpt lat="43.1090100" lon="-2.9874900">
<ele>333.725525</ele>
<time>2010-06-22T07:21:45.999Z</time>
</trkpt>
<trkpt lat="43.1090200" lon="-2.9873600">
<ele>336.590668</ele>
<time>2010-06-22T07:21:56.998Z</time>
</trkpt>
<trkpt lat="43.1090200" lon="-2.9872300">
<ele>339.973938</ele>
<time>2010-06-22T07:22:06.001Z</time>
</trkpt>
<trkpt lat="43.1090100" lon="-2.9871000">
<ele>342.381866</ele>
<time>2010-06-22T07:22:15.997Z</time>
</trkpt>
<trkpt lat="43.1090100" lon="-2.9869800">
<ele>345.246948</ele>
<time>2010-06-22T07:22:26.996Z</time>
</trkpt>
<trkpt lat="43.1090100" lon="-2.9868300">
<ele>349.087463</ele>
<time>2010-06-22T07:22:38.997Z</time>
</trkpt>
<trkpt lat="43.1090200" lon="-2.9866900">
<ele>351.983063</ele>
<time>2010-06-22T07:22:49.002Z</time>
</trkpt>
<trkpt lat="43.1090200" lon="-2.9865500">
<ele>354.878662</ele>
<time>2010-06-22T07:22:58.999Z</time>
</trkpt>
<trkpt lat="43.1090000" lon="-2.9864200">
<ele>357.256073</ele>
<time>2010-06-22T07:23:09.997Z</time>
</trkpt>
<trkpt lat="43.1089700" lon="-2.9862800">
<ele>360.151672</ele>
<time>2010-06-22T07:23:21.998Z</time>
</trkpt>
<trkpt lat="43.1089500" lon="-2.9861500">
<ele>363.504486</ele>
<time>2010-06-22T07:23:33.999Z</time>
</trkpt>
<trkpt lat="43.1089700" lon="-2.9860200">
<ele>366.887756</ele>
<time>2010-06-22T07:23:44.998Z</time>
</trkpt>
<trkpt lat="43.1090200" lon="-2.9858900">
<ele>368.320313</ele>
<time>2010-06-22T07:23:55.003Z</time>
</trkpt>
<trkpt lat="43.1090900" lon="-2.9857800">
<ele>370.240540</ele>
<time>2010-06-22T07:24:03.004Z</time>
</trkpt>
<trkpt lat="43.1091600" lon="-2.9856800">
<ele>372.160797</ele>
<time>2010-06-22T07:24:11.998Z</time>
</trkpt>
<trkpt lat="43.1092000" lon="-2.9855600">
<ele>375.056396</ele>
<time>2010-06-22T07:24:21.001Z</time>
</trkpt>
<trkpt lat="43.1092500" lon="-2.9854400">
<ele>376.488953</ele>
<time>2010-06-22T07:24:29.002Z</time>
</trkpt>
<trkpt lat="43.1093000" lon="-2.9853200">
<ele>378.896881</ele>
<time>2010-06-22T07:24:37.996Z</time>
</trkpt>
<trkpt lat="43.1093300" lon="-2.9852000">
<ele>382.249664</ele>
<time>2010-06-22T07:24:48.001Z</time>
</trkpt>
<trkpt lat="43.1093300" lon="-2.9850600">
<ele>385.632935</ele>
<time>2010-06-22T07:25:00.002Z</time>
</trkpt>
<trkpt lat="43.1093300" lon="-2.9849300">
<ele>388.498077</ele>
<time>2010-06-22T07:25:12.003Z</time>
</trkpt>
<trkpt lat="43.1093100" lon="-2.9848000">
<ele>391.393677</ele>
<time>2010-06-22T07:25:23.002Z</time>
</trkpt>
<trkpt lat="43.1093100" lon="-2.9846800">
<ele>394.289276</ele>
<time>2010-06-22T07:25:32.998Z</time>
</trkpt>
<trkpt lat="43.1093000" lon="-2.9845500">
<ele>397.154388</ele>
<time>2010-06-22T07:25:43.003Z</time>
</trkpt>
<trkpt lat="43.1092900" lon="-2.9844300">
<ele>400.049988</ele>
<time>2010-06-22T07:25:53.000Z</time>
</trkpt>
<trkpt lat="43.1092800" lon="-2.9843000">
<ele>402.457916</ele>
<time>2010-06-22T07:26:03.998Z</time>
</trkpt>
<trkpt lat="43.1092700" lon="-2.9841700">
<ele>405.323059</ele>
<time>2010-06-22T07:26:14.997Z</time>
</trkpt>
<trkpt lat="43.1092500" lon="-2.9840300">
<ele>408.706329</ele>
<time>2010-06-22T07:26:25.996Z</time>
</trkpt>
<trkpt lat="43.1092500" lon="-2.9839000">
<ele>411.114258</ele>
<time>2010-06-22T07:26:37.003Z</time>
</trkpt>
<trkpt lat="43.1092500" lon="-2.9837800">
<ele>413.979340</ele>
<time>2010-06-22T07:26:48.002Z</time>
</trkpt>
<trkpt lat="43.1092600" lon="-2.9836400">
<ele>416.874939</ele>
<time>2010-06-22T07:27:00.003Z</time>
</trkpt>
<trkpt lat="43.1092700" lon="-2.9835200">
<ele>419.740082</ele>
<time>2010-06-22T07:27:11.002Z</time>
</trkpt>
<trkpt lat="43.1093000" lon="-2.9834000">
<ele>421.660339</ele>
<time>2010-06-22T07:27:22.000Z</time>
</trkpt>
<trkpt lat="43.1093400" lon="-2.9832800">
<ele>425.043610</ele>
<time>2010-06-22T07:27:31.997Z</time>
</trkpt>
<trkpt lat="43.1093800" lon="-2.9831600">
<ele>426.963867</ele>
<time>2010-06-22T07:27:42.002Z</time>
</trkpt>
<trkpt lat="43.1094100" lon="-2.9830500">
<ele>429.371735</ele>
<time>2010-06-22T07:27:51.998Z</time>
</trkpt>
<trkpt lat="43.1094200" lon="-2.9829400">
<ele>431.779663</ele>
<time>2010-06-22T07:28:02.004Z</time>
</trkpt>
<trkpt lat="43.1094500" lon="-2.9828400">
<ele>434.644806</ele>
<time>2010-06-22T07:28:13.002Z</time>
</trkpt>
<trkpt lat="43.1094700" lon="-2.9827200">
<ele>438.028076</ele>
<time>2010-06-22T07:28:24.001Z</time>
</trkpt>
<trkpt lat="43.1094900" lon="-2.9826100">
<ele>440.436005</ele>
<time>2010-06-22T07:28:35.000Z</time>
</trkpt>
<trkpt lat="43.1094700" lon="-2.9824800">
<ele>443.788788</ele>
<time>2010-06-22T07:28:45.998Z</time>
</trkpt>
<trkpt lat="43.1094500" lon="-2.9823600">
<ele>446.684387</ele>
<time>2010-06-22T07:28:57.999Z</time>
</trkpt>
<trkpt lat="43.1094100" lon="-2.9822400">
<ele>449.549530</ele>
<time>2010-06-22T07:29:07.996Z</time>
</trkpt>
<trkpt lat="43.1093700" lon="-2.9821300">
<ele>452.445129</ele>
<time>2010-06-22T07:29:19.003Z</time>
</trkpt>
<trkpt lat="43.1093200" lon="-2.9820200">
<ele>455.310242</ele>
<time>2010-06-22T07:29:30.002Z</time>
</trkpt>
<trkpt lat="43.1092800" lon="-2.9819100">
<ele>458.205841</ele>
<time>2010-06-22T07:29:41.001Z</time>
</trkpt>
<trkpt lat="43.1092300" lon="-2.9818100">
<ele>462.046326</ele>
<time>2010-06-22T07:29:51.999Z</time>
</trkpt>
<trkpt lat="43.1091700" lon="-2.9816900">
<ele>463.966553</ele>
<time>2010-06-22T07:30:02.998Z</time>
</trkpt>
<trkpt lat="43.1091300" lon="-2.9815800">
<ele>466.374481</ele>
<time>2010-06-22T07:30:12.001Z</time>
</trkpt>
<trkpt lat="43.1090600" lon="-2.9814900">
<ele>468.294739</ele>
<time>2010-06-22T07:30:21.004Z</time>
</trkpt>
<trkpt lat="43.1090100" lon="-2.9813800">
<ele>469.727264</ele>
<time>2010-06-22T07:30:29.998Z</time>
</trkpt>
<trkpt lat="43.1089500" lon="-2.9812700">
<ele>471.678009</ele>
<time>2010-06-22T07:30:39.001Z</time>
</trkpt>
<trkpt lat="43.1089000" lon="-2.9811500">
<ele>473.598267</ele>
<time>2010-06-22T07:30:47.002Z</time>
</trkpt>
<trkpt lat="43.1088600" lon="-2.9810300">
<ele>476.463348</ele>
<time>2010-06-22T07:30:55.996Z</time>
</trkpt>
<trkpt lat="43.1088200" lon="-2.9809200">
<ele>476.951050</ele>
<time>2010-06-22T07:31:03.996Z</time>
</trkpt>
<trkpt lat="43.1087800" lon="-2.9807900">
<ele>479.846649</ele>
<time>2010-06-22T07:31:12.999Z</time>
</trkpt>
<trkpt lat="43.1087500" lon="-2.9806600">
<ele>481.279205</ele>
<time>2010-06-22T07:31:22.002Z</time>
</trkpt>
<trkpt lat="43.1087200" lon="-2.9805300">
<ele>483.687134</ele>
<time>2010-06-22T07:31:30.996Z</time>
</trkpt>
<trkpt lat="43.1087100" lon="-2.9804000">
<ele>486.095062</ele>
<time>2010-06-22T07:31:39.999Z</time>
</trkpt>
<trkpt lat="43.1087000" lon="-2.9802700">
<ele>488.015259</ele>
<time>2010-06-22T07:31:49.002Z</time>
</trkpt>
<trkpt lat="43.1087100" lon="-2.9801400">
<ele>490.880402</ele>
<time>2010-06-22T07:31:57.996Z</time>
</trkpt>
<trkpt lat="43.1087300" lon="-2.9800100">
<ele>493.776001</ele>
<time>2010-06-22T07:32:08.002Z</time>
</trkpt>
<trkpt lat="43.1087600" lon="-2.9798900">
<ele>496.183929</ele>
<time>2010-06-22T07:32:17.998Z</time>
</trkpt>
<trkpt lat="43.1087800" lon="-2.9797500">
<ele>498.591858</ele>
<time>2010-06-22T07:32:28.003Z</time>
</trkpt>
<trkpt lat="43.1088000" lon="-2.9796300">
<ele>500.969269</ele>
<time>2010-06-22T07:32:36.997Z</time>
</trkpt>
<trkpt lat="43.1088100" lon="-2.9794900">
<ele>502.920013</ele>
<time>2010-06-22T07:32:44.998Z</time>
</trkpt>
<trkpt lat="43.1088200" lon="-2.9793700">
<ele>503.864868</ele>
<time>2010-06-22T07:32:51.996Z</time>
</trkpt>
<trkpt lat="43.1088100" lon="-2.9792400">
<ele>503.864868</ele>
<time>2010-06-22T07:32:59.004Z</time>
</trkpt>
<trkpt lat="43.1087900" lon="-2.9791000">
<ele>503.864868</ele>
<time>2010-06-22T07:33:06.002Z</time>
</trkpt>
<trkpt lat="43.1087700" lon="-2.9789700">
<ele>503.864868</ele>
<time>2010-06-22T07:33:13.000Z</time>
</trkpt>
<trkpt lat="43.1087500" lon="-2.9788300">
<ele>503.864868</ele>
<time>2010-06-22T07:33:19.999Z</time>
</trkpt>
<trkpt lat="43.1087300" lon="-2.9787000">
<ele>503.864868</ele>
<time>2010-06-22T07:33:26.997Z</time>
</trkpt>
<trkpt lat="43.1087200" lon="-2.9785700">
<ele>503.377197</ele>
<time>2010-06-22T07:33:33.002Z</time>
</trkpt>
<trkpt lat="43.1087300" lon="-2.9784500">
<ele>502.920013</ele>
<time>2010-06-22T07:33:38.998Z</time>
</trkpt>
<trkpt lat="43.1087500" lon="-2.9783100">
<ele>504.352539</ele>
<time>2010-06-22T07:33:45.996Z</time>
</trkpt>
<trkpt lat="43.1087600" lon="-2.9781800">
<ele>504.352539</ele>
<time>2010-06-22T07:33:53.004Z</time>
</trkpt>
<trkpt lat="43.1087700" lon="-2.9780500">
<ele>505.785126</ele>
<time>2010-06-22T07:34:00.002Z</time>
</trkpt>
<trkpt lat="43.1087800" lon="-2.9779200">
<ele>508.193054</ele>
<time>2010-06-22T07:34:08.996Z</time>
</trkpt>
<trkpt lat="43.1087900" lon="-2.9777900">
<ele>509.625610</ele>
<time>2010-06-22T07:34:17.999Z</time>
</trkpt>
<trkpt lat="43.1087900" lon="-2.9776500">
<ele>511.545868</ele>
<time>2010-06-22T07:34:27.002Z</time>
</trkpt>
<trkpt lat="43.1087900" lon="-2.9775200">
<ele>514.441467</ele>
<time>2010-06-22T07:34:35.996Z</time>
</trkpt>
<trkpt lat="43.1088000" lon="-2.9773900">
<ele>515.874023</ele>
<time>2010-06-22T07:34:43.997Z</time>
</trkpt>
<trkpt lat="43.1088200" lon="-2.9772500">
<ele>517.794250</ele>
<time>2010-06-22T07:34:53.000Z</time>
</trkpt>
<trkpt lat="43.1088300" lon="-2.9771200">
<ele>520.202148</ele>
<time>2010-06-22T07:35:02.003Z</time>
</trkpt>
<trkpt lat="43.1088600" lon="-2.9769900">
<ele>522.610046</ele>
<time>2010-06-22T07:35:10.997Z</time>
</trkpt>
<trkpt lat="43.1088900" lon="-2.9768600">
<ele>525.018005</ele>
<time>2010-06-22T07:35:21.002Z</time>
</trkpt>
<trkpt lat="43.1089200" lon="-2.9767400">
<ele>526.450562</ele>
<time>2010-06-22T07:35:30.998Z</time>
</trkpt>
<trkpt lat="43.1089400" lon="-2.9766200">
<ele>529.346130</ele>
<time>2010-06-22T07:35:40.001Z</time>
</trkpt>
<trkpt lat="43.1089600" lon="-2.9764800">
<ele>530.778748</ele>
<time>2010-06-22T07:35:49.004Z</time>
</trkpt>
<trkpt lat="43.1089700" lon="-2.9763500">
<ele>532.241760</ele>
<time>2010-06-22T07:35:57.998Z</time>
</trkpt>
<trkpt lat="43.1089500" lon="-2.9762300">
<ele>533.674316</ele>
<time>2010-06-22T07:36:12.997Z</time>
</trkpt>
<trkpt lat="43.1089300" lon="-2.9761300">
<ele>533.674316</ele>
<time>2010-06-22T07:36:27.003Z</time>
</trkpt>
<trkpt lat="43.1088900" lon="-2.9760000">
<ele>533.186646</ele>
<time>2010-06-22T07:36:34.001Z</time>
</trkpt>
<trkpt lat="43.1088700" lon="-2.9758600">
<ele>532.698975</ele>
<time>2010-06-22T07:36:41.000Z</time>
</trkpt>
<trkpt lat="43.1088700" lon="-2.9757300">
<ele>532.241760</ele>
<time>2010-06-22T07:36:47.998Z</time>
</trkpt>
<trkpt lat="43.1088700" lon="-2.9756000">
<ele>531.754089</ele>
<time>2010-06-22T07:36:54.003Z</time>
</trkpt>
<trkpt lat="43.1088800" lon="-2.9754800">
<ele>532.241760</ele>
<time>2010-06-22T07:36:59.999Z</time>
</trkpt>
<trkpt lat="43.1088700" lon="-2.9753400">
<ele>532.698975</ele>
<time>2010-06-22T07:37:06.997Z</time>
</trkpt>
<trkpt lat="43.1088700" lon="-2.9752000">
<ele>533.674316</ele>
<time>2010-06-22T07:37:13.996Z</time>
</trkpt>
<trkpt lat="43.1088700" lon="-2.9750700">
<ele>533.674316</ele>
<time>2010-06-22T07:37:21.003Z</time>
</trkpt>
<trkpt lat="43.1088600" lon="-2.9749400">
<ele>534.619202</ele>
<time>2010-06-22T07:37:28.001Z</time>
</trkpt>
<trkpt lat="43.1088500" lon="-2.9748000">
<ele>536.539429</ele>
<time>2010-06-22T07:37:36.002Z</time>
</trkpt>
<trkpt lat="43.1088900" lon="-2.9746900">
<ele>536.539429</ele>
<time>2010-06-22T07:37:45.998Z</time>
</trkpt>
<trkpt lat="43.1089400" lon="-2.9745700">
<ele>539.922729</ele>
<time>2010-06-22T07:37:56.997Z</time>
</trkpt>
<trkpt lat="43.1089800" lon="-2.9744600">
<ele>542.330627</ele>
<time>2010-06-22T07:38:08.998Z</time>
</trkpt>
<trkpt lat="43.1090500" lon="-2.9743600">
<ele>546.171143</ele>
<time>2010-06-22T07:38:20.999Z</time>
</trkpt>
<trkpt lat="43.1091200" lon="-2.9742600">
<ele>549.036255</ele>
<time>2010-06-22T07:38:34.002Z</time>
</trkpt>
<trkpt lat="43.1091600" lon="-2.9741400">
<ele>551.444153</ele>
<time>2010-06-22T07:38:45.001Z</time>
</trkpt>
<trkpt lat="43.1091900" lon="-2.9740300">
<ele>552.419556</ele>
<time>2010-06-22T07:38:54.997Z</time>
</trkpt>
<trkpt lat="43.1092200" lon="-2.9739000">
<ele>554.827454</ele>
<time>2010-06-22T07:39:04.000Z</time>
</trkpt>
<trkpt lat="43.1092300" lon="-2.9737800">
<ele>557.235352</ele>
<time>2010-06-22T07:39:13.997Z</time>
</trkpt>
<trkpt lat="43.1092600" lon="-2.9736500">
<ele>560.588135</ele>
<time>2010-06-22T07:39:25.004Z</time>
</trkpt>
<trkpt lat="43.1092300" lon="-2.9735400">
<ele>562.996094</ele>
<time>2010-06-22T07:39:39.001Z</time>
</trkpt>
<trkpt lat="43.1091900" lon="-2.9734300">
<ele>564.916321</ele>
<time>2010-06-22T07:39:50.000Z</time>
</trkpt>
<trkpt lat="43.1091700" lon="-2.9733100">
<ele>567.324280</ele>
<time>2010-06-22T07:39:59.996Z</time>
</trkpt>
<trkpt lat="43.1091500" lon="-2.9731800">
<ele>569.244446</ele>
<time>2010-06-22T07:40:10.001Z</time>
</trkpt>
<trkpt lat="43.1091200" lon="-2.9730600">
<ele>571.652405</ele>
<time>2010-06-22T07:40:19.998Z</time>
</trkpt>
<trkpt lat="43.1090800" lon="-2.9729300">
<ele>573.572632</ele>
<time>2010-06-22T07:40:30.003Z</time>
</trkpt>
<trkpt lat="43.1090600" lon="-2.9728000">
<ele>575.980530</ele>
<time>2010-06-22T07:40:39.999Z</time>
</trkpt>
<trkpt lat="43.1090300" lon="-2.9726700">
<ele>577.900818</ele>
<time>2010-06-22T07:40:50.998Z</time>
</trkpt>
<trkpt lat="43.1090000" lon="-2.9725400">
<ele>580.278259</ele>
<time>2010-06-22T07:41:01.003Z</time>
</trkpt>
<trkpt lat="43.1089800" lon="-2.9724100">
<ele>583.661499</ele>
<time>2010-06-22T07:41:11.000Z</time>
</trkpt>
<trkpt lat="43.1089500" lon="-2.9722900">
<ele>585.094055</ele>
<time>2010-06-22T07:41:21.998Z</time>
</trkpt>
<trkpt lat="43.1089300" lon="-2.9721700">
<ele>587.014343</ele>
<time>2010-06-22T07:41:31.001Z</time>
</trkpt>
<trkpt lat="43.1089100" lon="-2.9720400">
<ele>588.934570</ele>
<time>2010-06-22T07:41:40.004Z</time>
</trkpt>
<trkpt lat="43.1088800" lon="-2.9719200">
<ele>590.854797</ele>
<time>2010-06-22T07:41:50.001Z</time>
</trkpt>
<trkpt lat="43.1088500" lon="-2.9718000">
<ele>592.775024</ele>
<time>2010-06-22T07:41:59.004Z</time>
</trkpt>
<trkpt lat="43.1088200" lon="-2.9716800">
<ele>593.750427</ele>
<time>2010-06-22T07:42:07.004Z</time>
</trkpt>
<trkpt lat="43.1087900" lon="-2.9715400">
<ele>595.182922</ele>
<time>2010-06-22T07:42:14.996Z</time>
</trkpt>
<trkpt lat="43.1087500" lon="-2.9714100">
<ele>596.645996</ele>
<time>2010-06-22T07:42:22.997Z</time>
</trkpt>
<trkpt lat="43.1087200" lon="-2.9712800">
<ele>598.078552</ele>
<time>2010-06-22T07:42:30.997Z</time>
</trkpt>
<trkpt lat="43.1087000" lon="-2.9711500">
<ele>599.023438</ele>
<time>2010-06-22T07:42:38.998Z</time>
</trkpt>
<trkpt lat="43.1086800" lon="-2.9710200">
<ele>600.974121</ele>
<time>2010-06-22T07:42:46.999Z</time>
</trkpt>
<trkpt lat="43.1086600" lon="-2.9708900">
<ele>602.406738</ele>
<time>2010-06-22T07:42:54.999Z</time>
</trkpt>
<trkpt lat="43.1086400" lon="-2.9707700">
<ele>603.351624</ele>
<time>2010-06-22T07:43:03.000Z</time>
</trkpt>
<trkpt lat="43.1086200" lon="-2.9706500">
<ele>604.814636</ele>
<time>2010-06-22T07:43:12.003Z</time>
</trkpt>
<trkpt lat="43.1086200" lon="-2.9705200">
<ele>606.247192</ele>
<time>2010-06-22T07:43:20.004Z</time>
</trkpt>
<trkpt lat="43.1086200" lon="-2.9704000">
<ele>608.167480</ele>
<time>2010-06-22T07:43:28.004Z</time>
</trkpt>
<trkpt lat="43.1086300" lon="-2.9702700">
<ele>609.599976</ele>
<time>2010-06-22T07:43:36.998Z</time>
</trkpt>
<trkpt lat="43.1086400" lon="-2.9701500">
<ele>611.063049</ele>
<time>2010-06-22T07:43:46.001Z</time>
</trkpt>
<trkpt lat="43.1086700" lon="-2.9700100">
<ele>612.495605</ele>
<time>2010-06-22T07:43:55.004Z</time>
</trkpt>
<trkpt lat="43.1086800" lon="-2.9698800">
<ele>613.928162</ele>
<time>2010-06-22T07:44:02.996Z</time>
</trkpt>
<trkpt lat="43.1087000" lon="-2.9697500">
<ele>615.391174</ele>
<time>2010-06-22T07:44:10.997Z</time>
</trkpt>
<trkpt lat="43.1087300" lon="-2.9696200">
<ele>617.799133</ele>
<time>2010-06-22T07:44:18.997Z</time>
</trkpt>
<trkpt lat="43.1087600" lon="-2.9694900">
<ele>619.231689</ele>
<time>2010-06-22T07:44:26.998Z</time>
</trkpt>
<trkpt lat="43.1088000" lon="-2.9693700">
<ele>620.176575</ele>
<time>2010-06-22T07:44:33.996Z</time>
</trkpt>
<trkpt lat="43.1088200" lon="-2.9692500">
<ele>621.639587</ele>
<time>2010-06-22T07:44:41.997Z</time>
</trkpt>
<trkpt lat="43.1088600" lon="-2.9691300">
<ele>622.584473</ele>
<time>2010-06-22T07:44:49.998Z</time>
</trkpt>
<trkpt lat="43.1089000" lon="-2.9690100">
<ele>623.559875</ele>
<time>2010-06-22T07:44:57.998Z</time>
</trkpt>
<trkpt lat="43.1089300" lon="-2.9688800">
<ele>625.480103</ele>
<time>2010-06-22T07:45:08.004Z</time>
</trkpt>
<trkpt lat="43.1089600" lon="-2.9687600">
<ele>625.967773</ele>
<time>2010-06-22T07:45:19.002Z</time>
</trkpt>
<trkpt lat="43.1089500" lon="-2.9686300">
<ele>626.424927</ele>
<time>2010-06-22T07:45:27.003Z</time>
</trkpt>
<trkpt lat="43.1089700" lon="-2.9685000">
<ele>627.400269</ele>
<time>2010-06-22T07:45:35.004Z</time>
</trkpt>
<trkpt lat="43.1089700" lon="-2.9683700">
<ele>627.888000</ele>
<time>2010-06-22T07:45:42.002Z</time>
</trkpt>
<trkpt lat="43.1089600" lon="-2.9682300">
<ele>628.832886</ele>
<time>2010-06-22T07:45:50.003Z</time>
</trkpt>
<trkpt lat="43.1089500" lon="-2.9681000">
<ele>629.808228</ele>
<time>2010-06-22T07:45:58.003Z</time>
</trkpt>
<trkpt lat="43.1089700" lon="-2.9679800">
<ele>631.240784</ele>
<time>2010-06-22T07:46:09.002Z</time>
</trkpt>
<trkpt lat="43.1090400" lon="-2.9679400">
<ele>634.136414</ele>
<time>2010-06-22T07:47:47.999Z</time>
</trkpt>
<trkpt lat="43.1091400" lon="-2.9680100">
<ele>636.056641</ele>
<time>2010-06-22T07:47:58.998Z</time>
</trkpt>
<trkpt lat="43.1092400" lon="-2.9680300">
<ele>637.976929</ele>
<time>2010-06-22T07:48:09.003Z</time>
</trkpt>
<trkpt lat="43.1093400" lon="-2.9680100">
<ele>640.841980</ele>
<time>2010-06-22T07:48:21.004Z</time>
</trkpt>
<trkpt lat="43.1094400" lon="-2.9681000">
<ele>641.817322</ele>
<time>2010-06-22T07:48:32.003Z</time>
</trkpt>
<trkpt lat="43.1095100" lon="-2.9682000">
<ele>643.249878</ele>
<time>2010-06-22T07:48:40.003Z</time>
</trkpt>
<trkpt lat="43.1095600" lon="-2.9683200">
<ele>644.225281</ele>
<time>2010-06-22T07:48:48.004Z</time>
</trkpt>
<trkpt lat="43.1096000" lon="-2.9684500">
<ele>646.145508</ele>
<time>2010-06-22T07:48:56.998Z</time>
</trkpt>
<trkpt lat="43.1096400" lon="-2.9685800">
<ele>646.633179</ele>
<time>2010-06-22T07:49:06.001Z</time>
</trkpt>
<trkpt lat="43.1097000" lon="-2.9687200">
<ele>648.065735</ele>
<time>2010-06-22T07:49:25.000Z</time>
</trkpt>
<trkpt lat="43.1097500" lon="-2.9688400">
<ele>649.986023</ele>
<time>2010-06-22T07:49:34.003Z</time>
</trkpt>
<trkpt lat="43.1097800" lon="-2.9689800">
<ele>649.986023</ele>
<time>2010-06-22T07:49:42.004Z</time>
</trkpt>
<trkpt lat="43.1098300" lon="-2.9691000">
<ele>650.473694</ele>
<time>2010-06-22T07:49:49.002Z</time>
</trkpt>
<trkpt lat="43.1098500" lon="-2.9692300">
<ele>649.986023</ele>
<time>2010-06-22T07:49:57.003Z</time>
</trkpt>
<trkpt lat="43.1099400" lon="-2.9692700">
<ele>649.498291</ele>
<time>2010-06-22T07:50:04.001Z</time>
</trkpt>
<trkpt lat="43.1099900" lon="-2.9691400">
<ele>650.961365</ele>
<time>2010-06-22T07:50:13.998Z</time>
</trkpt>
<trkpt lat="43.1100200" lon="-2.9690100">
<ele>651.906250</ele>
<time>2010-06-22T07:50:20.996Z</time>
</trkpt>
<trkpt lat="43.1100600" lon="-2.9688900">
<ele>652.881592</ele>
<time>2010-06-22T07:50:28.997Z</time>
</trkpt>
<trkpt lat="43.1101000" lon="-2.9687600">
<ele>653.826538</ele>
<time>2010-06-22T07:50:36.997Z</time>
</trkpt>
<trkpt lat="43.1101500" lon="-2.9686500">
<ele>654.801880</ele>
<time>2010-06-22T07:50:43.996Z</time>
</trkpt>
<trkpt lat="43.1102300" lon="-2.9685800">
<ele>655.746704</ele>
<time>2010-06-22T07:50:51.003Z</time>
</trkpt>
<trkpt lat="43.1103100" lon="-2.9685000">
<ele>657.209717</ele>
<time>2010-06-22T07:50:59.004Z</time>
</trkpt>
<trkpt lat="43.1103800" lon="-2.9684000">
<ele>658.642273</ele>
<time>2010-06-22T07:51:07.998Z</time>
</trkpt>
<trkpt lat="43.1104700" lon="-2.9683400">
<ele>660.562561</ele>
<time>2010-06-22T07:51:17.001Z</time>
</trkpt>
<trkpt lat="43.1105600" lon="-2.9682600">
<ele>662.482788</ele>
<time>2010-06-22T07:51:26.004Z</time>
</trkpt>
<trkpt lat="43.1106000" lon="-2.9681500">
<ele>663.915344</ele>
<time>2010-06-22T07:51:34.998Z</time>
</trkpt>
<trkpt lat="43.1106400" lon="-2.9680300">
<ele>666.810974</ele>
<time>2010-06-22T07:51:44.001Z</time>
</trkpt>
<trkpt lat="43.1106700" lon="-2.9679100">
<ele>669.218933</ele>
<time>2010-06-22T07:51:53.004Z</time>
</trkpt>
<trkpt lat="43.1107200" lon="-2.9677800">
<ele>671.626770</ele>
<time>2010-06-22T07:52:04.002Z</time>
</trkpt>
<trkpt lat="43.1107500" lon="-2.9676600">
<ele>673.547058</ele>
<time>2010-06-22T07:52:13.999Z</time>
</trkpt>
<trkpt lat="43.1107900" lon="-2.9675600">
<ele>675.467285</ele>
<time>2010-06-22T07:52:24.004Z</time>
</trkpt>
<trkpt lat="43.1108400" lon="-2.9674400">
<ele>677.387512</ele>
<time>2010-06-22T07:52:34.000Z</time>
</trkpt>
<trkpt lat="43.1108800" lon="-2.9673100">
<ele>679.307739</ele>
<time>2010-06-22T07:52:43.997Z</time>
</trkpt>
<trkpt lat="43.1109100" lon="-2.9671900">
<ele>681.228027</ele>
<time>2010-06-22T07:52:53.000Z</time>
</trkpt>
<trkpt lat="43.1109400" lon="-2.9670600">
<ele>682.203369</ele>
<time>2010-06-22T07:53:02.003Z</time>
</trkpt>
<trkpt lat="43.1109300" lon="-2.9669400">
<ele>683.635864</ele>
<time>2010-06-22T07:53:09.001Z</time>
</trkpt>
<trkpt lat="43.1109200" lon="-2.9668000">
<ele>684.611328</ele>
<time>2010-06-22T07:53:17.002Z</time>
</trkpt>
<trkpt lat="43.1109300" lon="-2.9666800">
<ele>686.043884</ele>
<time>2010-06-22T07:53:24.000Z</time>
</trkpt>
<trkpt lat="43.1109400" lon="-2.9665600">
<ele>686.988708</ele>
<time>2010-06-22T07:53:30.998Z</time>
</trkpt>
<trkpt lat="43.1109500" lon="-2.9664100">
<ele>686.988708</ele>
<time>2010-06-22T07:53:37.997Z</time>
</trkpt>
<trkpt lat="43.1109700" lon="-2.9662800">
<ele>686.988708</ele>
<time>2010-06-22T07:53:45.004Z</time>
</trkpt>
<trkpt lat="43.1109900" lon="-2.9661600">
<ele>686.531494</ele>
<time>2010-06-22T07:53:51.000Z</time>
</trkpt>
<trkpt lat="43.1110000" lon="-2.9660200">
<ele>685.556152</ele>
<time>2010-06-22T07:53:56.996Z</time>
</trkpt>
<trkpt lat="43.1110000" lon="-2.9658900">
<ele>684.611328</ele>
<time>2010-06-22T07:54:03.001Z</time>
</trkpt>
<trkpt lat="43.1109900" lon="-2.9657600">
<ele>683.635864</ele>
<time>2010-06-22T07:54:08.997Z</time>
</trkpt>
<trkpt lat="43.1109600" lon="-2.9656400">
<ele>681.715698</ele>
<time>2010-06-22T07:54:15.002Z</time>
</trkpt>
<trkpt lat="43.1109400" lon="-2.9655100">
<ele>680.283081</ele>
<time>2010-06-22T07:54:20.998Z</time>
</trkpt>
<trkpt lat="43.1109100" lon="-2.9653900">
<ele>679.795471</ele>
<time>2010-06-22T07:54:27.003Z</time>
</trkpt>
<trkpt lat="43.1108700" lon="-2.9652700">
<ele>678.820129</ele>
<time>2010-06-22T07:54:32.999Z</time>
</trkpt>
<trkpt lat="43.1108400" lon="-2.9651500">
<ele>677.875183</ele>
<time>2010-06-22T07:54:39.004Z</time>
</trkpt>
<trkpt lat="43.1108200" lon="-2.9650200">
<ele>677.387512</ele>
<time>2010-06-22T07:54:45.000Z</time>
</trkpt>
<trkpt lat="43.1107900" lon="-2.9648900">
<ele>675.954956</ele>
<time>2010-06-22T07:54:50.996Z</time>
</trkpt>
<trkpt lat="43.1107600" lon="-2.9647700">
<ele>675.467285</ele>
<time>2010-06-22T07:54:57.001Z</time>
</trkpt>
<trkpt lat="43.1107500" lon="-2.9646500">
<ele>674.979614</ele>
<time>2010-06-22T07:55:02.997Z</time>
</trkpt>
<trkpt lat="43.1107200" lon="-2.9645100">
<ele>673.547058</ele>
<time>2010-06-22T07:55:10.004Z</time>
</trkpt>
<trkpt lat="43.1106900" lon="-2.9643900">
<ele>672.083984</ele>
<time>2010-06-22T07:55:16.000Z</time>
</trkpt>
<trkpt lat="43.1106600" lon="-2.9642700">
<ele>673.547058</ele>
<time>2010-06-22T07:55:22.999Z</time>
</trkpt>
<trkpt lat="43.1106500" lon="-2.9641500">
<ele>674.979614</ele>
<time>2010-06-22T07:55:30.999Z</time>
</trkpt>
<trkpt lat="43.1106400" lon="-2.9640300">
<ele>676.412170</ele>
<time>2010-06-22T07:55:39.000Z</time>
</trkpt>
<trkpt lat="43.1106200" lon="-2.9638900">
<ele>678.332397</ele>
<time>2010-06-22T07:55:47.001Z</time>
</trkpt>
<trkpt lat="43.1106000" lon="-2.9637700">
<ele>680.283081</ele>
<time>2010-06-22T07:55:55.001Z</time>
</trkpt>
<trkpt lat="43.1105700" lon="-2.9636400">
<ele>681.715698</ele>
<time>2010-06-22T07:56:03.002Z</time>
</trkpt>
<trkpt lat="43.1105500" lon="-2.9635100">
<ele>683.148254</ele>
<time>2010-06-22T07:56:11.003Z</time>
</trkpt>
<trkpt lat="43.1105200" lon="-2.9633900">
<ele>684.123596</ele>
<time>2010-06-22T07:56:18.001Z</time>
</trkpt>
<trkpt lat="43.1104800" lon="-2.9632800">
<ele>685.068481</ele>
<time>2010-06-22T07:56:24.999Z</time>
</trkpt>
<trkpt lat="43.1104500" lon="-2.9631600">
<ele>686.043884</ele>
<time>2010-06-22T07:56:31.998Z</time>
</trkpt>
<trkpt lat="43.1104000" lon="-2.9630500">
<ele>686.988708</ele>
<time>2010-06-22T07:56:38.996Z</time>
</trkpt>
<trkpt lat="43.1103700" lon="-2.9629200">
<ele>687.476379</ele>
<time>2010-06-22T07:56:46.003Z</time>
</trkpt>
<trkpt lat="43.1103400" lon="-2.9628000">
<ele>688.451721</ele>
<time>2010-06-22T07:56:53.002Z</time>
</trkpt>
<trkpt lat="43.1103200" lon="-2.9626700">
<ele>688.908936</ele>
<time>2010-06-22T07:57:00.000Z</time>
</trkpt>
<trkpt lat="43.1103100" lon="-2.9625400">
<ele>689.396667</ele>
<time>2010-06-22T07:57:06.998Z</time>
</trkpt>
<trkpt lat="43.1102900" lon="-2.9624200">
<ele>691.316895</ele>
<time>2010-06-22T07:57:13.997Z</time>
</trkpt>
<trkpt lat="43.1102600" lon="-2.9622900">
<ele>692.779907</ele>
<time>2010-06-22T07:57:21.997Z</time>
</trkpt>
<trkpt lat="43.1102400" lon="-2.9621600">
<ele>694.212524</ele>
<time>2010-06-22T07:57:29.998Z</time>
</trkpt>
<trkpt lat="43.1102400" lon="-2.9620400">
<ele>695.157349</ele>
<time>2010-06-22T07:57:37.999Z</time>
</trkpt>
<trkpt lat="43.1102400" lon="-2.9619100">
<ele>697.565308</ele>
<time>2010-06-22T07:57:45.999Z</time>
</trkpt>
<trkpt lat="43.1102700" lon="-2.9617900">
<ele>699.028320</ele>
<time>2010-06-22T07:57:55.002Z</time>
</trkpt>
<trkpt lat="43.1103000" lon="-2.9616900">
<ele>700.948547</ele>
<time>2010-06-22T07:58:03.003Z</time>
</trkpt>
<trkpt lat="43.1102900" lon="-2.9615800">
<ele>703.356506</ele>
<time>2010-06-22T07:58:11.997Z</time>
</trkpt>
<trkpt lat="43.1102800" lon="-2.9614700">
<ele>705.276672</ele>
<time>2010-06-22T07:58:19.998Z</time>
</trkpt>
<trkpt lat="43.1103200" lon="-2.9613800">
<ele>706.709290</ele>
<time>2010-06-22T07:58:29.001Z</time>
</trkpt>
<trkpt lat="43.1103100" lon="-2.9612700">
<ele>709.604919</ele>
<time>2010-06-22T07:58:37.001Z</time>
</trkpt>
<trkpt lat="43.1102700" lon="-2.9611500">
<ele>711.525085</ele>
<time>2010-06-22T07:58:46.004Z</time>
</trkpt>
<trkpt lat="43.1103300" lon="-2.9610600">
<ele>712.957703</ele>
<time>2010-06-22T07:58:56.001Z</time>
</trkpt>
<trkpt lat="43.1103000" lon="-2.9609700">
<ele>715.853333</ele>
<time>2010-06-22T07:59:05.997Z</time>
</trkpt>
<trkpt lat="43.1103200" lon="-2.9608700">
<ele>717.773499</ele>
<time>2010-06-22T07:59:16.002Z</time>
</trkpt>
<trkpt lat="43.1103400" lon="-2.9607600">
<ele>720.638672</ele>
<time>2010-06-22T07:59:24.996Z</time>
</trkpt>
<trkpt lat="43.1102900" lon="-2.9606500">
<ele>722.558899</ele>
<time>2010-06-22T07:59:33.999Z</time>
</trkpt>
<trkpt lat="43.1103300" lon="-2.9605400">
<ele>724.966797</ele>
<time>2010-06-22T07:59:43.002Z</time>
</trkpt>
<trkpt lat="43.1103100" lon="-2.9604300">
<ele>726.887085</ele>
<time>2010-06-22T07:59:52.999Z</time>
</trkpt>
<trkpt lat="43.1103200" lon="-2.9603000">
<ele>728.350098</ele>
<time>2010-06-22T08:00:03.004Z</time>
</trkpt>
<trkpt lat="43.1102700" lon="-2.9602600">
<ele>729.294922</ele>
<time>2010-06-22T08:02:44.002Z</time>
</trkpt>
<trkpt lat="43.1101800" lon="-2.9602200">
<ele>725.942139</ele>
<time>2010-06-22T08:02:52.002Z</time>
</trkpt>
<trkpt lat="43.1100800" lon="-2.9601900">
<ele>724.966797</ele>
<time>2010-06-22T08:02:57.998Z</time>
</trkpt>
<trkpt lat="43.1100000" lon="-2.9601300">
<ele>724.021912</ele>
<time>2010-06-22T08:03:04.003Z</time>
</trkpt>
<trkpt lat="43.1099200" lon="-2.9600700">
<ele>724.021912</ele>
<time>2010-06-22T08:03:09.999Z</time>
</trkpt>
<trkpt lat="43.1098300" lon="-2.9600300">
<ele>722.558899</ele>
<time>2010-06-22T08:03:16.004Z</time>
</trkpt>
<trkpt lat="43.1097400" lon="-2.9599800">
<ele>721.614014</ele>
<time>2010-06-22T08:03:22.000Z</time>
</trkpt>
<trkpt lat="43.1096500" lon="-2.9599100">
<ele>720.638672</ele>
<time>2010-06-22T08:03:27.996Z</time>
</trkpt>
<trkpt lat="43.1095700" lon="-2.9598400">
<ele>720.150940</ele>
<time>2010-06-22T08:03:34.001Z</time>
</trkpt>
<trkpt lat="43.1094900" lon="-2.9597800">
<ele>718.718384</ele>
<time>2010-06-22T08:03:39.997Z</time>
</trkpt>
<trkpt lat="43.1094100" lon="-2.9596900">
<ele>716.310486</ele>
<time>2010-06-22T08:03:46.002Z</time>
</trkpt>
<trkpt lat="43.1093400" lon="-2.9596200">
<ele>715.365601</ele>
<time>2010-06-22T08:03:51.998Z</time>
</trkpt>
<trkpt lat="43.1092700" lon="-2.9595300">
<ele>714.390259</ele>
<time>2010-06-22T08:03:58.003Z</time>
</trkpt>
<trkpt lat="43.1091900" lon="-2.9594600">
<ele>712.957703</ele>
<time>2010-06-22T08:04:03.999Z</time>
</trkpt>
<trkpt lat="43.1091200" lon="-2.9593700">
<ele>711.982300</ele>
<time>2010-06-22T08:04:10.004Z</time>
</trkpt>
<trkpt lat="43.1090400" lon="-2.9592900">
<ele>711.037476</ele>
<time>2010-06-22T08:04:16.000Z</time>
</trkpt>
<trkpt lat="43.1089800" lon="-2.9592100">
<ele>710.549744</ele>
<time>2010-06-22T08:04:21.996Z</time>
</trkpt>
<trkpt lat="43.1089100" lon="-2.9591200">
<ele>709.604919</ele>
<time>2010-06-22T08:04:28.001Z</time>
</trkpt>
<trkpt lat="43.1088400" lon="-2.9590500">
<ele>709.117188</ele>
<time>2010-06-22T08:04:33.997Z</time>
</trkpt>
<trkpt lat="43.1087600" lon="-2.9589700">
<ele>707.654175</ele>
<time>2010-06-22T08:04:40.996Z</time>
</trkpt>
<trkpt lat="43.1087000" lon="-2.9588800">
<ele>707.654175</ele>
<time>2010-06-22T08:04:47.001Z</time>
</trkpt>
<trkpt lat="43.1086300" lon="-2.9587900">
<ele>706.709290</ele>
<time>2010-06-22T08:04:52.997Z</time>
</trkpt>
<trkpt lat="43.1085700" lon="-2.9587000">
<ele>706.221619</ele>
<time>2010-06-22T08:04:59.002Z</time>
</trkpt>
<trkpt lat="43.1084900" lon="-2.9586200">
<ele>705.276672</ele>
<time>2010-06-22T08:05:06.000Z</time>
</trkpt>
<trkpt lat="43.1084200" lon="-2.9585300">
<ele>703.813721</ele>
<time>2010-06-22T08:05:14.001Z</time>
</trkpt>
<trkpt lat="43.1083300" lon="-2.9584400">
<ele>702.381104</ele>
<time>2010-06-22T08:05:22.001Z</time>
</trkpt>
<trkpt lat="43.1082800" lon="-2.9583400">
<ele>702.381104</ele>
<time>2010-06-22T08:05:30.002Z</time>
</trkpt>
<trkpt lat="43.1082000" lon="-2.9582600">
<ele>701.893433</ele>
<time>2010-06-22T08:05:37.000Z</time>
</trkpt>
<trkpt lat="43.1081200" lon="-2.9581900">
<ele>701.405762</ele>
<time>2010-06-22T08:05:42.996Z</time>
</trkpt>
<trkpt lat="43.1080400" lon="-2.9581200">
<ele>699.973206</ele>
<time>2010-06-22T08:05:50.004Z</time>
</trkpt>
<trkpt lat="43.1079600" lon="-2.9580500">
<ele>699.028320</ele>
<time>2010-06-22T08:05:57.002Z</time>
</trkpt>
<trkpt lat="43.1078900" lon="-2.9579600">
<ele>698.052917</ele>
<time>2010-06-22T08:06:51.002Z</time>
</trkpt>
<trkpt lat="43.1078000" lon="-2.9579100">
<ele>697.108093</ele>
<time>2010-06-22T08:06:58.000Z</time>
</trkpt>
<trkpt lat="43.1077000" lon="-2.9578700">
<ele>698.052917</ele>
<time>2010-06-22T08:07:04.999Z</time>
</trkpt>
<trkpt lat="43.1076200" lon="-2.9578200">
<ele>699.485474</ele>
<time>2010-06-22T08:07:12.999Z</time>
</trkpt>
<trkpt lat="43.1075300" lon="-2.9577900">
<ele>701.893433</ele>
<time>2010-06-22T08:07:22.002Z</time>
</trkpt>
<trkpt lat="43.1074400" lon="-2.9577500">
<ele>703.356506</ele>
<time>2010-06-22T08:07:30.003Z</time>
</trkpt>
<trkpt lat="43.1073400" lon="-2.9577100">
<ele>704.301331</ele>
<time>2010-06-22T08:07:38.004Z</time>
</trkpt>
<trkpt lat="43.1072400" lon="-2.9576600">
<ele>705.733887</ele>
<time>2010-06-22T08:07:46.004Z</time>
</trkpt>
<trkpt lat="43.1071500" lon="-2.9576200">
<ele>705.733887</ele>
<time>2010-06-22T08:07:53.003Z</time>
</trkpt>
<trkpt lat="43.1070700" lon="-2.9575500">
<ele>706.709290</ele>
<time>2010-06-22T08:08:00.001Z</time>
</trkpt>
<trkpt lat="43.1069900" lon="-2.9574700">
<ele>706.709290</ele>
<time>2010-06-22T08:08:05.997Z</time>
</trkpt>
<trkpt lat="43.1069100" lon="-2.9573800">
<ele>708.141846</ele>
<time>2010-06-22T08:08:13.004Z</time>
</trkpt>
<trkpt lat="43.1068500" lon="-2.9572900">
<ele>708.629517</ele>
<time>2010-06-22T08:08:19.000Z</time>
</trkpt>
<trkpt lat="43.1067700" lon="-2.9572100">
<ele>708.141846</ele>
<time>2010-06-22T08:08:24.996Z</time>
</trkpt>
<trkpt lat="43.1066900" lon="-2.9571400">
<ele>708.629517</ele>
<time>2010-06-22T08:08:31.001Z</time>
</trkpt>
<trkpt lat="43.1066000" lon="-2.9570700">
<ele>709.604919</ele>
<time>2010-06-22T08:08:38.000Z</time>
</trkpt>
<trkpt lat="43.1065200" lon="-2.9569900">
<ele>711.037476</ele>
<time>2010-06-22T08:08:44.998Z</time>
</trkpt>
<trkpt lat="43.1064400" lon="-2.9569200">
<ele>711.037476</ele>
<time>2010-06-22T08:08:51.996Z</time>
</trkpt>
<trkpt lat="43.1063600" lon="-2.9568300">
<ele>711.037476</ele>
<time>2010-06-22T08:08:58.001Z</time>
</trkpt>
<trkpt lat="43.1063000" lon="-2.9567300">
<ele>711.037476</ele>
<time>2010-06-22T08:09:03.997Z</time>
</trkpt>
<trkpt lat="43.1062400" lon="-2.9566300">
<ele>711.037476</ele>
<time>2010-06-22T08:09:10.002Z</time>
</trkpt>
<trkpt lat="43.1061800" lon="-2.9565300">
<ele>711.037476</ele>
<time>2010-06-22T08:09:15.998Z</time>
</trkpt>
<trkpt lat="43.1061300" lon="-2.9564200">
<ele>711.037476</ele>
<time>2010-06-22T08:09:22.003Z</time>
</trkpt>
<trkpt lat="43.1061000" lon="-2.9562900">
<ele>710.549744</ele>
<time>2010-06-22T08:09:27.999Z</time>
</trkpt>
<trkpt lat="43.1060600" lon="-2.9561700">
<ele>710.549744</ele>
<time>2010-06-22T08:09:34.004Z</time>
</trkpt>
<trkpt lat="43.1060200" lon="-2.9560500">
<ele>710.062134</ele>
<time>2010-06-22T08:09:40.000Z</time>
</trkpt>
<trkpt lat="43.1059700" lon="-2.9559400">
<ele>708.629517</ele>
<time>2010-06-22T08:09:45.996Z</time>
</trkpt>
<trkpt lat="43.1059200" lon="-2.9558200">
<ele>708.141846</ele>
<time>2010-06-22T08:09:52.001Z</time>
</trkpt>
<trkpt lat="43.1058800" lon="-2.9557100">
<ele>706.709290</ele>
<time>2010-06-22T08:09:57.997Z</time>
</trkpt>
<trkpt lat="43.1058300" lon="-2.9555900">
<ele>705.733887</ele>
<time>2010-06-22T08:10:04.002Z</time>
</trkpt>
<trkpt lat="43.1057900" lon="-2.9554800">
<ele>704.789063</ele>
<time>2010-06-22T08:10:09.998Z</time>
</trkpt>
<trkpt lat="43.1057400" lon="-2.9553600">
<ele>703.356506</ele>
<time>2010-06-22T08:10:16.003Z</time>
</trkpt>
<trkpt lat="43.1056900" lon="-2.9552400">
<ele>702.868774</ele>
<time>2010-06-22T08:10:21.999Z</time>
</trkpt>
<trkpt lat="43.1056800" lon="-2.9551100">
<ele>700.948547</ele>
<time>2010-06-22T08:10:28.004Z</time>
</trkpt>
<trkpt lat="43.1056300" lon="-2.9550100">
<ele>699.485474</ele>
<time>2010-06-22T08:10:34.000Z</time>
</trkpt>
<trkpt lat="43.1055600" lon="-2.9549100">
<ele>696.620422</ele>
<time>2010-06-22T08:10:40.999Z</time>
</trkpt>
<trkpt lat="43.1055000" lon="-2.9548000">
<ele>694.212524</ele>
<time>2010-06-22T08:10:47.997Z</time>
</trkpt>
<trkpt lat="43.1054500" lon="-2.9547000">
<ele>692.292236</ele>
<time>2010-06-22T08:10:55.004Z</time>
</trkpt>
<trkpt lat="43.1053800" lon="-2.9546000">
<ele>689.396667</ele>
<time>2010-06-22T08:11:02.003Z</time>
</trkpt>
<trkpt lat="43.1053300" lon="-2.9544900">
<ele>687.476379</ele>
<time>2010-06-22T08:11:09.001Z</time>
</trkpt>
<trkpt lat="43.1053000" lon="-2.9543500">
<ele>685.068481</ele>
<time>2010-06-22T08:11:15.999Z</time>
</trkpt>
<trkpt lat="43.1052500" lon="-2.9542400">
<ele>683.148254</ele>
<time>2010-06-22T08:11:22.004Z</time>
</trkpt>
<trkpt lat="43.1051700" lon="-2.9541800">
<ele>682.203369</ele>
<time>2010-06-22T08:11:28.000Z</time>
</trkpt>
<trkpt lat="43.1051000" lon="-2.9540800">
<ele>681.228027</ele>
<time>2010-06-22T08:11:33.996Z</time>
</trkpt>
<trkpt lat="43.1050400" lon="-2.9539800">
<ele>679.307739</ele>
<time>2010-06-22T08:11:40.001Z</time>
</trkpt>
<trkpt lat="43.1049800" lon="-2.9538700">
<ele>678.332397</ele>
<time>2010-06-22T08:11:45.997Z</time>
</trkpt>
<trkpt lat="43.1049200" lon="-2.9537600">
<ele>676.899841</ele>
<time>2010-06-22T08:11:52.002Z</time>
</trkpt>
<trkpt lat="43.1048500" lon="-2.9536500">
<ele>676.412170</ele>
<time>2010-06-22T08:11:57.998Z</time>
</trkpt>
<trkpt lat="43.1047900" lon="-2.9535500">
<ele>675.954956</ele>
<time>2010-06-22T08:12:04.003Z</time>
</trkpt>
<trkpt lat="43.1047400" lon="-2.9534700">
<ele>675.467285</ele>
<time>2010-06-22T08:12:08.997Z</time>
</trkpt>
<trkpt lat="43.1046600" lon="-2.9533500">
<ele>674.979614</ele>
<time>2010-06-22T08:12:16.004Z</time>
</trkpt>
<trkpt lat="43.1046000" lon="-2.9532600">
<ele>674.491882</ele>
<time>2010-06-22T08:12:22.000Z</time>
</trkpt>
<trkpt lat="43.1045400" lon="-2.9531600">
<ele>673.547058</ele>
<time>2010-06-22T08:12:27.996Z</time>
</trkpt>
<trkpt lat="43.1045000" lon="-2.9530400">
<ele>672.571716</ele>
<time>2010-06-22T08:12:35.004Z</time>
</trkpt>
<trkpt lat="43.1044300" lon="-2.9529200">
<ele>671.139099</ele>
<time>2010-06-22T08:12:43.004Z</time>
</trkpt>
<trkpt lat="43.1043700" lon="-2.9528100">
<ele>670.163757</ele>
<time>2010-06-22T08:12:50.003Z</time>
</trkpt>
<trkpt lat="43.1043100" lon="-2.9527200">
<ele>669.218933</ele>
<time>2010-06-22T08:12:55.999Z</time>
</trkpt>
<trkpt lat="43.1042400" lon="-2.9526300">
<ele>668.731201</ele>
<time>2010-06-22T08:13:02.004Z</time>
</trkpt>
<trkpt lat="43.1041700" lon="-2.9525500">
<ele>668.731201</ele>
<time>2010-06-22T08:13:08.000Z</time>
</trkpt>
<trkpt lat="43.1041000" lon="-2.9524600">
<ele>669.218933</ele>
<time>2010-06-22T08:13:14.998Z</time>
</trkpt>
<trkpt lat="43.1040300" lon="-2.9523600">
<ele>667.786316</ele>
<time>2010-06-22T08:13:21.996Z</time>
</trkpt>
<trkpt lat="43.1039800" lon="-2.9522500">
<ele>666.810974</ele>
<time>2010-06-22T08:13:29.004Z</time>
</trkpt>
<trkpt lat="43.1039300" lon="-2.9521500">
<ele>665.835571</ele>
<time>2010-06-22T08:13:35.000Z</time>
</trkpt>
<trkpt lat="43.1038800" lon="-2.9520300">
<ele>665.835571</ele>
<time>2010-06-22T08:13:41.998Z</time>
</trkpt>
<trkpt lat="43.1038500" lon="-2.9519200">
<ele>663.915344</ele>
<time>2010-06-22T08:13:48.003Z</time>
</trkpt>
<trkpt lat="43.1038000" lon="-2.9518000">
<ele>664.403076</ele>
<time>2010-06-22T08:13:53.999Z</time>
</trkpt>
<trkpt lat="43.1037500" lon="-2.9517100">
<ele>664.403076</ele>
<time>2010-06-22T08:14:00.004Z</time>
</trkpt>
<trkpt lat="43.1037000" lon="-2.9516000">
<ele>664.403076</ele>
<time>2010-06-22T08:14:06.000Z</time>
</trkpt>
<trkpt lat="43.1036500" lon="-2.9514900">
<ele>664.403076</ele>
<time>2010-06-22T08:14:11.996Z</time>
</trkpt>
<trkpt lat="43.1036000" lon="-2.9513800">
<ele>664.890686</ele>
<time>2010-06-22T08:14:18.001Z</time>
</trkpt>
<trkpt lat="43.1035400" lon="-2.9512800">
<ele>663.915344</ele>
<time>2010-06-22T08:14:23.997Z</time>
</trkpt>
<trkpt lat="43.1034600" lon="-2.9511900">
<ele>663.458130</ele>
<time>2010-06-22T08:14:31.004Z</time>
</trkpt>
<trkpt lat="43.1033900" lon="-2.9511200">
<ele>662.482788</ele>
<time>2010-06-22T08:14:38.996Z</time>
</trkpt>
<trkpt lat="43.1033100" lon="-2.9510500">
<ele>661.050232</ele>
<time>2010-06-22T08:14:45.001Z</time>
</trkpt>
<trkpt lat="43.1032500" lon="-2.9509700">
<ele>660.074890</ele>
<time>2010-06-22T08:14:50.997Z</time>
</trkpt>
<trkpt lat="43.1031700" lon="-2.9508700">
<ele>658.154663</ele>
<time>2010-06-22T08:14:58.004Z</time>
</trkpt>
<trkpt lat="43.1030900" lon="-2.9507900">
<ele>656.234375</ele>
<time>2010-06-22T08:15:05.003Z</time>
</trkpt>
<trkpt lat="43.1030100" lon="-2.9507400">
<ele>655.289490</ele>
<time>2010-06-22T08:15:13.003Z</time>
</trkpt>
<trkpt lat="43.1029200" lon="-2.9506700">
<ele>653.826538</ele>
<time>2010-06-22T08:15:20.002Z</time>
</trkpt>
<trkpt lat="43.1028300" lon="-2.9506200">
<ele>652.393860</ele>
<time>2010-06-22T08:15:25.998Z</time>
</trkpt>
<trkpt lat="43.1027700" lon="-2.9505400">
<ele>651.906250</ele>
<time>2010-06-22T08:15:32.003Z</time>
</trkpt>
<trkpt lat="43.1027200" lon="-2.9504100">
<ele>651.906250</ele>
<time>2010-06-22T08:15:39.001Z</time>
</trkpt>
<trkpt lat="43.1026700" lon="-2.9502900">
<ele>650.473694</ele>
<time>2010-06-22T08:15:45.999Z</time>
</trkpt>
<trkpt lat="43.1026200" lon="-2.9502000">
<ele>649.498291</ele>
<time>2010-06-22T08:15:52.004Z</time>
</trkpt>
<trkpt lat="43.1025600" lon="-2.9500800">
<ele>648.553467</ele>
<time>2010-06-22T08:15:59.003Z</time>
</trkpt>
<trkpt lat="43.1025100" lon="-2.9499800">
<ele>646.633179</ele>
<time>2010-06-22T08:16:04.999Z</time>
</trkpt>
<trkpt lat="43.1024800" lon="-2.9498600">
<ele>645.657837</ele>
<time>2010-06-22T08:16:11.004Z</time>
</trkpt>
<trkpt lat="43.1024900" lon="-2.9497300">
<ele>645.170166</ele>
<time>2010-06-22T08:16:17.000Z</time>
</trkpt>
<trkpt lat="43.1025200" lon="-2.9496100">
<ele>644.712952</ele>
<time>2010-06-22T08:16:22.996Z</time>
</trkpt>
<trkpt lat="43.1025500" lon="-2.9494700">
<ele>644.712952</ele>
<time>2010-06-22T08:16:30.003Z</time>
</trkpt>
<trkpt lat="43.1026000" lon="-2.9493500">
<ele>644.225281</ele>
<time>2010-06-22T08:16:37.001Z</time>
</trkpt>
<trkpt lat="43.1026300" lon="-2.9492200">
<ele>644.225281</ele>
<time>2010-06-22T08:16:44.000Z</time>
</trkpt>
<trkpt lat="43.1026500" lon="-2.9490900">
<ele>643.737610</ele>
<time>2010-06-22T08:16:50.998Z</time>
</trkpt>
<trkpt lat="43.1026700" lon="-2.9489600">
<ele>643.737610</ele>
<time>2010-06-22T08:16:57.003Z</time>
</trkpt>
<trkpt lat="43.1026900" lon="-2.9488400">
<ele>642.792664</ele>
<time>2010-06-22T08:17:02.999Z</time>
</trkpt>
<trkpt lat="43.1027100" lon="-2.9487100">
<ele>641.817322</ele>
<time>2010-06-22T08:17:09.004Z</time>
</trkpt>
<trkpt lat="43.1027200" lon="-2.9485800">
<ele>640.384827</ele>
<time>2010-06-22T08:17:15.000Z</time>
</trkpt>
<trkpt lat="43.1027200" lon="-2.9484500">
<ele>639.409485</ele>
<time>2010-06-22T08:17:20.996Z</time>
</trkpt>
<trkpt lat="43.1027000" lon="-2.9483100">
<ele>638.464539</ele>
<time>2010-06-22T08:17:28.003Z</time>
</trkpt>
<trkpt lat="43.1026800" lon="-2.9481900">
<ele>637.489197</ele>
<time>2010-06-22T08:17:35.002Z</time>
</trkpt>
<trkpt lat="43.1026400" lon="-2.9480700">
<ele>635.568970</ele>
<time>2010-06-22T08:17:43.002Z</time>
</trkpt>
<trkpt lat="43.1026100" lon="-2.9479500">
<ele>633.648682</ele>
<time>2010-06-22T08:17:50.001Z</time>
</trkpt>
<trkpt lat="43.1025700" lon="-2.9478400">
<ele>632.673340</ele>
<time>2010-06-22T08:17:56.999Z</time>
</trkpt>
<trkpt lat="43.1025400" lon="-2.9477200">
<ele>631.240784</ele>
<time>2010-06-22T08:18:03.997Z</time>
</trkpt>
<trkpt lat="43.1024900" lon="-2.9476000">
<ele>629.320557</ele>
<time>2010-06-22T08:18:11.998Z</time>
</trkpt>
<trkpt lat="43.1024500" lon="-2.9475000">
<ele>627.400269</ele>
<time>2010-06-22T08:18:18.996Z</time>
</trkpt>
<trkpt lat="43.1024000" lon="-2.9473800">
<ele>625.967773</ele>
<time>2010-06-22T08:18:26.004Z</time>
</trkpt>
<trkpt lat="43.1023500" lon="-2.9472800">
<ele>624.504700</ele>
<time>2010-06-22T08:18:33.002Z</time>
</trkpt>
<trkpt lat="43.1023000" lon="-2.9471700">
<ele>623.072144</ele>
<time>2010-06-22T08:18:40.000Z</time>
</trkpt>
<trkpt lat="43.1022600" lon="-2.9470500">
<ele>621.639587</ele>
<time>2010-06-22T08:18:49.003Z</time>
</trkpt>
<trkpt lat="43.1022200" lon="-2.9469400">
<ele>619.719360</ele>
<time>2010-06-22T08:18:56.002Z</time>
</trkpt>
<trkpt lat="43.1022200" lon="-2.9468100">
<ele>617.799133</ele>
<time>2010-06-22T08:19:03.000Z</time>
</trkpt>
<trkpt lat="43.1022200" lon="-2.9466700">
<ele>616.823730</ele>
<time>2010-06-22T08:19:09.998Z</time>
</trkpt>
<trkpt lat="43.1022000" lon="-2.9465300">
<ele>615.391174</ele>
<time>2010-06-22T08:19:16.997Z</time>
</trkpt>
<trkpt lat="43.1021800" lon="-2.9464000">
<ele>614.415833</ele>
<time>2010-06-22T08:19:24.004Z</time>
</trkpt>
<trkpt lat="43.1021500" lon="-2.9462500">
<ele>613.928162</ele>
<time>2010-06-22T08:19:31.996Z</time>
</trkpt>
<trkpt lat="43.1021300" lon="-2.9461200">
<ele>614.415833</ele>
<time>2010-06-22T08:19:40.999Z</time>
</trkpt>
<trkpt lat="43.1021300" lon="-2.9459700">
<ele>615.391174</ele>
<time>2010-06-22T08:19:51.997Z</time>
</trkpt>
<trkpt lat="43.1021400" lon="-2.9458200">
<ele>615.848389</ele>
<time>2010-06-22T08:19:59.998Z</time>
</trkpt>
<trkpt lat="43.1021700" lon="-2.9456900">
<ele>615.848389</ele>
<time>2010-06-22T08:20:07.999Z</time>
</trkpt>
<trkpt lat="43.1022400" lon="-2.9455800">
<ele>615.848389</ele>
<time>2010-06-22T08:20:15.999Z</time>
</trkpt>
<trkpt lat="43.1023600" lon="-2.9455400">
<ele>614.903503</ele>
<time>2010-06-22T08:20:24.000Z</time>
</trkpt>
<trkpt lat="43.1024700" lon="-2.9455100">
<ele>614.903503</ele>
<time>2010-06-22T08:20:30.998Z</time>
</trkpt>
<trkpt lat="43.1025800" lon="-2.9454400">
<ele>614.415833</ele>
<time>2010-06-22T08:20:37.997Z</time>
</trkpt>
<trkpt lat="43.1026600" lon="-2.9453700">
<ele>613.928162</ele>
<time>2010-06-22T08:20:45.004Z</time>
</trkpt>
<trkpt lat="43.1027700" lon="-2.9452900">
<ele>613.470947</ele>
<time>2010-06-22T08:20:52.996Z</time>
</trkpt>
<trkpt lat="43.1028800" lon="-2.9452500">
<ele>613.928162</ele>
<time>2010-06-22T08:21:00.003Z</time>
</trkpt>
<trkpt lat="43.1029800" lon="-2.9451900">
<ele>614.415833</ele>
<time>2010-06-22T08:21:07.001Z</time>
</trkpt>
<trkpt lat="43.1030800" lon="-2.9451200">
<ele>615.391174</ele>
<time>2010-06-22T08:21:14.000Z</time>
</trkpt>
<trkpt lat="43.1031700" lon="-2.9450600">
<ele>616.823730</ele>
<time>2010-06-22T08:21:20.998Z</time>
</trkpt>
<trkpt lat="43.1032400" lon="-2.9449800">
<ele>618.256348</ele>
<time>2010-06-22T08:21:27.996Z</time>
</trkpt>
<trkpt lat="43.1033200" lon="-2.9449000">
<ele>619.231689</ele>
<time>2010-06-22T08:21:35.004Z</time>
</trkpt>
<trkpt lat="43.1033900" lon="-2.9448200">
<ele>620.176575</ele>
<time>2010-06-22T08:21:42.002Z</time>
</trkpt>
<trkpt lat="43.1034700" lon="-2.9447300">
<ele>620.664246</ele>
<time>2010-06-22T08:21:49.000Z</time>
</trkpt>
<trkpt lat="43.1035400" lon="-2.9446400">
<ele>621.639587</ele>
<time>2010-06-22T08:21:55.999Z</time>
</trkpt>
<trkpt lat="43.1036200" lon="-2.9445400">
<ele>622.584473</ele>
<time>2010-06-22T08:22:02.997Z</time>
</trkpt>
<trkpt lat="43.1037000" lon="-2.9444400">
<ele>623.072144</ele>
<time>2010-06-22T08:22:10.004Z</time>
</trkpt>
<trkpt lat="43.1037700" lon="-2.9443500">
<ele>623.559875</ele>
<time>2010-06-22T08:22:16.000Z</time>
</trkpt>
<trkpt lat="43.1038400" lon="-2.9442600">
<ele>623.559875</ele>
<time>2010-06-22T08:22:21.996Z</time>
</trkpt>
<trkpt lat="43.1039200" lon="-2.9441600">
<ele>624.504700</ele>
<time>2010-06-22T08:22:29.004Z</time>
</trkpt>
<trkpt lat="43.1040000" lon="-2.9440700">
<ele>624.992371</ele>
<time>2010-06-22T08:22:36.002Z</time>
</trkpt>
<trkpt lat="43.1040800" lon="-2.9439800">
<ele>625.967773</ele>
<time>2010-06-22T08:22:43.000Z</time>
</trkpt>
<trkpt lat="43.1041700" lon="-2.9438900">
<ele>625.967773</ele>
<time>2010-06-22T08:22:49.999Z</time>
</trkpt>
<trkpt lat="43.1042500" lon="-2.9438100">
<ele>627.400269</ele>
<time>2010-06-22T08:22:56.997Z</time>
</trkpt>
<trkpt lat="43.1043300" lon="-2.9437200">
<ele>628.345215</ele>
<time>2010-06-22T08:23:04.004Z</time>
</trkpt>
<trkpt lat="43.1044100" lon="-2.9436300">
<ele>629.320557</ele>
<time>2010-06-22T08:23:11.003Z</time>
</trkpt>
<trkpt lat="43.1044700" lon="-2.9435300">
<ele>629.808228</ele>
<time>2010-06-22T08:23:18.001Z</time>
</trkpt>
<trkpt lat="43.1045300" lon="-2.9434300">
<ele>630.753113</ele>
<time>2010-06-22T08:23:24.999Z</time>
</trkpt>
<trkpt lat="43.1045900" lon="-2.9433100">
<ele>631.728516</ele>
<time>2010-06-22T08:23:33.000Z</time>
</trkpt>
<trkpt lat="43.1046500" lon="-2.9432100">
<ele>630.753113</ele>
<time>2010-06-22T08:23:42.003Z</time>
</trkpt>
<trkpt lat="43.1047200" lon="-2.9431100">
<ele>633.161072</ele>
<time>2010-06-22T08:23:50.997Z</time>
</trkpt>
<trkpt lat="43.1048000" lon="-2.9430200">
<ele>633.161072</ele>
<time>2010-06-22T08:23:58.998Z</time>
</trkpt>
<trkpt lat="43.1048800" lon="-2.9429200">
<ele>634.136414</ele>
<time>2010-06-22T08:24:06.998Z</time>
</trkpt>
<trkpt lat="43.1049400" lon="-2.9428200">
<ele>635.568970</ele>
<time>2010-06-22T08:24:14.999Z</time>
</trkpt>
<trkpt lat="43.1049900" lon="-2.9427100">
<ele>636.544312</ele>
<time>2010-06-22T08:24:23.000Z</time>
</trkpt>
<trkpt lat="43.1050500" lon="-2.9426100">
<ele>637.976929</ele>
<time>2010-06-22T08:24:32.003Z</time>
</trkpt>
<trkpt lat="43.1051200" lon="-2.9425000">
<ele>640.384827</ele>
<time>2010-06-22T08:24:41.999Z</time>
</trkpt>
<trkpt lat="43.1051900" lon="-2.9424100">
<ele>643.249878</ele>
<time>2010-06-22T08:24:52.004Z</time>
</trkpt>
<trkpt lat="43.1052600" lon="-2.9423200">
<ele>645.170166</ele>
<time>2010-06-22T08:25:02.001Z</time>
</trkpt>
<trkpt lat="43.1053300" lon="-2.9422300">
<ele>647.578125</ele>
<time>2010-06-22T08:25:11.004Z</time>
</trkpt>
<trkpt lat="43.1054000" lon="-2.9421200">
<ele>648.553467</ele>
<time>2010-06-22T08:25:19.998Z</time>
</trkpt>
<trkpt lat="43.1054500" lon="-2.9420200">
<ele>649.986023</ele>
<time>2010-06-22T08:25:29.001Z</time>
</trkpt>
<trkpt lat="43.1055200" lon="-2.9419100">
<ele>650.961365</ele>
<time>2010-06-22T08:25:38.004Z</time>
</trkpt>
<trkpt lat="43.1055800" lon="-2.9418100">
<ele>650.961365</ele>
<time>2010-06-22T08:25:46.004Z</time>
</trkpt>
<trkpt lat="43.1056500" lon="-2.9417000">
<ele>650.961365</ele>
<time>2010-06-22T08:25:53.003Z</time>
</trkpt>
<trkpt lat="43.1057100" lon="-2.9415900">
<ele>650.961365</ele>
<time>2010-06-22T08:26:00.001Z</time>
</trkpt>
<trkpt lat="43.1057700" lon="-2.9414700">
<ele>650.473694</ele>
<time>2010-06-22T08:26:06.999Z</time>
</trkpt>
<trkpt lat="43.1058200" lon="-2.9413500">
<ele>650.961365</ele>
<time>2010-06-22T08:26:13.998Z</time>
</trkpt>
<trkpt lat="43.1058700" lon="-2.9412300">
<ele>651.906250</ele>
<time>2010-06-22T08:26:21.998Z</time>
</trkpt>
<trkpt lat="43.1058900" lon="-2.9410900">
<ele>652.881592</ele>
<time>2010-06-22T08:26:29.999Z</time>
</trkpt>
<trkpt lat="43.1059200" lon="-2.9409700">
<ele>653.338806</ele>
<time>2010-06-22T08:26:36.997Z</time>
</trkpt>
<trkpt lat="43.1059600" lon="-2.9408600">
<ele>654.801880</ele>
<time>2010-06-22T08:26:44.998Z</time>
</trkpt>
<trkpt lat="43.1060000" lon="-2.9407500">
<ele>655.746704</ele>
<time>2010-06-22T08:26:51.996Z</time>
</trkpt>
<trkpt lat="43.1060500" lon="-2.9406300">
<ele>656.722107</ele>
<time>2010-06-22T08:26:59.004Z</time>
</trkpt>
<trkpt lat="43.1060900" lon="-2.9405100">
<ele>656.722107</ele>
<time>2010-06-22T08:27:06.002Z</time>
</trkpt>
<trkpt lat="43.1061000" lon="-2.9404000">
<ele>656.722107</ele>
<time>2010-06-22T08:27:13.000Z</time>
</trkpt>
<trkpt lat="43.1061400" lon="-2.9402700">
<ele>657.666931</ele>
<time>2010-06-22T08:27:21.001Z</time>
</trkpt>
<trkpt lat="43.1061700" lon="-2.9401500">
<ele>658.154663</ele>
<time>2010-06-22T08:27:29.002Z</time>
</trkpt>
<trkpt lat="43.1062100" lon="-2.9400300">
<ele>659.130005</ele>
<time>2010-06-22T08:27:36.000Z</time>
</trkpt>
<trkpt lat="43.1062600" lon="-2.9399100">
<ele>660.074890</ele>
<time>2010-06-22T08:27:44.001Z</time>
</trkpt>
<trkpt lat="43.1063000" lon="-2.9398000">
<ele>661.050232</ele>
<time>2010-06-22T08:27:52.001Z</time>
</trkpt>
<trkpt lat="43.1063300" lon="-2.9396800">
<ele>661.995117</ele>
<time>2010-06-22T08:28:00.002Z</time>
</trkpt>
<trkpt lat="43.1063600" lon="-2.9395600">
<ele>662.970520</ele>
<time>2010-06-22T08:28:09.998Z</time>
</trkpt>
<trkpt lat="43.1063700" lon="-2.9394400">
<ele>663.458130</ele>
<time>2010-06-22T08:28:16.997Z</time>
</trkpt>
<trkpt lat="43.1063900" lon="-2.9393100">
<ele>663.915344</ele>
<time>2010-06-22T08:28:24.004Z</time>
</trkpt>
<trkpt lat="43.1064000" lon="-2.9391800">
<ele>663.915344</ele>
<time>2010-06-22T08:28:31.002Z</time>
</trkpt>
<trkpt lat="43.1064100" lon="-2.9390400">
<ele>664.403076</ele>
<time>2010-06-22T08:28:38.001Z</time>
</trkpt>
<trkpt lat="43.1064300" lon="-2.9389100">
<ele>665.378418</ele>
<time>2010-06-22T08:28:44.999Z</time>
</trkpt>
<trkpt lat="43.1064400" lon="-2.9387900">
<ele>666.323303</ele>
<time>2010-06-22T08:28:51.997Z</time>
</trkpt>
<trkpt lat="43.1064700" lon="-2.9386700">
<ele>667.298645</ele>
<time>2010-06-22T08:28:59.998Z</time>
</trkpt>
<trkpt lat="43.1065200" lon="-2.9385400">
<ele>667.786316</ele>
<time>2010-06-22T08:29:11.999Z</time>
</trkpt>
<trkpt lat="43.1065300" lon="-2.9384100">
<ele>667.786316</ele>
<time>2010-06-22T08:29:18.997Z</time>
</trkpt>
<trkpt lat="43.1065400" lon="-2.9382800">
<ele>667.786316</ele>
<time>2010-06-22T08:29:25.996Z</time>
</trkpt>
<trkpt lat="43.1065700" lon="-2.9381800">
<ele>666.323303</ele>
<time>2010-06-22T08:29:34.999Z</time>
</trkpt>
<trkpt lat="43.1065000" lon="-2.9381200">
<ele>665.378418</ele>
<time>2010-06-22T08:30:05.999Z</time>
</trkpt>
<trkpt lat="43.1064000" lon="-2.9381400">
<ele>663.458130</ele>
<time>2010-06-22T08:30:14.000Z</time>
</trkpt>
<trkpt lat="43.1064100" lon="-2.9381900">
<ele>661.995117</ele>
<time>2010-06-22T08:33:05.003Z</time>
</trkpt>
<trkpt lat="43.1064400" lon="-2.9381300">
<ele>663.458130</ele>
<time>2010-06-22T08:49:33.004Z</time>
</trkpt>
<trkpt lat="43.1064400" lon="-2.9380300">
<ele>661.995117</ele>
<time>2010-06-22T08:49:43.000Z</time>
</trkpt>
<trkpt lat="43.1063600" lon="-2.9379800">
<ele>657.666931</ele>
<time>2010-06-22T08:49:52.997Z</time>
</trkpt>
<trkpt lat="43.1062800" lon="-2.9379200">
<ele>654.801880</ele>
<time>2010-06-22T08:50:04.998Z</time>
</trkpt>
<trkpt lat="43.1062100" lon="-2.9378300">
<ele>650.473694</ele>
<time>2010-06-22T08:50:22.001Z</time>
</trkpt>
<trkpt lat="43.1061700" lon="-2.9377200">
<ele>647.090393</ele>
<time>2010-06-22T08:50:31.998Z</time>
</trkpt>
<trkpt lat="43.1061500" lon="-2.9375900">
<ele>643.249878</ele>
<time>2010-06-22T08:50:42.003Z</time>
</trkpt>
<trkpt lat="43.1060900" lon="-2.9375400">
<ele>641.817322</ele>
<time>2010-06-22T08:50:54.004Z</time>
</trkpt>
<trkpt lat="43.1060200" lon="-2.9374500">
<ele>637.489197</ele>
<time>2010-06-22T08:51:04.000Z</time>
</trkpt>
<trkpt lat="43.1059600" lon="-2.9373500">
<ele>634.593628</ele>
<time>2010-06-22T08:51:13.997Z</time>
</trkpt>
<trkpt lat="43.1059100" lon="-2.9372500">
<ele>630.295898</ele>
<time>2010-06-22T08:51:25.004Z</time>
</trkpt>
<trkpt lat="43.1058500" lon="-2.9371400">
<ele>626.912659</ele>
<time>2010-06-22T08:51:36.003Z</time>
</trkpt>
<trkpt lat="43.1057900" lon="-2.9370500">
<ele>624.047546</ele>
<time>2010-06-22T08:51:47.002Z</time>
</trkpt>
<trkpt lat="43.1057400" lon="-2.9369600">
<ele>620.176575</ele>
<time>2010-06-22T08:51:58.000Z</time>
</trkpt>
<trkpt lat="43.1056500" lon="-2.9369600">
<ele>618.744019</ele>
<time>2010-06-22T08:52:14.002Z</time>
</trkpt>
<trkpt lat="43.1055800" lon="-2.9368700">
<ele>614.415833</ele>
<time>2010-06-22T08:52:38.997Z</time>
</trkpt>
<trkpt lat="43.1055700" lon="-2.9367400">
<ele>610.575317</ele>
<time>2010-06-22T08:52:49.002Z</time>
</trkpt>
<trkpt lat="43.1055200" lon="-2.9365900">
<ele>606.247192</ele>
<time>2010-06-22T08:53:00.001Z</time>
</trkpt>
<trkpt lat="43.1054400" lon="-2.9364500">
<ele>601.431335</ele>
<time>2010-06-22T08:53:15.000Z</time>
</trkpt>
<trkpt lat="43.1054400" lon="-2.9363100">
<ele>596.645996</ele>
<time>2010-06-22T08:53:28.003Z</time>
</trkpt>
<trkpt lat="43.1053800" lon="-2.9361900">
<ele>591.830139</ele>
<time>2010-06-22T08:53:42.000Z</time>
</trkpt>
<trkpt lat="43.1052900" lon="-2.9360000">
<ele>584.606384</ele>
<time>2010-06-22T08:53:58.001Z</time>
</trkpt>
<trkpt lat="43.1051900" lon="-2.9358700">
<ele>579.821045</ele>
<time>2010-06-22T08:54:14.003Z</time>
</trkpt>
<trkpt lat="43.1050900" lon="-2.9356700">
<ele>573.572632</ele>
<time>2010-06-22T08:54:33.002Z</time>
</trkpt>
<trkpt lat="43.1049500" lon="-2.9356000">
<ele>573.084961</ele>
<time>2010-06-22T08:54:42.998Z</time>
</trkpt>
<trkpt lat="43.1048500" lon="-2.9356000">
<ele>572.109619</ele>
<time>2010-06-22T08:54:49.997Z</time>
</trkpt>
<trkpt lat="43.1047400" lon="-2.9355200">
<ele>571.652405</ele>
<time>2010-06-22T08:54:57.004Z</time>
</trkpt>
<trkpt lat="43.1047400" lon="-2.9354000">
<ele>569.244446</ele>
<time>2010-06-22T08:55:04.996Z</time>
</trkpt>
<trkpt lat="43.1047600" lon="-2.9352300">
<ele>567.324280</ele>
<time>2010-06-22T08:55:12.996Z</time>
</trkpt>
<trkpt lat="43.1047900" lon="-2.9351000">
<ele>565.861206</ele>
<time>2010-06-22T08:55:20.997Z</time>
</trkpt>
<trkpt lat="43.1047600" lon="-2.9349700">
<ele>564.916321</ele>
<time>2010-06-22T08:55:28.998Z</time>
</trkpt>
<trkpt lat="43.1047800" lon="-2.9348400">
<ele>562.020752</ele>
<time>2010-06-22T08:55:38.001Z</time>
</trkpt>
<trkpt lat="43.1048100" lon="-2.9346900">
<ele>558.667908</ele>
<time>2010-06-22T08:55:55.004Z</time>
</trkpt>
<trkpt lat="43.1048200" lon="-2.9345200">
<ele>556.260010</ele>
<time>2010-06-22T08:56:05.001Z</time>
</trkpt>
<trkpt lat="43.1048400" lon="-2.9343800">
<ele>551.931885</ele>
<time>2010-06-22T08:56:18.004Z</time>
</trkpt>
<trkpt lat="43.1048700" lon="-2.9342000">
<ele>546.171143</ele>
<time>2010-06-22T08:56:33.996Z</time>
</trkpt>
<trkpt lat="43.1048100" lon="-2.9340400">
<ele>542.330627</ele>
<time>2010-06-22T08:56:42.999Z</time>
</trkpt>
<trkpt lat="43.1047700" lon="-2.9339200">
<ele>540.867615</ele>
<time>2010-06-22T08:56:49.004Z</time>
</trkpt>
<trkpt lat="43.1047700" lon="-2.9337500">
<ele>536.539429</ele>
<time>2010-06-22T08:57:01.999Z</time>
</trkpt>
<trkpt lat="43.1047200" lon="-2.9336200">
<ele>534.619202</ele>
<time>2010-06-22T08:57:11.002Z</time>
</trkpt>
<trkpt lat="43.1047300" lon="-2.9334700">
<ele>531.754089</ele>
<time>2010-06-22T08:57:20.998Z</time>
</trkpt>
<trkpt lat="43.1047600" lon="-2.9333100">
<ele>529.346130</ele>
<time>2010-06-22T08:57:31.003Z</time>
</trkpt>
<trkpt lat="43.1047600" lon="-2.9332000">
<ele>527.425903</ele>
<time>2010-06-22T08:57:41.000Z</time>
</trkpt>
<trkpt lat="43.1048800" lon="-2.9329300">
<ele>518.281921</ele>
<time>2010-06-22T08:58:06.997Z</time>
</trkpt>
<trkpt lat="43.1049300" lon="-2.9328500">
<ele>514.929138</ele>
<time>2010-06-22T08:58:17.996Z</time>
</trkpt>
<trkpt lat="43.1050100" lon="-2.9327200">
<ele>512.033508</ele>
<time>2010-06-22T08:58:25.997Z</time>
</trkpt>
<trkpt lat="43.1050000" lon="-2.9325600">
<ele>509.625610</ele>
<time>2010-06-22T08:58:36.002Z</time>
</trkpt>
<trkpt lat="43.1050000" lon="-2.9324300">
<ele>507.217682</ele>
<time>2010-06-22T08:58:44.996Z</time>
</trkpt>
<trkpt lat="43.1049800" lon="-2.9322900">
<ele>504.352539</ele>
<time>2010-06-22T08:58:53.999Z</time>
</trkpt>
<trkpt lat="43.1049300" lon="-2.9321500">
<ele>501.944641</ele>
<time>2010-06-22T08:59:02.000Z</time>
</trkpt>
<trkpt lat="43.1049600" lon="-2.9320000">
<ele>498.591858</ele>
<time>2010-06-22T08:59:11.003Z</time>
</trkpt>
<trkpt lat="43.1049700" lon="-2.9318200">
<ele>495.696259</ele>
<time>2010-06-22T08:59:20.999Z</time>
</trkpt>
<trkpt lat="43.1049300" lon="-2.9315800">
<ele>491.855743</ele>
<time>2010-06-22T08:59:38.003Z</time>
</trkpt>
<trkpt lat="43.1049100" lon="-2.9313800">
<ele>489.935516</ele>
<time>2010-06-22T08:59:47.999Z</time>
</trkpt>
<trkpt lat="43.1048900" lon="-2.9312400">
<ele>489.447845</ele>
<time>2010-06-22T08:59:56.000Z</time>
</trkpt>
<trkpt lat="43.1048100" lon="-2.9311200">
<ele>489.935516</ele>
<time>2010-06-22T09:00:04.000Z</time>
</trkpt>
<trkpt lat="43.1047600" lon="-2.9310000">
<ele>488.960144</ele>
<time>2010-06-22T09:00:10.999Z</time>
</trkpt>
<trkpt lat="43.1047300" lon="-2.9308700">
<ele>487.039917</ele>
<time>2010-06-22T09:00:17.997Z</time>
</trkpt>
<trkpt lat="43.1047200" lon="-2.9307300">
<ele>484.631989</ele>
<time>2010-06-22T09:00:25.004Z</time>
</trkpt>
<trkpt lat="43.1046800" lon="-2.9306100">
<ele>482.224060</ele>
<time>2010-06-22T09:00:32.003Z</time>
</trkpt>
<trkpt lat="43.1046200" lon="-2.9305000">
<ele>480.791534</ele>
<time>2010-06-22T09:00:39.001Z</time>
</trkpt>
<trkpt lat="43.1045800" lon="-2.9303800">
<ele>479.358948</ele>
<time>2010-06-22T09:00:45.999Z</time>
</trkpt>
<trkpt lat="43.1045500" lon="-2.9302500">
<ele>477.438721</ele>
<time>2010-06-22T09:00:52.998Z</time>
</trkpt>
<trkpt lat="43.1044800" lon="-2.9301500">
<ele>476.463348</ele>
<time>2010-06-22T09:00:59.996Z</time>
</trkpt>
<trkpt lat="43.1044300" lon="-2.9300400">
<ele>475.030792</ele>
<time>2010-06-22T09:01:07.003Z</time>
</trkpt>
<trkpt lat="43.1043800" lon="-2.9299100">
<ele>473.598267</ele>
<time>2010-06-22T09:01:15.997Z</time>
</trkpt>
<trkpt lat="43.1043100" lon="-2.9297900">
<ele>472.622864</ele>
<time>2010-06-22T09:01:23.998Z</time>
</trkpt>
<trkpt lat="43.1042200" lon="-2.9296900">
<ele>471.678009</ele>
<time>2010-06-22T09:01:30.996Z</time>
</trkpt>
<trkpt lat="43.1041900" lon="-2.9295400">
<ele>468.782410</ele>
<time>2010-06-22T09:01:38.004Z</time>
</trkpt>
<trkpt lat="43.1041700" lon="-2.9294200">
<ele>466.374481</ele>
<time>2010-06-22T09:01:45.002Z</time>
</trkpt>
<trkpt lat="43.1040800" lon="-2.9293200">
<ele>465.886810</ele>
<time>2010-06-22T09:01:53.996Z</time>
</trkpt>
<trkpt lat="43.1040000" lon="-2.9291900">
<ele>463.966553</ele>
<time>2010-06-22T09:02:02.999Z</time>
</trkpt>
<trkpt lat="43.1039200" lon="-2.9290600">
<ele>461.558655</ele>
<time>2010-06-22T09:02:12.002Z</time>
</trkpt>
<trkpt lat="43.1038400" lon="-2.9289600">
<ele>462.046326</ele>
<time>2010-06-22T09:02:20.003Z</time>
</trkpt>
<trkpt lat="43.1037800" lon="-2.9288400">
<ele>459.638397</ele>
<time>2010-06-22T09:02:28.003Z</time>
</trkpt>
<trkpt lat="43.1036900" lon="-2.9287400">
<ele>459.638397</ele>
<time>2010-06-22T09:02:36.997Z</time>
</trkpt>
<trkpt lat="43.1036100" lon="-2.9286300">
<ele>457.718140</ele>
<time>2010-06-22T09:02:46.000Z</time>
</trkpt>
<trkpt lat="43.1035500" lon="-2.9285000">
<ele>454.365356</ele>
<time>2010-06-22T09:02:55.003Z</time>
</trkpt>
<trkpt lat="43.1034800" lon="-2.9283700">
<ele>452.445129</ele>
<time>2010-06-22T09:03:03.997Z</time>
</trkpt>
<trkpt lat="43.1033800" lon="-2.9282600">
<ele>452.445129</ele>
<time>2010-06-22T09:03:13.000Z</time>
</trkpt>
<trkpt lat="43.1033100" lon="-2.9281600">
<ele>450.982086</ele>
<time>2010-06-22T09:03:21.001Z</time>
</trkpt>
<trkpt lat="43.1032500" lon="-2.9280400">
<ele>449.061859</ele>
<time>2010-06-22T09:03:29.002Z</time>
</trkpt>
<trkpt lat="43.1032200" lon="-2.9279200">
<ele>447.141602</ele>
<time>2010-06-22T09:03:37.002Z</time>
</trkpt>
<trkpt lat="43.1031500" lon="-2.9278000">
<ele>445.221344</ele>
<time>2010-06-22T09:03:45.003Z</time>
</trkpt>
<trkpt lat="43.1031000" lon="-2.9276700">
<ele>443.301117</ele>
<time>2010-06-22T09:03:53.004Z</time>
</trkpt>
<trkpt lat="43.1030300" lon="-2.9275700">
<ele>441.868530</ele>
<time>2010-06-22T09:04:01.004Z</time>
</trkpt>
<trkpt lat="43.1029500" lon="-2.9274900">
<ele>440.893188</ele>
<time>2010-06-22T09:04:08.003Z</time>
</trkpt>
<trkpt lat="43.1028800" lon="-2.9274100">
<ele>438.972931</ele>
<time>2010-06-22T09:04:15.001Z</time>
</trkpt>
<trkpt lat="43.1028100" lon="-2.9273200">
<ele>436.107849</ele>
<time>2010-06-22T09:04:21.999Z</time>
</trkpt>
<trkpt lat="43.1027400" lon="-2.9272300">
<ele>434.644806</ele>
<time>2010-06-22T09:04:28.998Z</time>
</trkpt>
<trkpt lat="43.1026900" lon="-2.9271200">
<ele>433.212250</ele>
<time>2010-06-22T09:04:35.996Z</time>
</trkpt>
<trkpt lat="43.1026300" lon="-2.9270200">
<ele>433.212250</ele>
<time>2010-06-22T09:04:43.003Z</time>
</trkpt>
<trkpt lat="43.1025900" lon="-2.9269100">
<ele>431.779663</ele>
<time>2010-06-22T09:04:50.002Z</time>
</trkpt>
<trkpt lat="43.1025500" lon="-2.9268000">
<ele>431.779663</ele>
<time>2010-06-22T09:04:57.000Z</time>
</trkpt>
<trkpt lat="43.1025500" lon="-2.9266600">
<ele>429.859467</ele>
<time>2010-06-22T09:05:03.998Z</time>
</trkpt>
<trkpt lat="43.1025500" lon="-2.9265300">
<ele>428.396393</ele>
<time>2010-06-22T09:05:11.999Z</time>
</trkpt>
<trkpt lat="43.1026100" lon="-2.9264600">
<ele>426.963867</ele>
<time>2010-06-22T09:05:25.996Z</time>
</trkpt>
<trkpt lat="43.1027000" lon="-2.9264400">
<ele>424.555939</ele>
<time>2010-06-22T09:05:33.996Z</time>
</trkpt>
<trkpt lat="43.1028000" lon="-2.9264500">
<ele>422.635681</ele>
<time>2010-06-22T09:05:41.004Z</time>
</trkpt>
<trkpt lat="43.1028900" lon="-2.9264200">
<ele>420.227753</ele>
<time>2010-06-22T09:05:48.002Z</time>
</trkpt>
<trkpt lat="43.1029800" lon="-2.9264200">
<ele>417.819855</ele>
<time>2010-06-22T09:05:55.000Z</time>
</trkpt>
<trkpt lat="43.1030800" lon="-2.9264200">
<ele>415.411926</ele>
<time>2010-06-22T09:06:03.001Z</time>
</trkpt>
<trkpt lat="43.1031700" lon="-2.9264300">
<ele>413.491669</ele>
<time>2010-06-22T09:06:11.002Z</time>
</trkpt>
<trkpt lat="43.1032600" lon="-2.9264400">
<ele>410.626556</ele>
<time>2010-06-22T09:06:19.996Z</time>
</trkpt>
<trkpt lat="43.1033200" lon="-2.9265100">
<ele>409.651215</ele>
<time>2010-06-22T09:07:25.003Z</time>
</trkpt>
<trkpt lat="43.1034100" lon="-2.9265700">
<ele>407.730957</ele>
<time>2010-06-22T09:07:33.997Z</time>
</trkpt>
<trkpt lat="43.1035000" lon="-2.9265600">
<ele>404.865845</ele>
<time>2010-06-22T09:07:52.997Z</time>
</trkpt>
<trkpt lat="43.1036100" lon="-2.9265500">
<ele>402.457916</ele>
<time>2010-06-22T09:08:02.000Z</time>
</trkpt>
<trkpt lat="43.1037100" lon="-2.9265700">
<ele>399.562317</ele>
<time>2010-06-22T09:08:11.996Z</time>
</trkpt>
<trkpt lat="43.1038200" lon="-2.9265700">
<ele>397.154388</ele>
<time>2010-06-22T09:08:24.999Z</time>
</trkpt>
<trkpt lat="43.1039400" lon="-2.9266100">
<ele>394.289276</ele>
<time>2010-06-22T09:08:34.996Z</time>
</trkpt>
<trkpt lat="43.1040500" lon="-2.9266400">
<ele>391.881348</ele>
<time>2010-06-22T09:08:43.999Z</time>
</trkpt>
<trkpt lat="43.1041600" lon="-2.9266200">
<ele>388.985748</ele>
<time>2010-06-22T09:08:51.999Z</time>
</trkpt>
<trkpt lat="43.1042800" lon="-2.9266100">
<ele>386.120667</ele>
<time>2010-06-22T09:09:02.998Z</time>
</trkpt>
<trkpt lat="43.1044100" lon="-2.9266100">
<ele>383.712738</ele>
<time>2010-06-22T09:09:13.997Z</time>
</trkpt>
<trkpt lat="43.1045200" lon="-2.9265000">
<ele>381.792480</ele>
<time>2010-06-22T09:09:40.003Z</time>
</trkpt>
<trkpt lat="43.1045900" lon="-2.9264200">
<ele>379.384552</ele>
<time>2010-06-22T09:09:48.004Z</time>
</trkpt>
<trkpt lat="43.1046600" lon="-2.9263300">
<ele>376.488953</ele>
<time>2010-06-22T09:09:56.998Z</time>
</trkpt>
<trkpt lat="43.1047300" lon="-2.9262000">
<ele>374.081055</ele>
<time>2010-06-22T09:10:06.001Z</time>
</trkpt>
<trkpt lat="43.1048200" lon="-2.9261100">
<ele>372.648468</ele>
<time>2010-06-22T09:10:12.999Z</time>
</trkpt>
<trkpt lat="43.1049000" lon="-2.9260300">
<ele>371.215942</ele>
<time>2010-06-22T09:10:19.998Z</time>
</trkpt>
<trkpt lat="43.1049900" lon="-2.9259600">
<ele>370.240540</ele>
<time>2010-06-22T09:10:26.003Z</time>
</trkpt>
<trkpt lat="43.1050900" lon="-2.9258800">
<ele>369.295685</ele>
<time>2010-06-22T09:10:33.001Z</time>
</trkpt>
<trkpt lat="43.1051700" lon="-2.9258100">
<ele>367.375458</ele>
<time>2010-06-22T09:10:39.999Z</time>
</trkpt>
<trkpt lat="43.1052500" lon="-2.9257500">
<ele>365.424713</ele>
<time>2010-06-22T09:10:46.998Z</time>
</trkpt>
<trkpt lat="43.1053400" lon="-2.9256800">
<ele>363.504486</ele>
<time>2010-06-22T09:10:54.998Z</time>
</trkpt>
<trkpt lat="43.1054600" lon="-2.9256300">
<ele>359.664001</ele>
<time>2010-06-22T09:11:04.001Z</time>
</trkpt>
<trkpt lat="43.1055500" lon="-2.9255600">
<ele>356.311188</ele>
<time>2010-06-22T09:11:11.000Z</time>
</trkpt>
<trkpt lat="43.1056100" lon="-2.9254900">
<ele>352.470734</ele>
<time>2010-06-22T09:11:20.996Z</time>
</trkpt>
<trkpt lat="43.1056500" lon="-2.9253600">
<ele>349.087463</ele>
<time>2010-06-22T09:11:31.001Z</time>
</trkpt>
<trkpt lat="43.1057200" lon="-2.9252700">
<ele>346.679535</ele>
<time>2010-06-22T09:11:40.004Z</time>
</trkpt>
<trkpt lat="43.1057800" lon="-2.9251700">
<ele>344.302063</ele>
<time>2010-06-22T09:11:47.996Z</time>
</trkpt>
<trkpt lat="43.1058400" lon="-2.9250500">
<ele>341.406464</ele>
<time>2010-06-22T09:11:56.999Z</time>
</trkpt>
<trkpt lat="43.1059000" lon="-2.9249200">
<ele>339.973938</ele>
<time>2010-06-22T09:12:05.000Z</time>
</trkpt>
<trkpt lat="43.1059600" lon="-2.9247800">
<ele>338.053680</ele>
<time>2010-06-22T09:12:14.003Z</time>
</trkpt>
<trkpt lat="43.1060100" lon="-2.9246300">
<ele>336.590668</ele>
<time>2010-06-22T09:12:21.001Z</time>
</trkpt>
<trkpt lat="43.1060600" lon="-2.9245100">
<ele>335.158081</ele>
<time>2010-06-22T09:12:27.999Z</time>
</trkpt>
<trkpt lat="43.1060900" lon="-2.9243800">
<ele>334.670410</ele>
<time>2010-06-22T09:12:34.998Z</time>
</trkpt>
<trkpt lat="43.1061400" lon="-2.9242500">
<ele>332.750153</ele>
<time>2010-06-22T09:12:41.996Z</time>
</trkpt>
<trkpt lat="43.1061800" lon="-2.9241200">
<ele>332.262482</ele>
<time>2010-06-22T09:12:49.997Z</time>
</trkpt>
<trkpt lat="43.1062300" lon="-2.9239700">
<ele>330.829926</ele>
<time>2010-06-22T09:12:59.000Z</time>
</trkpt>
<trkpt lat="43.1062700" lon="-2.9238400">
<ele>328.421997</ele>
<time>2010-06-22T09:13:07.000Z</time>
</trkpt>
<trkpt lat="43.1063200" lon="-2.9237100">
<ele>326.989441</ele>
<time>2010-06-22T09:13:13.999Z</time>
</trkpt>
<trkpt lat="43.1063700" lon="-2.9236000">
<ele>325.069214</ele>
<time>2010-06-22T09:13:20.997Z</time>
</trkpt>
<trkpt lat="43.1064100" lon="-2.9234600">
<ele>322.661285</ele>
<time>2010-06-22T09:13:28.998Z</time>
</trkpt>
<trkpt lat="43.1064500" lon="-2.9233300">
<ele>321.685913</ele>
<time>2010-06-22T09:13:35.996Z</time>
</trkpt>
<trkpt lat="43.1064900" lon="-2.9232200">
<ele>319.765686</ele>
<time>2010-06-22T09:13:43.003Z</time>
</trkpt>
<trkpt lat="43.1065300" lon="-2.9231000">
<ele>318.333130</ele>
<time>2010-06-22T09:13:50.002Z</time>
</trkpt>
<trkpt lat="43.1065700" lon="-2.9229700">
<ele>316.900543</ele>
<time>2010-06-22T09:13:57.000Z</time>
</trkpt>
<trkpt lat="43.1066100" lon="-2.9228500">
<ele>315.925201</ele>
<time>2010-06-22T09:14:03.998Z</time>
</trkpt>
<trkpt lat="43.1066400" lon="-2.9227300">
<ele>314.492645</ele>
<time>2010-06-22T09:14:10.997Z</time>
</trkpt>
<trkpt lat="43.1066900" lon="-2.9226200">
<ele>312.572388</ele>
<time>2010-06-22T09:14:18.004Z</time>
</trkpt>
<trkpt lat="43.1067200" lon="-2.9225000">
<ele>310.652161</ele>
<time>2010-06-22T09:14:25.002Z</time>
</trkpt>
<trkpt lat="43.1067600" lon="-2.9223800">
<ele>308.731934</ele>
<time>2010-06-22T09:14:32.001Z</time>
</trkpt>
<trkpt lat="43.1067900" lon="-2.9222700">
<ele>306.811676</ele>
<time>2010-06-22T09:14:38.999Z</time>
</trkpt>
<trkpt lat="43.1068300" lon="-2.9221600">
<ele>306.811676</ele>
<time>2010-06-22T09:14:45.004Z</time>
</trkpt>
<trkpt lat="43.1068600" lon="-2.9220300">
<ele>301.995850</ele>
<time>2010-06-22T09:14:52.996Z</time>
</trkpt>
<trkpt lat="43.1069000" lon="-2.9218900">
<ele>299.587921</ele>
<time>2010-06-22T09:15:00.996Z</time>
</trkpt>
<trkpt lat="43.1069300" lon="-2.9217700">
<ele>297.667664</ele>
<time>2010-06-22T09:15:07.001Z</time>
</trkpt>
<trkpt lat="43.1069600" lon="-2.9216300">
<ele>296.235138</ele>
<time>2010-06-22T09:15:14.000Z</time>
</trkpt>
<trkpt lat="43.1069800" lon="-2.9215000">
<ele>293.827209</ele>
<time>2010-06-22T09:15:20.998Z</time>
</trkpt>
<trkpt lat="43.1069900" lon="-2.9213700">
<ele>292.364166</ele>
<time>2010-06-22T09:15:27.996Z</time>
</trkpt>
<trkpt lat="43.1070100" lon="-2.9212400">
<ele>291.419281</ele>
<time>2010-06-22T09:15:35.004Z</time>
</trkpt>
<trkpt lat="43.1070300" lon="-2.9211200">
<ele>290.443939</ele>
<time>2010-06-22T09:15:42.002Z</time>
</trkpt>
<trkpt lat="43.1070600" lon="-2.9210100">
<ele>289.499023</ele>
<time>2010-06-22T09:15:51.998Z</time>
</trkpt>
<trkpt lat="43.1070700" lon="-2.9208800">
<ele>288.066467</ele>
<time>2010-06-22T09:15:58.997Z</time>
</trkpt>
<trkpt lat="43.1070900" lon="-2.9207500">
<ele>286.115753</ele>
<time>2010-06-22T09:16:06.004Z</time>
</trkpt>
<trkpt lat="43.1071100" lon="-2.9206200">
<ele>284.195526</ele>
<time>2010-06-22T09:16:13.996Z</time>
</trkpt>
<trkpt lat="43.1071300" lon="-2.9204900">
<ele>281.330414</ele>
<time>2010-06-22T09:16:21.996Z</time>
</trkpt>
<trkpt lat="43.1071400" lon="-2.9203500">
<ele>279.410156</ele>
<time>2010-06-22T09:16:29.004Z</time>
</trkpt>
<trkpt lat="43.1071600" lon="-2.9202100">
<ele>277.489929</ele>
<time>2010-06-22T09:16:36.002Z</time>
</trkpt>
<trkpt lat="43.1071700" lon="-2.9200900">
<ele>275.082001</ele>
<time>2010-06-22T09:16:43.000Z</time>
</trkpt>
<trkpt lat="43.1071800" lon="-2.9199600">
<ele>272.186401</ele>
<time>2010-06-22T09:16:49.999Z</time>
</trkpt>
<trkpt lat="43.1072000" lon="-2.9198200">
<ele>270.266174</ele>
<time>2010-06-22T09:16:59.002Z</time>
</trkpt>
<trkpt lat="43.1072000" lon="-2.9196800">
<ele>267.370575</ele>
<time>2010-06-22T09:17:07.002Z</time>
</trkpt>
<trkpt lat="43.1072200" lon="-2.9195400">
<ele>264.505432</ele>
<time>2010-06-22T09:17:15.003Z</time>
</trkpt>
<trkpt lat="43.1072200" lon="-2.9194100">
<ele>261.609833</ele>
<time>2010-06-22T09:17:23.004Z</time>
</trkpt>
<trkpt lat="43.1072300" lon="-2.9192800">
<ele>259.201935</ele>
<time>2010-06-22T09:17:31.998Z</time>
</trkpt>
<trkpt lat="43.1072300" lon="-2.9191400">
<ele>256.824463</ele>
<time>2010-06-22T09:17:39.998Z</time>
</trkpt>
<trkpt lat="43.1072400" lon="-2.9190100">
<ele>253.928879</ele>
<time>2010-06-22T09:17:47.999Z</time>
</trkpt>
<trkpt lat="43.1072400" lon="-2.9188800">
<ele>251.520966</ele>
<time>2010-06-22T09:17:56.000Z</time>
</trkpt>
<trkpt lat="43.1072600" lon="-2.9187600">
<ele>249.113037</ele>
<time>2010-06-22T09:18:04.000Z</time>
</trkpt>
<trkpt lat="43.1072700" lon="-2.9186300">
<ele>245.760239</ele>
<time>2010-06-22T09:18:12.001Z</time>
</trkpt>
<trkpt lat="43.1073100" lon="-2.9185200">
<ele>244.784866</ele>
<time>2010-06-22T09:18:18.999Z</time>
</trkpt>
<trkpt lat="43.1074100" lon="-2.9185000">
<ele>243.839996</ele>
<time>2010-06-22T09:18:25.998Z</time>
</trkpt>
<trkpt lat="43.1075100" lon="-2.9185100">
<ele>242.376968</ele>
<time>2010-06-22T09:18:32.996Z</time>
</trkpt>
<trkpt lat="43.1076100" lon="-2.9185100">
<ele>241.919769</ele>
<time>2010-06-22T09:18:40.003Z</time>
</trkpt>
<trkpt lat="43.1077100" lon="-2.9185200">
<ele>241.432068</ele>
<time>2010-06-22T09:18:47.002Z</time>
</trkpt>
<trkpt lat="43.1078200" lon="-2.9185500">
<ele>240.944397</ele>
<time>2010-06-22T09:18:55.002Z</time>
</trkpt>
<trkpt lat="43.1079200" lon="-2.9185400">
<ele>239.511841</ele>
<time>2010-06-22T09:19:02.001Z</time>
</trkpt>
<trkpt lat="43.1080100" lon="-2.9185000">
<ele>239.024170</ele>
<time>2010-06-22T09:19:08.999Z</time>
</trkpt>
<trkpt lat="43.1080900" lon="-2.9184400">
<ele>237.591599</ele>
<time>2010-06-22T09:19:15.997Z</time>
</trkpt>
<trkpt lat="43.1081700" lon="-2.9183700">
<ele>236.616241</ele>
<time>2010-06-22T09:19:22.996Z</time>
</trkpt>
<trkpt lat="43.1082600" lon="-2.9183000">
<ele>235.183670</ele>
<time>2010-06-22T09:19:30.003Z</time>
</trkpt>
<trkpt lat="43.1083300" lon="-2.9182100">
<ele>234.208328</ele>
<time>2010-06-22T09:19:37.001Z</time>
</trkpt>
<trkpt lat="43.1084100" lon="-2.9181300">
<ele>232.775757</ele>
<time>2010-06-22T09:19:44.000Z</time>
</trkpt>
<trkpt lat="43.1084500" lon="-2.9180100">
<ele>231.343201</ele>
<time>2010-06-22T09:19:50.998Z</time>
</trkpt>
<trkpt lat="43.1085100" lon="-2.9179100">
<ele>228.935272</ele>
<time>2010-06-22T09:19:57.996Z</time>
</trkpt>
<trkpt lat="43.1085400" lon="-2.9177800">
<ele>227.015030</ele>
<time>2010-06-22T09:20:05.997Z</time>
</trkpt>
<trkpt lat="43.1085500" lon="-2.9176400">
<ele>225.552002</ele>
<time>2010-06-22T09:20:13.004Z</time>
</trkpt>
<trkpt lat="43.1086000" lon="-2.9175200">
<ele>223.631760</ele>
<time>2010-06-22T09:20:20.003Z</time>
</trkpt>
<trkpt lat="43.1086600" lon="-2.9174200">
<ele>221.254333</ele>
<time>2010-06-22T09:20:27.001Z</time>
</trkpt>
<trkpt lat="43.1087300" lon="-2.9173400">
<ele>220.766632</ele>
<time>2010-06-22T09:20:33.999Z</time>
</trkpt>
<trkpt lat="43.1088300" lon="-2.9172900">
<ele>220.278961</ele>
<time>2010-06-22T09:20:43.996Z</time>
</trkpt>
<trkpt lat="43.1089200" lon="-2.9172400">
<ele>218.846405</ele>
<time>2010-06-22T09:20:51.996Z</time>
</trkpt>
<trkpt lat="43.1090200" lon="-2.9172100">
<ele>217.871033</ele>
<time>2010-06-22T09:20:59.997Z</time>
</trkpt>
<trkpt lat="43.1091200" lon="-2.9171800">
<ele>216.438477</ele>
<time>2010-06-22T09:21:07.998Z</time>
</trkpt>
<trkpt lat="43.1092100" lon="-2.9171600">
<ele>214.518234</ele>
<time>2010-06-22T09:21:14.996Z</time>
</trkpt>
<trkpt lat="43.1093000" lon="-2.9171300">
<ele>213.055206</ele>
<time>2010-06-22T09:21:22.003Z</time>
</trkpt>
<trkpt lat="43.1093900" lon="-2.9170900">
<ele>211.134964</ele>
<time>2010-06-22T09:21:29.002Z</time>
</trkpt>
<trkpt lat="43.1094900" lon="-2.9170800">
<ele>209.214722</ele>
<time>2010-06-22T09:21:37.002Z</time>
</trkpt>
<trkpt lat="43.1096100" lon="-2.9170700">
<ele>207.294479</ele>
<time>2010-06-22T09:21:45.996Z</time>
</trkpt>
<trkpt lat="43.1097100" lon="-2.9171100">
<ele>206.349594</ele>
<time>2010-06-22T09:21:53.004Z</time>
</trkpt>
<trkpt lat="43.1098100" lon="-2.9171700">
<ele>205.374237</ele>
<time>2010-06-22T09:22:00.002Z</time>
</trkpt>
<trkpt lat="43.1099200" lon="-2.9172100">
<ele>203.453995</ele>
<time>2010-06-22T09:22:08.996Z</time>
</trkpt>
<trkpt lat="43.1100400" lon="-2.9172300">
<ele>201.046066</ele>
<time>2010-06-22T09:22:17.999Z</time>
</trkpt>
<trkpt lat="43.1101500" lon="-2.9172600">
<ele>200.101196</ele>
<time>2010-06-22T09:22:26.000Z</time>
</trkpt>
<trkpt lat="43.1102500" lon="-2.9173200">
<ele>198.180969</ele>
<time>2010-06-22T09:22:34.000Z</time>
</trkpt>
<trkpt lat="43.1103600" lon="-2.9173900">
<ele>197.205597</ele>
<time>2010-06-22T09:22:42.001Z</time>
</trkpt>
<trkpt lat="43.1104500" lon="-2.9174800">
<ele>195.773041</ele>
<time>2010-06-22T09:22:50.002Z</time>
</trkpt>
<trkpt lat="43.1105500" lon="-2.9175600">
<ele>194.797668</ele>
<time>2010-06-22T09:22:58.002Z</time>
</trkpt>
<trkpt lat="43.1106300" lon="-2.9176400">
<ele>193.852798</ele>
<time>2010-06-22T09:23:05.001Z</time>
</trkpt>
<trkpt lat="43.1107400" lon="-2.9176700">
<ele>192.389771</ele>
<time>2010-06-22T09:23:11.999Z</time>
</trkpt>
<trkpt lat="43.1108200" lon="-2.9175800">
<ele>191.932556</ele>
<time>2010-06-22T09:23:18.997Z</time>
</trkpt>
<trkpt lat="43.1108400" lon="-2.9174600">
<ele>190.957199</ele>
<time>2010-06-22T09:23:25.996Z</time>
</trkpt>
<trkpt lat="43.1108800" lon="-2.9173400">
<ele>190.012329</ele>
<time>2010-06-22T09:23:33.003Z</time>
</trkpt>
<trkpt lat="43.1108900" lon="-2.9172000">
<ele>189.036957</ele>
<time>2010-06-22T09:23:40.001Z</time>
</trkpt>
<trkpt lat="43.1109100" lon="-2.9170700">
<ele>188.549271</ele>
<time>2010-06-22T09:23:45.997Z</time>
</trkpt>
<trkpt lat="43.1109100" lon="-2.9169300">
<ele>188.061600</ele>
<time>2010-06-22T09:23:52.996Z</time>
</trkpt>
<trkpt lat="43.1109300" lon="-2.9168100">
<ele>187.604401</ele>
<time>2010-06-22T09:24:00.003Z</time>
</trkpt>
<trkpt lat="43.1109700" lon="-2.9166600">
<ele>186.141357</ele>
<time>2010-06-22T09:24:08.004Z</time>
</trkpt>
<trkpt lat="43.1109800" lon="-2.9165300">
<ele>185.196472</ele>
<time>2010-06-22T09:24:15.002Z</time>
</trkpt>
<trkpt lat="43.1109700" lon="-2.9163900">
<ele>184.708801</ele>
<time>2010-06-22T09:24:22.000Z</time>
</trkpt>
<trkpt lat="43.1109600" lon="-2.9162600">
<ele>184.221130</ele>
<time>2010-06-22T09:24:28.999Z</time>
</trkpt>
<trkpt lat="43.1109700" lon="-2.9161200">
<ele>184.221130</ele>
<time>2010-06-22T09:24:36.999Z</time>
</trkpt>
<trkpt lat="43.1109800" lon="-2.9159500">
<ele>183.763931</ele>
<time>2010-06-22T09:24:46.996Z</time>
</trkpt>
<trkpt lat="43.1109200" lon="-2.9158400">
<ele>183.763931</ele>
<time>2010-06-22T09:24:54.996Z</time>
</trkpt>
<trkpt lat="43.1108200" lon="-2.9158000">
<ele>183.763931</ele>
<time>2010-06-22T09:25:02.004Z</time>
</trkpt>
<trkpt lat="43.1107300" lon="-2.9158000">
<ele>184.221130</ele>
<time>2010-06-22T09:25:09.002Z</time>
</trkpt>
<trkpt lat="43.1106400" lon="-2.9157600">
<ele>183.276230</ele>
<time>2010-06-22T09:25:16.000Z</time>
</trkpt>
<trkpt lat="43.1105600" lon="-2.9156900">
<ele>183.276230</ele>
<time>2010-06-22T09:25:22.999Z</time>
</trkpt>
<trkpt lat="43.1104900" lon="-2.9156100">
<ele>183.276230</ele>
<time>2010-06-22T09:25:29.997Z</time>
</trkpt>
<trkpt lat="43.1104200" lon="-2.9155100">
<ele>182.788559</ele>
<time>2010-06-22T09:25:37.004Z</time>
</trkpt>
<trkpt lat="43.1103700" lon="-2.9153900">
<ele>181.813202</ele>
<time>2010-06-22T09:25:44.996Z</time>
</trkpt>
<trkpt lat="43.1103300" lon="-2.9152700">
<ele>181.813202</ele>
<time>2010-06-22T09:25:52.003Z</time>
</trkpt>
<trkpt lat="43.1103200" lon="-2.9152200">
<ele>181.356003</ele>
<time>2010-06-22T09:26:08.998Z</time>
</trkpt>
<trkpt lat="43.1102900" lon="-2.9150900">
<ele>180.868332</ele>
<time>2010-06-22T09:26:20.999Z</time>
</trkpt>
<trkpt lat="43.1102800" lon="-2.9149500">
<ele>180.380630</ele>
<time>2010-06-22T09:26:27.997Z</time>
</trkpt>
<trkpt lat="43.1102800" lon="-2.9148200">
<ele>180.380630</ele>
<time>2010-06-22T09:26:38.003Z</time>
</trkpt>
<trkpt lat="43.1102600" lon="-2.9147000">
<ele>179.435760</ele>
<time>2010-06-22T09:26:47.999Z</time>
</trkpt>
<trkpt lat="43.1101300" lon="-2.9142100">
<ele>178.948074</ele>
<time>2010-06-22T09:26:58.004Z</time>
</trkpt>
<trkpt lat="43.1101900" lon="-2.9142300">
<ele>178.460403</ele>
<time>2010-06-22T09:27:05.996Z</time>
</trkpt>
<trkpt lat="43.1102600" lon="-2.9141300">
<ele>177.515533</ele>
<time>2010-06-22T09:27:13.003Z</time>
</trkpt>
<trkpt lat="43.1103500" lon="-2.9140700">
<ele>177.027832</ele>
<time>2010-06-22T09:27:20.002Z</time>
</trkpt>
<trkpt lat="43.1104500" lon="-2.9140400">
<ele>177.515533</ele>
<time>2010-06-22T09:27:27.000Z</time>
</trkpt>
<trkpt lat="43.1105500" lon="-2.9140300">
<ele>177.027832</ele>
<time>2010-06-22T09:27:33.998Z</time>
</trkpt>
<trkpt lat="43.1106600" lon="-2.9140200">
<ele>177.515533</ele>
<time>2010-06-22T09:27:40.997Z</time>
</trkpt>
<trkpt lat="43.1107600" lon="-2.9140000">
<ele>177.027832</ele>
<time>2010-06-22T09:27:48.997Z</time>
</trkpt>
<trkpt lat="43.1108700" lon="-2.9139900">
<ele>176.540161</ele>
<time>2010-06-22T09:27:55.996Z</time>
</trkpt>
<trkpt lat="43.1109700" lon="-2.9139700">
<ele>176.540161</ele>
<time>2010-06-22T09:28:03.003Z</time>
</trkpt>
<trkpt lat="43.1110800" lon="-2.9139500">
<ele>176.540161</ele>
<time>2010-06-22T09:28:10.001Z</time>
</trkpt>
<trkpt lat="43.1111800" lon="-2.9139300">
<ele>175.564804</ele>
<time>2010-06-22T09:28:17.000Z</time>
</trkpt>
<trkpt lat="43.1112800" lon="-2.9139200">
<ele>175.564804</ele>
<time>2010-06-22T09:28:23.998Z</time>
</trkpt>
<trkpt lat="43.1113900" lon="-2.9139000">
<ele>176.052475</ele>
<time>2010-06-22T09:28:30.996Z</time>
</trkpt>
<trkpt lat="43.1114800" lon="-2.9138800">
<ele>176.052475</ele>
<time>2010-06-22T09:28:38.004Z</time>
</trkpt>
<trkpt lat="43.1116000" lon="-2.9138800">
<ele>176.052475</ele>
<time>2010-06-22T09:28:46.004Z</time>
</trkpt>
<trkpt lat="43.1117200" lon="-2.9138800">
<ele>175.564804</ele>
<time>2010-06-22T09:28:53.996Z</time>
</trkpt>
<trkpt lat="43.1118200" lon="-2.9138500">
<ele>175.107605</ele>
<time>2010-06-22T09:29:01.003Z</time>
</trkpt>
<trkpt lat="43.1119100" lon="-2.9138000">
<ele>174.619934</ele>
<time>2010-06-22T09:29:06.999Z</time>
</trkpt>
<trkpt lat="43.1119800" lon="-2.9137000">
<ele>173.644562</ele>
<time>2010-06-22T09:29:13.998Z</time>
</trkpt>
<trkpt lat="43.1120500" lon="-2.9135800">
<ele>173.187363</ele>
<time>2010-06-22T09:29:24.996Z</time>
</trkpt>
<trkpt lat="43.1121000" lon="-2.9134600">
<ele>173.187363</ele>
<time>2010-06-22T09:29:32.004Z</time>
</trkpt>
<trkpt lat="43.1121600" lon="-2.9133500">
<ele>172.212006</ele>
<time>2010-06-22T09:29:39.002Z</time>
</trkpt>
<trkpt lat="43.1122400" lon="-2.9132500">
<ele>171.724335</ele>
<time>2010-06-22T09:29:46.000Z</time>
</trkpt>
<trkpt lat="43.1123100" lon="-2.9131600">
<ele>171.724335</ele>
<time>2010-06-22T09:29:52.999Z</time>
</trkpt>
<trkpt lat="43.1124000" lon="-2.9130800">
<ele>171.724335</ele>
<time>2010-06-22T09:29:59.997Z</time>
</trkpt>
<trkpt lat="43.1124700" lon="-2.9129900">
<ele>171.267120</ele>
<time>2010-06-22T09:30:07.004Z</time>
</trkpt>
<trkpt lat="43.1125400" lon="-2.9128900">
<ele>171.267120</ele>
<time>2010-06-22T09:30:14.996Z</time>
</trkpt>
<trkpt lat="43.1126100" lon="-2.9128000">
<ele>170.291763</ele>
<time>2010-06-22T09:30:22.003Z</time>
</trkpt>
<trkpt lat="43.1126900" lon="-2.9127000">
<ele>168.859207</ele>
<time>2010-06-22T09:30:29.002Z</time>
</trkpt>
<trkpt lat="43.1127600" lon="-2.9126300">
<ele>168.859207</ele>
<time>2010-06-22T09:30:52.001Z</time>
</trkpt>
<trkpt lat="43.1128200" lon="-2.9125300">
<ele>167.883835</ele>
<time>2010-06-22T09:31:00.002Z</time>
</trkpt>
<trkpt lat="43.1128800" lon="-2.9124400">
<ele>167.396164</ele>
<time>2010-06-22T09:31:08.996Z</time>
</trkpt>
<trkpt lat="43.1129500" lon="-2.9123500">
<ele>166.938965</ele>
<time>2010-06-22T09:31:16.003Z</time>
</trkpt>
<trkpt lat="43.1130200" lon="-2.9122600">
<ele>165.963593</ele>
<time>2010-06-22T09:31:23.002Z</time>
</trkpt>
<trkpt lat="43.1131000" lon="-2.9121800">
<ele>164.988235</ele>
<time>2010-06-22T09:31:30.000Z</time>
</trkpt>
<trkpt lat="43.1131900" lon="-2.9121100">
<ele>164.531036</ele>
<time>2010-06-22T09:31:36.998Z</time>
</trkpt>
<trkpt lat="43.1132800" lon="-2.9120400">
<ele>164.043365</ele>
<time>2010-06-22T09:31:43.997Z</time>
</trkpt>
<trkpt lat="43.1133500" lon="-2.9119800">
<ele>163.067993</ele>
<time>2010-06-22T09:31:50.002Z</time>
</trkpt>
<trkpt lat="43.1134500" lon="-2.9119100">
<ele>163.067993</ele>
<time>2010-06-22T09:31:57.000Z</time>
</trkpt>
<trkpt lat="43.1135400" lon="-2.9118200">
<ele>162.610794</ele>
<time>2010-06-22T09:32:03.998Z</time>
</trkpt>
<trkpt lat="43.1136100" lon="-2.9117400">
<ele>162.610794</ele>
<time>2010-06-22T09:32:10.003Z</time>
</trkpt>
<trkpt lat="43.1136800" lon="-2.9116700">
<ele>162.123123</ele>
<time>2010-06-22T09:32:15.999Z</time>
</trkpt>
<trkpt lat="43.1137600" lon="-2.9115900">
<ele>162.123123</ele>
<time>2010-06-22T09:32:22.998Z</time>
</trkpt>
<trkpt lat="43.1138500" lon="-2.9115400">
<ele>161.635437</ele>
<time>2010-06-22T09:32:29.996Z</time>
</trkpt>
<trkpt lat="43.1139400" lon="-2.9115000">
<ele>161.635437</ele>
<time>2010-06-22T09:32:37.003Z</time>
</trkpt>
<trkpt lat="43.1140300" lon="-2.9114500">
<ele>161.147766</ele>
<time>2010-06-22T09:32:44.002Z</time>
</trkpt>
<trkpt lat="43.1141200" lon="-2.9114200">
<ele>160.690567</ele>
<time>2010-06-22T09:32:51.000Z</time>
</trkpt>
<trkpt lat="43.1142300" lon="-2.9114200">
<ele>160.202866</ele>
<time>2010-06-22T09:32:57.998Z</time>
</trkpt>
<trkpt lat="43.1143300" lon="-2.9114200">
<ele>160.202866</ele>
<time>2010-06-22T09:33:04.997Z</time>
</trkpt>
<trkpt lat="43.1144200" lon="-2.9114200">
<ele>159.715195</ele>
<time>2010-06-22T09:33:12.004Z</time>
</trkpt>
<trkpt lat="43.1145200" lon="-2.9114300">
<ele>159.715195</ele>
<time>2010-06-22T09:33:19.002Z</time>
</trkpt>
<trkpt lat="43.1146100" lon="-2.9114500">
<ele>159.715195</ele>
<time>2010-06-22T09:33:26.001Z</time>
</trkpt>
<trkpt lat="43.1147100" lon="-2.9114800">
<ele>159.227524</ele>
<time>2010-06-22T09:33:32.999Z</time>
</trkpt>
<trkpt lat="43.1148100" lon="-2.9115000">
<ele>159.227524</ele>
<time>2010-06-22T09:33:39.997Z</time>
</trkpt>
<trkpt lat="43.1149000" lon="-2.9115200">
<ele>158.739838</ele>
<time>2010-06-22T09:33:46.996Z</time>
</trkpt>
<trkpt lat="43.1149900" lon="-2.9115300">
<ele>158.739838</ele>
<time>2010-06-22T09:33:54.996Z</time>
</trkpt>
<trkpt lat="43.1150800" lon="-2.9115500">
<ele>158.739838</ele>
<time>2010-06-22T09:34:02.004Z</time>
</trkpt>
<trkpt lat="43.1151800" lon="-2.9115800">
<ele>158.282639</ele>
<time>2010-06-22T09:34:09.002Z</time>
</trkpt>
<trkpt lat="43.1152700" lon="-2.9116100">
<ele>158.282639</ele>
<time>2010-06-22T09:34:16.000Z</time>
</trkpt>
<trkpt lat="43.1153700" lon="-2.9116300">
<ele>158.282639</ele>
<time>2010-06-22T09:34:22.999Z</time>
</trkpt>
<trkpt lat="43.1154600" lon="-2.9116600">
<ele>158.282639</ele>
<time>2010-06-22T09:34:29.997Z</time>
</trkpt>
<trkpt lat="43.1155600" lon="-2.9116700">
<ele>158.282639</ele>
<time>2010-06-22T09:34:37.004Z</time>
</trkpt>
<trkpt lat="43.1156500" lon="-2.9116900">
<ele>157.794968</ele>
<time>2010-06-22T09:34:44.003Z</time>
</trkpt>
<trkpt lat="43.1157500" lon="-2.9117200">
<ele>157.794968</ele>
<time>2010-06-22T09:34:51.001Z</time>
</trkpt>
<trkpt lat="43.1158300" lon="-2.9116600">
<ele>157.794968</ele>
<time>2010-06-22T09:35:00.004Z</time>
</trkpt>
<trkpt lat="43.1158800" lon="-2.9115600">
<ele>157.307266</ele>
<time>2010-06-22T09:35:07.002Z</time>
</trkpt>
<trkpt lat="43.1159600" lon="-2.9115300">
<ele>157.307266</ele>
<time>2010-06-22T09:35:14.001Z</time>
</trkpt>
<trkpt lat="43.1160600" lon="-2.9115300">
<ele>157.307266</ele>
<time>2010-06-22T09:35:20.999Z</time>
</trkpt>
<trkpt lat="43.1161700" lon="-2.9115200">
<ele>157.307266</ele>
<time>2010-06-22T09:35:27.997Z</time>
</trkpt>
<trkpt lat="43.1162600" lon="-2.9115100">
<ele>157.307266</ele>
<time>2010-06-22T09:35:34.996Z</time>
</trkpt>
<trkpt lat="43.1163600" lon="-2.9114900">
<ele>156.819595</ele>
<time>2010-06-22T09:35:42.003Z</time>
</trkpt>
<trkpt lat="43.1164600" lon="-2.9114700">
<ele>156.819595</ele>
<time>2010-06-22T09:35:49.001Z</time>
</trkpt>
<trkpt lat="43.1165500" lon="-2.9114500">
<ele>156.819595</ele>
<time>2010-06-22T09:35:56.000Z</time>
</trkpt>
<trkpt lat="43.1166500" lon="-2.9114300">
<ele>156.819595</ele>
<time>2010-06-22T09:36:02.998Z</time>
</trkpt>
<trkpt lat="43.1167500" lon="-2.9114200">
<ele>156.362396</ele>
<time>2010-06-22T09:36:09.996Z</time>
</trkpt>
<trkpt lat="43.1168400" lon="-2.9114000">
<ele>156.819595</ele>
<time>2010-06-22T09:36:17.004Z</time>
</trkpt>
<trkpt lat="43.1169400" lon="-2.9113800">
<ele>156.362396</ele>
<time>2010-06-22T09:36:24.002Z</time>
</trkpt>
<trkpt lat="43.1170400" lon="-2.9113600">
<ele>156.362396</ele>
<time>2010-06-22T09:36:31.000Z</time>
</trkpt>
<trkpt lat="43.1171500" lon="-2.9113500">
<ele>156.362396</ele>
<time>2010-06-22T09:36:37.999Z</time>
</trkpt>
<trkpt lat="43.1172500" lon="-2.9113300">
<ele>156.362396</ele>
<time>2010-06-22T09:36:44.997Z</time>
</trkpt>
<trkpt lat="43.1173600" lon="-2.9113300">
<ele>156.362396</ele>
<time>2010-06-22T09:36:52.004Z</time>
</trkpt>
<trkpt lat="43.1174600" lon="-2.9113200">
<ele>155.874725</ele>
<time>2010-06-22T09:36:59.003Z</time>
</trkpt>
<trkpt lat="43.1175600" lon="-2.9113100">
<ele>155.874725</ele>
<time>2010-06-22T09:37:06.001Z</time>
</trkpt>
<trkpt lat="43.1176600" lon="-2.9113300">
<ele>155.874725</ele>
<time>2010-06-22T09:37:12.999Z</time>
</trkpt>
<trkpt lat="43.1177500" lon="-2.9113600">
<ele>155.874725</ele>
<time>2010-06-22T09:37:19.998Z</time>
</trkpt>
<trkpt lat="43.1178600" lon="-2.9113900">
<ele>155.387039</ele>
<time>2010-06-22T09:37:27.998Z</time>
</trkpt>
<trkpt lat="43.1179200" lon="-2.9112800">
<ele>155.874725</ele>
<time>2010-06-22T09:37:39.999Z</time>
</trkpt>
<trkpt lat="43.1179600" lon="-2.9111600">
<ele>155.874725</ele>
<time>2010-06-22T09:37:46.998Z</time>
</trkpt>
<trkpt lat="43.1179800" lon="-2.9110300">
<ele>155.874725</ele>
<time>2010-06-22T09:37:53.996Z</time>
</trkpt>
<trkpt lat="43.1180100" lon="-2.9108900">
<ele>155.874725</ele>
<time>2010-06-22T09:38:01.003Z</time>
</trkpt>
<trkpt lat="43.1180400" lon="-2.9107800">
<ele>155.874725</ele>
<time>2010-06-22T09:38:08.002Z</time>
</trkpt>
<trkpt lat="43.1180800" lon="-2.9106600">
<ele>155.874725</ele>
<time>2010-06-22T09:38:15.000Z</time>
</trkpt>
<trkpt lat="43.1181100" lon="-2.9105400">
<ele>155.387039</ele>
<time>2010-06-22T09:38:21.998Z</time>
</trkpt>
<trkpt lat="43.1181600" lon="-2.9104200">
<ele>155.874725</ele>
<time>2010-06-22T09:38:28.997Z</time>
</trkpt>
<trkpt lat="43.1182200" lon="-2.9103200">
<ele>155.874725</ele>
<time>2010-06-22T09:38:36.004Z</time>
</trkpt>
<trkpt lat="43.1182700" lon="-2.9102100">
<ele>155.874725</ele>
<time>2010-06-22T09:38:43.002Z</time>
</trkpt>
<trkpt lat="43.1183200" lon="-2.9100900">
<ele>155.387039</ele>
<time>2010-06-22T09:38:50.001Z</time>
</trkpt>
<trkpt lat="43.1183900" lon="-2.9099900">
<ele>155.874725</ele>
<time>2010-06-22T09:38:56.999Z</time>
</trkpt>
<trkpt lat="43.1184200" lon="-2.9098600">
<ele>154.899368</ele>
<time>2010-06-22T09:39:05.000Z</time>
</trkpt>
<trkpt lat="43.1184000" lon="-2.9097300">
<ele>154.899368</ele>
<time>2010-06-22T09:39:11.998Z</time>
</trkpt>
<trkpt lat="43.1183900" lon="-2.9096000">
<ele>155.874725</ele>
<time>2010-06-22T09:39:18.996Z</time>
</trkpt>
<trkpt lat="43.1183700" lon="-2.9094600">
<ele>155.874725</ele>
<time>2010-06-22T09:39:26.004Z</time>
</trkpt>
<trkpt lat="43.1183500" lon="-2.9093300">
<ele>155.874725</ele>
<time>2010-06-22T09:39:33.002Z</time>
</trkpt>
<trkpt lat="43.1183300" lon="-2.9092000">
<ele>157.794968</ele>
<time>2010-06-22T09:39:40.000Z</time>
</trkpt>
<trkpt lat="43.1183000" lon="-2.9090800">
<ele>157.794968</ele>
<time>2010-06-22T09:39:46.999Z</time>
</trkpt>
<trkpt lat="43.1182600" lon="-2.9089600">
<ele>158.739838</ele>
<time>2010-06-22T09:39:53.997Z</time>
</trkpt>
<trkpt lat="43.1182100" lon="-2.9088400">
<ele>159.715195</ele>
<time>2010-06-22T09:40:01.004Z</time>
</trkpt>
<trkpt lat="43.1181700" lon="-2.9087200">
<ele>160.202866</ele>
<time>2010-06-22T09:40:08.003Z</time>
</trkpt>
<trkpt lat="43.1181400" lon="-2.9085900">
<ele>160.690567</ele>
<time>2010-06-22T09:40:15.001Z</time>
</trkpt>
<trkpt lat="43.1180900" lon="-2.9084700">
<ele>160.690567</ele>
<time>2010-06-22T09:40:21.999Z</time>
</trkpt>
<trkpt lat="43.1180500" lon="-2.9083400">
<ele>160.690567</ele>
<time>2010-06-22T09:40:28.998Z</time>
</trkpt>
<trkpt lat="43.1180600" lon="-2.9081900">
<ele>160.202866</ele>
<time>2010-06-22T09:40:39.003Z</time>
</trkpt>
<trkpt lat="43.1181100" lon="-2.9080700">
<ele>159.227524</ele>
<time>2010-06-22T09:40:44.999Z</time>
</trkpt>
<trkpt lat="43.1181400" lon="-2.9079500">
<ele>158.739838</ele>
<time>2010-06-22T09:40:51.004Z</time>
</trkpt>
<trkpt lat="43.1181800" lon="-2.9078200">
<ele>158.282639</ele>
<time>2010-06-22T09:40:58.002Z</time>
</trkpt>
<trkpt lat="43.1182300" lon="-2.9077000">
<ele>158.282639</ele>
<time>2010-06-22T09:41:05.001Z</time>
</trkpt>
<trkpt lat="43.1183000" lon="-2.9076100">
<ele>158.282639</ele>
<time>2010-06-22T09:41:11.999Z</time>
</trkpt>
<trkpt lat="43.1184000" lon="-2.9075400">
<ele>159.227524</ele>
<time>2010-06-22T09:41:20.000Z</time>
</trkpt>
<trkpt lat="43.1185000" lon="-2.9075200">
<ele>160.690567</ele>
<time>2010-06-22T09:41:28.000Z</time>
</trkpt>
<trkpt lat="43.1186000" lon="-2.9075200">
<ele>161.147766</ele>
<time>2010-06-22T09:41:34.999Z</time>
</trkpt>
<trkpt lat="43.1187100" lon="-2.9075600">
<ele>161.635437</ele>
<time>2010-06-22T09:41:42.999Z</time>
</trkpt>
<trkpt lat="43.1188000" lon="-2.9075700">
<ele>162.123123</ele>
<time>2010-06-22T09:41:49.998Z</time>
</trkpt>
<trkpt lat="43.1189100" lon="-2.9076400">
<ele>163.067993</ele>
<time>2010-06-22T09:41:59.001Z</time>
</trkpt>
<trkpt lat="43.1190200" lon="-2.9077200">
<ele>164.043365</ele>
<time>2010-06-22T09:42:08.004Z</time>
</trkpt>
<trkpt lat="43.1191300" lon="-2.9078000">
<ele>164.531036</ele>
<time>2010-06-22T09:42:15.002Z</time>
</trkpt>
<trkpt lat="43.1192200" lon="-2.9078600">
<ele>164.988235</ele>
<time>2010-06-22T09:42:22.000Z</time>
</trkpt>
<trkpt lat="43.1193200" lon="-2.9079400">
<ele>165.963593</ele>
<time>2010-06-22T09:42:31.003Z</time>
</trkpt>
<trkpt lat="43.1194400" lon="-2.9079400">
<ele>167.883835</ele>
<time>2010-06-22T09:42:39.997Z</time>
</trkpt>
<trkpt lat="43.1195900" lon="-2.9079100">
<ele>169.316406</ele>
<time>2010-06-22T09:42:51.998Z</time>
</trkpt>
<trkpt lat="43.1197200" lon="-2.9079000">
<ele>171.267120</ele>
<time>2010-06-22T09:43:02.997Z</time>
</trkpt>
<trkpt lat="43.1198600" lon="-2.9079000">
<ele>173.187363</ele>
<time>2010-06-22T09:43:13.996Z</time>
</trkpt>
<trkpt lat="43.1200000" lon="-2.9078600">
<ele>174.619934</ele>
<time>2010-06-22T09:43:24.001Z</time>
</trkpt>
<trkpt lat="43.1201000" lon="-2.9077900">
<ele>176.540161</ele>
<time>2010-06-22T09:43:33.997Z</time>
</trkpt>
<trkpt lat="43.1201400" lon="-2.9076500">
<ele>178.460403</ele>
<time>2010-06-22T09:43:44.003Z</time>
</trkpt>
<trkpt lat="43.1200800" lon="-2.9075300">
<ele>179.435760</ele>
<time>2010-06-22T09:43:52.997Z</time>
</trkpt>
<trkpt lat="43.1200200" lon="-2.9074200">
<ele>180.380630</ele>
<time>2010-06-22T09:44:02.000Z</time>
</trkpt>
<trkpt lat="43.1199700" lon="-2.9073100">
<ele>181.813202</ele>
<time>2010-06-22T09:44:11.003Z</time>
</trkpt>
<trkpt lat="43.1199700" lon="-2.9071800">
<ele>183.276230</ele>
<time>2010-06-22T09:44:19.003Z</time>
</trkpt>
<trkpt lat="43.1200200" lon="-2.9070700">
<ele>184.221130</ele>
<time>2010-06-22T09:44:27.004Z</time>
</trkpt>
<trkpt lat="43.1200800" lon="-2.9069600">
<ele>186.141357</ele>
<time>2010-06-22T09:44:37.000Z</time>
</trkpt>
<trkpt lat="43.1201700" lon="-2.9068600">
<ele>188.061600</ele>
<time>2010-06-22T09:44:46.997Z</time>
</trkpt>
<trkpt lat="43.1202800" lon="-2.9067700">
<ele>190.469528</ele>
<time>2010-06-22T09:44:58.004Z</time>
</trkpt>
<trkpt lat="43.1202600" lon="-2.9066100">
<ele>190.957199</ele>
<time>2010-06-22T09:45:12.001Z</time>
</trkpt>
<trkpt lat="43.1201800" lon="-2.9064600">
<ele>192.389771</ele>
<time>2010-06-22T09:45:23.000Z</time>
</trkpt>
<trkpt lat="43.1201400" lon="-2.9063200">
<ele>194.797668</ele>
<time>2010-06-22T09:45:35.001Z</time>
</trkpt>
<trkpt lat="43.1201200" lon="-2.9061100">
<ele>197.693268</ele>
<time>2010-06-22T09:45:48.997Z</time>
</trkpt>
<trkpt lat="43.1200300" lon="-2.9059100">
<ele>201.533768</ele>
<time>2010-06-22T09:46:06.001Z</time>
</trkpt>
<trkpt lat="43.1199600" lon="-2.9058000">
<ele>202.509125</ele>
<time>2010-06-22T09:46:17.000Z</time>
</trkpt>
<trkpt lat="43.1198700" lon="-2.9057200">
<ele>204.886566</ele>
<time>2010-06-22T09:46:26.003Z</time>
</trkpt>
<trkpt lat="43.1197500" lon="-2.9056500">
<ele>206.349594</ele>
<time>2010-06-22T09:46:38.004Z</time>
</trkpt>
<trkpt lat="43.1196600" lon="-2.9055300">
<ele>210.190079</ele>
<time>2010-06-22T09:46:53.003Z</time>
</trkpt>
<trkpt lat="43.1197000" lon="-2.9053900">
<ele>211.622635</ele>
<time>2010-06-22T09:47:06.999Z</time>
</trkpt>
<trkpt lat="43.1198200" lon="-2.9053200">
<ele>214.518234</ele>
<time>2010-06-22T09:47:21.998Z</time>
</trkpt>
<trkpt lat="43.1200200" lon="-2.9052900">
<ele>218.846405</ele>
<time>2010-06-22T09:47:42.000Z</time>
</trkpt>
<trkpt lat="43.1201700" lon="-2.9053500">
<ele>222.686874</ele>
<time>2010-06-22T09:47:58.001Z</time>
</trkpt>
<trkpt lat="43.1203000" lon="-2.9054200">
<ele>226.039673</ele>
<time>2010-06-22T09:48:14.996Z</time>
</trkpt>
<trkpt lat="43.1204700" lon="-2.9054200">
<ele>229.880157</ele>
<time>2010-06-22T09:48:33.002Z</time>
</trkpt>
<trkpt lat="43.1206400" lon="-2.9054100">
<ele>234.208328</ele>
<time>2010-06-22T09:48:49.997Z</time>
</trkpt>
<trkpt lat="43.1208300" lon="-2.9054300">
<ele>238.536469</ele>
<time>2010-06-22T09:49:12.003Z</time>
</trkpt>
<trkpt lat="43.1210000" lon="-2.9054000">
<ele>241.432068</ele>
<time>2010-06-22T09:49:27.002Z</time>
</trkpt>
<trkpt lat="43.1211600" lon="-2.9053400">
<ele>243.839996</ele>
<time>2010-06-22T09:49:38.001Z</time>
</trkpt>
<trkpt lat="43.1213300" lon="-2.9052700">
<ele>246.705124</ele>
<time>2010-06-22T09:49:53.000Z</time>
</trkpt>
<trkpt lat="43.1214500" lon="-2.9052800">
<ele>249.113037</ele>
<time>2010-06-22T09:50:05.001Z</time>
</trkpt>
<trkpt lat="43.1215600" lon="-2.9052800">
<ele>251.520966</ele>
<time>2010-06-22T09:50:17.002Z</time>
</trkpt>
<trkpt lat="43.1217800" lon="-2.9052700">
<ele>254.416565</ele>
<time>2010-06-22T09:50:34.999Z</time>
</trkpt>
<trkpt lat="43.1218500" lon="-2.9051500">
<ele>257.281677</ele>
<time>2010-06-22T09:50:47.000Z</time>
</trkpt>
<trkpt lat="43.1218000" lon="-2.9049800">
<ele>260.664978</ele>
<time>2010-06-22T09:51:00.996Z</time>
</trkpt>
<trkpt lat="43.1217000" lon="-2.9047500">
<ele>265.937988</ele>
<time>2010-06-22T09:51:22.000Z</time>
</trkpt>
<trkpt lat="43.1216000" lon="-2.9046200">
<ele>268.833588</ele>
<time>2010-06-22T09:51:38.002Z</time>
</trkpt>
<trkpt lat="43.1215500" lon="-2.9044400">
<ele>272.674072</ele>
<time>2010-06-22T09:51:53.001Z</time>
</trkpt>
<trkpt lat="43.1215200" lon="-2.9042200">
<ele>274.594330</ele>
<time>2010-06-22T09:52:08.000Z</time>
</trkpt>
<trkpt lat="43.1215200" lon="-2.9040200">
<ele>278.434814</ele>
<time>2010-06-22T09:52:21.003Z</time>
</trkpt>
<trkpt lat="43.1215500" lon="-2.9038900">
<ele>280.355042</ele>
<time>2010-06-22T09:52:32.002Z</time>
</trkpt>
<trkpt lat="43.1216100" lon="-2.9037800">
<ele>282.275269</ele>
<time>2010-06-22T09:52:48.003Z</time>
</trkpt>
<trkpt lat="43.1216900" lon="-2.9036900">
<ele>284.683197</ele>
<time>2010-06-22T09:52:59.002Z</time>
</trkpt>
<trkpt lat="43.1217900" lon="-2.9037000">
<ele>287.091125</ele>
<time>2010-06-22T09:53:11.003Z</time>
</trkpt>
<trkpt lat="43.1218800" lon="-2.9037700">
<ele>289.011353</ele>
<time>2010-06-22T09:53:22.001Z</time>
</trkpt>
<trkpt lat="43.1219600" lon="-2.9038200">
<ele>291.906952</ele>
<time>2010-06-22T09:53:34.002Z</time>
</trkpt>
<trkpt lat="43.1220900" lon="-2.9038600">
<ele>294.314880</ele>
<time>2010-06-22T09:53:46.997Z</time>
</trkpt>
<trkpt lat="43.1222800" lon="-2.9038100">
<ele>298.612549</ele>
<time>2010-06-22T09:54:04.000Z</time>
</trkpt>
<trkpt lat="43.1224600" lon="-2.9037600">
<ele>302.940735</ele>
<time>2010-06-22T09:54:21.004Z</time>
</trkpt>
<trkpt lat="43.1225600" lon="-2.9036400">
<ele>304.860962</ele>
<time>2010-06-22T09:54:32.996Z</time>
</trkpt>
<trkpt lat="43.1226000" lon="-2.9034700">
<ele>307.268860</ele>
<time>2010-06-22T09:54:43.001Z</time>
</trkpt>
<trkpt lat="43.1226300" lon="-2.9032900">
<ele>309.189117</ele>
<time>2010-06-22T09:54:52.998Z</time>
</trkpt>
<trkpt lat="43.1226600" lon="-2.9031300">
<ele>310.652161</ele>
<time>2010-06-22T09:55:00.998Z</time>
</trkpt>
<trkpt lat="43.1227200" lon="-2.9029900">
<ele>312.084717</ele>
<time>2010-06-22T09:55:11.004Z</time>
</trkpt>
<trkpt lat="43.1228000" lon="-2.9028700">
<ele>314.492645</ele>
<time>2010-06-22T09:55:22.002Z</time>
</trkpt>
<trkpt lat="43.1229000" lon="-2.9027800">
<ele>316.900543</ele>
<time>2010-06-22T09:55:35.999Z</time>
</trkpt>
<trkpt lat="43.1230300" lon="-2.9027300">
<ele>319.308472</ele>
<time>2010-06-22T09:55:49.002Z</time>
</trkpt>
<trkpt lat="43.1231700" lon="-2.9027700">
<ele>322.173615</ele>
<time>2010-06-22T09:56:08.002Z</time>
</trkpt>
<trkpt lat="43.1232700" lon="-2.9028200">
<ele>323.606140</ele>
<time>2010-06-22T09:56:16.996Z</time>
</trkpt>
<trkpt lat="43.1233600" lon="-2.9028600">
<ele>324.093842</ele>
<time>2010-06-22T09:56:24.996Z</time>
</trkpt>
<trkpt lat="43.1234900" lon="-2.9028600">
<ele>326.989441</ele>
<time>2010-06-22T09:56:38.000Z</time>
</trkpt>
<trkpt lat="43.1236800" lon="-2.9028200">
<ele>329.397339</ele>
<time>2010-06-22T09:56:51.996Z</time>
</trkpt>
<trkpt lat="43.1238000" lon="-2.9027100">
<ele>329.854553</ele>
<time>2010-06-22T09:56:59.997Z</time>
</trkpt>
<trkpt lat="43.1239100" lon="-2.9026200">
<ele>331.317596</ele>
<time>2010-06-22T09:57:09.000Z</time>
</trkpt>
<trkpt lat="43.1240500" lon="-2.9025600">
<ele>332.262482</ele>
<time>2010-06-22T09:57:21.001Z</time>
</trkpt>
<trkpt lat="43.1242200" lon="-2.9025300">
<ele>334.182739</ele>
<time>2010-06-22T09:57:30.997Z</time>
</trkpt>
<trkpt lat="43.1243800" lon="-2.9024700">
<ele>334.670410</ele>
<time>2010-06-22T09:57:41.003Z</time>
</trkpt>
<trkpt lat="43.1245200" lon="-2.9024100">
<ele>336.590668</ele>
<time>2010-06-22T09:57:50.999Z</time>
</trkpt>
<trkpt lat="43.1246100" lon="-2.9023200">
<ele>337.078339</ele>
<time>2010-06-22T09:57:59.000Z</time>
</trkpt>
<trkpt lat="43.1246900" lon="-2.9022100">
<ele>337.566010</ele>
<time>2010-06-22T09:58:05.998Z</time>
</trkpt>
<trkpt lat="43.1247500" lon="-2.9020900">
<ele>338.053680</ele>
<time>2010-06-22T09:58:12.996Z</time>
</trkpt>
<trkpt lat="43.1248000" lon="-2.9019600">
<ele>338.510864</ele>
<time>2010-06-22T09:58:20.004Z</time>
</trkpt>
<trkpt lat="43.1248400" lon="-2.9018300">
<ele>338.510864</ele>
<time>2010-06-22T09:58:27.002Z</time>
</trkpt>
<trkpt lat="43.1249000" lon="-2.9017100">
<ele>338.998535</ele>
<time>2010-06-22T09:58:34.000Z</time>
</trkpt>
<trkpt lat="43.1249600" lon="-2.9015900">
<ele>339.486267</ele>
<time>2010-06-22T09:58:39.996Z</time>
</trkpt>
<trkpt lat="43.1250200" lon="-2.9014800">
<ele>339.486267</ele>
<time>2010-06-22T09:58:47.004Z</time>
</trkpt>
<trkpt lat="43.1251100" lon="-2.9013800">
<ele>339.973938</ele>
<time>2010-06-22T09:58:54.002Z</time>
</trkpt>
<trkpt lat="43.1251800" lon="-2.9013000">
<ele>339.486267</ele>
<time>2010-06-22T09:59:01.000Z</time>
</trkpt>
<trkpt lat="43.1253200" lon="-2.9012400">
<ele>339.486267</ele>
<time>2010-06-22T09:59:10.997Z</time>
</trkpt>
<trkpt lat="43.1254600" lon="-2.9012500">
<ele>340.431122</ele>
<time>2010-06-22T09:59:21.002Z</time>
</trkpt>
<trkpt lat="43.1255900" lon="-2.9013000">
<ele>341.894135</ele>
<time>2010-06-22T09:59:29.003Z</time>
</trkpt>
<trkpt lat="43.1256900" lon="-2.9014000">
<ele>344.759277</ele>
<time>2010-06-22T09:59:38.999Z</time>
</trkpt>
<trkpt lat="43.1257800" lon="-2.9015000">
<ele>345.734650</ele>
<time>2010-06-22T09:59:49.004Z</time>
</trkpt>
<trkpt lat="43.1258800" lon="-2.9015500">
<ele>347.654877</ele>
<time>2010-06-22T09:59:57.998Z</time>
</trkpt>
<trkpt lat="43.1259800" lon="-2.9016000">
<ele>349.087463</ele>
<time>2010-06-22T10:00:07.001Z</time>
</trkpt>
<trkpt lat="43.1260700" lon="-2.9016300">
<ele>350.062805</ele>
<time>2010-06-22T10:00:15.002Z</time>
</trkpt>
<trkpt lat="43.1261800" lon="-2.9016600">
<ele>350.550476</ele>
<time>2010-06-22T10:00:23.003Z</time>
</trkpt>
<trkpt lat="43.1262800" lon="-2.9016800">
<ele>351.495331</ele>
<time>2010-06-22T10:00:31.997Z</time>
</trkpt>
<trkpt lat="43.1263800" lon="-2.9016800">
<ele>352.470734</ele>
<time>2010-06-22T10:00:39.997Z</time>
</trkpt>
<trkpt lat="43.1264800" lon="-2.9017200">
<ele>353.415588</ele>
<time>2010-06-22T10:00:49.000Z</time>
</trkpt>
<trkpt lat="43.1265800" lon="-2.9017800">
<ele>355.335846</ele>
<time>2010-06-22T10:00:58.997Z</time>
</trkpt>
<trkpt lat="43.1266800" lon="-2.9018300">
<ele>356.798859</ele>
<time>2010-06-22T10:01:08.000Z</time>
</trkpt>
<trkpt lat="43.1267800" lon="-2.9018400">
<ele>358.719116</ele>
<time>2010-06-22T10:01:17.996Z</time>
</trkpt>
<trkpt lat="43.1269000" lon="-2.9018400">
<ele>359.176331</ele>
<time>2010-06-22T10:01:37.998Z</time>
</trkpt>
<trkpt lat="43.1270100" lon="-2.9018500">
<ele>359.664001</ele>
<time>2010-06-22T10:01:47.001Z</time>
</trkpt>
<trkpt lat="43.1271100" lon="-2.9018400">
<ele>360.151672</ele>
<time>2010-06-22T10:01:55.001Z</time>
</trkpt>
<trkpt lat="43.1272000" lon="-2.9018300">
<ele>361.584259</ele>
<time>2010-06-22T10:02:03.002Z</time>
</trkpt>
<trkpt lat="43.1273000" lon="-2.9018100">
<ele>361.584259</ele>
<time>2010-06-22T10:02:11.003Z</time>
</trkpt>
<trkpt lat="43.1273900" lon="-2.9018000">
<ele>361.584259</ele>
<time>2010-06-22T10:02:18.001Z</time>
</trkpt>
<trkpt lat="43.1275000" lon="-2.9018300">
<ele>359.664001</ele>
<time>2010-06-22T10:02:27.004Z</time>
</trkpt>
<trkpt lat="43.1276400" lon="-2.9018700">
<ele>359.664001</ele>
<time>2010-06-22T10:02:38.003Z</time>
</trkpt>
<trkpt lat="43.1277700" lon="-2.9018900">
<ele>359.664001</ele>
<time>2010-06-22T10:02:45.001Z</time>
</trkpt>
<trkpt lat="43.1278800" lon="-2.9019100">
<ele>360.151672</ele>
<time>2010-06-22T10:02:51.999Z</time>
</trkpt>
<trkpt lat="43.1280100" lon="-2.9019600">
<ele>360.151672</ele>
<time>2010-06-22T10:03:00.000Z</time>
</trkpt>
<trkpt lat="43.1281200" lon="-2.9019600">
<ele>360.639343</ele>
<time>2010-06-22T10:03:09.003Z</time>
</trkpt>
<trkpt lat="43.1282300" lon="-2.9019800">
<ele>361.584259</ele>
<time>2010-06-22T10:03:17.997Z</time>
</trkpt>
<trkpt lat="43.1283400" lon="-2.9020000">
<ele>362.071930</ele>
<time>2010-06-22T10:03:25.998Z</time>
</trkpt>
<trkpt lat="43.1284500" lon="-2.9019100">
<ele>362.559601</ele>
<time>2010-06-22T10:03:36.003Z</time>
</trkpt>
<trkpt lat="43.1285500" lon="-2.9018300">
<ele>362.071930</ele>
<time>2010-06-22T10:03:44.997Z</time>
</trkpt>
<trkpt lat="43.1286300" lon="-2.9017500">
<ele>363.047272</ele>
<time>2010-06-22T10:03:52.998Z</time>
</trkpt>
<trkpt lat="43.1287300" lon="-2.9016600">
<ele>363.992157</ele>
<time>2010-06-22T10:04:00.998Z</time>
</trkpt>
<trkpt lat="43.1288300" lon="-2.9015800">
<ele>364.479858</ele>
<time>2010-06-22T10:04:08.999Z</time>
</trkpt>
<trkpt lat="43.1289200" lon="-2.9015000">
<ele>364.967529</ele>
<time>2010-06-22T10:04:17.000Z</time>
</trkpt>
<trkpt lat="43.1289800" lon="-2.9014000">
<ele>365.424713</ele>
<time>2010-06-22T10:04:23.998Z</time>
</trkpt>
<trkpt lat="43.1290500" lon="-2.9013000">
<ele>365.424713</ele>
<time>2010-06-22T10:04:30.996Z</time>
</trkpt>
<trkpt lat="43.1291200" lon="-2.9011900">
<ele>365.912415</ele>
<time>2010-06-22T10:04:38.004Z</time>
</trkpt>
<trkpt lat="43.1292400" lon="-2.9010900">
<ele>365.912415</ele>
<time>2010-06-22T10:04:46.004Z</time>
</trkpt>
<trkpt lat="43.1293200" lon="-2.9010000">
<ele>366.887756</ele>
<time>2010-06-22T10:04:53.003Z</time>
</trkpt>
<trkpt lat="43.1293700" lon="-2.9008800">
<ele>367.832642</ele>
<time>2010-06-22T10:05:01.003Z</time>
</trkpt>
<trkpt lat="43.1294400" lon="-2.9007500">
<ele>369.752869</ele>
<time>2010-06-22T10:05:09.997Z</time>
</trkpt>
<trkpt lat="43.1294700" lon="-2.9006100">
<ele>370.728241</ele>
<time>2010-06-22T10:05:17.998Z</time>
</trkpt>
<trkpt lat="43.1295500" lon="-2.9005100">
<ele>372.160797</ele>
<time>2010-06-22T10:05:27.001Z</time>
</trkpt>
<trkpt lat="43.1296000" lon="-2.9003800">
<ele>373.623840</ele>
<time>2010-06-22T10:05:36.004Z</time>
</trkpt>
<trkpt lat="43.1296500" lon="-2.9002700">
<ele>374.568726</ele>
<time>2010-06-22T10:05:43.996Z</time>
</trkpt>
<trkpt lat="43.1296900" lon="-2.9001400">
<ele>375.056396</ele>
<time>2010-06-22T10:05:51.996Z</time>
</trkpt>
<trkpt lat="43.1297700" lon="-2.9000300">
<ele>375.056396</ele>
<time>2010-06-22T10:05:59.004Z</time>
</trkpt>
<trkpt lat="43.1298100" lon="-2.8999100">
<ele>375.544067</ele>
<time>2010-06-22T10:06:07.004Z</time>
</trkpt>
<trkpt lat="43.1298900" lon="-2.8998300">
<ele>376.488953</ele>
<time>2010-06-22T10:06:15.998Z</time>
</trkpt>
<trkpt lat="43.1299600" lon="-2.8997700">
<ele>376.976654</ele>
<time>2010-06-22T10:06:25.001Z</time>
</trkpt>
<trkpt lat="43.1300800" lon="-2.8997600">
<ele>378.409210</ele>
<time>2010-06-22T10:06:32.000Z</time>
</trkpt>
<trkpt lat="43.1301300" lon="-2.8997200">
<ele>378.896881</ele>
<time>2010-06-22T10:06:38.998Z</time>
</trkpt>
<trkpt lat="43.1302100" lon="-2.8996000">
<ele>379.384552</ele>
<time>2010-06-22T10:06:46.999Z</time>
</trkpt>
<trkpt lat="43.1303300" lon="-2.8995500">
<ele>381.792480</ele>
<time>2010-06-22T10:07:01.004Z</time>
</trkpt>
<trkpt lat="43.1304100" lon="-2.8994400">
<ele>382.737335</ele>
<time>2010-06-22T10:07:08.996Z</time>
</trkpt>
<trkpt lat="43.1305300" lon="-2.8993500">
<ele>383.712738</ele>
<time>2010-06-22T10:07:16.997Z</time>
</trkpt>
<trkpt lat="43.1306200" lon="-2.8992600">
<ele>384.657593</ele>
<time>2010-06-22T10:07:27.002Z</time>
</trkpt>
<trkpt lat="43.1308000" lon="-2.8991700">
<ele>386.577850</ele>
<time>2010-06-22T10:07:43.003Z</time>
</trkpt>
<trkpt lat="43.1309700" lon="-2.8990800">
<ele>388.498077</ele>
<time>2010-06-22T10:07:57.000Z</time>
</trkpt>
<trkpt lat="43.1310700" lon="-2.8989600">
<ele>388.985748</ele>
<time>2010-06-22T10:08:06.003Z</time>
</trkpt>
<trkpt lat="43.1311900" lon="-2.8988700">
<ele>389.473450</ele>
<time>2010-06-22T10:08:17.002Z</time>
</trkpt>
<trkpt lat="43.1312800" lon="-2.8989600">
<ele>389.473450</ele>
<time>2010-06-22T10:08:32.001Z</time>
</trkpt>
<trkpt lat="43.1312800" lon="-2.8991400">
<ele>390.906006</ele>
<time>2010-06-22T10:08:41.004Z</time>
</trkpt>
<trkpt lat="43.1313200" lon="-2.8992600">
<ele>392.369049</ele>
<time>2010-06-22T10:08:49.998Z</time>
</trkpt>
<trkpt lat="43.1313300" lon="-2.8994200">
<ele>393.313934</ele>
<time>2010-06-22T10:08:59.001Z</time>
</trkpt>
<trkpt lat="43.1313400" lon="-2.8995600">
<ele>395.234131</ele>
<time>2010-06-22T10:09:08.004Z</time>
</trkpt>
<trkpt lat="43.1313600" lon="-2.8997200">
<ele>396.666718</ele>
<time>2010-06-22T10:09:16.998Z</time>
</trkpt>
<trkpt lat="43.1313800" lon="-2.8998600">
<ele>398.129730</ele>
<time>2010-06-22T10:09:26.001Z</time>
</trkpt>
<trkpt lat="43.1314000" lon="-2.9000200">
<ele>398.617462</ele>
<time>2010-06-22T10:09:35.004Z</time>
</trkpt>
<trkpt lat="43.1314400" lon="-2.9001600">
<ele>399.074646</ele>
<time>2010-06-22T10:09:43.998Z</time>
</trkpt>
<trkpt lat="43.1314500" lon="-2.9003500">
<ele>399.074646</ele>
<time>2010-06-22T10:09:50.996Z</time>
</trkpt>
<trkpt lat="43.1314800" lon="-2.9004600">
<ele>399.562317</ele>
<time>2010-06-22T10:09:58.003Z</time>
</trkpt>
<trkpt lat="43.1314900" lon="-2.9006000">
<ele>399.562317</ele>
<time>2010-06-22T10:10:06.004Z</time>
</trkpt>
<trkpt lat="43.1315200" lon="-2.9007500">
<ele>400.049988</ele>
<time>2010-06-22T10:10:13.996Z</time>
</trkpt>
<trkpt lat="43.1315800" lon="-2.9008600">
<ele>399.562317</ele>
<time>2010-06-22T10:10:21.003Z</time>
</trkpt>
<trkpt lat="43.1316700" lon="-2.9009600">
<ele>400.049988</ele>
<time>2010-06-22T10:10:28.001Z</time>
</trkpt>
<trkpt lat="43.1317500" lon="-2.9010600">
<ele>400.049988</ele>
<time>2010-06-22T10:10:35.000Z</time>
</trkpt>
<trkpt lat="43.1318100" lon="-2.9011900">
<ele>400.994873</ele>
<time>2010-06-22T10:10:43.000Z</time>
</trkpt>
<trkpt lat="43.1318800" lon="-2.9013000">
<ele>402.457916</ele>
<time>2010-06-22T10:10:52.003Z</time>
</trkpt>
<trkpt lat="43.1319300" lon="-2.9014500">
<ele>403.402802</ele>
<time>2010-06-22T10:11:00.997Z</time>
</trkpt>
<trkpt lat="43.1320100" lon="-2.9015200">
<ele>404.378143</ele>
<time>2010-06-22T10:11:08.998Z</time>
</trkpt>
<trkpt lat="43.1319600" lon="-2.9017200">
<ele>405.810730</ele>
<time>2010-06-22T10:12:10.999Z</time>
</trkpt>
<trkpt lat="43.1319500" lon="-2.9017800">
<ele>405.810730</ele>
<time>2010-06-22T10:12:21.004Z</time>
</trkpt>
<trkpt lat="43.1319200" lon="-2.9019300">
<ele>406.298401</ele>
<time>2010-06-22T10:12:29.998Z</time>
</trkpt>
<trkpt lat="43.1319300" lon="-2.9021300">
<ele>406.786072</ele>
<time>2010-06-22T10:12:41.999Z</time>
</trkpt>
<trkpt lat="43.1319700" lon="-2.9023200">
<ele>407.730957</ele>
<time>2010-06-22T10:12:54.000Z</time>
</trkpt>
<trkpt lat="43.1320100" lon="-2.9025100">
<ele>408.706329</ele>
<time>2010-06-22T10:13:03.996Z</time>
</trkpt>
<trkpt lat="43.1320600" lon="-2.9026300">
<ele>409.163513</ele>
<time>2010-06-22T10:13:11.997Z</time>
</trkpt>
<trkpt lat="43.1321100" lon="-2.9027700">
<ele>409.651215</ele>
<time>2010-06-22T10:13:19.998Z</time>
</trkpt>
<trkpt lat="43.1321700" lon="-2.9028800">
<ele>410.138885</ele>
<time>2010-06-22T10:13:26.996Z</time>
</trkpt>
<trkpt lat="43.1322500" lon="-2.9029900">
<ele>410.626556</ele>
<time>2010-06-22T10:13:34.997Z</time>
</trkpt>
<trkpt lat="43.1323400" lon="-2.9031200">
<ele>410.626556</ele>
<time>2010-06-22T10:13:42.997Z</time>
</trkpt>
<trkpt lat="43.1324100" lon="-2.9032500">
<ele>411.571442</ele>
<time>2010-06-22T10:13:50.998Z</time>
</trkpt>
<trkpt lat="43.1324900" lon="-2.9033200">
<ele>412.546814</ele>
<time>2010-06-22T10:13:58.999Z</time>
</trkpt>
<trkpt lat="43.1325800" lon="-2.9034100">
<ele>413.979340</ele>
<time>2010-06-22T10:14:09.004Z</time>
</trkpt>
<trkpt lat="43.1326600" lon="-2.9035400">
<ele>415.899597</ele>
<time>2010-06-22T10:14:19.000Z</time>
</trkpt>
<trkpt lat="43.1327300" lon="-2.9036800">
<ele>417.362640</ele>
<time>2010-06-22T10:14:28.003Z</time>
</trkpt>
<trkpt lat="43.1327700" lon="-2.9038100">
<ele>418.307526</ele>
<time>2010-06-22T10:14:38.000Z</time>
</trkpt>
<trkpt lat="43.1328100" lon="-2.9039600">
<ele>420.715454</ele>
<time>2010-06-22T10:14:48.998Z</time>
</trkpt>
<trkpt lat="43.1329600" lon="-2.9041000">
<ele>423.611053</ele>
<time>2010-06-22T10:15:09.000Z</time>
</trkpt>
<trkpt lat="43.1329300" lon="-2.9041600">
<ele>424.068268</ele>
<time>2010-06-22T10:15:15.998Z</time>
</trkpt>
<trkpt lat="43.1328900" lon="-2.9042600">
<ele>424.555939</ele>
<time>2010-06-22T10:15:22.997Z</time>
</trkpt>
<trkpt lat="43.1328400" lon="-2.9043600">
<ele>425.043610</ele>
<time>2010-06-22T10:15:30.004Z</time>
</trkpt>
<trkpt lat="43.1327600" lon="-2.9044300">
<ele>425.988464</ele>
<time>2010-06-22T10:15:37.996Z</time>
</trkpt>
<trkpt lat="43.1327000" lon="-2.9045400">
<ele>426.963867</ele>
<time>2010-06-22T10:15:45.996Z</time>
</trkpt>
<trkpt lat="43.1326600" lon="-2.9046800">
<ele>426.963867</ele>
<time>2010-06-22T10:15:53.997Z</time>
</trkpt>
<trkpt lat="43.1325800" lon="-2.9047800">
<ele>427.451538</ele>
<time>2010-06-22T10:16:01.004Z</time>
</trkpt>
<trkpt lat="43.1325100" lon="-2.9048600">
<ele>427.908722</ele>
<time>2010-06-22T10:16:08.003Z</time>
</trkpt>
<trkpt lat="43.1324600" lon="-2.9049900">
<ele>427.908722</ele>
<time>2010-06-22T10:16:15.001Z</time>
</trkpt>
<trkpt lat="43.1324600" lon="-2.9051800">
<ele>428.396393</ele>
<time>2010-06-22T10:16:24.004Z</time>
</trkpt>
<trkpt lat="43.1325000" lon="-2.9053600">
<ele>429.371735</ele>
<time>2010-06-22T10:16:32.998Z</time>
</trkpt>
<trkpt lat="43.1325500" lon="-2.9055100">
<ele>431.779663</ele>
<time>2010-06-22T10:16:43.003Z</time>
</trkpt>
<trkpt lat="43.1325800" lon="-2.9056700">
<ele>433.699921</ele>
<time>2010-06-22T10:16:55.004Z</time>
</trkpt>
<trkpt lat="43.1326500" lon="-2.9058600">
<ele>437.540405</ele>
<time>2010-06-22T10:17:09.001Z</time>
</trkpt>
<trkpt lat="43.1327400" lon="-2.9060500">
<ele>441.868530</ele>
<time>2010-06-22T10:17:25.996Z</time>
</trkpt>
<trkpt lat="43.1327800" lon="-2.9062100">
<ele>444.276459</ele>
<time>2010-06-22T10:17:38.999Z</time>
</trkpt>
<trkpt lat="43.1328300" lon="-2.9063500">
<ele>448.116943</ele>
<time>2010-06-22T10:17:51.000Z</time>
</trkpt>
<trkpt lat="43.1329000" lon="-2.9064700">
<ele>450.037201</ele>
<time>2010-06-22T10:18:03.001Z</time>
</trkpt>
<trkpt lat="43.1329300" lon="-2.9066100">
<ele>450.037201</ele>
<time>2010-06-22T10:18:09.999Z</time>
</trkpt>
<trkpt lat="43.1329800" lon="-2.9067100">
<ele>450.524872</ele>
<time>2010-06-22T10:18:16.004Z</time>
</trkpt>
<trkpt lat="43.1330200" lon="-2.9068400">
<ele>450.524872</ele>
<time>2010-06-22T10:18:23.996Z</time>
</trkpt>
<trkpt lat="43.1330600" lon="-2.9069700">
<ele>451.469757</ele>
<time>2010-06-22T10:18:31.997Z</time>
</trkpt>
<trkpt lat="43.1331100" lon="-2.9071100">
<ele>452.445129</ele>
<time>2010-06-22T10:18:41.000Z</time>
</trkpt>
<trkpt lat="43.1331400" lon="-2.9072500">
<ele>452.932800</ele>
<time>2010-06-22T10:18:50.003Z</time>
</trkpt>
<trkpt lat="43.1331900" lon="-2.9073800">
<ele>454.853058</ele>
<time>2010-06-22T10:19:01.001Z</time>
</trkpt>
<trkpt lat="43.1332200" lon="-2.9074800">
<ele>456.285614</ele>
<time>2010-06-22T10:19:30.999Z</time>
</trkpt>
<trkpt lat="43.1332800" lon="-2.9076000">
<ele>459.638397</ele>
<time>2010-06-22T10:19:48.996Z</time>
</trkpt>
<trkpt lat="43.1333000" lon="-2.9077400">
<ele>462.046326</ele>
<time>2010-06-22T10:20:03.002Z</time>
</trkpt>
<trkpt lat="43.1333300" lon="-2.9078900">
<ele>464.941925</ele>
<time>2010-06-22T10:20:16.999Z</time>
</trkpt>
<trkpt lat="43.1333700" lon="-2.9080100">
<ele>467.807068</ele>
<time>2010-06-22T10:20:30.002Z</time>
</trkpt>
<trkpt lat="43.1334000" lon="-2.9081400">
<ele>471.190338</ele>
<time>2010-06-22T10:20:42.996Z</time>
</trkpt>
<trkpt lat="43.1334400" lon="-2.9082600">
<ele>473.110535</ele>
<time>2010-06-22T10:20:56.000Z</time>
</trkpt>
<trkpt lat="43.1335100" lon="-2.9083400">
<ele>474.543121</ele>
<time>2010-06-22T10:21:14.999Z</time>
</trkpt>
<trkpt lat="43.1336000" lon="-2.9082600">
<ele>477.926392</ele>
<time>2010-06-22T10:21:28.996Z</time>
</trkpt>
<trkpt lat="43.1336700" lon="-2.9081700">
<ele>480.791534</ele>
<time>2010-06-22T10:21:43.001Z</time>
</trkpt>
<trkpt lat="43.1337600" lon="-2.9081300">
<ele>485.119659</ele>
<time>2010-06-22T10:21:59.996Z</time>
</trkpt>
<trkpt lat="43.1338700" lon="-2.9080600">
<ele>489.935516</ele>
<time>2010-06-22T10:22:19.998Z</time>
</trkpt>
<trkpt lat="43.1339900" lon="-2.9080400">
<ele>494.263672</ele>
<time>2010-06-22T10:22:42.004Z</time>
</trkpt>
<trkpt lat="43.1340800" lon="-2.9080300">
<ele>500.024414</ele>
<time>2010-06-22T10:23:05.004Z</time>
</trkpt>
<trkpt lat="43.1340600" lon="-2.9081000">
<ele>502.920013</ele>
<time>2010-06-22T10:24:57.997Z</time>
</trkpt>
<trkpt lat="43.1340700" lon="-2.9083100">
<ele>504.352539</ele>
<time>2010-06-22T10:25:13.999Z</time>
</trkpt>
<trkpt lat="43.1340700" lon="-2.9085100">
<ele>505.785126</ele>
<time>2010-06-22T10:25:28.004Z</time>
</trkpt>
<trkpt lat="43.1340800" lon="-2.9087000">
<ele>506.760468</ele>
<time>2010-06-22T10:25:39.996Z</time>
</trkpt>
<trkpt lat="43.1340800" lon="-2.9088800">
<ele>507.217682</ele>
<time>2010-06-22T10:25:51.004Z</time>
</trkpt>
<trkpt lat="43.1341300" lon="-2.9090400">
<ele>507.705353</ele>
<time>2010-06-22T10:26:01.000Z</time>
</trkpt>
<trkpt lat="43.1341800" lon="-2.9091800">
<ele>509.168396</ele>
<time>2010-06-22T10:26:10.997Z</time>
</trkpt>
<trkpt lat="43.1342400" lon="-2.9093100">
<ele>509.168396</ele>
<time>2010-06-22T10:26:18.997Z</time>
</trkpt>
<trkpt lat="43.1342600" lon="-2.9094700">
<ele>509.168396</ele>
<time>2010-06-22T10:26:26.998Z</time>
</trkpt>
<trkpt lat="43.1342800" lon="-2.9096200">
<ele>509.168396</ele>
<time>2010-06-22T10:26:34.999Z</time>
</trkpt>
<trkpt lat="43.1342800" lon="-2.9097700">
<ele>510.113281</ele>
<time>2010-06-22T10:26:42.999Z</time>
</trkpt>
<trkpt lat="43.1342800" lon="-2.9099300">
<ele>509.168396</ele>
<time>2010-06-22T10:26:52.002Z</time>
</trkpt>
<trkpt lat="43.1342700" lon="-2.9101000">
<ele>508.680725</ele>
<time>2010-06-22T10:27:00.996Z</time>
</trkpt>
<trkpt lat="43.1342600" lon="-2.9102600">
<ele>509.168396</ele>
<time>2010-06-22T10:27:09.999Z</time>
</trkpt>
<trkpt lat="43.1342600" lon="-2.9104300">
<ele>510.600952</ele>
<time>2010-06-22T10:27:19.996Z</time>
</trkpt>
<trkpt lat="43.1342300" lon="-2.9105600">
<ele>510.600952</ele>
<time>2010-06-22T10:27:28.999Z</time>
</trkpt>
<trkpt lat="43.1342000" lon="-2.9107100">
<ele>511.545868</ele>
<time>2010-06-22T10:27:38.002Z</time>
</trkpt>
<trkpt lat="43.1341200" lon="-2.9108100">
<ele>513.008850</ele>
<time>2010-06-22T10:27:47.998Z</time>
</trkpt>
<trkpt lat="43.1340300" lon="-2.9108700">
<ele>515.874023</ele>
<time>2010-06-22T10:27:58.003Z</time>
</trkpt>
<trkpt lat="43.1339400" lon="-2.9109400">
<ele>517.794250</ele>
<time>2010-06-22T10:28:09.002Z</time>
</trkpt>
<trkpt lat="43.1338200" lon="-2.9110300">
<ele>521.177551</ele>
<time>2010-06-22T10:28:21.996Z</time>
</trkpt>
<trkpt lat="43.1337700" lon="-2.9111600">
<ele>521.665222</ele>
<time>2010-06-22T10:28:30.999Z</time>
</trkpt>
<trkpt lat="43.1337100" lon="-2.9112900">
<ele>522.122375</ele>
<time>2010-06-22T10:28:39.000Z</time>
</trkpt>
<trkpt lat="43.1336500" lon="-2.9114000">
<ele>523.585449</ele>
<time>2010-06-22T10:28:48.003Z</time>
</trkpt>
<trkpt lat="43.1335800" lon="-2.9114700">
<ele>525.018005</ele>
<time>2010-06-22T10:28:56.004Z</time>
</trkpt>
<trkpt lat="43.1335100" lon="-2.9115600">
<ele>526.938232</ele>
<time>2010-06-22T10:29:04.004Z</time>
</trkpt>
<trkpt lat="43.1334100" lon="-2.9116000">
<ele>528.858459</ele>
<time>2010-06-22T10:29:12.998Z</time>
</trkpt>
<trkpt lat="43.1333300" lon="-2.9116500">
<ele>530.778748</ele>
<time>2010-06-22T10:29:20.999Z</time>
</trkpt>
<trkpt lat="43.1332500" lon="-2.9116800">
<ele>532.241760</ele>
<time>2010-06-22T10:29:29.000Z</time>
</trkpt>
<trkpt lat="43.1331600" lon="-2.9117400">
<ele>532.241760</ele>
<time>2010-06-22T10:29:35.998Z</time>
</trkpt>
<trkpt lat="43.1330700" lon="-2.9117900">
<ele>531.754089</ele>
<time>2010-06-22T10:29:42.996Z</time>
</trkpt>
<trkpt lat="43.1329600" lon="-2.9117700">
<ele>532.241760</ele>
<time>2010-06-22T10:29:50.997Z</time>
</trkpt>
<trkpt lat="43.1328600" lon="-2.9117600">
<ele>531.754089</ele>
<time>2010-06-22T10:29:58.998Z</time>
</trkpt>
<trkpt lat="43.1327500" lon="-2.9117100">
<ele>532.698975</ele>
<time>2010-06-22T10:30:06.998Z</time>
</trkpt>
<trkpt lat="43.1326600" lon="-2.9116900">
<ele>534.619202</ele>
<time>2010-06-22T10:30:14.999Z</time>
</trkpt>
<trkpt lat="43.1325600" lon="-2.9117000">
<ele>536.539429</ele>
<time>2010-06-22T10:30:25.998Z</time>
</trkpt>
<trkpt lat="43.1324900" lon="-2.9117800">
<ele>539.435059</ele>
<time>2010-06-22T10:30:37.999Z</time>
</trkpt>
<trkpt lat="43.1325600" lon="-2.9118700">
<ele>542.787842</ele>
<time>2010-06-22T10:30:52.004Z</time>
</trkpt>
<trkpt lat="43.1326500" lon="-2.9119600">
<ele>545.195740</ele>
<time>2010-06-22T10:31:03.996Z</time>
</trkpt>
<trkpt lat="43.1327400" lon="-2.9120400">
<ele>548.091370</ele>
<time>2010-06-22T10:31:15.997Z</time>
</trkpt>
<trkpt lat="43.1328300" lon="-2.9121200">
<ele>551.931885</ele>
<time>2010-06-22T10:31:26.996Z</time>
</trkpt>
<trkpt lat="43.1329300" lon="-2.9121900">
<ele>553.852051</ele>
<time>2010-06-22T10:31:38.004Z</time>
</trkpt>
<trkpt lat="43.1330300" lon="-2.9122500">
<ele>556.260010</ele>
<time>2010-06-22T10:31:49.002Z</time>
</trkpt>
<trkpt lat="43.1331500" lon="-2.9123200">
<ele>558.180237</ele>
<time>2010-06-22T10:32:00.001Z</time>
</trkpt>
<trkpt lat="43.1332600" lon="-2.9123500">
<ele>561.533081</ele>
<time>2010-06-22T10:32:11.000Z</time>
</trkpt>
<trkpt lat="43.1334000" lon="-2.9123600">
<ele>564.428650</ele>
<time>2010-06-22T10:32:25.999Z</time>
</trkpt>
<trkpt lat="43.1335100" lon="-2.9123700">
<ele>568.269104</ele>
<time>2010-06-22T10:32:36.997Z</time>
</trkpt>
<trkpt lat="43.1336200" lon="-2.9124000">
<ele>570.189331</ele>
<time>2010-06-22T10:32:47.003Z</time>
</trkpt>
<trkpt lat="43.1337400" lon="-2.9124500">
<ele>573.084961</ele>
<time>2010-06-22T10:32:59.004Z</time>
</trkpt>
<trkpt lat="43.1338400" lon="-2.9124500">
<ele>575.492859</ele>
<time>2010-06-22T10:33:10.002Z</time>
</trkpt>
<trkpt lat="43.1339500" lon="-2.9124600">
<ele>577.900818</ele>
<time>2010-06-22T10:33:19.999Z</time>
</trkpt>
<trkpt lat="43.1340600" lon="-2.9124700">
<ele>580.278259</ele>
<time>2010-06-22T10:33:29.002Z</time>
</trkpt>
<trkpt lat="43.1341900" lon="-2.9124700">
<ele>582.686157</ele>
<time>2010-06-22T10:33:38.998Z</time>
</trkpt>
<trkpt lat="43.1342900" lon="-2.9124500">
<ele>585.581726</ele>
<time>2010-06-22T10:33:49.003Z</time>
</trkpt>
<trkpt lat="43.1344100" lon="-2.9124100">
<ele>587.502014</ele>
<time>2010-06-22T10:33:57.997Z</time>
</trkpt>
<trkpt lat="43.1345000" lon="-2.9123400">
<ele>590.397583</ele>
<time>2010-06-22T10:34:08.003Z</time>
</trkpt>
<trkpt lat="43.1346000" lon="-2.9123000">
<ele>592.317871</ele>
<time>2010-06-22T10:34:17.999Z</time>
</trkpt>
<trkpt lat="43.1347100" lon="-2.9123000">
<ele>594.238098</ele>
<time>2010-06-22T10:34:27.002Z</time>
</trkpt>
<trkpt lat="43.1348100" lon="-2.9123400">
<ele>597.103210</ele>
<time>2010-06-22T10:34:38.001Z</time>
</trkpt>
<trkpt lat="43.1349100" lon="-2.9124200">
<ele>599.023438</ele>
<time>2010-06-22T10:34:48.999Z</time>
</trkpt>
<trkpt lat="43.1350100" lon="-2.9125000">
<ele>601.431335</ele>
<time>2010-06-22T10:34:58.996Z</time>
</trkpt>
<trkpt lat="43.1351100" lon="-2.9125300">
<ele>603.351624</ele>
<time>2010-06-22T10:35:09.001Z</time>
</trkpt>
<trkpt lat="43.1352000" lon="-2.9124700">
<ele>605.302307</ele>
<time>2010-06-22T10:35:17.002Z</time>
</trkpt>
<trkpt lat="43.1352800" lon="-2.9123900">
<ele>608.167480</ele>
<time>2010-06-22T10:35:26.998Z</time>
</trkpt>
<trkpt lat="43.1353500" lon="-2.9122900">
<ele>610.087646</ele>
<time>2010-06-22T10:35:38.999Z</time>
</trkpt>
<trkpt lat="43.1353900" lon="-2.9121800">
<ele>611.550720</ele>
<time>2010-06-22T10:35:49.998Z</time>
</trkpt>
<trkpt lat="43.1354800" lon="-2.9122700">
<ele>614.903503</ele>
<time>2010-06-22T10:36:04.997Z</time>
</trkpt>
<trkpt lat="43.1355600" lon="-2.9122300">
<ele>618.744019</ele>
<time>2010-06-22T10:36:16.998Z</time>
</trkpt>
<trkpt lat="43.1356500" lon="-2.9122000">
<ele>622.096802</ele>
<time>2010-06-22T10:36:31.997Z</time>
</trkpt>
<trkpt lat="43.1357400" lon="-2.9121700">
<ele>624.992371</ele>
<time>2010-06-22T10:36:45.000Z</time>
</trkpt>
<trkpt lat="43.1357800" lon="-2.9120700">
<ele>628.832886</ele>
<time>2010-06-22T10:36:55.999Z</time>
</trkpt>
<trkpt lat="43.1358500" lon="-2.9119900">
<ele>632.673340</ele>
<time>2010-06-22T10:37:08.000Z</time>
</trkpt>
<trkpt lat="43.1358800" lon="-2.9118700">
<ele>636.056641</ele>
<time>2010-06-22T10:37:20.001Z</time>
</trkpt>
<trkpt lat="43.1359300" lon="-2.9117600">
<ele>639.897095</ele>
<time>2010-06-22T10:37:33.997Z</time>
</trkpt>
<trkpt lat="43.1359800" lon="-2.9116600">
<ele>642.792664</ele>
<time>2010-06-22T10:37:45.998Z</time>
</trkpt>
<trkpt lat="43.1360200" lon="-2.9115600">
<ele>646.633179</ele>
<time>2010-06-22T10:37:59.002Z</time>
</trkpt>
<trkpt lat="43.1360800" lon="-2.9114700">
<ele>650.473694</ele>
<time>2010-06-22T10:38:11.996Z</time>
</trkpt>
<trkpt lat="43.1361200" lon="-2.9113700">
<ele>653.826538</ele>
<time>2010-06-22T10:38:26.002Z</time>
</trkpt>
<trkpt lat="43.1361400" lon="-2.9112600">
<ele>656.722107</ele>
<time>2010-06-22T10:38:38.996Z</time>
</trkpt>
<trkpt lat="43.1361800" lon="-2.9111800">
<ele>660.562561</ele>
<time>2010-06-22T10:38:53.002Z</time>
</trkpt>
<trkpt lat="43.1362100" lon="-2.9110700">
<ele>663.458130</ele>
<time>2010-06-22T10:39:05.996Z</time>
</trkpt>
<trkpt lat="43.1362200" lon="-2.9109400">
<ele>665.835571</ele>
<time>2010-06-22T10:39:17.997Z</time>
</trkpt>
<trkpt lat="43.1362500" lon="-2.9108200">
<ele>668.243469</ele>
<time>2010-06-22T10:39:29.998Z</time>
</trkpt>
<trkpt lat="43.1362900" lon="-2.9107100">
<ele>672.083984</ele>
<time>2010-06-22T10:39:41.999Z</time>
</trkpt>
<trkpt lat="43.1363100" lon="-2.9105900">
<ele>674.979614</ele>
<time>2010-06-22T10:39:55.002Z</time>
</trkpt>
<trkpt lat="43.1363600" lon="-2.9104900">
<ele>678.820129</ele>
<time>2010-06-22T10:40:07.997Z</time>
</trkpt>
<trkpt lat="43.1364300" lon="-2.9104600">
<ele>682.203369</ele>
<time>2010-06-22T10:40:21.000Z</time>
</trkpt>
<trkpt lat="43.1365000" lon="-2.9104200">
<ele>685.556152</ele>
<time>2010-06-22T10:40:34.003Z</time>
</trkpt>
<trkpt lat="43.1365300" lon="-2.9103000">
<ele>689.396667</ele>
<time>2010-06-22T10:40:46.998Z</time>
</trkpt>
<trkpt lat="43.1365900" lon="-2.9102200">
<ele>692.292236</ele>
<time>2010-06-22T10:41:00.001Z</time>
</trkpt>
<trkpt lat="43.1366200" lon="-2.9101000">
<ele>695.645081</ele>
<time>2010-06-22T10:41:12.002Z</time>
</trkpt>
<trkpt lat="43.1366700" lon="-2.9099900">
<ele>697.565308</ele>
<time>2010-06-22T10:41:21.998Z</time>
</trkpt>
<trkpt lat="43.1367000" lon="-2.9098700">
<ele>699.028320</ele>
<time>2010-06-22T10:41:31.001Z</time>
</trkpt>
<trkpt lat="43.1367200" lon="-2.9097500">
<ele>700.948547</ele>
<time>2010-06-22T10:41:40.004Z</time>
</trkpt>
<trkpt lat="43.1367700" lon="-2.9096500">
<ele>703.356506</ele>
<time>2010-06-22T10:41:50.001Z</time>
</trkpt>
<trkpt lat="43.1368000" lon="-2.9095400">
<ele>705.733887</ele>
<time>2010-06-22T10:42:00.999Z</time>
</trkpt>
<trkpt lat="43.1368200" lon="-2.9094100">
<ele>708.629517</ele>
<time>2010-06-22T10:42:13.000Z</time>
</trkpt>
<trkpt lat="43.1368700" lon="-2.9093300">
<ele>712.469971</ele>
<time>2010-06-22T10:42:26.004Z</time>
</trkpt>
<trkpt lat="43.1369200" lon="-2.9092400">
<ele>714.877869</ele>
<time>2010-06-22T10:42:38.998Z</time>
</trkpt>
<trkpt lat="43.1369700" lon="-2.9091600">
<ele>717.773499</ele>
<time>2010-06-22T10:42:53.004Z</time>
</trkpt>
<trkpt lat="43.1370000" lon="-2.9090400">
<ele>721.614014</ele>
<time>2010-06-22T10:43:05.998Z</time>
</trkpt>
<trkpt lat="43.1370400" lon="-2.9089200">
<ele>723.534241</ele>
<time>2010-06-22T10:43:19.001Z</time>
</trkpt>
<trkpt lat="43.1370800" lon="-2.9088100">
<ele>726.399353</ele>
<time>2010-06-22T10:43:31.002Z</time>
</trkpt>
<trkpt lat="43.1371100" lon="-2.9086900">
<ele>730.270264</ele>
<time>2010-06-22T10:43:42.001Z</time>
</trkpt>
<trkpt lat="43.1371200" lon="-2.9085600">
<ele>731.702881</ele>
<time>2010-06-22T10:43:51.997Z</time>
</trkpt>
<trkpt lat="43.1371400" lon="-2.9084300">
<ele>733.623108</ele>
<time>2010-06-22T10:44:02.996Z</time>
</trkpt>
<trkpt lat="43.1371700" lon="-2.9083200">
<ele>737.951294</ele>
<time>2010-06-22T10:44:17.002Z</time>
</trkpt>
<trkpt lat="43.1371500" lon="-2.9082100">
<ele>739.871460</ele>
<time>2010-06-22T10:44:26.998Z</time>
</trkpt>
<trkpt lat="43.1371600" lon="-2.9080800">
<ele>742.279480</ele>
<time>2010-06-22T10:44:37.997Z</time>
</trkpt>
<trkpt lat="43.1372200" lon="-2.9080100">
<ele>746.119873</ele>
<time>2010-06-22T10:44:52.002Z</time>
</trkpt>
<trkpt lat="43.1372700" lon="-2.9079100">
<ele>749.472717</ele>
<time>2010-06-22T10:45:07.001Z</time>
</trkpt>
<trkpt lat="43.1373300" lon="-2.9078300">
<ele>753.343689</ele>
<time>2010-06-22T10:45:20.998Z</time>
</trkpt>
<trkpt lat="43.1373400" lon="-2.9077200">
<ele>756.696533</ele>
<time>2010-06-22T10:45:36.999Z</time>
</trkpt>
<trkpt lat="43.1373800" lon="-2.9076300">
<ele>760.049316</ele>
<time>2010-06-22T10:45:51.998Z</time>
</trkpt>
<trkpt lat="43.1373600" lon="-2.9075400">
<ele>763.889771</ele>
<time>2010-06-22T10:46:08.000Z</time>
</trkpt>
<trkpt lat="43.1373000" lon="-2.9074300">
<ele>765.352783</ele>
<time>2010-06-22T10:46:18.998Z</time>
</trkpt>
<trkpt lat="43.1372700" lon="-2.9073200">
<ele>765.840515</ele>
<time>2010-06-22T10:46:32.002Z</time>
</trkpt>
<trkpt lat="43.1372400" lon="-2.9072000">
<ele>767.760681</ele>
<time>2010-06-22T10:46:43.000Z</time>
</trkpt>
<trkpt lat="43.1372200" lon="-2.9070600">
<ele>771.113464</ele>
<time>2010-06-22T10:46:56.004Z</time>
</trkpt>
<trkpt lat="43.1372300" lon="-2.9069400">
<ele>773.521484</ele>
<time>2010-06-22T10:47:14.001Z</time>
</trkpt>
<trkpt lat="43.1372200" lon="-2.9069900">
<ele>772.546082</ele>
<time>2010-06-22T10:51:25.001Z</time>
</trkpt>
<trkpt lat="43.1372200" lon="-2.9071100">
<ele>769.680969</ele>
<time>2010-06-22T10:51:37.002Z</time>
</trkpt>
<trkpt lat="43.1372400" lon="-2.9072400">
<ele>767.273071</ele>
<time>2010-06-22T10:51:48.001Z</time>
</trkpt>
<trkpt lat="43.1372700" lon="-2.9073600">
<ele>765.840515</ele>
<time>2010-06-22T10:52:03.000Z</time>
</trkpt>
<trkpt lat="43.1373300" lon="-2.9074700">
<ele>762.944885</ele>
<time>2010-06-22T10:52:09.998Z</time>
</trkpt>
<trkpt lat="43.1374100" lon="-2.9075200">
<ele>762.944885</ele>
<time>2010-06-22T10:52:16.997Z</time>
</trkpt>
<trkpt lat="43.1374800" lon="-2.9074700">
<ele>759.592102</ele>
<time>2010-06-22T10:52:24.997Z</time>
</trkpt>
<trkpt lat="43.1375600" lon="-2.9073900">
<ele>758.129028</ele>
<time>2010-06-22T10:52:32.998Z</time>
</trkpt>
<trkpt lat="43.1376200" lon="-2.9072900">
<ele>756.696533</ele>
<time>2010-06-22T10:52:39.996Z</time>
</trkpt>
<trkpt lat="43.1377200" lon="-2.9072600">
<ele>756.208801</ele>
<time>2010-06-22T10:52:51.997Z</time>
</trkpt>
<trkpt lat="43.1377700" lon="-2.9072300">
<ele>752.368286</ele>
<time>2010-06-22T10:53:02.003Z</time>
</trkpt>
<trkpt lat="43.1378300" lon="-2.9072500">
<ele>748.527832</ele>
<time>2010-06-22T10:53:11.999Z</time>
</trkpt>
<trkpt lat="43.1379200" lon="-2.9072800">
<ele>743.711975</ele>
<time>2010-06-22T10:53:22.998Z</time>
</trkpt>
<trkpt lat="43.1380100" lon="-2.9072800">
<ele>738.896118</ele>
<time>2010-06-22T10:53:33.003Z</time>
</trkpt>
<trkpt lat="43.1381000" lon="-2.9072600">
<ele>735.543335</ele>
<time>2010-06-22T10:53:41.997Z</time>
</trkpt>
<trkpt lat="43.1381800" lon="-2.9073200">
<ele>730.727478</ele>
<time>2010-06-22T10:53:51.000Z</time>
</trkpt>
<trkpt lat="43.1382700" lon="-2.9072800">
<ele>727.374695</ele>
<time>2010-06-22T10:53:59.001Z</time>
</trkpt>
<trkpt lat="43.1383700" lon="-2.9072900">
<ele>723.534241</ele>
<time>2010-06-22T10:54:08.004Z</time>
</trkpt>
<trkpt lat="43.1384600" lon="-2.9073000">
<ele>718.718384</ele>
<time>2010-06-22T10:54:16.998Z</time>
</trkpt>
<trkpt lat="43.1385500" lon="-2.9072900">
<ele>714.877869</ele>
<time>2010-06-22T10:54:26.001Z</time>
</trkpt>
<trkpt lat="43.1386400" lon="-2.9072600">
<ele>711.525085</ele>
<time>2010-06-22T10:54:35.004Z</time>
</trkpt>
<trkpt lat="43.1387400" lon="-2.9072700">
<ele>709.604919</ele>
<time>2010-06-22T10:54:43.004Z</time>
</trkpt>
<trkpt lat="43.1388300" lon="-2.9072600">
<ele>708.141846</ele>
<time>2010-06-22T10:54:50.003Z</time>
</trkpt>
<trkpt lat="43.1389300" lon="-2.9072500">
<ele>705.276672</ele>
<time>2010-06-22T10:54:58.003Z</time>
</trkpt>
<trkpt lat="43.1390200" lon="-2.9072600">
<ele>700.948547</ele>
<time>2010-06-22T10:55:06.004Z</time>
</trkpt>
<trkpt lat="43.1391200" lon="-2.9072600">
<ele>697.108093</ele>
<time>2010-06-22T10:55:14.998Z</time>
</trkpt>
<trkpt lat="43.1392100" lon="-2.9072600">
<ele>692.779907</ele>
<time>2010-06-22T10:55:24.001Z</time>
</trkpt>
<trkpt lat="43.1393000" lon="-2.9072700">
<ele>688.908936</ele>
<time>2010-06-22T10:55:33.004Z</time>
</trkpt>
<trkpt lat="43.1394000" lon="-2.9072800">
<ele>685.556152</ele>
<time>2010-06-22T10:55:41.998Z</time>
</trkpt>
<trkpt lat="43.1395000" lon="-2.9072900">
<ele>682.203369</ele>
<time>2010-06-22T10:55:49.999Z</time>
</trkpt>
<trkpt lat="43.1395900" lon="-2.9073100">
<ele>679.795471</ele>
<time>2010-06-22T10:55:56.997Z</time>
</trkpt>
<trkpt lat="43.1396800" lon="-2.9073400">
<ele>678.332397</ele>
<time>2010-06-22T10:56:03.002Z</time>
</trkpt>
<trkpt lat="43.1397700" lon="-2.9073700">
<ele>676.412170</ele>
<time>2010-06-22T10:56:10.000Z</time>
</trkpt>
<trkpt lat="43.1398600" lon="-2.9074200">
<ele>674.034668</ele>
<time>2010-06-22T10:56:16.999Z</time>
</trkpt>
<trkpt lat="43.1399500" lon="-2.9074300">
<ele>672.571716</ele>
<time>2010-06-22T10:56:23.004Z</time>
</trkpt>
<trkpt lat="43.1400200" lon="-2.9075000">
<ele>671.626770</ele>
<time>2010-06-22T10:56:30.002Z</time>
</trkpt>
<trkpt lat="43.1401200" lon="-2.9075300">
<ele>669.218933</ele>
<time>2010-06-22T10:56:37.000Z</time>
</trkpt>
<trkpt lat="43.1402200" lon="-2.9075300">
<ele>666.810974</ele>
<time>2010-06-22T10:56:43.999Z</time>
</trkpt>
<trkpt lat="43.1403100" lon="-2.9075800">
<ele>665.835571</ele>
<time>2010-06-22T10:56:50.997Z</time>
</trkpt>
<trkpt lat="43.1403900" lon="-2.9076600">
<ele>665.378418</ele>
<time>2010-06-22T10:56:58.004Z</time>
</trkpt>
<trkpt lat="43.1404800" lon="-2.9077200">
<ele>666.323303</ele>
<time>2010-06-22T10:57:05.996Z</time>
</trkpt>
<trkpt lat="43.1405800" lon="-2.9077500">
<ele>667.786316</ele>
<time>2010-06-22T10:57:16.001Z</time>
</trkpt>
<trkpt lat="43.1406700" lon="-2.9077800">
<ele>670.163757</ele>
<time>2010-06-22T10:57:25.998Z</time>
</trkpt>
<trkpt lat="43.1407600" lon="-2.9078400">
<ele>672.571716</ele>
<time>2010-06-22T10:57:36.996Z</time>
</trkpt>
<trkpt lat="43.1408200" lon="-2.9079400">
<ele>673.547058</ele>
<time>2010-06-22T10:57:44.997Z</time>
</trkpt>
<trkpt lat="43.1408900" lon="-2.9080500">
<ele>673.059326</ele>
<time>2010-06-22T10:57:52.998Z</time>
</trkpt>
<trkpt lat="43.1409800" lon="-2.9081400">
<ele>671.626770</ele>
<time>2010-06-22T10:57:59.996Z</time>
</trkpt>
<trkpt lat="43.1410600" lon="-2.9082400">
<ele>669.706543</ele>
<time>2010-06-22T10:58:07.003Z</time>
</trkpt>
<trkpt lat="43.1411200" lon="-2.9083500">
<ele>667.298645</ele>
<time>2010-06-22T10:58:14.002Z</time>
</trkpt>
<trkpt lat="43.1411800" lon="-2.9084600">
<ele>665.835571</ele>
<time>2010-06-22T10:58:21.000Z</time>
</trkpt>
<trkpt lat="43.1412400" lon="-2.9085800">
<ele>663.458130</ele>
<time>2010-06-22T10:58:27.998Z</time>
</trkpt>
<trkpt lat="43.1412700" lon="-2.9087200">
<ele>661.537903</ele>
<time>2010-06-22T10:58:34.997Z</time>
</trkpt>
<trkpt lat="43.1413000" lon="-2.9088400">
<ele>659.587219</ele>
<time>2010-06-22T10:58:41.002Z</time>
</trkpt>
<trkpt lat="43.1413000" lon="-2.9089800">
<ele>658.642273</ele>
<time>2010-06-22T10:58:46.998Z</time>
</trkpt>
<trkpt lat="43.1413000" lon="-2.9091100">
<ele>656.722107</ele>
<time>2010-06-22T10:58:53.003Z</time>
</trkpt>
<trkpt lat="43.1413200" lon="-2.9092500">
<ele>654.314148</ele>
<time>2010-06-22T10:59:00.001Z</time>
</trkpt>
<trkpt lat="43.1413500" lon="-2.9093900">
<ele>652.881592</ele>
<time>2010-06-22T10:59:06.999Z</time>
</trkpt>
<trkpt lat="43.1413700" lon="-2.9095400">
<ele>650.961365</ele>
<time>2010-06-22T10:59:13.998Z</time>
</trkpt>
<trkpt lat="43.1413900" lon="-2.9096800">
<ele>649.041077</ele>
<time>2010-06-22T10:59:20.996Z</time>
</trkpt>
<trkpt lat="43.1414000" lon="-2.9098200">
<ele>647.578125</ele>
<time>2010-06-22T10:59:28.003Z</time>
</trkpt>
<trkpt lat="43.1414800" lon="-2.9099300">
<ele>646.145508</ele>
<time>2010-06-22T10:59:35.002Z</time>
</trkpt>
<trkpt lat="43.1415400" lon="-2.9100500">
<ele>646.145508</ele>
<time>2010-06-22T10:59:42.000Z</time>
</trkpt>
<trkpt lat="43.1415800" lon="-2.9101800">
<ele>646.145508</ele>
<time>2010-06-22T10:59:48.998Z</time>
</trkpt>
<trkpt lat="43.1416200" lon="-2.9103300">
<ele>645.170166</ele>
<time>2010-06-22T10:59:55.997Z</time>
</trkpt>
<trkpt lat="43.1416400" lon="-2.9104800">
<ele>643.737610</ele>
<time>2010-06-22T11:00:03.004Z</time>
</trkpt>
<trkpt lat="43.1416300" lon="-2.9106200">
<ele>642.305054</ele>
<time>2010-06-22T11:00:10.002Z</time>
</trkpt>
<trkpt lat="43.1415800" lon="-2.9107500">
<ele>640.384827</ele>
<time>2010-06-22T11:00:18.003Z</time>
</trkpt>
<trkpt lat="43.1415400" lon="-2.9108600">
<ele>639.409485</ele>
<time>2010-06-22T11:00:23.999Z</time>
</trkpt>
<trkpt lat="43.1415300" lon="-2.9110000">
<ele>638.464539</ele>
<time>2010-06-22T11:00:32.000Z</time>
</trkpt>
<trkpt lat="43.1415100" lon="-2.9111300">
<ele>638.464539</ele>
<time>2010-06-22T11:00:40.000Z</time>
</trkpt>
<trkpt lat="43.1415100" lon="-2.9112800">
<ele>639.897095</ele>
<time>2010-06-22T11:00:49.003Z</time>
</trkpt>
<trkpt lat="43.1415000" lon="-2.9114200">
<ele>640.841980</ele>
<time>2010-06-22T11:00:57.004Z</time>
</trkpt>
<trkpt lat="43.1414900" lon="-2.9115500">
<ele>641.817322</ele>
<time>2010-06-22T11:01:04.996Z</time>
</trkpt>
<trkpt lat="43.1414700" lon="-2.9116900">
<ele>642.305054</ele>
<time>2010-06-22T11:01:12.996Z</time>
</trkpt>
<trkpt lat="43.1414700" lon="-2.9118300">
<ele>643.249878</ele>
<time>2010-06-22T11:01:20.997Z</time>
</trkpt>
<trkpt lat="43.1414700" lon="-2.9119600">
<ele>643.249878</ele>
<time>2010-06-22T11:01:28.998Z</time>
</trkpt>
<trkpt lat="43.1414900" lon="-2.9121000">
<ele>644.225281</ele>
<time>2010-06-22T11:01:42.001Z</time>
</trkpt>
<trkpt lat="43.1414800" lon="-2.9122300">
<ele>643.737610</ele>
<time>2010-06-22T11:01:48.999Z</time>
</trkpt>
<trkpt lat="43.1415000" lon="-2.9123600">
<ele>643.737610</ele>
<time>2010-06-22T11:01:55.998Z</time>
</trkpt>
<trkpt lat="43.1415100" lon="-2.9125100">
<ele>643.249878</ele>
<time>2010-06-22T11:02:02.996Z</time>
</trkpt>
<trkpt lat="43.1415300" lon="-2.9126600">
<ele>641.817322</ele>
<time>2010-06-22T11:02:10.003Z</time>
</trkpt>
<trkpt lat="43.1415600" lon="-2.9128000">
<ele>641.817322</ele>
<time>2010-06-22T11:02:17.002Z</time>
</trkpt>
<trkpt lat="43.1416100" lon="-2.9129200">
<ele>641.329712</ele>
<time>2010-06-22T11:02:24.000Z</time>
</trkpt>
<trkpt lat="43.1416700" lon="-2.9130300">
<ele>641.817322</ele>
<time>2010-06-22T11:02:30.998Z</time>
</trkpt>
<trkpt lat="43.1417300" lon="-2.9131500">
<ele>641.817322</ele>
<time>2010-06-22T11:02:37.997Z</time>
</trkpt>
<trkpt lat="43.1417800" lon="-2.9132700">
<ele>641.329712</ele>
<time>2010-06-22T11:02:45.004Z</time>
</trkpt>
<trkpt lat="43.1418300" lon="-2.9134100">
<ele>638.464539</ele>
<time>2010-06-22T11:02:52.996Z</time>
</trkpt>
<trkpt lat="43.1418700" lon="-2.9135300">
<ele>636.544312</ele>
<time>2010-06-22T11:02:59.001Z</time>
</trkpt>
<trkpt lat="43.1419400" lon="-2.9136300">
<ele>635.568970</ele>
<time>2010-06-22T11:03:04.997Z</time>
</trkpt>
<trkpt lat="43.1420200" lon="-2.9137200">
<ele>635.081299</ele>
<time>2010-06-22T11:03:12.004Z</time>
</trkpt>
<trkpt lat="43.1420700" lon="-2.9138300">
<ele>632.216125</ele>
<time>2010-06-22T11:03:19.002Z</time>
</trkpt>
<trkpt lat="43.1420800" lon="-2.9139700">
<ele>630.295898</ele>
<time>2010-06-22T11:03:26.001Z</time>
</trkpt>
<trkpt lat="43.1420800" lon="-2.9141100">
<ele>626.912659</ele>
<time>2010-06-22T11:03:32.999Z</time>
</trkpt>
<trkpt lat="43.1420600" lon="-2.9142400">
<ele>624.047546</ele>
<time>2010-06-22T11:03:39.997Z</time>
</trkpt>
<trkpt lat="43.1420400" lon="-2.9143700">
<ele>621.639587</ele>
<time>2010-06-22T11:03:46.996Z</time>
</trkpt>
<trkpt lat="43.1420100" lon="-2.9145000">
<ele>619.719360</ele>
<time>2010-06-22T11:03:54.996Z</time>
</trkpt>
<trkpt lat="43.1420100" lon="-2.9146400">
<ele>616.823730</ele>
<time>2010-06-22T11:04:02.997Z</time>
</trkpt>
<trkpt lat="43.1420100" lon="-2.9147800">
<ele>614.415833</ele>
<time>2010-06-22T11:04:10.998Z</time>
</trkpt>
<trkpt lat="43.1420200" lon="-2.9149100">
<ele>611.550720</ele>
<time>2010-06-22T11:04:20.001Z</time>
</trkpt>
<trkpt lat="43.1420100" lon="-2.9150400">
<ele>607.679749</ele>
<time>2010-06-22T11:04:29.997Z</time>
</trkpt>
<trkpt lat="43.1420100" lon="-2.9151800">
<ele>605.302307</ele>
<time>2010-06-22T11:04:37.998Z</time>
</trkpt>
<trkpt lat="43.1420400" lon="-2.9152900">
<ele>601.919067</ele>
<time>2010-06-22T11:05:27.004Z</time>
</trkpt>
<trkpt lat="43.1420500" lon="-2.9154400">
<ele>598.078552</ele>
<time>2010-06-22T11:05:35.998Z</time>
</trkpt>
<trkpt lat="43.1420500" lon="-2.9155800">
<ele>593.750427</ele>
<time>2010-06-22T11:05:45.001Z</time>
</trkpt>
<trkpt lat="43.1420500" lon="-2.9157300">
<ele>588.934570</ele>
<time>2010-06-22T11:05:54.004Z</time>
</trkpt>
<trkpt lat="43.1420400" lon="-2.9158700">
<ele>584.149170</ele>
<time>2010-06-22T11:06:02.998Z</time>
</trkpt>
<trkpt lat="43.1420200" lon="-2.9160200">
<ele>580.765930</ele>
<time>2010-06-22T11:06:10.999Z</time>
</trkpt>
<trkpt lat="43.1420400" lon="-2.9161700">
<ele>577.413147</ele>
<time>2010-06-22T11:06:18.999Z</time>
</trkpt>
<trkpt lat="43.1420200" lon="-2.9163200">
<ele>573.084961</ele>
<time>2010-06-22T11:06:28.002Z</time>
</trkpt>
<trkpt lat="43.1420300" lon="-2.9164500">
<ele>569.244446</ele>
<time>2010-06-22T11:06:36.996Z</time>
</trkpt>
<trkpt lat="43.1420400" lon="-2.9165800">
<ele>565.861206</ele>
<time>2010-06-22T11:06:44.004Z</time>
</trkpt>
<trkpt lat="43.1420500" lon="-2.9167200">
<ele>562.020752</ele>
<time>2010-06-22T11:06:52.998Z</time>
</trkpt>
<trkpt lat="43.1420300" lon="-2.9168500">
<ele>557.692566</ele>
<time>2010-06-22T11:07:00.998Z</time>
</trkpt>
<trkpt lat="43.1420600" lon="-2.9169800">
<ele>554.339722</ele>
<time>2010-06-22T11:07:07.997Z</time>
</trkpt>
<trkpt lat="43.1420600" lon="-2.9171100">
<ele>551.444153</ele>
<time>2010-06-22T11:07:15.997Z</time>
</trkpt>
<trkpt lat="43.1420700" lon="-2.9172400">
<ele>547.116028</ele>
<time>2010-06-22T11:07:25.000Z</time>
</trkpt>
<trkpt lat="43.1420700" lon="-2.9174000">
<ele>543.275513</ele>
<time>2010-06-22T11:07:34.003Z</time>
</trkpt>
<trkpt lat="43.1420700" lon="-2.9175300">
<ele>539.435059</ele>
<time>2010-06-22T11:07:41.002Z</time>
</trkpt>
<trkpt lat="43.1420700" lon="-2.9177200">
<ele>537.514771</ele>
<time>2010-06-22T11:07:50.998Z</time>
</trkpt>
<trkpt lat="43.1420700" lon="-2.9178600">
<ele>532.698975</ele>
<time>2010-06-22T11:07:57.996Z</time>
</trkpt>
<trkpt lat="43.1420600" lon="-2.9180100">
<ele>529.346130</ele>
<time>2010-06-22T11:08:06.999Z</time>
</trkpt>
<trkpt lat="43.1420600" lon="-2.9181600">
<ele>525.505676</ele>
<time>2010-06-22T11:08:15.000Z</time>
</trkpt>
<trkpt lat="43.1420800" lon="-2.9183100">
<ele>521.177551</ele>
<time>2010-06-22T11:08:24.003Z</time>
</trkpt>
<trkpt lat="43.1420800" lon="-2.9184600">
<ele>518.281921</ele>
<time>2010-06-22T11:08:32.004Z</time>
</trkpt>
<trkpt lat="43.1420800" lon="-2.9186000">
<ele>514.929138</ele>
<time>2010-06-22T11:08:40.004Z</time>
</trkpt>
<trkpt lat="43.1420800" lon="-2.9187400">
<ele>512.033508</ele>
<time>2010-06-22T11:08:47.996Z</time>
</trkpt>
<trkpt lat="43.1420900" lon="-2.9188700">
<ele>509.625610</ele>
<time>2010-06-22T11:08:55.997Z</time>
</trkpt>
<trkpt lat="43.1420900" lon="-2.9190100">
<ele>506.272797</ele>
<time>2010-06-22T11:09:03.004Z</time>
</trkpt>
<trkpt lat="43.1421100" lon="-2.9191500">
<ele>502.920013</ele>
<time>2010-06-22T11:09:10.996Z</time>
</trkpt>
<trkpt lat="43.1421100" lon="-2.9193000">
<ele>499.536713</ele>
<time>2010-06-22T11:09:18.003Z</time>
</trkpt>
<trkpt lat="43.1421200" lon="-2.9194500">
<ele>496.671600</ele>
<time>2010-06-22T11:09:25.001Z</time>
</trkpt>
<trkpt lat="43.1421100" lon="-2.9195800">
<ele>494.263672</ele>
<time>2010-06-22T11:09:32.000Z</time>
</trkpt>
<trkpt lat="43.1421200" lon="-2.9197200">
<ele>490.880402</ele>
<time>2010-06-22T11:09:40.000Z</time>
</trkpt>
<trkpt lat="43.1421500" lon="-2.9198600">
<ele>487.527588</ele>
<time>2010-06-22T11:09:49.003Z</time>
</trkpt>
<trkpt lat="43.1421700" lon="-2.9200100">
<ele>483.199463</ele>
<time>2010-06-22T11:09:57.997Z</time>
</trkpt>
<trkpt lat="43.1421900" lon="-2.9201700">
<ele>480.303864</ele>
<time>2010-06-22T11:10:08.003Z</time>
</trkpt>
<trkpt lat="43.1422000" lon="-2.9203100">
<ele>476.463348</ele>
<time>2010-06-22T11:10:16.997Z</time>
</trkpt>
<trkpt lat="43.1422100" lon="-2.9204600">
<ele>472.135193</ele>
<time>2010-06-22T11:10:26.000Z</time>
</trkpt>
<trkpt lat="43.1422300" lon="-2.9206000">
<ele>468.294739</ele>
<time>2010-06-22T11:10:34.000Z</time>
</trkpt>
<trkpt lat="43.1422300" lon="-2.9207500">
<ele>464.941925</ele>
<time>2010-06-22T11:10:42.001Z</time>
</trkpt>
<trkpt lat="43.1422500" lon="-2.9209000">
<ele>461.101440</ele>
<time>2010-06-22T11:10:51.004Z</time>
</trkpt>
<trkpt lat="43.1422700" lon="-2.9210400">
<ele>457.718140</ele>
<time>2010-06-22T11:10:59.998Z</time>
</trkpt>
<trkpt lat="43.1422900" lon="-2.9211900">
<ele>453.877686</ele>
<time>2010-06-22T11:11:09.001Z</time>
</trkpt>
<trkpt lat="43.1423100" lon="-2.9213200">
<ele>450.982086</ele>
<time>2010-06-22T11:11:15.999Z</time>
</trkpt>
<trkpt lat="43.1423900" lon="-2.9214200">
<ele>450.037201</ele>
<time>2010-06-22T11:11:24.000Z</time>
</trkpt>
<trkpt lat="43.1424700" lon="-2.9214900">
<ele>450.524872</ele>
<time>2010-06-22T11:11:32.001Z</time>
</trkpt>
<trkpt lat="43.1425200" lon="-2.9216200">
<ele>448.116943</ele>
<time>2010-06-22T11:11:44.002Z</time>
</trkpt>
<trkpt lat="43.1425600" lon="-2.9217500">
<ele>445.709045</ele>
<time>2010-06-22T11:11:52.002Z</time>
</trkpt>
<trkpt lat="43.1425900" lon="-2.9218900">
<ele>444.276459</ele>
<time>2010-06-22T11:12:00.003Z</time>
</trkpt>
<trkpt lat="43.1426300" lon="-2.9220200">
<ele>444.276459</ele>
<time>2010-06-22T11:12:08.004Z</time>
</trkpt>
<trkpt lat="43.1426900" lon="-2.9221400">
<ele>444.276459</ele>
<time>2010-06-22T11:12:16.004Z</time>
</trkpt>
<trkpt lat="43.1427800" lon="-2.9222300">
<ele>445.221344</ele>
<time>2010-06-22T11:12:27.003Z</time>
</trkpt>
<trkpt lat="43.1428600" lon="-2.9223400">
<ele>446.684387</ele>
<time>2010-06-22T11:12:38.002Z</time>
</trkpt>
<trkpt lat="43.1429000" lon="-2.9225600">
<ele>449.061859</ele>
<time>2010-06-22T11:12:51.998Z</time>
</trkpt>
<trkpt lat="43.1428800" lon="-2.9227200">
<ele>449.061859</ele>
<time>2010-06-22T11:13:01.001Z</time>
</trkpt>
<trkpt lat="43.1428500" lon="-2.9229000">
<ele>448.604645</ele>
<time>2010-06-22T11:13:10.004Z</time>
</trkpt>
<trkpt lat="43.1428200" lon="-2.9230500">
<ele>447.629272</ele>
<time>2010-06-22T11:13:17.003Z</time>
</trkpt>
<trkpt lat="43.1427700" lon="-2.9232100">
<ele>446.196716</ele>
<time>2010-06-22T11:13:24.001Z</time>
</trkpt>
<trkpt lat="43.1427300" lon="-2.9233500">
<ele>445.709045</ele>
<time>2010-06-22T11:13:30.999Z</time>
</trkpt>
<trkpt lat="43.1427000" lon="-2.9235100">
<ele>444.733673</ele>
<time>2010-06-22T11:13:39.000Z</time>
</trkpt>
<trkpt lat="43.1426700" lon="-2.9236500">
<ele>443.788788</ele>
<time>2010-06-22T11:13:45.998Z</time>
</trkpt>
<trkpt lat="43.1426400" lon="-2.9237900">
<ele>443.301117</ele>
<time>2010-06-22T11:13:52.997Z</time>
</trkpt>
<trkpt lat="43.1426300" lon="-2.9239400">
<ele>443.788788</ele>
<time>2010-06-22T11:14:00.997Z</time>
</trkpt>
<trkpt lat="43.1426000" lon="-2.9241000">
<ele>444.276459</ele>
<time>2010-06-22T11:14:08.998Z</time>
</trkpt>
<trkpt lat="43.1425800" lon="-2.9242500">
<ele>444.733673</ele>
<time>2010-06-22T11:14:16.999Z</time>
</trkpt>
<trkpt lat="43.1425400" lon="-2.9244100">
<ele>444.733673</ele>
<time>2010-06-22T11:14:24.999Z</time>
</trkpt>
<trkpt lat="43.1425200" lon="-2.9245900">
<ele>445.221344</ele>
<time>2010-06-22T11:14:34.002Z</time>
</trkpt>
<trkpt lat="43.1425100" lon="-2.9247500">
<ele>444.733673</ele>
<time>2010-06-22T11:14:41.001Z</time>
</trkpt>
<trkpt lat="43.1425000" lon="-2.9249100">
<ele>442.356262</ele>
<time>2010-06-22T11:14:47.999Z</time>
</trkpt>
<trkpt lat="43.1424800" lon="-2.9250600">
<ele>439.948334</ele>
<time>2010-06-22T11:14:54.997Z</time>
</trkpt>
<trkpt lat="43.1424800" lon="-2.9252000">
<ele>437.540405</ele>
<time>2010-06-22T11:15:01.996Z</time>
</trkpt>
<trkpt lat="43.1424900" lon="-2.9253600">
<ele>435.620148</ele>
<time>2010-06-22T11:15:10.999Z</time>
</trkpt>
<trkpt lat="43.1424800" lon="-2.9255500">
<ele>431.779663</ele>
<time>2010-06-22T11:15:20.002Z</time>
</trkpt>
<trkpt lat="43.1424600" lon="-2.9257300">
<ele>427.908722</ele>
<time>2010-06-22T11:15:29.998Z</time>
</trkpt>
<trkpt lat="43.1424500" lon="-2.9259100">
<ele>424.555939</ele>
<time>2010-06-22T11:15:40.003Z</time>
</trkpt>
<trkpt lat="43.1424400" lon="-2.9260800">
<ele>419.740082</ele>
<time>2010-06-22T11:15:51.002Z</time>
</trkpt>
<trkpt lat="43.1424100" lon="-2.9262300">
<ele>416.387268</ele>
<time>2010-06-22T11:16:00.998Z</time>
</trkpt>
<trkpt lat="43.1423900" lon="-2.9263900">
<ele>411.114258</ele>
<time>2010-06-22T11:16:11.004Z</time>
</trkpt>
<trkpt lat="43.1423700" lon="-2.9265400">
<ele>407.243286</ele>
<time>2010-06-22T11:16:21.000Z</time>
</trkpt>
<trkpt lat="43.1423500" lon="-2.9267000">
<ele>402.915131</ele>
<time>2010-06-22T11:16:31.999Z</time>
</trkpt>
<trkpt lat="43.1423400" lon="-2.9268400">
<ele>399.562317</ele>
<time>2010-06-22T11:16:41.002Z</time>
</trkpt>
<trkpt lat="43.1423300" lon="-2.9269900">
<ele>396.209534</ele>
<time>2010-06-22T11:16:50.998Z</time>
</trkpt>
<trkpt lat="43.1423000" lon="-2.9271400">
<ele>390.906006</ele>
<time>2010-06-22T11:17:01.997Z</time>
</trkpt>
<trkpt lat="43.1422800" lon="-2.9272900">
<ele>387.065521</ele>
<time>2010-06-22T11:17:12.002Z</time>
</trkpt>
<trkpt lat="43.1422700" lon="-2.9274300">
<ele>383.225067</ele>
<time>2010-06-22T11:17:21.998Z</time>
</trkpt>
<trkpt lat="43.1422700" lon="-2.9275300">
<ele>379.872253</ele>
<time>2010-06-22T11:18:15.998Z</time>
</trkpt>
<trkpt lat="43.1422600" lon="-2.9277600">
<ele>373.623840</ele>
<time>2010-06-22T11:18:34.998Z</time>
</trkpt>
<trkpt lat="43.1422800" lon="-2.9281100">
<ele>366.887756</ele>
<time>2010-06-22T11:18:59.000Z</time>
</trkpt>
<trkpt lat="43.1422800" lon="-2.9283300">
<ele>363.504486</ele>
<time>2010-06-22T11:19:12.003Z</time>
</trkpt>
<trkpt lat="43.1422900" lon="-2.9286900">
<ele>357.256073</ele>
<time>2010-06-22T11:19:43.997Z</time>
</trkpt>
<trkpt lat="43.1423000" lon="-2.9289600">
<ele>352.470734</ele>
<time>2010-06-22T11:20:15.999Z</time>
</trkpt>
<trkpt lat="43.1423100" lon="-2.9292000">
<ele>350.550476</ele>
<time>2010-06-22T11:20:45.004Z</time>
</trkpt>
<trkpt lat="43.1423100" lon="-2.9293400">
<ele>348.630249</ele>
<time>2010-06-22T11:20:55.000Z</time>
</trkpt>
<trkpt lat="43.1422900" lon="-2.9295200">
<ele>347.167206</ele>
<time>2010-06-22T11:21:00.996Z</time>
</trkpt>
<trkpt lat="43.1423100" lon="-2.9296600">
<ele>345.734650</ele>
<time>2010-06-22T11:21:05.999Z</time>
</trkpt>
<trkpt lat="43.1423300" lon="-2.9298100">
<ele>343.326721</ele>
<time>2010-06-22T11:21:12.004Z</time>
</trkpt>
<trkpt lat="43.1423600" lon="-2.9299400">
<ele>341.894135</ele>
<time>2010-06-22T11:21:16.998Z</time>
</trkpt>
<trkpt lat="43.1423900" lon="-2.9300900">
<ele>339.486267</ele>
<time>2010-06-22T11:21:23.003Z</time>
</trkpt>
<trkpt lat="43.1424000" lon="-2.9302400">
<ele>336.590668</ele>
<time>2010-06-22T11:21:28.999Z</time>
</trkpt>
<trkpt lat="43.1423900" lon="-2.9304100">
<ele>333.725525</ele>
<time>2010-06-22T11:21:35.997Z</time>
</trkpt>
<trkpt lat="43.1424200" lon="-2.9305500">
<ele>330.342255</ele>
<time>2010-06-22T11:21:43.998Z</time>
</trkpt>
<trkpt lat="43.1424100" lon="-2.9307300">
<ele>324.581512</ele>
<time>2010-06-22T11:21:55.999Z</time>
</trkpt>
<trkpt lat="43.1424300" lon="-2.9308800">
<ele>320.741058</ele>
<time>2010-06-22T11:22:06.004Z</time>
</trkpt>
<trkpt lat="43.1424600" lon="-2.9310500">
<ele>315.437531</ele>
<time>2010-06-22T11:22:17.003Z</time>
</trkpt>
<trkpt lat="43.1425000" lon="-2.9312000">
<ele>311.109375</ele>
<time>2010-06-22T11:22:25.997Z</time>
</trkpt>
<trkpt lat="43.1425400" lon="-2.9313300">
<ele>306.811676</ele>
<time>2010-06-22T11:22:35.000Z</time>
</trkpt>
<trkpt lat="43.1425800" lon="-2.9315400">
<ele>301.508179</ele>
<time>2010-06-22T11:22:47.001Z</time>
</trkpt>
<trkpt lat="43.1426300" lon="-2.9316800">
<ele>297.667664</ele>
<time>2010-06-22T11:22:57.999Z</time>
</trkpt>
<trkpt lat="43.1426800" lon="-2.9318300">
<ele>292.364166</ele>
<time>2010-06-22T11:23:08.998Z</time>
</trkpt>
<trkpt lat="43.1427400" lon="-2.9319700">
<ele>289.011353</ele>
<time>2010-06-22T11:23:19.003Z</time>
</trkpt>
<trkpt lat="43.1428000" lon="-2.9321200">
<ele>284.683197</ele>
<time>2010-06-22T11:23:30.002Z</time>
</trkpt>
<trkpt lat="43.1428900" lon="-2.9322000">
<ele>280.842712</ele>
<time>2010-06-22T11:23:41.001Z</time>
</trkpt>
<trkpt lat="43.1429700" lon="-2.9322900">
<ele>274.106628</ele>
<time>2010-06-22T11:23:53.002Z</time>
</trkpt>
<trkpt lat="43.1430600" lon="-2.9325000">
<ele>268.345917</ele>
<time>2010-06-22T11:24:08.001Z</time>
</trkpt>
<trkpt lat="43.1430400" lon="-2.9327500">
<ele>263.530060</ele>
<time>2010-06-22T11:24:18.999Z</time>
</trkpt>
<trkpt lat="43.1430800" lon="-2.9329600">
<ele>258.744720</ele>
<time>2010-06-22T11:24:32.003Z</time>
</trkpt>
<trkpt lat="43.1431700" lon="-2.9331100">
<ele>255.361435</ele>
<time>2010-06-22T11:24:41.999Z</time>
</trkpt>
<trkpt lat="43.1432900" lon="-2.9332400">
<ele>251.033279</ele>
<time>2010-06-22T11:24:58.000Z</time>
</trkpt>
<trkpt lat="43.1433500" lon="-2.9333800">
<ele>246.705124</ele>
<time>2010-06-22T11:25:06.001Z</time>
</trkpt>
<trkpt lat="43.1433900" lon="-2.9335300">
<ele>242.864639</ele>
<time>2010-06-22T11:25:14.002Z</time>
</trkpt>
<trkpt lat="43.1434500" lon="-2.9336600">
<ele>238.536469</ele>
<time>2010-06-22T11:25:23.998Z</time>
</trkpt>
<trkpt lat="43.1435100" lon="-2.9338200">
<ele>233.751129</ele>
<time>2010-06-22T11:25:34.997Z</time>
</trkpt>
<trkpt lat="43.1435700" lon="-2.9339400">
<ele>230.855530</ele>
<time>2010-06-22T11:25:44.000Z</time>
</trkpt>
<trkpt lat="43.1436600" lon="-2.9340300">
<ele>227.015030</ele>
<time>2010-06-22T11:25:53.003Z</time>
</trkpt>
<trkpt lat="43.1437800" lon="-2.9341100">
<ele>223.631760</ele>
<time>2010-06-22T11:26:02.999Z</time>
</trkpt>
<trkpt lat="43.1439000" lon="-2.9341600">
<ele>221.254333</ele>
<time>2010-06-22T11:26:13.998Z</time>
</trkpt>
<trkpt lat="43.1440100" lon="-2.9342000">
<ele>218.846405</ele>
<time>2010-06-22T11:26:21.998Z</time>
</trkpt>
<trkpt lat="43.1441200" lon="-2.9342700">
<ele>216.438477</ele>
<time>2010-06-22T11:26:31.001Z</time>
</trkpt>
<trkpt lat="43.1441900" lon="-2.9344000">
<ele>214.030563</ele>
<time>2010-06-22T11:26:40.004Z</time>
</trkpt>
<trkpt lat="43.1442400" lon="-2.9345500">
<ele>212.110321</ele>
<time>2010-06-22T11:26:51.003Z</time>
</trkpt>
<trkpt lat="43.1442400" lon="-2.9347800">
<ele>210.677765</ele>
<time>2010-06-22T11:26:59.997Z</time>
</trkpt>
<trkpt lat="43.1442600" lon="-2.9349500">
<ele>208.757523</ele>
<time>2010-06-22T11:27:09.000Z</time>
</trkpt>
<trkpt lat="43.1443300" lon="-2.9350700">
<ele>207.294479</ele>
<time>2010-06-22T11:27:18.996Z</time>
</trkpt>
<trkpt lat="43.1443900" lon="-2.9352000">
<ele>203.453995</ele>
<time>2010-06-22T11:27:29.002Z</time>
</trkpt>
<trkpt lat="43.1444300" lon="-2.9354200">
<ele>201.046066</ele>
<time>2010-06-22T11:27:38.998Z</time>
</trkpt>
<trkpt lat="43.1444900" lon="-2.9355600">
<ele>198.180969</ele>
<time>2010-06-22T11:27:48.001Z</time>
</trkpt>
<trkpt lat="43.1445100" lon="-2.9357600">
<ele>195.773041</ele>
<time>2010-06-22T11:27:57.997Z</time>
</trkpt>
<trkpt lat="43.1445100" lon="-2.9359600">
<ele>192.877441</ele>
<time>2010-06-22T11:28:07.000Z</time>
</trkpt>
<trkpt lat="43.1445300" lon="-2.9361100">
<ele>189.524643</ele>
<time>2010-06-22T11:28:16.003Z</time>
</trkpt>
<trkpt lat="43.1445600" lon="-2.9362500">
<ele>187.116730</ele>
<time>2010-06-22T11:28:26.000Z</time>
</trkpt>
<trkpt lat="43.1446100" lon="-2.9363700">
<ele>184.221130</ele>
<time>2010-06-22T11:28:35.996Z</time>
</trkpt>
<trkpt lat="43.1446700" lon="-2.9365100">
<ele>182.300873</ele>
<time>2010-06-22T11:28:43.997Z</time>
</trkpt>
<trkpt lat="43.1446300" lon="-2.9366800">
<ele>179.435760</ele>
<time>2010-06-22T11:28:53.000Z</time>
</trkpt>
<trkpt lat="43.1445500" lon="-2.9367600">
<ele>178.948074</ele>
<time>2010-06-22T11:29:06.003Z</time>
</trkpt>
<trkpt lat="43.1444600" lon="-2.9367000">
<ele>178.460403</ele>
<time>2010-06-22T11:29:13.001Z</time>
</trkpt>
<trkpt lat="43.1443900" lon="-2.9366400">
<ele>177.515533</ele>
<time>2010-06-22T11:29:18.997Z</time>
</trkpt>
<trkpt lat="43.1442900" lon="-2.9366100">
<ele>175.564804</ele>
<time>2010-06-22T11:29:25.996Z</time>
</trkpt>
<trkpt lat="43.1442100" lon="-2.9365600">
<ele>174.132233</ele>
<time>2010-06-22T11:29:32.001Z</time>
</trkpt>
<trkpt lat="43.1441100" lon="-2.9365100">
<ele>173.644562</ele>
<time>2010-06-22T11:29:38.999Z</time>
</trkpt>
<trkpt lat="43.1440100" lon="-2.9364500">
<ele>173.187363</ele>
<time>2010-06-22T11:29:45.997Z</time>
</trkpt>
<trkpt lat="43.1439000" lon="-2.9364400">
<ele>173.187363</ele>
<time>2010-06-22T11:29:52.996Z</time>
</trkpt>
<trkpt lat="43.1438000" lon="-2.9364400">
<ele>173.187363</ele>
<time>2010-06-22T11:30:00.003Z</time>
</trkpt>
<trkpt lat="43.1437000" lon="-2.9364500">
<ele>174.132233</ele>
<time>2010-06-22T11:30:07.001Z</time>
</trkpt>
<trkpt lat="43.1435900" lon="-2.9364400">
<ele>173.644562</ele>
<time>2010-06-22T11:30:14.000Z</time>
</trkpt>
<trkpt lat="43.1434900" lon="-2.9364100">
<ele>172.699677</ele>
<time>2010-06-22T11:30:20.998Z</time>
</trkpt>
<trkpt lat="43.1433900" lon="-2.9363700">
<ele>170.291763</ele>
<time>2010-06-22T11:30:27.996Z</time>
</trkpt>
<trkpt lat="43.1432900" lon="-2.9363300">
<ele>168.371521</ele>
<time>2010-06-22T11:30:35.004Z</time>
</trkpt>
<trkpt lat="43.1432000" lon="-2.9362800">
<ele>166.451279</ele>
<time>2010-06-22T11:30:42.002Z</time>
</trkpt>
<trkpt lat="43.1431100" lon="-2.9362100">
<ele>164.531036</ele>
<time>2010-06-22T11:30:50.003Z</time>
</trkpt>
<trkpt lat="43.1430300" lon="-2.9361600">
<ele>161.635437</ele>
<time>2010-06-22T11:30:58.003Z</time>
</trkpt>
<trkpt lat="43.1429300" lon="-2.9361400">
<ele>158.739838</ele>
<time>2010-06-22T11:31:05.002Z</time>
</trkpt>
<trkpt lat="43.1428300" lon="-2.9361400">
<ele>157.307266</ele>
<time>2010-06-22T11:31:12.000Z</time>
</trkpt>
<trkpt lat="43.1427400" lon="-2.9361700">
<ele>155.387039</ele>
<time>2010-06-22T11:31:18.998Z</time>
</trkpt>
<trkpt lat="43.1426500" lon="-2.9361700">
<ele>152.491440</ele>
<time>2010-06-22T11:31:25.997Z</time>
</trkpt>
<trkpt lat="43.1425500" lon="-2.9361900">
<ele>150.571198</ele>
<time>2010-06-22T11:31:33.997Z</time>
</trkpt>
<trkpt lat="43.1424500" lon="-2.9362000">
<ele>147.706085</ele>
<time>2010-06-22T11:31:40.996Z</time>
</trkpt>
<trkpt lat="43.1423600" lon="-2.9361900">
<ele>144.322800</ele>
<time>2010-06-22T11:31:48.996Z</time>
</trkpt>
<trkpt lat="43.1422700" lon="-2.9361500">
<ele>142.890244</ele>
<time>2010-06-22T11:31:56.004Z</time>
</trkpt>
<trkpt lat="43.1421700" lon="-2.9361500">
<ele>142.402557</ele>
<time>2010-06-22T11:32:03.002Z</time>
</trkpt>
<trkpt lat="43.1420800" lon="-2.9361500">
<ele>141.945358</ele>
<time>2010-06-22T11:32:10.000Z</time>
</trkpt>
<trkpt lat="43.1419600" lon="-2.9361200">
<ele>141.457687</ele>
<time>2010-06-22T11:32:16.999Z</time>
</trkpt>
<trkpt lat="43.1418600" lon="-2.9361000">
<ele>140.970001</ele>
<time>2010-06-22T11:32:23.997Z</time>
</trkpt>
<trkpt lat="43.1417600" lon="-2.9360800">
<ele>140.482315</ele>
<time>2010-06-22T11:32:30.002Z</time>
</trkpt>
<trkpt lat="43.1416700" lon="-2.9360500">
<ele>139.994629</ele>
<time>2010-06-22T11:32:35.998Z</time>
</trkpt>
<trkpt lat="43.1415600" lon="-2.9360400">
<ele>139.049759</ele>
<time>2010-06-22T11:32:42.996Z</time>
</trkpt>
<trkpt lat="43.1414600" lon="-2.9360100">
<ele>138.074402</ele>
<time>2010-06-22T11:32:50.004Z</time>
</trkpt>
<trkpt lat="43.1413700" lon="-2.9359600">
<ele>136.641830</ele>
<time>2010-06-22T11:32:57.002Z</time>
</trkpt>
<trkpt lat="43.1412900" lon="-2.9358700">
<ele>135.696960</ele>
<time>2010-06-22T11:33:04.000Z</time>
</trkpt>
<trkpt lat="43.1412300" lon="-2.9357500">
<ele>134.721603</ele>
<time>2010-06-22T11:33:10.999Z</time>
</trkpt>
<trkpt lat="43.1411500" lon="-2.9357100">
<ele>132.801361</ele>
<time>2010-06-22T11:33:17.997Z</time>
</trkpt>
<trkpt lat="43.1411200" lon="-2.9358300">
<ele>132.313675</ele>
<time>2010-06-22T11:33:27.000Z</time>
</trkpt>
<trkpt lat="43.1411200" lon="-2.9359700">
<ele>130.881119</ele>
<time>2010-06-22T11:33:35.001Z</time>
</trkpt>
<trkpt lat="43.1411100" lon="-2.9360800">
<ele>130.393433</ele>
<time>2010-06-22T11:33:41.999Z</time>
</trkpt>
<trkpt lat="43.1411500" lon="-2.9362100">
<ele>130.393433</ele>
<time>2010-06-22T11:33:47.002Z</time>
</trkpt>
<trkpt lat="43.1411900" lon="-2.9363400">
<ele>130.393433</ele>
<time>2010-06-22T11:33:52.004Z</time>
</trkpt>
<trkpt lat="43.1412300" lon="-2.9364600">
<ele>130.393433</ele>
<time>2010-06-22T11:33:56.998Z</time>
</trkpt>
<trkpt lat="43.1412700" lon="-2.9365900">
<ele>130.393433</ele>
<time>2010-06-22T11:34:02.001Z</time>
</trkpt>
<trkpt lat="43.1409900" lon="-2.9371600">
<ele>130.393433</ele>
<time>2010-06-22T11:34:07.003Z</time>
</trkpt>
<trkpt lat="43.1410800" lon="-2.9374400">
<ele>129.905762</ele>
<time>2010-06-22T11:34:15.004Z</time>
</trkpt>
<trkpt lat="43.1409900" lon="-2.9372100">
<ele>129.905762</ele>
<time>2010-06-22T11:34:21.000Z</time>
</trkpt>
<trkpt lat="43.1408700" lon="-2.9370100">
<ele>130.393433</ele>
<time>2010-06-22T11:34:27.998Z</time>
</trkpt>
<trkpt lat="43.1407700" lon="-2.9370700">
<ele>130.881119</ele>
<time>2010-06-22T11:34:35.999Z</time>
</trkpt>
<trkpt lat="43.1406600" lon="-2.9371200">
<ele>131.826004</ele>
<time>2010-06-22T11:34:44.000Z</time>
</trkpt>
<trkpt lat="43.1405500" lon="-2.9371600">
<ele>132.313675</ele>
<time>2010-06-22T11:34:53.003Z</time>
</trkpt>
<trkpt lat="43.1404400" lon="-2.9371900">
<ele>132.801361</ele>
<time>2010-06-22T11:35:01.997Z</time>
</trkpt>
<trkpt lat="43.1403300" lon="-2.9372600">
<ele>132.801361</ele>
<time>2010-06-22T11:35:11.000Z</time>
</trkpt>
<trkpt lat="43.1402300" lon="-2.9373400">
<ele>133.746231</ele>
<time>2010-06-22T11:35:19.000Z</time>
</trkpt>
<trkpt lat="43.1401400" lon="-2.9374300">
<ele>134.233917</ele>
<time>2010-06-22T11:35:27.001Z</time>
</trkpt>
<trkpt lat="43.1400300" lon="-2.9375100">
<ele>134.721603</ele>
<time>2010-06-22T11:35:36.004Z</time>
</trkpt>
<trkpt lat="43.1399300" lon="-2.9376100">
<ele>134.721603</ele>
<time>2010-06-22T11:35:43.996Z</time>
</trkpt>
<trkpt lat="43.1398300" lon="-2.9377000">
<ele>134.721603</ele>
<time>2010-06-22T11:35:51.996Z</time>
</trkpt>
<trkpt lat="43.1397400" lon="-2.9377600">
<ele>134.721603</ele>
<time>2010-06-22T11:35:59.004Z</time>
</trkpt>
<trkpt lat="43.1396500" lon="-2.9378400">
<ele>135.209274</ele>
<time>2010-06-22T11:36:06.002Z</time>
</trkpt>
<trkpt lat="43.1395600" lon="-2.9379200">
<ele>135.209274</ele>
<time>2010-06-22T11:36:13.000Z</time>
</trkpt>
<trkpt lat="43.1394800" lon="-2.9380000">
<ele>135.209274</ele>
<time>2010-06-22T11:36:19.999Z</time>
</trkpt>
<trkpt lat="43.1393900" lon="-2.9380800">
<ele>135.209274</ele>
<time>2010-06-22T11:36:26.997Z</time>
</trkpt>
<trkpt lat="43.1393100" lon="-2.9381500">
<ele>135.209274</ele>
<time>2010-06-22T11:36:34.004Z</time>
</trkpt>
<trkpt lat="43.1392300" lon="-2.9382200">
<ele>135.209274</ele>
<time>2010-06-22T11:36:41.003Z</time>
</trkpt>
<trkpt lat="43.1391500" lon="-2.9383000">
<ele>135.209274</ele>
<time>2010-06-22T11:36:48.001Z</time>
</trkpt>
<trkpt lat="43.1390700" lon="-2.9383800">
<ele>135.696960</ele>
<time>2010-06-22T11:36:54.999Z</time>
</trkpt>
<trkpt lat="43.1389900" lon="-2.9384400">
<ele>135.209274</ele>
<time>2010-06-22T11:37:04.002Z</time>
</trkpt>
<trkpt lat="43.1389400" lon="-2.9385500">
<ele>135.696960</ele>
<time>2010-06-22T11:37:12.003Z</time>
</trkpt>
<trkpt lat="43.1389000" lon="-2.9386800">
<ele>135.209274</ele>
<time>2010-06-22T11:37:20.004Z</time>
</trkpt>
<trkpt lat="43.1388800" lon="-2.9388100">
<ele>135.209274</ele>
<time>2010-06-22T11:37:27.002Z</time>
</trkpt>
<trkpt lat="43.1388400" lon="-2.9389300">
<ele>135.209274</ele>
<time>2010-06-22T11:37:35.003Z</time>
</trkpt>
<trkpt lat="43.1387700" lon="-2.9390300">
<ele>135.209274</ele>
<time>2010-06-22T11:37:43.003Z</time>
</trkpt>
<trkpt lat="43.1386800" lon="-2.9391000">
<ele>135.209274</ele>
<time>2010-06-22T11:37:55.998Z</time>
</trkpt>
<trkpt lat="43.1386000" lon="-2.9391100">
<ele>135.696960</ele>
<time>2010-06-22T11:38:02.996Z</time>
</trkpt>
<trkpt lat="43.1385200" lon="-2.9390400">
<ele>135.209274</ele>
<time>2010-06-22T11:38:10.003Z</time>
</trkpt>
<trkpt lat="43.1384400" lon="-2.9390600">
<ele>135.696960</ele>
<time>2010-06-22T11:38:17.002Z</time>
</trkpt>
<trkpt lat="43.1383700" lon="-2.9391500">
<ele>137.129517</ele>
<time>2010-06-22T11:38:32.001Z</time>
</trkpt>
<trkpt lat="43.1383300" lon="-2.9392600">
<ele>139.049759</ele>
<time>2010-06-22T11:38:41.004Z</time>
</trkpt>
<trkpt lat="43.1382700" lon="-2.9393700">
<ele>139.537430</ele>
<time>2010-06-22T11:38:48.002Z</time>
</trkpt>
<trkpt lat="43.1382100" lon="-2.9394800">
<ele>139.994629</ele>
<time>2010-06-22T11:38:56.003Z</time>
</trkpt>
<trkpt lat="43.1381600" lon="-2.9395900">
<ele>139.537430</ele>
<time>2010-06-22T11:39:03.001Z</time>
</trkpt>
<trkpt lat="43.1382000" lon="-2.9397200">
<ele>139.994629</ele>
<time>2010-06-22T11:39:12.997Z</time>
</trkpt>
<trkpt lat="43.1383000" lon="-2.9398400">
<ele>141.945358</ele>
<time>2010-06-22T11:39:26.001Z</time>
</trkpt>
<trkpt lat="43.1383900" lon="-2.9399600">
<ele>144.322800</ele>
<time>2010-06-22T11:39:39.004Z</time>
</trkpt>
<trkpt lat="43.1384700" lon="-2.9401100">
<ele>147.218399</ele>
<time>2010-06-22T11:39:53.001Z</time>
</trkpt>
<trkpt lat="43.1385500" lon="-2.9402700">
<ele>150.113998</ele>
<time>2010-06-22T11:40:09.002Z</time>
</trkpt>
<trkpt lat="43.1386500" lon="-2.9404700">
<ele>153.954483</ele>
<time>2010-06-22T11:40:29.997Z</time>
</trkpt>
<trkpt lat="43.1387100" lon="-2.9406100">
<ele>156.362396</ele>
<time>2010-06-22T11:40:43.000Z</time>
</trkpt>
<trkpt lat="43.1387400" lon="-2.9407500">
<ele>158.282639</ele>
<time>2010-06-22T11:40:52.997Z</time>
</trkpt>
<trkpt lat="43.1387100" lon="-2.9409500">
<ele>159.715195</ele>
<time>2010-06-22T11:41:03.002Z</time>
</trkpt>
<trkpt lat="43.1386900" lon="-2.9410900">
<ele>162.123123</ele>
<time>2010-06-22T11:41:15.003Z</time>
</trkpt>
<trkpt lat="43.1386800" lon="-2.9412600">
<ele>164.988235</ele>
<time>2010-06-22T11:41:31.998Z</time>
</trkpt>
<trkpt lat="43.1386500" lon="-2.9414300">
<ele>168.371521</ele>
<time>2010-06-22T11:41:47.999Z</time>
</trkpt>
<trkpt lat="43.1386300" lon="-2.9416300">
<ele>171.724335</ele>
<time>2010-06-22T11:42:04.000Z</time>
</trkpt>
<trkpt lat="43.1386100" lon="-2.9418100">
<ele>175.564804</ele>
<time>2010-06-22T11:42:18.999Z</time>
</trkpt>
<trkpt lat="43.1386400" lon="-2.9421700">
<ele>180.380630</ele>
<time>2010-06-22T11:42:48.004Z</time>
</trkpt>
<trkpt lat="43.1387800" lon="-2.9422600">
<ele>180.380630</ele>
<time>2010-06-22T11:42:59.996Z</time>
</trkpt>
<trkpt lat="43.1388900" lon="-2.9423000">
<ele>181.813202</ele>
<time>2010-06-22T11:43:10.001Z</time>
</trkpt>
<trkpt lat="43.1390500" lon="-2.9422900">
<ele>183.763931</ele>
<time>2010-06-22T11:43:23.998Z</time>
</trkpt>
<trkpt lat="43.1391700" lon="-2.9422800">
<ele>184.708801</ele>
<time>2010-06-22T11:43:33.001Z</time>
</trkpt>
<trkpt lat="43.1392700" lon="-2.9423200">
<ele>184.708801</ele>
<time>2010-06-22T11:43:41.002Z</time>
</trkpt>
<trkpt lat="43.1393800" lon="-2.9423500">
<ele>185.684158</ele>
<time>2010-06-22T11:43:49.002Z</time>
</trkpt>
<trkpt lat="43.1395300" lon="-2.9423300">
<ele>188.061600</ele>
<time>2010-06-22T11:44:02.999Z</time>
</trkpt>
<trkpt lat="43.1396400" lon="-2.9422900">
<ele>189.524643</ele>
<time>2010-06-22T11:44:13.004Z</time>
</trkpt>
<trkpt lat="43.1397600" lon="-2.9422600">
<ele>190.957199</ele>
<time>2010-06-22T11:44:21.998Z</time>
</trkpt>
<trkpt lat="43.1398800" lon="-2.9422400">
<ele>190.957199</ele>
<time>2010-06-22T11:44:31.001Z</time>
</trkpt>
<trkpt lat="43.1399900" lon="-2.9422400">
<ele>190.957199</ele>
<time>2010-06-22T11:44:38.000Z</time>
</trkpt>
<trkpt lat="43.1400900" lon="-2.9422300">
<ele>191.932556</ele>
<time>2010-06-22T11:44:44.998Z</time>
</trkpt>
<trkpt lat="43.1402000" lon="-2.9421900">
<ele>192.389771</ele>
<time>2010-06-22T11:44:52.999Z</time>
</trkpt>
<trkpt lat="43.1403200" lon="-2.9421300">
<ele>193.852798</ele>
<time>2010-06-22T11:45:05.000Z</time>
</trkpt>
<trkpt lat="43.1404200" lon="-2.9421200">
<ele>195.773041</ele>
<time>2010-06-22T11:45:14.996Z</time>
</trkpt>
<trkpt lat="43.1405300" lon="-2.9421400">
<ele>196.717926</ele>
<time>2010-06-22T11:45:22.997Z</time>
</trkpt>
<trkpt lat="43.1406200" lon="-2.9421800">
<ele>196.717926</ele>
<time>2010-06-22T11:45:30.004Z</time>
</trkpt>
<trkpt lat="43.1407100" lon="-2.9422500">
<ele>197.205597</ele>
<time>2010-06-22T11:45:37.996Z</time>
</trkpt>
<trkpt lat="43.1407800" lon="-2.9423200">
<ele>197.693268</ele>
<time>2010-06-22T11:45:45.003Z</time>
</trkpt>
<trkpt lat="43.1408600" lon="-2.9424000">
<ele>197.693268</ele>
<time>2010-06-22T11:45:52.001Z</time>
</trkpt>
<trkpt lat="43.1409400" lon="-2.9425000">
<ele>197.205597</ele>
<time>2010-06-22T11:45:59.000Z</time>
</trkpt>
<trkpt lat="43.1410200" lon="-2.9425900">
<ele>197.693268</ele>
<time>2010-06-22T11:46:05.998Z</time>
</trkpt>
<trkpt lat="43.1410900" lon="-2.9426900">
<ele>198.180969</ele>
<time>2010-06-22T11:46:12.996Z</time>
</trkpt>
<trkpt lat="43.1411500" lon="-2.9427800">
<ele>198.638168</ele>
<time>2010-06-22T11:46:20.004Z</time>
</trkpt>
<trkpt lat="43.1412200" lon="-2.9428900">
<ele>199.613525</ele>
<time>2010-06-22T11:46:28.004Z</time>
</trkpt>
<trkpt lat="43.1412700" lon="-2.9430000">
<ele>200.101196</ele>
<time>2010-06-22T11:46:35.996Z</time>
</trkpt>
<trkpt lat="43.1413100" lon="-2.9431200">
<ele>200.101196</ele>
<time>2010-06-22T11:46:43.003Z</time>
</trkpt>
<trkpt lat="43.1413400" lon="-2.9432600">
<ele>201.533768</ele>
<time>2010-06-22T11:46:51.004Z</time>
</trkpt>
<trkpt lat="43.1413600" lon="-2.9433800">
<ele>201.533768</ele>
<time>2010-06-22T11:46:58.002Z</time>
</trkpt>
<trkpt lat="43.1413600" lon="-2.9435200">
<ele>202.021439</ele>
<time>2010-06-22T11:47:05.001Z</time>
</trkpt>
<trkpt lat="43.1413500" lon="-2.9436800">
<ele>202.509125</ele>
<time>2010-06-22T11:47:11.999Z</time>
</trkpt>
<trkpt lat="43.1413400" lon="-2.9438300">
<ele>202.021439</ele>
<time>2010-06-22T11:47:18.997Z</time>
</trkpt>
<trkpt lat="43.1413500" lon="-2.9439700">
<ele>203.453995</ele>
<time>2010-06-22T11:47:28.000Z</time>
</trkpt>
<trkpt lat="43.1414000" lon="-2.9440700">
<ele>203.453995</ele>
<time>2010-06-22T11:47:34.999Z</time>
</trkpt>
<trkpt lat="43.1414500" lon="-2.9441900">
<ele>203.941666</ele>
<time>2010-06-22T11:47:41.997Z</time>
</trkpt>
<trkpt lat="43.1415200" lon="-2.9443000">
<ele>204.429367</ele>
<time>2010-06-22T11:47:49.004Z</time>
</trkpt>
<trkpt lat="43.1416100" lon="-2.9443800">
<ele>204.886566</ele>
<time>2010-06-22T11:47:56.003Z</time>
</trkpt>
<trkpt lat="43.1417000" lon="-2.9444500">
<ele>204.429367</ele>
<time>2010-06-22T11:48:03.001Z</time>
</trkpt>
<trkpt lat="43.1418000" lon="-2.9444900">
<ele>204.429367</ele>
<time>2010-06-22T11:48:09.999Z</time>
</trkpt>
<trkpt lat="43.1418900" lon="-2.9445500">
<ele>204.429367</ele>
<time>2010-06-22T11:48:16.998Z</time>
</trkpt>
<trkpt lat="43.1419800" lon="-2.9445900">
<ele>204.429367</ele>
<time>2010-06-22T11:48:23.996Z</time>
</trkpt>
<trkpt lat="43.1420700" lon="-2.9446400">
<ele>204.886566</ele>
<time>2010-06-22T11:48:31.003Z</time>
</trkpt>
<trkpt lat="43.1421600" lon="-2.9447100">
<ele>204.886566</ele>
<time>2010-06-22T11:48:38.002Z</time>
</trkpt>
<trkpt lat="43.1422400" lon="-2.9447900">
<ele>204.886566</ele>
<time>2010-06-22T11:48:45.000Z</time>
</trkpt>
<trkpt lat="43.1423100" lon="-2.9449000">
<ele>204.886566</ele>
<time>2010-06-22T11:48:51.998Z</time>
</trkpt>
<trkpt lat="43.1423600" lon="-2.9450200">
<ele>204.886566</ele>
<time>2010-06-22T11:48:58.997Z</time>
</trkpt>
<trkpt lat="43.1424100" lon="-2.9451500">
<ele>204.429367</ele>
<time>2010-06-22T11:49:06.004Z</time>
</trkpt>
<trkpt lat="43.1424600" lon="-2.9452700">
<ele>203.453995</ele>
<time>2010-06-22T11:49:13.002Z</time>
</trkpt>
<trkpt lat="43.1424900" lon="-2.9454000">
<ele>202.509125</ele>
<time>2010-06-22T11:49:20.001Z</time>
</trkpt>
<trkpt lat="43.1425100" lon="-2.9455400">
<ele>201.533768</ele>
<time>2010-06-22T11:49:26.999Z</time>
</trkpt>
<trkpt lat="43.1425500" lon="-2.9456800">
<ele>199.613525</ele>
<time>2010-06-22T11:49:33.997Z</time>
</trkpt>
<trkpt lat="43.1425900" lon="-2.9458000">
<ele>198.638168</ele>
<time>2010-06-22T11:49:40.996Z</time>
</trkpt>
<trkpt lat="43.1426500" lon="-2.9459300">
<ele>196.717926</ele>
<time>2010-06-22T11:49:48.996Z</time>
</trkpt>
<trkpt lat="43.1426900" lon="-2.9460400">
<ele>194.797668</ele>
<time>2010-06-22T11:49:56.004Z</time>
</trkpt>
<trkpt lat="43.1427200" lon="-2.9462700">
<ele>193.365128</ele>
<time>2010-06-22T11:50:06.000Z</time>
</trkpt>
<trkpt lat="43.1426800" lon="-2.9464100">
<ele>193.852798</ele>
<time>2010-06-22T11:50:14.001Z</time>
</trkpt>
<trkpt lat="43.1426300" lon="-2.9465400">
<ele>194.797668</ele>
<time>2010-06-22T11:50:22.001Z</time>
</trkpt>
<trkpt lat="43.1426100" lon="-2.9466700">
<ele>194.309998</ele>
<time>2010-06-22T11:50:29.000Z</time>
</trkpt>
<trkpt lat="43.1425900" lon="-2.9468000">
<ele>194.309998</ele>
<time>2010-06-22T11:50:35.998Z</time>
</trkpt>
<trkpt lat="43.1425500" lon="-2.9469200">
<ele>193.365128</ele>
<time>2010-06-22T11:50:42.996Z</time>
</trkpt>
<trkpt lat="43.1425400" lon="-2.9470500">
<ele>193.852798</ele>
<time>2010-06-22T11:50:50.997Z</time>
</trkpt>
<trkpt lat="43.1425400" lon="-2.9471900">
<ele>193.852798</ele>
<time>2010-06-22T11:51:01.002Z</time>
</trkpt>
<trkpt lat="43.1425400" lon="-2.9473200">
<ele>193.365128</ele>
<time>2010-06-22T11:51:09.003Z</time>
</trkpt>
<trkpt lat="43.1425700" lon="-2.9474200">
<ele>192.389771</ele>
<time>2010-06-22T11:51:21.004Z</time>
</trkpt>
<trkpt lat="43.1425200" lon="-2.9474900">
<ele>192.389771</ele>
<time>2010-06-22T11:51:36.003Z</time>
</trkpt>
<trkpt lat="43.1425300" lon="-2.9476300">
<ele>192.389771</ele>
<time>2010-06-22T11:51:44.004Z</time>
</trkpt>
<trkpt lat="43.1425300" lon="-2.9477700">
<ele>191.444870</ele>
<time>2010-06-22T11:51:51.002Z</time>
</trkpt>
<trkpt lat="43.1425400" lon="-2.9479100">
<ele>190.957199</ele>
<time>2010-06-22T11:51:58.000Z</time>
</trkpt>
<trkpt lat="43.1425600" lon="-2.9480500">
<ele>190.012329</ele>
<time>2010-06-22T11:52:04.999Z</time>
</trkpt>
<trkpt lat="43.1426000" lon="-2.9481800">
<ele>188.549271</ele>
<time>2010-06-22T11:52:11.997Z</time>
</trkpt>
<trkpt lat="43.1426400" lon="-2.9483000">
<ele>188.061600</ele>
<time>2010-06-22T11:52:19.004Z</time>
</trkpt>
<trkpt lat="43.1426900" lon="-2.9484200">
<ele>187.116730</ele>
<time>2010-06-22T11:52:26.003Z</time>
</trkpt>
<trkpt lat="43.1427200" lon="-2.9485500">
<ele>185.684158</ele>
<time>2010-06-22T11:52:33.001Z</time>
</trkpt>
<trkpt lat="43.1427300" lon="-2.9486900">
<ele>184.708801</ele>
<time>2010-06-22T11:52:39.999Z</time>
</trkpt>
<trkpt lat="43.1426600" lon="-2.9487800">
<ele>184.708801</ele>
<time>2010-06-22T11:52:46.998Z</time>
</trkpt>
<trkpt lat="43.1425600" lon="-2.9487800">
<ele>183.276230</ele>
<time>2010-06-22T11:52:53.996Z</time>
</trkpt>
<trkpt lat="43.1424600" lon="-2.9487600">
<ele>181.813202</ele>
<time>2010-06-22T11:53:01.003Z</time>
</trkpt>
<trkpt lat="43.1423500" lon="-2.9487400">
<ele>180.380630</ele>
<time>2010-06-22T11:53:08.002Z</time>
</trkpt>
<trkpt lat="43.1422500" lon="-2.9487300">
<ele>179.435760</ele>
<time>2010-06-22T11:53:15.000Z</time>
</trkpt>
<trkpt lat="43.1421600" lon="-2.9487500">
<ele>178.948074</ele>
<time>2010-06-22T11:53:21.998Z</time>
</trkpt>
<trkpt lat="43.1420500" lon="-2.9487700">
<ele>177.515533</ele>
<time>2010-06-22T11:53:28.997Z</time>
</trkpt>
<trkpt lat="43.1419400" lon="-2.9487600">
<ele>176.052475</ele>
<time>2010-06-22T11:53:36.004Z</time>
</trkpt>
<trkpt lat="43.1418300" lon="-2.9487500">
<ele>173.644562</ele>
<time>2010-06-22T11:53:43.002Z</time>
</trkpt>
<trkpt lat="43.1417200" lon="-2.9487600">
<ele>172.699677</ele>
<time>2010-06-22T11:53:50.001Z</time>
</trkpt>
<trkpt lat="43.1416400" lon="-2.9488300">
<ele>171.724335</ele>
<time>2010-06-22T11:53:55.997Z</time>
</trkpt>
<trkpt lat="43.1416400" lon="-2.9489700">
<ele>171.724335</ele>
<time>2010-06-22T11:54:03.997Z</time>
</trkpt>
<trkpt lat="43.1417100" lon="-2.9491100">
<ele>173.187363</ele>
<time>2010-06-22T11:54:14.003Z</time>
</trkpt>
<trkpt lat="43.1417600" lon="-2.9492800">
<ele>174.619934</ele>
<time>2010-06-22T11:54:22.003Z</time>
</trkpt>
<trkpt lat="43.1418000" lon="-2.9494400">
<ele>175.564804</ele>
<time>2010-06-22T11:54:30.004Z</time>
</trkpt>
<trkpt lat="43.1418700" lon="-2.9496100">
<ele>177.027832</ele>
<time>2010-06-22T11:54:41.996Z</time>
</trkpt>
<trkpt lat="43.1419300" lon="-2.9497800">
<ele>179.892960</ele>
<time>2010-06-22T11:54:57.004Z</time>
</trkpt>
<trkpt lat="43.1419800" lon="-2.9499100">
<ele>181.813202</ele>
<time>2010-06-22T11:55:11.001Z</time>
</trkpt>
<trkpt lat="43.1419900" lon="-2.9500900">
<ele>182.788559</ele>
<time>2010-06-22T11:55:21.999Z</time>
</trkpt>
<trkpt lat="43.1419900" lon="-2.9502900">
<ele>184.708801</ele>
<time>2010-06-22T11:55:30.000Z</time>
</trkpt>
<trkpt lat="43.1419700" lon="-2.9505200">
<ele>185.684158</ele>
<time>2010-06-22T11:55:38.001Z</time>
</trkpt>
<trkpt lat="43.1419200" lon="-2.9506400">
<ele>186.629044</ele>
<time>2010-06-22T11:55:44.999Z</time>
</trkpt>
<trkpt lat="43.1418000" lon="-2.9507200">
<ele>187.604401</ele>
<time>2010-06-22T11:55:53.000Z</time>
</trkpt>
<trkpt lat="43.1417000" lon="-2.9507300">
<ele>190.012329</ele>
<time>2010-06-22T11:56:01.000Z</time>
</trkpt>
<trkpt lat="43.1415900" lon="-2.9507200">
<ele>191.932556</ele>
<time>2010-06-22T11:56:10.003Z</time>
</trkpt>
<trkpt lat="43.1414700" lon="-2.9507100">
<ele>194.309998</ele>
<time>2010-06-22T11:56:20.000Z</time>
</trkpt>
<trkpt lat="43.1413500" lon="-2.9507000">
<ele>196.717926</ele>
<time>2010-06-22T11:56:29.003Z</time>
</trkpt>
<trkpt lat="43.1412200" lon="-2.9507300">
<ele>198.180969</ele>
<time>2010-06-22T11:56:38.999Z</time>
</trkpt>
<trkpt lat="43.1411000" lon="-2.9507200">
<ele>200.101196</ele>
<time>2010-06-22T11:56:49.004Z</time>
</trkpt>
<trkpt lat="43.1409800" lon="-2.9507200">
<ele>202.021439</ele>
<time>2010-06-22T11:56:57.998Z</time>
</trkpt>
<trkpt lat="43.1408500" lon="-2.9507300">
<ele>204.429367</ele>
<time>2010-06-22T11:57:08.004Z</time>
</trkpt>
<trkpt lat="43.1407200" lon="-2.9507500">
<ele>206.349594</ele>
<time>2010-06-22T11:57:18.000Z</time>
</trkpt>
<trkpt lat="43.1406100" lon="-2.9507600">
<ele>207.294479</ele>
<time>2010-06-22T11:57:26.001Z</time>
</trkpt>
<trkpt lat="43.1405000" lon="-2.9508000">
<ele>208.269836</ele>
<time>2010-06-22T11:57:34.001Z</time>
</trkpt>
<trkpt lat="43.1404300" lon="-2.9508900">
<ele>208.269836</ele>
<time>2010-06-22T11:57:41.000Z</time>
</trkpt>
<trkpt lat="43.1403700" lon="-2.9510000">
<ele>208.757523</ele>
<time>2010-06-22T11:57:47.998Z</time>
</trkpt>
<trkpt lat="43.1403100" lon="-2.9511000">
<ele>209.214722</ele>
<time>2010-06-22T11:57:54.996Z</time>
</trkpt>
<trkpt lat="43.1402400" lon="-2.9512000">
<ele>210.677765</ele>
<time>2010-06-22T11:58:02.004Z</time>
</trkpt>
<trkpt lat="43.1401700" lon="-2.9513000">
<ele>209.702393</ele>
<time>2010-06-22T11:58:10.004Z</time>
</trkpt>
<trkpt lat="43.1401000" lon="-2.9513900">
<ele>209.702393</ele>
<time>2010-06-22T11:58:17.003Z</time>
</trkpt>
<trkpt lat="43.1400300" lon="-2.9514800">
<ele>209.702393</ele>
<time>2010-06-22T11:58:22.999Z</time>
</trkpt>
<trkpt lat="43.1399600" lon="-2.9515700">
<ele>209.702393</ele>
<time>2010-06-22T11:58:29.004Z</time>
</trkpt>
<trkpt lat="43.1398700" lon="-2.9516600">
<ele>209.702393</ele>
<time>2010-06-22T11:58:36.002Z</time>
</trkpt>
<trkpt lat="43.1397800" lon="-2.9517400">
<ele>209.702393</ele>
<time>2010-06-22T11:58:43.000Z</time>
</trkpt>
<trkpt lat="43.1397100" lon="-2.9518200">
<ele>210.190079</ele>
<time>2010-06-22T11:58:48.996Z</time>
</trkpt>
<trkpt lat="43.1396200" lon="-2.9519000">
<ele>209.214722</ele>
<time>2010-06-22T11:58:56.004Z</time>
</trkpt>
<trkpt lat="43.1395400" lon="-2.9519800">
<ele>209.214722</ele>
<time>2010-06-22T11:59:03.002Z</time>
</trkpt>
<trkpt lat="43.1394500" lon="-2.9520600">
<ele>208.757523</ele>
<time>2010-06-22T11:59:10.000Z</time>
</trkpt>
<trkpt lat="43.1393600" lon="-2.9521200">
<ele>207.782166</ele>
<time>2010-06-22T11:59:16.999Z</time>
</trkpt>
<trkpt lat="43.1392700" lon="-2.9521900">
<ele>207.294479</ele>
<time>2010-06-22T11:59:23.997Z</time>
</trkpt>
<trkpt lat="43.1391700" lon="-2.9522500">
<ele>206.349594</ele>
<time>2010-06-22T11:59:31.004Z</time>
</trkpt>
<trkpt lat="43.1390900" lon="-2.9523100">
<ele>204.886566</ele>
<time>2010-06-22T11:59:37.000Z</time>
</trkpt>
<trkpt lat="43.1390000" lon="-2.9523700">
<ele>203.453995</ele>
<time>2010-06-22T11:59:43.999Z</time>
</trkpt>
<trkpt lat="43.1389000" lon="-2.9524200">
<ele>202.509125</ele>
<time>2010-06-22T11:59:50.997Z</time>
</trkpt>
<trkpt lat="43.1387900" lon="-2.9524400">
<ele>201.046066</ele>
<time>2010-06-22T11:59:58.004Z</time>
</trkpt>
<trkpt lat="43.1386700" lon="-2.9524500">
<ele>198.638168</ele>
<time>2010-06-22T12:00:05.996Z</time>
</trkpt>
<trkpt lat="43.1385600" lon="-2.9524200">
<ele>197.693268</ele>
<time>2010-06-22T12:00:13.997Z</time>
</trkpt>
<trkpt lat="43.1384500" lon="-2.9524000">
<ele>196.260727</ele>
<time>2010-06-22T12:00:21.997Z</time>
</trkpt>
<trkpt lat="43.1383500" lon="-2.9523500">
<ele>194.309998</ele>
<time>2010-06-22T12:00:29.998Z</time>
</trkpt>
<trkpt lat="43.1382400" lon="-2.9523400">
<ele>192.877441</ele>
<time>2010-06-22T12:00:37.999Z</time>
</trkpt>
<trkpt lat="43.1381200" lon="-2.9523600">
<ele>190.957199</ele>
<time>2010-06-22T12:00:48.004Z</time>
</trkpt>
<trkpt lat="43.1380500" lon="-2.9524800">
<ele>189.524643</ele>
<time>2010-06-22T12:00:55.996Z</time>
</trkpt>
<trkpt lat="43.1380100" lon="-2.9526100">
<ele>188.061600</ele>
<time>2010-06-22T12:01:03.003Z</time>
</trkpt>
<trkpt lat="43.1380000" lon="-2.9527400">
<ele>186.141357</ele>
<time>2010-06-22T12:01:11.004Z</time>
</trkpt>
<trkpt lat="43.1380500" lon="-2.9528800">
<ele>185.196472</ele>
<time>2010-06-22T12:01:19.004Z</time>
</trkpt>
<trkpt lat="43.1381100" lon="-2.9530000">
<ele>183.276230</ele>
<time>2010-06-22T12:01:26.996Z</time>
</trkpt>
<trkpt lat="43.1381800" lon="-2.9531300">
<ele>181.813202</ele>
<time>2010-06-22T12:01:34.997Z</time>
</trkpt>
<trkpt lat="43.1382600" lon="-2.9532200">
<ele>180.868332</ele>
<time>2010-06-22T12:01:42.004Z</time>
</trkpt>
<trkpt lat="43.1383400" lon="-2.9533000">
<ele>179.892960</ele>
<time>2010-06-22T12:01:49.002Z</time>
</trkpt>
<trkpt lat="43.1384200" lon="-2.9533900">
<ele>178.948074</ele>
<time>2010-06-22T12:01:56.001Z</time>
</trkpt>
<trkpt lat="43.1384900" lon="-2.9534900">
<ele>177.972733</ele>
<time>2010-06-22T12:02:01.997Z</time>
</trkpt>
<trkpt lat="43.1385600" lon="-2.9535900">
<ele>177.027832</ele>
<time>2010-06-22T12:02:09.997Z</time>
</trkpt>
<trkpt lat="43.1387800" lon="-2.9538400">
<ele>175.564804</ele>
<time>2010-06-22T12:02:31.001Z</time>
</trkpt>
<trkpt lat="43.1388600" lon="-2.9539800">
<ele>175.107605</ele>
<time>2010-06-22T12:02:38.000Z</time>
</trkpt>
<trkpt lat="43.1389500" lon="-2.9540800">
<ele>174.619934</ele>
<time>2010-06-22T12:02:44.998Z</time>
</trkpt>
<trkpt lat="43.1390300" lon="-2.9541700">
<ele>173.644562</ele>
<time>2010-06-22T12:02:52.999Z</time>
</trkpt>
<trkpt lat="43.1391200" lon="-2.9542700">
<ele>173.187363</ele>
<time>2010-06-22T12:03:00.999Z</time>
</trkpt>
<trkpt lat="43.1392000" lon="-2.9543800">
<ele>171.724335</ele>
<time>2010-06-22T12:03:07.998Z</time>
</trkpt>
<trkpt lat="43.1392700" lon="-2.9545100">
<ele>170.779434</ele>
<time>2010-06-22T12:03:14.996Z</time>
</trkpt>
<trkpt lat="43.1393800" lon="-2.9546700">
<ele>170.291763</ele>
<time>2010-06-22T12:03:26.004Z</time>
</trkpt>
<trkpt lat="43.1394600" lon="-2.9547700">
<ele>168.859207</ele>
<time>2010-06-22T12:03:33.002Z</time>
</trkpt>
<trkpt lat="43.1395400" lon="-2.9548800">
<ele>167.883835</ele>
<time>2010-06-22T12:03:41.003Z</time>
</trkpt>
<trkpt lat="43.1396100" lon="-2.9549900">
<ele>166.938965</ele>
<time>2010-06-22T12:03:49.003Z</time>
</trkpt>
<trkpt lat="43.1396900" lon="-2.9550900">
<ele>165.963593</ele>
<time>2010-06-22T12:03:57.004Z</time>
</trkpt>
<trkpt lat="43.1397600" lon="-2.9551900">
<ele>165.963593</ele>
<time>2010-06-22T12:04:04.002Z</time>
</trkpt>
<trkpt lat="43.1398400" lon="-2.9552900">
<ele>164.531036</ele>
<time>2010-06-22T12:04:11.001Z</time>
</trkpt>
<trkpt lat="43.1399200" lon="-2.9553900">
<ele>163.555679</ele>
<time>2010-06-22T12:04:17.999Z</time>
</trkpt>
<trkpt lat="43.1399800" lon="-2.9554900">
<ele>162.610794</ele>
<time>2010-06-22T12:04:24.997Z</time>
</trkpt>
<trkpt lat="43.1400500" lon="-2.9555900">
<ele>162.123123</ele>
<time>2010-06-22T12:04:31.996Z</time>
</trkpt>
<trkpt lat="43.1401200" lon="-2.9556700">
<ele>160.690567</ele>
<time>2010-06-22T12:04:39.003Z</time>
</trkpt>
<trkpt lat="43.1402000" lon="-2.9557400">
<ele>160.690567</ele>
<time>2010-06-22T12:04:47.004Z</time>
</trkpt>
<trkpt lat="43.1402800" lon="-2.9558300">
<ele>159.227524</ele>
<time>2010-06-22T12:04:54.002Z</time>
</trkpt>
<trkpt lat="43.1403600" lon="-2.9559000">
<ele>158.739838</ele>
<time>2010-06-22T12:05:01.000Z</time>
</trkpt>
<trkpt lat="43.1404400" lon="-2.9559800">
<ele>157.794968</ele>
<time>2010-06-22T12:05:07.999Z</time>
</trkpt>
<trkpt lat="43.1405200" lon="-2.9560700">
<ele>156.362396</ele>
<time>2010-06-22T12:05:14.997Z</time>
</trkpt>
<trkpt lat="43.1406000" lon="-2.9561500">
<ele>155.874725</ele>
<time>2010-06-22T12:05:22.004Z</time>
</trkpt>
<trkpt lat="43.1406800" lon="-2.9562500">
<ele>154.899368</ele>
<time>2010-06-22T12:05:29.003Z</time>
</trkpt>
<trkpt lat="43.1407600" lon="-2.9563400">
<ele>154.899368</ele>
<time>2010-06-22T12:05:34.999Z</time>
</trkpt>
<trkpt lat="43.1408300" lon="-2.9564200">
<ele>154.442169</ele>
<time>2010-06-22T12:05:41.004Z</time>
</trkpt>
<trkpt lat="43.1409100" lon="-2.9565000">
<ele>153.954483</ele>
<time>2010-06-22T12:05:48.002Z</time>
</trkpt>
<trkpt lat="43.1410000" lon="-2.9564800">
<ele>152.979111</ele>
<time>2010-06-22T12:05:55.000Z</time>
</trkpt>
<trkpt lat="43.1410300" lon="-2.9565900">
<ele>152.491440</ele>
<time>2010-06-22T12:06:03.001Z</time>
</trkpt>
<trkpt lat="43.1410600" lon="-2.9567100">
<ele>152.491440</ele>
<time>2010-06-22T12:06:15.002Z</time>
</trkpt>
<trkpt lat="43.1411000" lon="-2.9567700">
<ele>151.546570</ele>
<time>2010-06-22T12:06:45.000Z</time>
</trkpt>
<trkpt lat="43.1411800" lon="-2.9568700">
<ele>152.491440</ele>
<time>2010-06-22T12:06:54.003Z</time>
</trkpt>
<trkpt lat="43.1412800" lon="-2.9568900">
<ele>152.034241</ele>
<time>2010-06-22T12:07:01.001Z</time>
</trkpt>
<trkpt lat="43.1414100" lon="-2.9569900">
<ele>151.546570</ele>
<time>2010-06-22T12:07:08.000Z</time>
</trkpt>
<trkpt lat="43.1414900" lon="-2.9570600">
<ele>151.058884</ele>
<time>2010-06-22T12:07:14.998Z</time>
</trkpt>
<trkpt lat="43.1415600" lon="-2.9571500">
<ele>150.571198</ele>
<time>2010-06-22T12:07:21.996Z</time>
</trkpt>
<trkpt lat="43.1416400" lon="-2.9572400">
<ele>150.571198</ele>
<time>2010-06-22T12:07:29.004Z</time>
</trkpt>
<trkpt lat="43.1417200" lon="-2.9573200">
<ele>150.571198</ele>
<time>2010-06-22T12:07:36.002Z</time>
</trkpt>
<trkpt lat="43.1418100" lon="-2.9574100">
<ele>150.113998</ele>
<time>2010-06-22T12:07:43.000Z</time>
</trkpt>
<trkpt lat="43.1419200" lon="-2.9575300">
<ele>150.113998</ele>
<time>2010-06-22T12:07:51.001Z</time>
</trkpt>
<trkpt lat="43.1419500" lon="-2.9576200">
<ele>149.626312</ele>
<time>2010-06-22T12:08:00.004Z</time>
</trkpt>
<trkpt lat="43.1420500" lon="-2.9577200">
<ele>148.650970</ele>
<time>2010-06-22T12:08:08.998Z</time>
</trkpt>
<trkpt lat="43.1421400" lon="-2.9577800">
<ele>148.650970</ele>
<time>2010-06-22T12:08:19.997Z</time>
</trkpt>
<trkpt lat="43.1421900" lon="-2.9579100">
<ele>147.706085</ele>
<time>2010-06-22T12:08:33.000Z</time>
</trkpt>
<trkpt lat="43.1423600" lon="-2.9580400">
<ele>146.730713</ele>
<time>2010-06-22T12:08:43.999Z</time>
</trkpt>
<trkpt lat="43.1424900" lon="-2.9582400">
<ele>145.298157</ele>
<time>2010-06-22T12:08:54.997Z</time>
</trkpt>
<trkpt lat="43.1425900" lon="-2.9583900">
<ele>144.810486</ele>
<time>2010-06-22T12:09:05.003Z</time>
</trkpt>
<trkpt lat="43.1425500" lon="-2.9585000">
<ele>144.810486</ele>
<time>2010-06-22T12:09:13.003Z</time>
</trkpt>
<trkpt lat="43.1425400" lon="-2.9586600">
<ele>144.322800</ele>
<time>2010-06-22T12:09:20.002Z</time>
</trkpt>
<trkpt lat="43.1424900" lon="-2.9587900">
<ele>143.377914</ele>
<time>2010-06-22T12:09:27.000Z</time>
</trkpt>
<trkpt lat="43.1424400" lon="-2.9589200">
<ele>142.890244</ele>
<time>2010-06-22T12:09:33.998Z</time>
</trkpt>
<trkpt lat="43.1423500" lon="-2.9590700">
<ele>143.377914</ele>
<time>2010-06-22T12:09:40.997Z</time>
</trkpt>
<trkpt lat="43.1422800" lon="-2.9592000">
<ele>142.890244</ele>
<time>2010-06-22T12:09:48.004Z</time>
</trkpt>
<trkpt lat="43.1422300" lon="-2.9593400">
<ele>141.945358</ele>
<time>2010-06-22T12:09:55.002Z</time>
</trkpt>
<trkpt lat="43.1421200" lon="-2.9594100">
<ele>142.402557</ele>
<time>2010-06-22T12:10:02.001Z</time>
</trkpt>
<trkpt lat="43.1420000" lon="-2.9595500">
<ele>141.457687</ele>
<time>2010-06-22T12:10:10.001Z</time>
</trkpt>
<trkpt lat="43.1418900" lon="-2.9596600">
<ele>141.457687</ele>
<time>2010-06-22T12:10:17.000Z</time>
</trkpt>
<trkpt lat="43.1418300" lon="-2.9596900">
<ele>141.457687</ele>
<time>2010-06-22T12:10:23.998Z</time>
</trkpt>
<trkpt lat="43.1417800" lon="-2.9597500">
<ele>140.970001</ele>
<time>2010-06-22T12:10:30.996Z</time>
</trkpt>
<trkpt lat="43.1417300" lon="-2.9598400">
<ele>140.482315</ele>
<time>2010-06-22T12:10:38.997Z</time>
</trkpt>
<trkpt lat="43.1416900" lon="-2.9599500">
<ele>140.482315</ele>
<time>2010-06-22T12:10:46.998Z</time>
</trkpt>
<trkpt lat="43.1417200" lon="-2.9601200">
<ele>139.049759</ele>
<time>2010-06-22T12:10:56.001Z</time>
</trkpt>
<trkpt lat="43.1417900" lon="-2.9602700">
<ele>136.154160</ele>
<time>2010-06-22T12:11:13.004Z</time>
</trkpt>
<trkpt lat="43.1419600" lon="-2.9605000">
<ele>131.826004</ele>
<time>2010-06-22T12:11:38.000Z</time>
</trkpt>
<trkpt lat="43.1420600" lon="-2.9606100">
<ele>131.368805</ele>
<time>2010-06-22T12:11:42.000Z</time>
</trkpt>
<trkpt lat="43.1421400" lon="-2.9607000">
<ele>131.368805</ele>
<time>2010-06-22T12:11:46.000Z</time>
</trkpt>
<trkpt lat="43.1422100" lon="-2.9607900">
<ele>131.368805</ele>
<time>2010-06-22T12:11:50.001Z</time>
</trkpt>
<trkpt lat="43.1422800" lon="-2.9608800">
<ele>131.368805</ele>
<time>2010-06-22T12:11:54.001Z</time>
</trkpt>
<trkpt lat="43.1422400" lon="-2.9610000">
<ele>131.368805</ele>
<time>2010-06-22T12:11:59.997Z</time>
</trkpt>
<trkpt lat="43.1422200" lon="-2.9610600">
<ele>132.313675</ele>
<time>2010-06-22T12:12:09.000Z</time>
</trkpt>
<trkpt lat="43.1423100" lon="-2.9611100">
<ele>132.801361</ele>
<time>2010-06-22T12:12:18.996Z</time>
</trkpt>
<trkpt lat="43.1423500" lon="-2.9611600">
<ele>132.313675</ele>
<time>2010-06-22T12:12:44.001Z</time>
</trkpt>
<trkpt lat="43.1422300" lon="-2.9610900">
<ele>130.881119</ele>
<time>2010-06-22T12:13:27.002Z</time>
</trkpt>
<trkpt lat="43.1421900" lon="-2.9610100">
<ele>130.881119</ele>
<time>2010-06-22T12:14:10.997Z</time>
</trkpt>
<trkpt lat="43.1423000" lon="-2.9610800">
<ele>130.393433</ele>
<time>2010-06-22T12:14:18.997Z</time>
</trkpt>
<trkpt lat="43.1423100" lon="-2.9611000">
<ele>129.905762</ele>
<time>2010-06-22T12:14:22.998Z</time>
</trkpt>
<trkpt lat="43.1424200" lon="-2.9611500">
<ele>129.905762</ele>
<time>2010-06-22T12:14:29.003Z</time>
</trkpt>
<trkpt lat="43.1422800" lon="-2.9610100">
<ele>129.448563</ele>
<time>2010-06-22T12:15:11.002Z</time>
</trkpt>
<trkpt lat="43.1423600" lon="-2.9609900">
<ele>128.960876</ele>
<time>2010-06-22T12:15:22.000Z</time>
</trkpt>
<trkpt lat="43.1424100" lon="-2.9610100">
<ele>129.448563</ele>
<time>2010-06-22T12:15:32.999Z</time>
</trkpt>
<trkpt lat="43.1425600" lon="-2.9610800">
<ele>129.448563</ele>
<time>2010-06-22T12:15:45.000Z</time>
</trkpt>
<trkpt lat="43.1423700" lon="-2.9611100">
<ele>130.881119</ele>
<time>2010-06-22T12:16:29.004Z</time>
</trkpt>
<trkpt lat="43.1424700" lon="-2.9610800">
<ele>130.881119</ele>
<time>2010-06-22T12:16:37.998Z</time>
</trkpt>
<trkpt lat="43.1425300" lon="-2.9610900">
<ele>131.368805</ele>
<time>2010-06-22T12:16:47.001Z</time>
</trkpt>
<trkpt lat="43.1426100" lon="-2.9612100">
<ele>131.368805</ele>
<time>2010-06-22T12:16:56.004Z</time>
</trkpt>
<trkpt lat="43.1426600" lon="-2.9613200">
<ele>130.881119</ele>
<time>2010-06-22T12:17:04.998Z</time>
</trkpt>
<trkpt lat="43.1427200" lon="-2.9614600">
<ele>130.881119</ele>
<time>2010-06-22T12:17:15.003Z</time>
</trkpt>
<trkpt lat="43.1428200" lon="-2.9616000">
<ele>130.393433</ele>
<time>2010-06-22T12:17:23.997Z</time>
</trkpt>
<trkpt lat="43.1428800" lon="-2.9615500">
<ele>131.368805</ele>
<time>2010-06-22T12:17:31.998Z</time>
</trkpt>
<trkpt lat="43.1430200" lon="-2.9614500">
<ele>131.368805</ele>
<time>2010-06-22T12:17:42.003Z</time>
</trkpt>
<trkpt lat="43.1431400" lon="-2.9615000">
<ele>131.368805</ele>
<time>2010-06-22T12:17:50.004Z</time>
</trkpt>
<trkpt lat="43.1432400" lon="-2.9615100">
<ele>131.826004</ele>
<time>2010-06-22T12:17:57.002Z</time>
</trkpt>
<trkpt lat="43.1433500" lon="-2.9615200">
<ele>131.826004</ele>
<time>2010-06-22T12:18:06.998Z</time>
</trkpt>
</trkseg>
<trkseg>
<trkpt lat="43.1433500" lon="-2.9615200">
<ele>142.402557</ele>
<time>2010-06-22T18:36:47.002Z</time>
</trkpt>
</trkseg>
<trkseg>
<trkpt lat="43.1433500" lon="-2.9615200">
<ele>115.976402</ele>
<time>2010-06-22T18:37:11.004Z</time>
</trkpt>
</trkseg>
</trk>
</gpx>
